# Wetter Temperatur Luftdruck Luftfeuchtigkeit Sichtweite Windgeschwindigkeit Windrichtung Zeit
1 Clouds 19 1015 68 10000 2.06 120 11:45 22.04.2021
2 Clouds 19 1015 68 10000 2.06 120 11:23 22.04.2021
3 Clouds 18 1015 68 8000 2.06 80 10:46 22.04.2021
4 Clouds 17 1015 68 8000 2.06 80 10:24 22.04.2021
5 Clouds 15 1015 82 8000 1.03 120 09:47 22.04.2021
6 Clear 11 1015 93 10000 1.03 0 09:24 22.04.2021
7 Clouds 10 1015 93 10000 1.54 230 08:39 22.04.2021
8 Clouds 10 1015 93 10000 1.54 230 08:21 22.04.2021
9 Clouds 9 1014 100 10000 1.03 220 07:45 22.04.2021
10 Clouds 10 1015 93 10000 1.03 0 07:24 22.04.2021
11 Clouds 13 1015 93 10000 1.31 154 06:32 22.04.2021
12 Clouds 14 1015 93 10000 1.54 170 05:26 22.04.2021
13 Clouds 14 1015 93 10000 0.51 250 04:56 22.04.2021
14 Clouds 13 1016 88 10000 1.54 50 01:23 22.04.2021
15 Clouds 15 1016 77 10000 2.06 50 23:53 21.04.2021
16 Clouds 15 1016 77 10000 3.09 20 23:32 21.04.2021
17 Drizzle 15 1016 77 10000 2.57 20 22:44 21.04.2021
18 Clouds 16 1014 68 10000 4.12 20 22:24 21.04.2021
19 Clouds 17 1014 68 10000 4.12 20 21:50 21.04.2021
20 Clouds 18 1014 68 10000 4.12 20 21:25 21.04.2021
21 Clouds 18 1014 68 10000 4.12 20 20:59 21.04.2021
22 Clouds 18 1014 68 10000 4.12 20 20:59 21.04.2021
23 Clouds 18 1014 68 10000 4.12 20 20:21 21.04.2021
24 Clear 19 1014 59 10000 6.17 20 19:44 21.04.2021
25 Clear 19 1014 59 10000 6.17 20 19:25 21.04.2021
26 Clear 19 1014 59 10000 6.17 20 19:25 21.04.2021
27 Clear 20 1014 56 10000 5.14 20 18:46 21.04.2021
28 Clear 21 1014 56 10000 5.14 20 18:28 21.04.2021
29 Clear 21 1014 60 10000 8.23 360 17:49 21.04.2021
30 Clear 21 1014 60 10000 8.23 360 17:25 21.04.2021
31 Clear 21 1014 60 10000 8.23 360 17:25 21.04.2021
32 Clear 21 1014 56 10000 6.17 360 16:55 21.04.2021
33 Clear 20 1014 56 10000 6.17 360 16:23 21.04.2021
34 Clouds 21 1015 49 10000 6.17 360 15:42 21.04.2021
35 Clouds 21 1015 49 10000 6.17 360 15:18 21.04.2021
36 Clouds 21 1016 56 10000 5.14 340 14:42 21.04.2021
37 Clouds 21 1016 56 10000 5.14 340 14:22 21.04.2021
38 Clouds 20 1016 60 10000 2.06 320 13:44 21.04.2021
39 Clouds 20 1016 60 10000 2.06 320 13:21 21.04.2021
40 Clouds 19 1016 64 10000 5.14 320 12:32 21.04.2021
41 Clouds 20 1016 60 10000 3.09 180 11:50 21.04.2021
42 Clouds 19 1016 60 10000 3.09 180 11:32 21.04.2021
43 Clouds 17 1016 82 10000 3.09 180 10:57 21.04.2021
44 Clouds 16 1016 82 10000 3.09 180 10:36 21.04.2021
45 Clouds 15 1015 82 10000 2.06 180 09:54 21.04.2021
46 Clouds 14 1015 82 10000 2.06 180 09:20 21.04.2021
47 Clouds 11 1015 93 8000 1.03 310 08:41 21.04.2021
48 Clouds 12 1015 93 8000 0.51 0 08:22 21.04.2021
49 Clouds 13 1014 94 8000 1.03 120 07:32 21.04.2021
50 Clouds 11 1015 87 8000 0.51 0 06:59 21.04.2021
51 Clouds 14 1015 93 6000 2.06 120 05:26 21.04.2021
52 Clouds 15 1017 82 10000 2.57 40 01:33 21.04.2021
53 Clouds 16 1017 77 10000 3.09 30 23:59 20.04.2021
54 Clouds 16 1017 77 10000 3.09 30 23:32 20.04.2021
55 Clouds 16 1016 77 10000 2.06 40 22:42 20.04.2021
56 Clouds 17 1016 68 10000 4.12 20 22:23 20.04.2021
57 Clouds 17 1016 68 10000 4.12 20 21:47 20.04.2021
58 Clouds 18 1016 68 10000 4.12 20 21:27 20.04.2021
59 Clouds 19 1016 63 10000 7.2 20 20:57 20.04.2021
60 Clouds 19 1016 63 10000 7.2 20 20:38 20.04.2021
61 Clouds 19 1016 63 10000 7.2 20 20:38 20.04.2021
62 Clouds 19 1016 63 10000 7.2 20 20:18 20.04.2021
63 Clouds 20 1015 60 10000 6.17 20 19:42 20.04.2021
64 Clouds 20 1015 60 10000 6.17 20 19:24 20.04.2021
65 Clouds 20 1015 64 10000 9.26 20 18:39 20.04.2021
66 Clouds 21 1016 60 10000 6.69 40 17:55 20.04.2021
67 Clouds 21 1016 60 10000 6.69 40 17:37 20.04.2021
68 Clouds 21 1016 60 10000 5.66 360 16:50 20.04.2021
69 Clouds 21 1016 64 10000 9.77 360 15:53 20.04.2021
70 Clouds 21 1016 64 10000 9.77 360 15:30 20.04.2021
71 Clouds 21 1017 64 10000 4.12 340 14:59 20.04.2021
72 Clouds 21 1017 64 10000 4.12 340 14:35 20.04.2021
73 Clouds 21 1017 56 10000 7.2 20 13:53 20.04.2021
74 Clouds 21 1017 56 10000 7.2 20 13:24 20.04.2021
75 Clouds 20 1018 60 10000 6.69 40 12:44 20.04.2021
76 Clouds 20 1018 60 10000 6.69 40 12:22 20.04.2021
77 Clouds 19 1017 68 10000 6.17 20 11:46 20.04.2021
78 Clouds 19 1017 68 10000 6.17 20 11:22 20.04.2021
79 Clouds 18 1017 72 10000 3.09 40 10:44 20.04.2021
80 Clouds 17 1017 72 10000 3.09 40 10:23 20.04.2021
81 Clouds 15 1017 82 6000 1.54 160 09:40 20.04.2021
82 Clouds 10 1017 100 10000 0.51 0 08:56 20.04.2021
83 Clouds 12 1017 100 5000 1.03 70 08:25 20.04.2021
84 Clouds 12 1017 100 6000 1.03 120 07:49 20.04.2021
85 Fog 12 1017 100 600 1.54 130 06:49 20.04.2021
86 Fog 15 1018 100 300 2.06 90 05:40 20.04.2021
87 Fog 15 1018 100 400 2.06 70 04:42 20.04.2021
88 Clouds 16 1019 94 10000 2.06 40 01:57 20.04.2021
89 Clear 17 1020 88 10000 2.57 30 00:38 20.04.2021
90 Clear 17 1019 82 10000 3.09 20 23:38 19.04.2021
91 Clear 17 1019 82 10000 3.09 20 22:58 19.04.2021
92 Clear 18 1018 72 10000 6.17 20 22:36 19.04.2021
93 Clear 19 1018 72 10000 6.17 20 21:51 19.04.2021
94 Clear 19 1018 72 10000 6.17 20 21:33 19.04.2021
95 Clear 20 1018 64 10000 6.17 360 20:56 19.04.2021
96 Clear 20 1018 64 10000 6.17 360 20:38 19.04.2021
97 Clear 20 1018 64 10000 6.17 360 20:19 19.04.2021
98 Clear 21 1018 68 10000 4.12 340 19:41 19.04.2021
99 Clear 21 1018 68 10000 4.12 340 19:23 19.04.2021
100 Clear 21 1018 64 10000 7.72 20 18:47 19.04.2021
101 Clear 21 1018 64 10000 7.72 20 18:22 19.04.2021
102 Clear 22 1018 56 10000 7.2 20 17:54 19.04.2021
103 Clear 22 1018 56 10000 7.2 20 17:29 19.04.2021
104 Clear 22 1020 68 10000 7.72 360 16:53 19.04.2021
105 Clear 22 1020 68 10000 7.72 360 16:34 19.04.2021
106 Clear 22 1021 60 10000 6.17 20 15:55 19.04.2021
107 Clear 22 1021 60 10000 6.17 20 15:30 19.04.2021
108 Clear 22 1021 56 10000 5.14 20 14:55 19.04.2021
109 Clear 22 1021 56 10000 5.14 20 14:36 19.04.2021
110 Clear 21 1021 60 10000 5.14 40 13:54 19.04.2021
111 Clear 21 1021 60 10000 5.14 40 13:30 19.04.2021
112 Clear 21 1020 64 10000 6.17 20 12:56 19.04.2021
113 Clear 20 1020 64 10000 6.17 20 12:38 19.04.2021
114 Clear 20 1020 64 10000 6.17 20 12:19 19.04.2021
115 Clear 20 1019 68 10000 3.09 60 11:51 19.04.2021
116 Clear 20 1019 68 10000 3.09 60 11:20 19.04.2021
117 Clear 18 1019 77 8000 1.54 40 10:44 19.04.2021
118 Clear 18 1019 77 8000 1.54 40 10:20 19.04.2021
119 Clear 16 1019 88 10000 1.54 140 09:48 19.04.2021
120 Clear 15 1019 88 10000 1.54 140 09:26 19.04.2021
121 Clear 12 1018 94 10000 1.54 100 08:41 19.04.2021
122 Clouds 8 1018 100 8000 1.54 140 07:50 19.04.2021
123 Clouds 8 1018 100 10000 1.03 130 07:26 19.04.2021
124 Clouds 9 1018 100 5000 1.54 140 06:52 19.04.2021
125 Clouds 9 1019 100 5000 0.51 0 05:41 19.04.2021
126 Clouds 16 1020 100 7000 2.57 50 01:50 19.04.2021
127 Clouds 17 1020 94 8000 2.57 40 00:42 19.04.2021
128 Clouds 17 1020 94 10000 3.09 40 23:22 18.04.2021
129 Clear 17 1020 94 10000 3.6 40 22:58 18.04.2021
130 Clouds 18 1019 77 10000 3.09 40 22:34 18.04.2021
131 Clouds 18 1019 77 10000 3.09 40 21:57 18.04.2021
132 Clouds 19 1019 77 10000 3.09 40 21:29 18.04.2021
133 Clouds 19 1019 82 10000 7.2 20 20:55 18.04.2021
134 Clouds 19 1019 82 10000 7.2 20 20:37 18.04.2021
135 Clouds 19 1019 82 10000 7.2 20 20:19 18.04.2021
136 Clouds 20 1018 77 10000 8.23 360 19:41 18.04.2021
137 Clouds 21 1018 77 10000 8.23 360 19:21 18.04.2021
138 Clouds 21 1018 73 10000 4.12 40 18:45 18.04.2021
139 Clouds 20 1018 73 10000 4.12 40 18:25 18.04.2021
140 Clouds 21 1018 68 10000 7.2 20 17:47 18.04.2021
141 Clouds 21 1018 68 10000 7.2 20 17:28 18.04.2021
142 Clouds 21 1018 73 10000 9.26 20 16:52 18.04.2021
143 Clouds 21 1018 73 10000 9.26 20 16:34 18.04.2021
144 Clouds 21 1019 68 10000 6.17 40 15:49 18.04.2021
145 Clouds 22 1019 68 10000 6.17 40 15:28 18.04.2021
146 Clouds 21 1019 68 10000 9.77 20 14:53 18.04.2021
147 Clouds 21 1019 68 10000 9.77 20 14:28 18.04.2021
148 Clouds 21 1020 73 10000 6.17 360 13:56 18.04.2021
149 Clouds 21 1020 73 10000 6.17 360 13:38 18.04.2021
150 Clouds 21 1020 73 10000 6.17 360 13:18 18.04.2021
151 Clouds 20 1019 73 6000 9.26 20 12:32 18.04.2021
152 Clouds 20 1019 73 6000 5.66 20 11:45 18.04.2021
153 Clouds 19 1019 73 6000 5.66 20 11:22 18.04.2021
154 Clouds 18 1019 77 6000 4.12 60 10:48 18.04.2021
155 Clouds 18 1019 77 6000 4.12 60 10:23 18.04.2021
156 Clouds 16 1018 88 5000 2.06 140 09:53 18.04.2021
157 Clouds 15 1018 88 5000 2.06 140 09:35 18.04.2021
158 Clouds 12 1018 94 10000 2.06 30 08:57 18.04.2021
159 Clouds 12 1018 100 10000 2.06 50 08:35 18.04.2021
160 Clouds 11 1018 100 6000 1.54 80 07:59 18.04.2021
161 Clouds 11 1018 100 6000 1.54 80 07:38 18.04.2021
162 Clouds 12 1018 94 6000 1.54 100 05:43 18.04.2021
163 Clouds 12 1018 94 6000 1.54 100 05:24 18.04.2021
164 Clouds 15 1019 94 8000 2.06 60 02:56 18.04.2021
165 Clouds 15 1019 94 8000 3.09 60 02:22 18.04.2021
166 Clouds 15 1019 88 10000 3.6 50 00:38 18.04.2021
167 Clouds 15 1019 88 10000 3.09 40 23:39 17.04.2021
168 Clouds 16 1019 88 10000 3.09 40 22:52 17.04.2021
169 Clouds 17 1017 82 10000 7.72 20 22:31 17.04.2021
170 Clouds 17 1017 82 10000 7.72 20 21:50 17.04.2021
171 Clouds 17 1017 82 10000 7.72 20 21:31 17.04.2021
172 Clouds 19 1017 72 10000 5.14 40 20:51 17.04.2021
173 Clouds 19 1017 72 10000 5.14 40 20:28 17.04.2021
174 Clouds 20 1017 73 10000 5.14 20 19:46 17.04.2021
175 Clouds 20 1017 73 10000 5.14 20 19:21 17.04.2021
176 Clouds 20 1017 68 10000 7.2 20 18:56 17.04.2021
177 Clouds 21 1017 68 10000 7.2 20 18:36 17.04.2021
178 Clouds 24 1017 57 10000 6.17 20 17:57 17.04.2021
179 Clouds 24 1017 57 10000 6.17 20 17:39 17.04.2021
180 Clouds 25 1017 51 10000 5.14 40 16:53 17.04.2021
181 Clouds 25 1017 51 10000 5.14 40 16:28 17.04.2021
182 Clouds 25 1017 51 10000 5.14 40 16:28 17.04.2021
183 Clouds 25 1018 51 10000 6.17 20 15:42 17.04.2021
184 Clouds 24 1018 61 10000 5.14 20 14:50 17.04.2021
185 Clouds 24 1018 61 10000 5.14 20 14:30 17.04.2021
186 Clouds 24 1018 54 10000 6.69 20 13:47 17.04.2021
187 Clouds 24 1018 54 10000 6.69 20 13:20 17.04.2021
188 Clouds 23 1018 61 10000 4.12 360 12:39 17.04.2021
189 Clouds 23 1018 61 10000 4.12 360 12:18 17.04.2021
190 Clouds 21 1018 61 10000 4.12 100 11:39 17.04.2021
191 Clouds 21 1018 61 10000 4.12 100 11:20 17.04.2021
192 Clouds 20 1018 73 10000 3.09 80 10:41 17.04.2021
193 Clouds 19 1018 73 10000 3.09 80 10:22 17.04.2021
194 Clouds 16 1017 94 10000 1.03 160 09:19 17.04.2021
195 Clouds 15 1017 94 10000 1.03 180 08:34 17.04.2021
196 Fog 10 1017 100 700 1.03 0 07:59 17.04.2021
197 Fog 11 1017 100 800 1.03 0 06:42 17.04.2021
198 Clouds 14 1017 94 10000 0.51 0 03:49 17.04.2021
199 Clouds 15 1017 88 10000 1.54 30 02:28 17.04.2021
200 Clouds 15 1017 94 10000 2.06 70 00:43 17.04.2021
201 Clouds 16 1017 82 10000 2.06 60 00:21 17.04.2021
202 Clouds 16 1017 82 10000 2.06 50 23:43 16.04.2021
203 Clouds 17 1017 82 10000 3.09 50 22:59 16.04.2021
204 Clouds 17 1017 82 10000 3.09 50 22:41 16.04.2021
205 Clouds 18 1015 82 10000 5.14 40 22:20 16.04.2021
206 Clouds 18 1015 82 10000 5.14 40 21:45 16.04.2021
207 Clouds 18 1015 82 10000 5.14 40 21:27 16.04.2021
208 Clouds 19 1015 77 10000 5.14 40 20:46 16.04.2021
209 Clouds 19 1015 77 10000 5.14 40 20:24 16.04.2021
210 Clouds 19 1015 82 10000 5.14 360 19:50 16.04.2021
211 Clouds 20 1015 82 10000 5.14 360 19:22 16.04.2021
212 Clouds 20 1016 73 10000 8.75 20 18:28 16.04.2021
213 Clouds 21 1015 64 10000 8.75 20 17:54 16.04.2021
214 Clouds 21 1015 64 10000 8.75 20 17:20 16.04.2021
215 Clouds 21 1015 64 10000 10.29 20 16:58 16.04.2021
216 Clouds 21 1015 64 10000 10.29 20 16:40 16.04.2021
217 Clouds 21 1015 64 10000 10.29 20 16:21 16.04.2021
218 Clouds 21 1015 68 10000 11.83 320 15:40 16.04.2021
219 Clouds 21 1015 68 10000 8.23 360 14:59 16.04.2021
220 Clouds 21 1015 68 10000 8.23 360 14:40 16.04.2021
221 Clouds 21 1015 64 10000 4.12 340 13:59 16.04.2021
222 Clouds 21 1015 64 10000 4.12 340 13:37 16.04.2021
223 Clouds 21 1015 64 10000 4.12 340 13:18 16.04.2021
224 Clouds 20 1015 73 8000 5.14 340 12:44 16.04.2021
225 Clouds 20 1015 73 8000 5.14 340 12:23 16.04.2021
226 Clouds 19 1015 82 6000 3.09 340 11:43 16.04.2021
227 Clouds 19 1015 82 6000 3.09 340 11:23 16.04.2021
228 Clouds 17 1014 88 6000 2.06 140 10:43 16.04.2021
229 Clouds 17 1014 88 6000 2.06 140 10:23 16.04.2021
230 Clouds 15 1014 94 6000 1.03 160 09:45 16.04.2021
231 Clouds 15 1014 94 6000 1.03 160 09:45 16.04.2021
232 Clouds 15 1014 94 6000 1.03 160 09:23 16.04.2021
233 Fog 12 1014 100 800 1.54 250 08:45 16.04.2021
234 Mist 12 1014 100 5000 2.06 200 08:24 16.04.2021
235 Mist 12 1014 100 5000 0.51 0 07:46 16.04.2021
236 Fog 12 1013 100 450 0.51 240 07:25 16.04.2021
237 Fog 12 1013 100 800 2.06 230 06:46 16.04.2021
238 Fog 13 1013 100 800 1.03 0 05:32 16.04.2021
239 Fog 12 1013 100 800 0.51 0 03:59 16.04.2021
240 Clouds 16 1014 100 10000 1.03 270 00:47 16.04.2021
241 Clouds 16 1014 94 10000 2.06 270 00:22 16.04.2021
242 Clouds 16 1014 100 10000 1.03 0 23:58 15.04.2021
243 Clouds 16 1014 94 10000 1.54 310 23:34 15.04.2021
244 Clouds 17 1013 88 10000 2.06 320 22:51 15.04.2021
245 Clouds 18 1012 77 10000 3.6 20 22:26 15.04.2021
246 Clouds 18 1012 77 10000 3.6 20 22:26 15.04.2021
247 Clouds 18 1012 77 10000 3.6 20 21:48 15.04.2021
248 Clouds 18 1012 77 10000 3.6 20 21:29 15.04.2021
249 Clouds 19 1012 77 10000 6.69 340 20:58 15.04.2021
250 Clouds 19 1012 77 10000 6.69 340 20:38 15.04.2021
251 Clouds 19 1012 77 10000 6.69 340 20:18 15.04.2021
252 Clouds 20 1012 77 10000 7.2 300 19:41 15.04.2021
253 Clouds 20 1012 77 10000 7.2 300 19:21 15.04.2021
254 Clouds 21 1012 68 10000 5.66 360 18:41 15.04.2021
255 Clouds 21 1012 68 10000 5.66 360 18:41 15.04.2021
256 Clouds 21 1012 68 10000 5.66 360 18:20 15.04.2021
257 Clouds 21 1012 68 10000 5.14 40 17:54 15.04.2021
258 Clouds 21 1012 68 10000 5.14 40 17:33 15.04.2021
259 Clouds 21 1012 68 10000 6.17 40 16:45 15.04.2021
260 Clouds 21 1012 68 10000 6.17 40 16:25 15.04.2021
261 Clouds 22 1012 60 10000 5.14 300 15:51 15.04.2021
262 Clouds 21 1012 60 10000 5.14 300 15:28 15.04.2021
263 Clouds 21 1012 60 10000 9.26 280 14:47 15.04.2021
264 Clouds 22 1012 60 10000 9.26 280 14:28 15.04.2021
265 Clouds 22 1013 64 8000 3.09 340 13:58 15.04.2021
266 Clouds 22 1013 64 8000 3.09 340 13:40 15.04.2021
267 Clouds 21 1012 60 8000 3.09 340 12:55 15.04.2021
268 Clouds 21 1012 60 8000 3.09 340 12:28 15.04.2021
269 Clouds 20 1012 68 8000 3.6 200 11:59 15.04.2021
270 Clouds 20 1012 68 8000 3.6 200 11:39 15.04.2021
271 Clouds 20 1012 68 8000 3.6 200 11:21 15.04.2021
272 Clouds 20 1012 68 8000 3.6 200 11:21 15.04.2021
273 Clouds 18 1012 77 5000 2.57 180 10:43 15.04.2021
274 Clouds 18 1012 77 5000 2.57 180 10:25 15.04.2021
275 Clouds 15 1012 94 5000 1.54 180 09:35 15.04.2021
276 Clouds 14 1012 94 8000 2.06 200 08:54 15.04.2021
277 Clouds 15 1012 94 8000 1.54 240 08:36 15.04.2021
278 Clouds 15 1012 94 8000 1.54 280 07:48 15.04.2021
279 Clouds 15 1012 94 6000 1.03 0 07:20 15.04.2021
280 Mist 15 1012 94 1000 1.54 260 06:36 15.04.2021
281 Fog 14 1012 100 600 1.54 250 05:47 15.04.2021
282 Clouds 14 1012 94 10000 1.54 240 04:23 15.04.2021
283 Clouds 16 1014 88 10000 2.57 350 00:23 15.04.2021
284 Clouds 17 1014 88 10000 3.09 350 23:36 14.04.2021
285 Clouds 17 1014 82 10000 4.12 350 22:59 14.04.2021
286 Clouds 17 1014 82 10000 4.12 350 22:41 14.04.2021
287 Clouds 17 1012 82 10000 7.2 320 22:21 14.04.2021
288 Clouds 17 1012 82 10000 7.2 320 21:42 14.04.2021
289 Clouds 17 1012 82 10000 7.2 320 21:22 14.04.2021
290 Clouds 18 1012 77 10000 8.23 320 20:54 14.04.2021
291 Clouds 19 1012 77 10000 8.23 320 20:31 14.04.2021
292 Clouds 19 1012 77 10000 8.23 320 20:31 14.04.2021
293 Clouds 20 1012 77 10000 7.2 320 19:48 14.04.2021
294 Clouds 20 1012 77 10000 7.2 320 19:19 14.04.2021
295 Clouds 22 1012 68 10000 7.2 360 18:55 14.04.2021
296 Clouds 22 1012 68 10000 7.2 360 18:21 14.04.2021
297 Clouds 22 1012 68 10000 5.14 360 17:58 14.04.2021
298 Clouds 22 1012 68 10000 5.14 360 17:25 14.04.2021
299 Clouds 22 1012 68 10000 4.12 340 16:53 14.04.2021
300 Clouds 22 1012 68 10000 4.12 340 16:25 14.04.2021
301 Clouds 21 1013 68 10000 4.12 340 15:42 14.04.2021
302 Clouds 21 1013 68 10000 4.12 340 15:22 14.04.2021
303 Clouds 20 1014 77 10000 7.2 360 14:46 14.04.2021
304 Clouds 20 1014 77 10000 7.2 360 14:24 14.04.2021
305 Clouds 19 1014 82 8000 6.17 360 13:54 14.04.2021
306 Clouds 18 1014 82 8000 6.17 360 13:23 14.04.2021
307 Clouds 18 1014 88 8000 3.09 60 12:38 14.04.2021
308 Clouds 18 1013 88 8000 3.09 60 11:43 14.04.2021
309 Clouds 18 1013 88 8000 3.09 60 11:25 14.04.2021
310 Clouds 17 1014 94 10000 3.09 20 10:48 14.04.2021
311 Clouds 18 1014 94 8000 6.17 20 10:30 14.04.2021
312 Clouds 18 1014 94 8000 6.17 20 09:42 14.04.2021
313 Clouds 18 1014 94 8000 6.17 20 09:21 14.04.2021
314 Clouds 16 1014 100 6000 2.57 340 08:43 14.04.2021
315 Clouds 17 1013 100 6000 3.6 350 08:20 14.04.2021
316 Clouds 17 1015 100 10000 3.09 270 07:20 14.04.2021
317 Clouds 17 1015 94 10000 4.12 270 06:25 14.04.2021
318 Clouds 17 1014 88 10000 1.54 0 04:45 14.04.2021
319 Clear 17 1015 82 10000 2.57 290 01:49 14.04.2021
320 Clear 17 1014 55 10000 6.17 110 00:39 14.04.2021
321 Clear 17 1015 77 10000 4.63 110 23:47 13.04.2021
322 Clear 17 1016 82 10000 2.57 90 23:27 13.04.2021
323 Clear 17 1017 82 10000 1.54 160 22:42 13.04.2021
324 Clouds 17 1015 88 10000 4.12 20 22:19 13.04.2021
325 Clouds 18 1015 88 10000 4.12 20 21:46 13.04.2021
326 Clouds 18 1015 88 10000 4.12 20 21:27 13.04.2021
327 Clouds 19 1015 82 10000 3.09 20 20:42 13.04.2021
328 Clouds 19 1015 82 10000 3.09 20 20:21 13.04.2021
329 Clear 19 1015 82 10000 5.14 20 19:48 13.04.2021
330 Clear 19 1015 82 10000 5.14 20 19:24 13.04.2021
331 Clear 20 1015 77 10000 7.2 360 18:44 13.04.2021
332 Clear 20 1015 77 10000 7.2 360 18:23 13.04.2021
333 Clear 21 1016 73 10000 3.09 20 17:37 13.04.2021
334 Clear 21 1016 73 10000 3.09 20 17:18 13.04.2021
335 Clear 21 1016 68 10000 6.17 340 16:44 13.04.2021
336 Clear 21 1016 68 10000 6.17 340 16:21 13.04.2021
337 Clear 22 1017 68 10000 5.14 340 15:50 13.04.2021
338 Clear 22 1017 68 10000 5.14 340 15:30 13.04.2021
339 Clouds 22 1018 73 10000 6.17 320 14:47 13.04.2021
340 Clouds 22 1018 73 10000 6.17 320 14:20 13.04.2021
341 Clear 22 1018 73 10000 4.12 340 13:45 13.04.2021
342 Clear 21 1018 73 10000 4.12 340 13:24 13.04.2021
343 Clear 21 1018 73 10000 4.12 340 12:56 13.04.2021
344 Clear 21 1018 73 10000 4.12 340 12:28 13.04.2021
345 Clouds 20 1018 77 8000 2.06 120 11:56 13.04.2021
346 Clouds 19 1018 77 8000 2.06 120 11:30 13.04.2021
347 Clouds 16 1018 88 6000 1.03 140 10:53 13.04.2021
348 Clouds 16 1018 88 6000 1.03 140 10:21 13.04.2021
349 Clouds 16 1018 88 6000 1.03 140 10:21 13.04.2021
350 Clouds 15 1018 94 8000 1.03 360 09:57 13.04.2021
351 Clouds 15 1018 94 8000 1.03 360 09:36 13.04.2021
352 Clouds 15 1017 94 8000 1.03 180 08:56 13.04.2021
353 Clouds 14 1017 94 8000 1.03 180 08:38 13.04.2021
354 Clouds 14 1017 94 8000 1.03 180 08:20 13.04.2021
355 Fog 11 1017 100 550 1.03 130 07:36 13.04.2021
356 Clouds 14 1017 94 400 2.06 90 06:31 13.04.2021
357 Clouds 16 1018 94 10000 2.06 30 04:49 13.04.2021
358 Clouds 16 1019 94 10000 2.57 40 02:25 13.04.2021
359 Clouds 16 1020 94 10000 2.57 40 00:26 13.04.2021
360 Clouds 16 1020 94 10000 3.09 40 23:48 12.04.2021
361 Clouds 16 1019 94 10000 3.6 40 23:25 12.04.2021
362 Clear 17 1018 77 10000 6.17 20 22:39 12.04.2021
363 Clear 18 1018 77 10000 6.17 20 21:58 12.04.2021
364 Clear 18 1018 77 10000 6.17 20 21:38 12.04.2021
365 Clear 18 1018 77 10000 6.17 20 21:19 12.04.2021
366 Clear 17 1018 82 10000 6.17 20 20:38 12.04.2021
367 Clear 17 1018 82 10000 6.17 20 20:20 12.04.2021
368 Clouds 19 1018 72 10000 6.17 40 19:43 12.04.2021
369 Clouds 19 1018 72 10000 6.17 40 19:23 12.04.2021
370 Clouds 20 1018 73 10000 10.8 20 18:59 12.04.2021
371 Clouds 20 1018 73 10000 10.8 20 18:40 12.04.2021
372 Clouds 20 1018 73 10000 10.8 20 18:22 12.04.2021
373 Clouds 20 1018 68 10000 8.23 20 17:43 12.04.2021
374 Clouds 21 1018 68 10000 8.23 20 17:22 12.04.2021
375 Clear 21 1019 64 10000 8.23 20 16:46 12.04.2021
376 Clear 21 1019 64 10000 8.23 20 16:46 12.04.2021
377 Clear 21 1019 64 10000 8.23 20 16:27 12.04.2021
378 Clear 22 1019 64 10000 7.2 360 15:48 12.04.2021
379 Clear 22 1019 64 10000 7.2 360 15:25 12.04.2021
380 Clear 22 1019 64 10000 8.23 20 14:50 12.04.2021
381 Clear 21 1019 64 10000 8.23 20 14:29 12.04.2021
382 Clouds 21 1020 64 10000 4.12 60 13:46 12.04.2021
383 Clouds 20 1020 64 10000 4.12 60 13:26 12.04.2021
384 Clouds 20 1020 68 10000 4.12 80 12:45 12.04.2021
385 Clouds 20 1020 68 10000 4.12 80 12:24 12.04.2021
386 Clouds 20 1020 68 10000 4.12 80 12:24 12.04.2021
387 Clouds 19 1020 68 10000 5.14 20 11:56 12.04.2021
388 Clouds 18 1020 68 10000 5.14 20 11:18 12.04.2021
389 Clouds 17 1019 77 8000 5.14 60 10:41 12.04.2021
390 Clouds 17 1019 77 8000 5.14 60 10:22 12.04.2021
391 Clouds 15 1019 82 8000 4.12 80 09:40 12.04.2021
392 Clouds 10 1019 100 6000 1.03 150 09:18 12.04.2021
393 Fog 9 1019 100 6000 1.54 150 08:35 12.04.2021
394 Mist 10 1018 100 4000 1.54 70 07:38 12.04.2021
395 Mist 10 1018 100 4000 1.54 70 07:19 12.04.2021
396 Clouds 10 1018 100 3500 2.06 130 05:51 12.04.2021
397 Mist 14 1019 94 4000 2.57 70 04:28 12.04.2021
398 Clouds 15 1020 94 8000 2.06 60 00:52 12.04.2021
399 Clouds 15 1020 94 10000 2.06 40 00:24 12.04.2021
400 Clouds 15 1019 94 10000 2.57 40 23:46 11.04.2021
401 Clouds 15 1019 94 10000 2.57 40 23:46 11.04.2021
402 Clear 15 1019 88 10000 2.57 50 23:27 11.04.2021
403 Clear 15 1019 88 10000 2.57 40 22:46 11.04.2021
404 Clouds 18 1017 77 10000 7.2 360 22:23 11.04.2021
405 Clouds 18 1017 77 10000 7.2 360 21:46 11.04.2021
406 Clouds 18 1017 77 10000 7.2 360 21:27 11.04.2021
407 Clouds 19 1017 72 10000 7.2 360 20:55 11.04.2021
408 Clouds 19 1017 72 10000 7.2 360 20:30 11.04.2021
409 Clouds 19 1017 72 10000 4.12 360 19:54 11.04.2021
410 Clouds 19 1017 72 10000 4.12 360 19:36 11.04.2021
411 Clouds 19 1017 72 10000 4.12 360 19:18 11.04.2021
412 Clear 20 1017 68 10000 7.2 360 18:42 11.04.2021
413 Clear 20 1017 68 10000 7.2 360 18:24 11.04.2021
414 Clear 21 1017 64 10000 8.23 340 17:46 11.04.2021
415 Clear 21 1017 64 10000 8.23 340 17:27 11.04.2021
416 Clouds 21 1017 60 10000 8.75 340 16:50 11.04.2021
417 Clouds 21 1017 60 10000 8.75 340 16:23 11.04.2021
418 Clouds 21 1017 60 10000 7.2 340 15:54 11.04.2021
419 Clouds 21 1017 60 10000 7.2 340 15:27 11.04.2021
420 Clouds 21 1017 60 10000 7.2 340 15:27 11.04.2021
421 Clouds 21 1017 60 10000 5.14 20 14:59 11.04.2021
422 Clouds 21 1017 60 10000 5.14 20 14:41 11.04.2021
423 Clouds 20 1018 60 10000 4.12 280 13:52 11.04.2021
424 Clouds 20 1018 60 10000 4.12 280 13:31 11.04.2021
425 Clouds 20 1018 60 10000 1.03 120 12:54 11.04.2021
426 Clouds 20 1018 60 10000 1.03 120 12:21 11.04.2021
427 Clouds 19 1017 63 10000 2.06 120 11:52 11.04.2021
428 Clouds 19 1017 63 10000 2.06 120 11:24 11.04.2021
429 Clouds 16 1017 77 8000 3.09 160 10:49 11.04.2021
430 Clouds 15 1017 77 8000 3.09 160 10:31 11.04.2021
431 Clouds 12 1017 94 8000 1.54 180 09:57 11.04.2021
432 Clouds 11 1017 94 8000 1.54 180 09:33 11.04.2021
433 Clouds 12 1016 88 8000 2.06 160 08:54 11.04.2021
434 Clouds 12 1016 88 8000 2.06 160 08:25 11.04.2021
435 Mist 10 1016 100 4300 1.54 170 07:22 11.04.2021
436 Mist 10 1016 100 4500 2.06 190 06:51 11.04.2021
437 Clouds 11 1016 100 5000 1.54 180 05:42 11.04.2021
438 Clear 11 1015 100 1200 2.57 140 05:20 11.04.2021
439 Clear 10 1015 100 1200 2.06 140 04:34 11.04.2021
440 Clouds 14 1017 100 10000 0.51 0 01:49 11.04.2021
441 Clouds 15 1017 94 10000 0.51 0 00:34 11.04.2021
442 Clouds 15 1016 100 10000 0.51 0 23:48 10.04.2021
443 Clouds 15 1016 100 10000 0.51 330 23:25 10.04.2021
444 Clouds 15 1016 100 10000 0.51 330 23:25 10.04.2021
445 Clouds 16 1016 88 10000 1.03 320 22:43 10.04.2021
446 Clouds 17 1014 72 10000 4.12 320 22:20 10.04.2021
447 Clouds 17 1014 72 10000 4.12 320 21:41 10.04.2021
448 Clouds 18 1014 72 10000 4.12 320 21:21 10.04.2021
449 Clouds 18 1014 77 10000 3.09 300 20:44 10.04.2021
450 Clouds 19 1014 77 10000 3.09 300 20:23 10.04.2021
451 Clouds 19 1014 77 10000 3.09 300 20:23 10.04.2021
452 Clouds 20 1014 68 10000 3.09 300 19:44 10.04.2021
453 Clouds 20 1014 68 10000 3.09 300 19:25 10.04.2021
454 Clouds 21 1014 60 10000 6.17 340 18:51 10.04.2021
455 Clouds 21 1014 60 10000 6.17 340 18:29 10.04.2021
456 Clear 21 1014 56 10000 5.14 320 17:38 10.04.2021
457 Clear 21 1014 56 10000 5.14 320 17:18 10.04.2021
458 Clouds 21 1014 56 10000 7.2 360 16:28 10.04.2021
459 Clouds 21 1015 56 10000 4.12 300 15:55 10.04.2021
460 Clouds 21 1015 56 10000 4.12 300 15:23 10.04.2021
461 Clouds 22 1015 53 10000 4.12 300 14:42 10.04.2021
462 Clouds 21 1015 53 10000 4.12 300 14:19 10.04.2021
463 Clear 21 1015 56 10000 3.09 100 13:42 10.04.2021
464 Clouds 19 1015 63 8000 3.09 140 12:53 10.04.2021
465 Clouds 19 1015 63 8000 3.09 140 12:28 10.04.2021
466 Clouds 17 1015 77 6000 3.09 140 11:49 10.04.2021
467 Clouds 17 1015 77 6000 3.09 140 11:25 10.04.2021
468 Clouds 17 1015 77 6000 3.09 140 11:25 10.04.2021
469 Clouds 14 1015 88 6000 3.09 200 10:52 10.04.2021
470 Clouds 14 1015 88 6000 3.09 200 10:31 10.04.2021
471 Clouds 14 1015 82 6000 1.54 180 09:48 10.04.2021
472 Clouds 13 1015 82 6000 1.54 180 09:20 10.04.2021
473 Clouds 13 1015 82 6000 1.54 180 09:20 10.04.2021
474 Fog 11 1015 100 400 1.54 160 08:48 10.04.2021
475 Mist 11 1015 100 1500 1.03 0 08:29 10.04.2021
476 Mist 11 1015 100 1500 1.03 0 08:29 10.04.2021
477 Mist 10 1014 100 1500 2.06 160 07:38 10.04.2021
478 Mist 10 1014 100 1500 2.06 160 07:19 10.04.2021
479 Fog 10 1014 100 800 1.03 190 06:24 10.04.2021
480 Clouds 13 1014 100 6000 0.51 300 03:49 10.04.2021
481 Mist 13 1015 100 4000 2.06 140 02:51 10.04.2021
482 Mist 13 1015 93 4000 1.54 140 02:33 10.04.2021
483 Clouds 14 1016 93 8000 1.03 150 00:44 10.04.2021
484 Clouds 14 1016 93 8000 1.54 170 00:25 10.04.2021
485 Clear 14 1016 94 10000 1.54 120 23:41 09.04.2021
486 Clear 15 1016 88 10000 2.06 360 22:59 09.04.2021
487 Clouds 16 1015 82 8000 2.57 360 22:38 09.04.2021
488 Clouds 17 1015 82 8000 2.57 360 21:56 09.04.2021
489 Clouds 17 1015 82 8000 2.57 360 21:38 09.04.2021
490 Clouds 17 1015 82 8000 2.57 360 21:18 09.04.2021
491 Clouds 18 1014 77 8000 4.12 320 20:42 09.04.2021
492 Clouds 18 1014 77 8000 4.12 320 20:22 09.04.2021
493 Clouds 19 1014 72 10000 5.14 40 19:44 09.04.2021
494 Clouds 19 1014 72 10000 5.14 40 19:23 09.04.2021
495 Clouds 19 1015 72 10000 5.66 40 18:54 09.04.2021
496 Clouds 19 1015 72 10000 5.66 40 18:32 09.04.2021
497 Clouds 19 1014 68 10000 4.63 20 17:54 09.04.2021
498 Clouds 19 1014 68 10000 4.63 20 17:36 09.04.2021
499 Clear 21 1014 49 10000 5.14 360 16:56 09.04.2021
500 Clouds 21 1015 64 6000 5.14 320 16:34 09.04.2021
501 Clouds 21 1015 64 6000 5.14 320 15:51 09.04.2021
502 Clouds 20 1015 64 6000 5.14 320 15:33 09.04.2021
503 Clouds 20 1015 64 8000 5.66 320 14:57 09.04.2021
504 Clouds 20 1015 64 8000 5.66 320 14:33 09.04.2021
505 Clouds 20 1016 64 6000 6.69 20 13:52 09.04.2021
506 Clouds 20 1016 64 6000 6.69 20 13:24 09.04.2021
507 Clouds 18 1016 72 6000 3.6 340 12:51 09.04.2021
508 Clouds 17 1016 72 6000 3.6 340 12:32 09.04.2021
509 Mist 17 1016 72 4000 4.12 60 11:46 09.04.2021
510 Mist 17 1016 72 4000 4.12 60 11:45 09.04.2021
511 Mist 17 1016 72 4000 4.12 60 11:22 09.04.2021
512 Mist 13 1016 100 4000 1.03 160 10:46 09.04.2021
513 Mist 13 1016 100 4000 1.03 160 10:20 09.04.2021
514 Mist 10 1015 100 4000 1.03 160 09:39 09.04.2021
515 Mist 10 1015 100 4000 1.03 160 09:20 09.04.2021
516 Mist 9 1015 100 4000 1.03 160 08:51 09.04.2021
517 Mist 9 1015 93 3000 1.03 0 07:36 09.04.2021
518 Mist 9 1015 93 4000 1.54 330 06:34 09.04.2021
519 Clouds 10 1015 93 5000 0.51 0 05:53 09.04.2021
520 Clouds 10 1017 93 5000 0.51 0 03:52 09.04.2021
521 Clouds 12 1018 93 8000 2.06 150 01:32 09.04.2021
522 Clouds 14 1018 88 10000 2.06 350 00:37 09.04.2021
523 Clouds 14 1018 88 10000 2.06 350 00:18 09.04.2021
524 Clouds 15 1018 88 10000 1.03 0 23:18 08.04.2021
525 Clouds 14 1018 88 10000 2.57 330 22:42 08.04.2021
526 Clouds 15 1017 77 10000 5.14 340 22:21 08.04.2021
527 Clouds 16 1017 77 10000 5.14 340 21:55 08.04.2021
528 Clouds 17 1017 77 10000 5.14 340 21:36 08.04.2021
529 Clouds 17 1017 77 10000 5.14 340 21:18 08.04.2021
530 Clouds 17 1017 77 10000 5.14 340 21:18 08.04.2021
531 Clouds 18 1016 68 10000 5.14 340 20:47 08.04.2021
532 Clouds 18 1016 68 10000 5.14 340 20:25 08.04.2021
533 Clouds 19 1016 68 10000 4.12 360 19:42 08.04.2021
534 Clouds 19 1016 68 10000 4.12 360 19:19 08.04.2021
535 Clouds 19 1016 68 10000 2.06 300 18:45 08.04.2021
536 Clouds 19 1016 68 10000 2.06 300 18:20 08.04.2021
537 Clouds 19 1016 64 10000 4.12 320 17:49 08.04.2021
538 Clouds 19 1016 64 10000 4.12 320 17:24 08.04.2021
539 Clouds 19 1017 68 10000 5.14 360 16:49 08.04.2021
540 Clouds 19 1017 68 10000 5.14 360 16:28 08.04.2021
541 Clouds 19 1017 68 10000 5.14 360 15:47 08.04.2021
542 Clouds 20 1017 68 10000 5.14 360 15:28 08.04.2021
543 Clouds 20 1017 68 10000 5.14 320 14:45 08.04.2021
544 Clouds 20 1017 68 10000 5.14 320 14:25 08.04.2021
545 Clouds 20 1017 64 8000 3.09 320 13:56 08.04.2021
546 Clouds 20 1017 64 8000 3.09 320 13:38 08.04.2021
547 Clouds 20 1017 64 8000 3.09 320 13:19 08.04.2021
548 Clouds 17 1018 72 6000 5.14 320 12:38 08.04.2021
549 Clouds 17 1018 72 6000 5.14 320 12:18 08.04.2021
550 Clouds 17 1017 77 5000 3.09 280 11:41 08.04.2021
551 Clouds 15 1017 94 10000 1.03 160 10:57 08.04.2021
552 Clouds 14 1017 94 10000 1.03 160 10:28 08.04.2021
553 Clear 12 1017 94 10000 2.06 200 09:51 08.04.2021
554 Clear 12 1017 94 10000 2.06 200 09:33 08.04.2021
555 Clouds 12 1016 94 6000 2.06 180 08:45 08.04.2021
556 Clouds 12 1016 94 6000 2.06 180 08:25 08.04.2021
557 Clouds 10 1016 100 5000 0.51 0 07:53 08.04.2021
558 Clouds 10 1016 93 5000 0.51 0 07:27 08.04.2021
559 Clouds 14 1017 93 8000 1.54 130 03:31 08.04.2021
560 Clouds 15 1018 94 10000 1.03 200 00:44 08.04.2021
561 Clouds 15 1018 94 10000 1.03 250 23:57 07.04.2021
562 Clear 15 1018 88 10000 0.51 0 23:38 07.04.2021
563 Clear 15 1018 88 10000 0.51 0 23:19 07.04.2021
564 Clear 15 1017 88 10000 1.54 310 22:43 07.04.2021
565 Clouds 16 1016 82 6000 5.14 340 22:25 07.04.2021
566 Clouds 16 1016 82 6000 5.14 340 21:42 07.04.2021
567 Clouds 17 1016 82 6000 5.14 340 21:21 07.04.2021
568 Clouds 18 1015 77 8000 2.57 300 20:42 07.04.2021
569 Clouds 18 1015 77 8000 2.57 300 20:20 07.04.2021
570 Clouds 19 1015 72 8000 5.66 320 19:42 07.04.2021
571 Clouds 19 1015 72 8000 5.66 320 19:24 07.04.2021
572 Clouds 20 1015 68 8000 3.09 320 18:47 07.04.2021
573 Clouds 20 1015 68 8000 3.09 320 18:19 07.04.2021
574 Clouds 21 1015 60 8000 5.66 300 17:53 07.04.2021
575 Clouds 21 1015 60 8000 5.66 300 17:35 07.04.2021
576 Clouds 21 1015 56 8000 5.66 340 16:48 07.04.2021
577 Clouds 21 1015 56 8000 5.66 340 16:22 07.04.2021
578 Clouds 21 1015 64 6000 8.23 300 15:57 07.04.2021
579 Clouds 20 1015 64 6000 8.23 300 15:38 07.04.2021
580 Clouds 20 1015 68 6000 5.14 300 14:52 07.04.2021
581 Clouds 20 1015 68 6000 5.14 300 14:25 07.04.2021
582 Clouds 19 1016 72 6000 7.2 300 13:47 07.04.2021
583 Clouds 19 1016 72 6000 7.2 300 13:23 07.04.2021
584 Clouds 19 1016 72 6000 7.2 300 13:23 07.04.2021
585 Clouds 18 1014 82 6000 2.06 240 12:49 07.04.2021
586 Clouds 17 1014 82 6000 2.06 240 12:24 07.04.2021
587 Clouds 18 1015 77 6000 2.57 300 11:48 07.04.2021
588 Clouds 18 1015 77 6000 2.57 300 11:25 07.04.2021
589 Clouds 17 1014 82 6000 2.06 240 10:52 07.04.2021
590 Clouds 16 1014 82 6000 2.06 220 09:57 07.04.2021
591 Clouds 16 1014 82 6000 2.06 220 09:38 07.04.2021
592 Clouds 16 1014 82 6000 2.06 220 09:19 07.04.2021
593 Clouds 16 1013 77 6000 2.06 220 08:33 07.04.2021
594 Clouds 16 1013 77 6000 2.06 220 08:33 07.04.2021
595 Clouds 15 1013 94 10000 2.06 240 07:58 07.04.2021
596 Clouds 15 1013 94 10000 1.54 260 07:30 07.04.2021
597 Clouds 15 1013 94 10000 2.06 250 06:59 07.04.2021
598 Clouds 16 1013 94 10000 2.06 250 06:21 07.04.2021
599 Clouds 16 1013 88 10000 1.54 250 03:54 07.04.2021
600 Clouds 16 1014 88 10000 1.54 240 23:52 06.04.2021
601 Clouds 16 1014 88 10000 2.06 280 23:23 06.04.2021
602 Clouds 16 1013 94 10000 2.06 280 22:59 06.04.2021
603 Clouds 17 1013 77 10000 4.12 280 22:22 06.04.2021
604 Clouds 17 1013 77 10000 4.12 280 21:59 06.04.2021
605 Clouds 17 1013 77 10000 4.12 280 21:59 06.04.2021
606 Clouds 18 1013 77 10000 4.12 280 21:39 06.04.2021
607 Clouds 18 1013 77 10000 4.12 280 21:21 06.04.2021
608 Clouds 18 1013 77 10000 4.12 280 21:21 06.04.2021
609 Clouds 18 1012 77 10000 4.12 320 20:51 06.04.2021
610 Clouds 18 1012 77 10000 4.12 320 20:21 06.04.2021
611 Clouds 19 1012 72 10000 6.17 320 19:49 06.04.2021
612 Clouds 19 1012 72 10000 6.17 320 19:31 06.04.2021
613 Clouds 19 1012 72 10000 7.2 340 18:48 06.04.2021
614 Clouds 19 1012 72 10000 7.2 340 18:24 06.04.2021
615 Clouds 19 1012 77 10000 5.14 320 17:52 06.04.2021
616 Clouds 19 1012 77 10000 5.14 320 17:30 06.04.2021
617 Clouds 19 1012 72 10000 8.23 320 16:56 06.04.2021
618 Clouds 19 1012 72 10000 8.23 320 16:56 06.04.2021
619 Clouds 19 1012 72 10000 8.23 320 16:38 06.04.2021
620 Clouds 20 1013 73 10000 8.75 320 15:41 06.04.2021
621 Clouds 21 1013 73 10000 8.75 320 15:20 06.04.2021
622 Clear 20 1013 68 10000 8.23 320 14:39 06.04.2021
623 Clear 20 1013 68 10000 8.23 320 14:18 06.04.2021
624 Clear 20 1013 73 10000 6.17 320 13:43 06.04.2021
625 Clear 20 1013 73 10000 6.17 320 13:23 06.04.2021
626 Clear 20 1013 68 10000 3.09 240 12:42 06.04.2021
627 Clear 20 1013 68 10000 3.09 240 12:22 06.04.2021
628 Clouds 18 1014 77 8000 2.06 220 11:51 06.04.2021
629 Clouds 18 1014 77 8000 2.06 220 11:21 06.04.2021
630 Clouds 17 1014 82 8000 2.06 120 10:47 06.04.2021
631 Clouds 16 1014 82 8000 2.06 120 10:28 06.04.2021
632 Clouds 16 1013 82 8000 2.06 60 09:49 06.04.2021
633 Clouds 16 1013 82 8000 2.06 60 09:30 06.04.2021
634 Clouds 15 1013 94 8000 0.61 232 08:45 06.04.2021
635 Clouds 15 1013 94 8000 1.03 0 08:18 06.04.2021
636 Clouds 15 1013 94 8000 2.06 350 06:55 06.04.2021
637 Clouds 15 1013 100 1800 2.06 330 05:40 06.04.2021
638 Clouds 15 1014 100 5000 0.51 0 02:57 06.04.2021
639 Clouds 15 1015 94 5000 1.54 300 00:44 06.04.2021
640 Clouds 15 1015 88 800 1.03 0 00:21 06.04.2021
641 Clouds 15 1015 88 8000 1.54 40 23:43 05.04.2021
642 Clouds 15 1015 88 8000 2.57 30 23:19 05.04.2021
643 Clouds 16 1015 82 10000 2.57 40 22:48 05.04.2021
644 Clouds 17 1014 88 10000 4.12 40 22:26 05.04.2021
645 Clouds 17 1014 88 10000 4.12 40 21:44 05.04.2021
646 Clouds 17 1014 88 10000 4.12 40 21:21 05.04.2021
647 Clouds 18 1014 82 10000 5.14 20 20:43 05.04.2021
648 Clouds 18 1014 82 10000 5.14 20 20:25 05.04.2021
649 Clouds 18 1014 77 10000 5.14 40 19:43 05.04.2021
650 Clouds 18 1014 77 10000 5.14 40 19:22 05.04.2021
651 Clouds 19 1014 72 10000 5.14 40 18:49 05.04.2021
652 Clouds 19 1014 72 10000 5.14 40 18:31 05.04.2021
653 Clouds 19 1015 68 10000 5.14 40 17:59 05.04.2021
654 Clouds 19 1015 68 10000 5.14 40 17:41 05.04.2021
655 Clouds 19 1015 68 10000 5.14 40 17:19 05.04.2021
656 Clouds 19 1015 68 10000 6.17 20 16:42 05.04.2021
657 Clouds 19 1015 68 10000 6.17 20 16:20 05.04.2021
658 Clouds 19 1016 68 10000 6.17 20 15:52 05.04.2021
659 Clouds 19 1016 68 10000 6.17 20 15:27 05.04.2021
660 Clouds 19 1016 68 10000 7.2 20 14:47 05.04.2021
661 Clouds 19 1016 68 10000 7.2 20 14:27 05.04.2021
662 Clouds 19 1016 68 8000 7.2 60 13:31 05.04.2021
663 Clouds 18 1016 77 8000 3.09 80 12:48 05.04.2021
664 Clouds 16 1016 77 8000 3.09 80 12:26 05.04.2021
665 Clouds 17 1016 72 8000 3.09 60 11:55 05.04.2021
666 Clouds 17 1016 72 8000 3.09 60 11:33 05.04.2021
667 Clouds 15 1016 77 8000 3.09 80 10:59 05.04.2021
668 Clouds 15 1016 77 8000 3.09 80 10:59 05.04.2021
669 Clouds 15 1016 77 8000 3.09 80 10:40 05.04.2021
670 Clouds 15 1016 77 8000 3.09 80 10:22 05.04.2021
671 Clouds 15 1016 82 8000 3.09 80 09:47 05.04.2021
672 Clouds 14 1016 82 8000 3.09 80 09:22 05.04.2021
673 Clouds 14 1015 82 8000 3.09 80 08:42 05.04.2021
674 Clouds 14 1015 82 8000 3.09 80 08:24 05.04.2021
675 Clouds 12 1015 94 7000 3.09 60 07:35 05.04.2021
676 Clouds 14 1015 94 10000 3.6 40 04:25 05.04.2021
677 Clouds 14 1017 94 7000 1.54 80 01:35 05.04.2021
678 Clouds 15 1017 88 8000 2.57 50 00:36 05.04.2021
679 Clouds 15 1017 88 10000 2.57 40 23:43 04.04.2021
680 Clouds 15 1016 88 9000 2.57 40 23:23 04.04.2021
681 Clouds 15 1016 88 10000 3.09 30 22:50 04.04.2021
682 Clouds 16 1015 72 10000 4.12 40 22:28 04.04.2021
683 Clouds 17 1015 72 10000 4.12 40 21:26 04.04.2021
684 Clouds 17 1015 68 10000 4.12 40 20:56 04.04.2021
685 Clouds 18 1015 68 10000 4.12 40 20:29 04.04.2021
686 Clear 19 1015 63 10000 8.75 360 19:54 04.04.2021
687 Clear 19 1015 63 10000 8.75 360 19:36 04.04.2021
688 Clear 19 1015 63 10000 8.75 360 19:18 04.04.2021
689 Clear 19 1015 63 10000 5.14 340 18:41 04.04.2021
690 Clear 19 1015 63 10000 5.14 340 18:20 04.04.2021
691 Clouds 19 1015 59 10000 8.75 20 17:41 04.04.2021
692 Clouds 19 1015 59 10000 8.75 20 17:41 04.04.2021
693 Clouds 19 1015 59 10000 8.75 20 17:41 04.04.2021
694 Clouds 19 1015 59 10000 8.75 20 17:22 04.04.2021
695 Clouds 19 1015 59 10000 8.75 20 17:22 04.04.2021
696 Clouds 20 1015 56 10000 6.17 360 16:42 04.04.2021
697 Clouds 20 1015 56 10000 6.17 360 16:18 04.04.2021
698 Clouds 20 1016 56 10000 4.12 340 15:34 04.04.2021
699 Clouds 19 1016 60 10000 7.2 360 14:46 04.04.2021
700 Clouds 19 1016 60 10000 7.2 360 14:27 04.04.2021
701 Clouds 18 1016 59 10000 6.17 360 13:47 04.04.2021
702 Clouds 18 1016 59 10000 6.17 360 13:23 04.04.2021
703 Clouds 17 1016 68 10000 2.06 340 12:41 04.04.2021
704 Clouds 17 1016 68 10000 2.06 340 12:23 04.04.2021
705 Clouds 17 1016 72 10000 3.09 300 11:42 04.04.2021
706 Clouds 16 1016 72 10000 3.09 300 11:23 04.04.2021
707 Clouds 16 1016 77 8000 2.06 160 10:43 04.04.2021
708 Clouds 14 1016 82 8000 2.06 200 09:54 04.04.2021
709 Clear 14 1016 82 8000 2.06 200 09:26 04.04.2021
710 Clouds 13 1015 88 8000 3.09 180 08:53 04.04.2021
711 Clouds 10 1015 100 8000 2.06 230 08:35 04.04.2021
712 Clouds 10 1015 100 5000 1.54 230 07:55 04.04.2021
713 Drizzle 9 1014 100 10000 1.54 200 06:38 04.04.2021
714 Clouds 8 1014 93 10000 2.06 150 05:33 04.04.2021
715 Clouds 13 1016 100 10000 2.06 170 01:29 04.04.2021
716 Clear 13 1016 87 10000 1.03 0 00:20 04.04.2021
717 Clear 14 1016 87 10000 0.51 310 23:49 03.04.2021
718 Clear 14 1016 87 10000 1.03 330 23:31 03.04.2021
719 Clear 15 1015 88 10000 2.06 330 22:52 03.04.2021
720 Clouds 16 1015 72 10000 4.12 360 22:22 03.04.2021
721 Clouds 16 1015 72 10000 4.12 360 21:52 03.04.2021
722 Clouds 16 1015 72 10000 4.12 360 21:25 03.04.2021
723 Clouds 17 1014 68 10000 5.14 360 20:54 03.04.2021
724 Clouds 18 1014 68 10000 5.14 360 20:28 03.04.2021
725 Clouds 18 1014 63 10000 7.2 360 19:51 03.04.2021
726 Clouds 18 1014 63 10000 7.2 360 19:29 03.04.2021
727 Clear 19 1014 55 10000 5.14 340 18:54 03.04.2021
728 Clear 19 1014 55 10000 5.14 340 18:34 03.04.2021
729 Clouds 19 1014 55 10000 7.2 360 17:56 03.04.2021
730 Clouds 19 1014 55 10000 7.2 360 17:27 03.04.2021
731 Clouds 20 1015 52 10000 6.17 360 16:55 03.04.2021
732 Clouds 20 1015 52 10000 6.17 360 16:28 03.04.2021
733 Clouds 20 1016 52 10000 6.17 360 15:52 03.04.2021
734 Clouds 20 1016 52 10000 6.17 360 15:32 03.04.2021
735 Clouds 19 1016 48 10000 6.17 360 14:52 03.04.2021
736 Clouds 19 1016 48 10000 6.17 360 14:27 03.04.2021
737 Clouds 19 1016 63 10000 6.17 40 13:58 03.04.2021
738 Clouds 18 1016 63 10000 6.17 40 13:35 03.04.2021
739 Clouds 17 1017 68 10000 5.14 40 12:59 03.04.2021
740 Clouds 17 1017 68 10000 5.14 40 12:35 03.04.2021
741 Clouds 16 1016 82 10000 3.09 40 11:54 03.04.2021
742 Clouds 15 1016 82 10000 3.09 40 11:30 03.04.2021
743 Clouds 15 1016 88 6000 1.54 200 10:49 03.04.2021
744 Clouds 13 1016 88 6000 1.54 200 10:27 03.04.2021
745 Clouds 12 1016 94 8000 1.54 220 09:42 03.04.2021
746 Clouds 11 1016 94 8000 1.54 220 09:23 03.04.2021
747 Clouds 11 1016 88 8000 2.06 180 08:38 03.04.2021
748 Clear 8 1016 100 10000 2.06 110 07:47 03.04.2021
749 Clear 9 1016 93 10000 2.57 110 07:26 03.04.2021
750 Clouds 13 1016 93 10000 2.06 120 04:26 03.04.2021
751 Clouds 14 1017 94 10000 1.54 110 02:57 03.04.2021
752 Clouds 14 1018 100 10000 1.54 100 02:34 03.04.2021
753 Clouds 14 1019 94 10000 1.54 100 00:51 03.04.2021
754 Clouds 15 1019 88 10000 1.54 50 00:18 03.04.2021
755 Clouds 15 1019 88 10000 2.57 40 23:44 02.04.2021
756 Clouds 15 1019 88 10000 2.57 30 23:19 02.04.2021
757 Clear 15 1018 88 10000 2.06 30 22:45 02.04.2021
758 Clouds 16 1018 77 10000 7.2 20 22:25 02.04.2021
759 Clouds 16 1018 77 10000 7.2 20 21:42 02.04.2021
760 Clouds 17 1018 77 10000 7.2 20 21:19 02.04.2021
761 Clouds 18 1018 72 10000 8.23 20 20:45 02.04.2021
762 Clouds 18 1018 72 10000 8.23 20 20:25 02.04.2021
763 Clear 19 1018 68 10000 7.2 360 19:42 02.04.2021
764 Clear 19 1018 68 10000 7.2 360 19:23 02.04.2021
765 Clear 20 1018 64 10000 7.2 360 18:50 02.04.2021
766 Clear 20 1018 64 10000 7.2 360 18:30 02.04.2021
767 Clear 20 1018 64 10000 7.2 20 17:57 02.04.2021
768 Clear 20 1018 64 10000 7.2 20 17:32 02.04.2021
769 Clear 21 1019 60 10000 6.17 360 16:43 02.04.2021
770 Clouds 21 1019 52 10000 6.17 20 15:50 02.04.2021
771 Clouds 21 1019 52 10000 6.17 20 15:28 02.04.2021
772 Clouds 20 1020 60 10000 3.09 360 14:41 02.04.2021
773 Clouds 20 1020 60 10000 3.09 360 14:21 02.04.2021
774 Clouds 20 1020 64 10000 4.12 340 13:39 02.04.2021
775 Clouds 20 1020 64 10000 4.12 340 13:19 02.04.2021
776 Clouds 18 1021 68 10000 2.06 300 12:39 02.04.2021
777 Clouds 18 1021 68 10000 2.06 300 12:19 02.04.2021
778 Clear 17 1020 82 10000 1.03 40 11:48 02.04.2021
779 Clear 17 1020 82 10000 1.03 40 11:19 02.04.2021
780 Clear 16 1020 94 10000 2.06 160 10:44 02.04.2021
781 Clear 15 1020 94 10000 2.06 160 10:24 02.04.2021
782 Clouds 14 1020 94 8000 2.06 180 09:51 02.04.2021
783 Clouds 14 1020 94 8000 2.06 180 09:24 02.04.2021
784 Clouds 14 1020 94 8000 2.06 180 08:46 02.04.2021
785 Clouds 14 1020 94 8000 2.06 180 08:27 02.04.2021
786 Fog 14 1020 100 500 1.03 0 07:22 02.04.2021
787 Fog 14 1020 100 400 2.06 240 06:34 02.04.2021
788 Fog 14 1020 100 600 1.03 0 03:46 02.04.2021
789 Clouds 15 1020 93 10000 1.03 260 01:49 02.04.2021
790 Clouds 15 1020 94 10000 1.03 0 00:44 02.04.2021
791 Clear 16 1020 88 10000 1.03 0 23:48 01.04.2021
792 Clear 16 1019 88 10000 2.06 350 23:27 01.04.2021
793 Clear 16 1019 88 10000 1.54 10 22:50 01.04.2021
794 Clear 17 1018 82 10000 5.14 300 22:18 01.04.2021
795 Clear 17 1018 82 10000 5.14 300 21:44 01.04.2021
796 Clear 18 1018 82 10000 5.14 300 21:23 01.04.2021
797 Clear 19 1017 68 10000 4.12 280 20:41 01.04.2021
798 Clear 19 1017 68 10000 4.12 280 20:41 01.04.2021
799 Clear 20 1017 68 10000 4.12 280 20:22 01.04.2021
800 Clear 21 1017 68 10000 7.2 280 19:43 01.04.2021
801 Clear 21 1017 68 10000 7.2 280 19:24 01.04.2021
802 Clear 21 1017 68 10000 8.23 320 18:45 01.04.2021
803 Clear 21 1017 68 10000 8.23 320 18:18 01.04.2021
804 Clouds 21 1017 64 10000 8.75 300 17:45 01.04.2021
805 Clouds 21 1017 64 10000 8.75 300 17:24 01.04.2021
806 Clouds 22 1016 56 10000 9.77 280 16:50 01.04.2021
807 Clouds 22 1017 56 10000 9.77 280 16:18 01.04.2021
808 Clouds 22 1017 56 10000 9.77 280 16:18 01.04.2021
809 Clouds 22 1017 60 10000 7.2 300 15:40 01.04.2021
810 Clouds 22 1017 60 10000 7.2 300 15:19 01.04.2021
811 Clouds 22 1017 60 10000 5.14 280 14:40 01.04.2021
812 Clouds 22 1017 60 10000 5.14 280 14:40 01.04.2021
813 Clouds 22 1017 60 10000 5.14 280 14:40 01.04.2021
814 Clouds 22 1017 60 10000 5.14 280 14:40 01.04.2021
815 Clouds 22 1017 60 10000 5.14 280 14:21 01.04.2021
816 Clouds 21 1017 64 10000 6.17 280 13:50 01.04.2021
817 Clouds 21 1017 64 10000 6.17 280 13:30 01.04.2021
818 Clouds 20 1017 60 10000 4.12 280 12:47 01.04.2021
819 Clouds 20 1017 60 10000 4.12 280 12:29 01.04.2021
820 Clear 19 1016 68 10000 6.17 220 11:45 01.04.2021
821 Clear 19 1016 68 10000 6.17 220 11:24 01.04.2021
822 Clear 17 1016 67 10000 4.12 220 10:53 01.04.2021
823 Clear 17 1016 67 10000 4.12 220 10:53 01.04.2021
824 Clear 16 1016 67 10000 4.12 220 10:33 01.04.2021
825 Clear 14 1016 77 8000 3.09 220 09:53 01.04.2021
826 Clear 14 1016 77 8000 3.09 220 09:24 01.04.2021
827 Clear 13 1015 82 8000 4.12 200 08:33 01.04.2021
828 Clear 12 1015 87 10000 2.06 210 07:52 01.04.2021
829 Clear 11 1015 93 10000 2.06 220 07:18 01.04.2021
830 Clear 11 1014 93 10000 1.03 0 06:31 01.04.2021
831 Clear 15 1015 94 10000 3.09 200 03:28 01.04.2021
832 Clear 16 1014 88 10000 3.09 170 00:38 01.04.2021
833 Clouds 16 1014 88 8000 2.06 190 23:44 31.03.2021
834 Clear 17 1013 82 10000 1.54 220 22:59 31.03.2021
835 Clear 17 1013 77 10000 2.57 260 22:40 31.03.2021
836 Clouds 17 1011 88 5000 2.57 280 22:20 31.03.2021
837 Clouds 17 1011 88 5000 2.57 280 21:44 31.03.2021
838 Clouds 18 1011 88 5000 2.57 280 21:20 31.03.2021
839 Clouds 18 1010 94 5000 2.57 300 20:43 31.03.2021
840 Clouds 18 1010 94 5000 2.57 300 20:23 31.03.2021
841 Clouds 19 1009 88 6000 5.14 320 19:55 31.03.2021
842 Clouds 20 1009 88 6000 5.14 320 19:36 31.03.2021
843 Clouds 20 1009 88 6000 5.14 320 19:18 31.03.2021
844 Clouds 22 1010 73 6000 4.12 20 18:41 31.03.2021
845 Clouds 22 1010 73 6000 4.12 360 17:56 31.03.2021
846 Clouds 22 1010 73 6000 4.12 360 17:34 31.03.2021
847 Clouds 22 1010 68 6000 5.14 320 16:58 31.03.2021
848 Clouds 23 1010 68 6000 5.14 320 16:38 31.03.2021
849 Clouds 23 1010 68 6000 5.14 320 16:19 31.03.2021
850 Clouds 23 1010 68 6000 5.14 320 16:19 31.03.2021
851 Clouds 23 1010 68 6000 6.17 320 15:50 31.03.2021
852 Clouds 25 1010 68 6000 6.17 320 15:19 31.03.2021
853 Clouds 25 1010 64 6000 4.12 320 14:44 31.03.2021
854 Clear 25 1010 64 6000 4.12 320 14:22 31.03.2021
855 Clear 25 1010 68 6000 3.09 20 13:41 31.03.2021
856 Clouds 22 1011 72 8000 2.06 260 12:42 31.03.2021
857 Clouds 20 1011 72 8000 2.06 260 12:21 31.03.2021
858 Clouds 18 1011 82 8000 2.06 240 11:56 31.03.2021
859 Clouds 17 1011 82 8000 2.06 240 11:21 31.03.2021
860 Clouds 14 1011 94 8000 2.06 160 10:47 31.03.2021
861 Clouds 13 1011 94 8000 2.06 160 10:26 31.03.2021
862 Clouds 13 1011 94 8000 2.06 160 09:43 31.03.2021
863 Clouds 12 1011 94 8000 2.06 160 08:59 31.03.2021
864 Clouds 12 1011 94 8000 2.06 160 08:38 31.03.2021
865 Mist 11 1011 93 1000 1.54 230 07:53 31.03.2021
866 Fog 12 1011 100 200 1.54 260 06:49 31.03.2021
867 Clouds 15 1012 94 5000 1.03 0 03:51 31.03.2021
868 Clear 15 1013 94 8000 1.03 0 01:43 31.03.2021
869 Clear 16 1014 94 8000 0.51 0 00:49 31.03.2021
870 Clear 16 1014 94 8000 1.03 0 00:21 31.03.2021
871 Clear 16 1014 94 8000 1.03 0 23:46 30.03.2021
872 Clear 16 1014 94 8000 1.03 0 23:19 30.03.2021
873 Clear 16 1014 94 8000 1.54 280 22:41 30.03.2021
874 Clear 17 1013 88 8000 2.06 360 22:23 30.03.2021
875 Clear 18 1013 88 8000 2.06 360 21:51 30.03.2021
876 Clear 18 1013 88 8000 2.06 360 21:21 30.03.2021
877 Clear 19 1013 82 8000 4.12 300 20:55 30.03.2021
878 Clear 19 1013 82 8000 4.12 300 20:28 30.03.2021
879 Clear 19 1013 82 8000 5.14 280 19:51 30.03.2021
880 Clear 20 1013 82 8000 5.14 280 19:28 30.03.2021
881 Clear 21 1013 73 8000 6.17 280 18:40 30.03.2021
882 Clear 22 1013 73 8000 6.17 280 18:20 30.03.2021
883 Clear 22 1013 64 8000 5.14 300 17:42 30.03.2021
884 Clear 23 1013 64 8000 5.14 300 17:23 30.03.2021
885 Clear 23 1014 64 8000 7.2 280 16:45 30.03.2021
886 Clear 23 1014 64 8000 7.2 280 16:24 30.03.2021
887 Clear 23 1014 64 8000 7.2 320 15:21 30.03.2021
888 Clear 23 1014 64 8000 4.12 320 14:58 30.03.2021
889 Clear 23 1014 64 8000 4.12 320 14:39 30.03.2021
890 Clear 23 1014 64 8000 4.12 320 14:18 30.03.2021
891 Clear 22 1015 64 8000 3.6 300 13:38 30.03.2021
892 Clear 21 1015 60 8000 1.54 200 12:49 30.03.2021
893 Clear 20 1015 60 8000 1.54 200 12:29 30.03.2021
894 Clear 19 1015 72 8000 2.06 280 11:59 30.03.2021
895 Clear 18 1015 72 8000 2.06 280 11:24 30.03.2021
896 Clear 16 1015 88 8000 2.57 260 10:47 30.03.2021
897 Clear 15 1015 88 8000 2.57 260 10:29 30.03.2021
898 Clear 14 1015 88 8000 1.03 180 09:57 30.03.2021
899 Clear 14 1015 88 8000 1.03 180 09:37 30.03.2021
900 Clear 14 1015 88 8000 1.03 180 09:18 30.03.2021
901 Clear 14 1014 100 8000 2.06 240 08:39 30.03.2021
902 Clouds 14 1014 94 9000 2.06 260 07:52 30.03.2021
903 Clouds 14 1014 100 9000 2.57 240 07:22 30.03.2021
904 Clouds 16 1014 94 10000 1.03 0 05:49 30.03.2021
905 Clouds 16 1014 94 10000 2.06 50 05:19 30.03.2021
906 Clouds 18 1015 94 10000 0.51 0 00:58 30.03.2021
907 Clouds 18 1016 94 10000 2.57 180 23:51 29.03.2021
908 Clouds 19 1015 94 10000 2.57 210 22:54 29.03.2021
909 Clouds 18 1015 77 8000 4.12 360 22:32 29.03.2021
910 Clouds 18 1015 77 8000 4.12 360 21:51 29.03.2021
911 Clouds 19 1015 77 8000 4.12 360 21:31 29.03.2021
912 Clouds 19 1015 77 10000 5.14 300 20:50 29.03.2021
913 Clouds 19 1015 77 10000 5.14 300 20:28 29.03.2021
914 Clouds 22 1014 56 10000 5.14 40 19:50 29.03.2021
915 Clouds 23 1014 56 10000 5.14 40 19:25 29.03.2021
916 Clouds 24 1013 38 10000 6.17 60 18:51 29.03.2021
917 Clouds 24 1013 38 10000 6.17 60 18:27 29.03.2021
918 Clouds 24 1013 41 10000 6.17 40 17:52 29.03.2021
919 Clouds 24 1013 41 10000 6.17 40 17:32 29.03.2021
920 Clouds 23 1014 40 10000 4.12 60 16:45 29.03.2021
921 Clouds 24 1014 40 10000 4.12 60 16:24 29.03.2021
922 Clouds 23 1015 49 10000 4.12 60 15:37 29.03.2021
923 Clouds 24 1015 49 10000 4.12 60 15:18 29.03.2021
924 Clouds 24 1016 56 10000 4.12 40 14:46 29.03.2021
925 Clouds 23 1016 60 10000 4.12 40 13:55 29.03.2021
926 Clouds 23 1016 60 10000 4.12 40 13:33 29.03.2021
927 Clouds 22 1016 63 10000 3.09 360 12:55 29.03.2021
928 Clouds 21 1016 63 10000 3.09 360 12:36 29.03.2021
929 Clouds 20 1016 59 10000 3.09 360 11:43 29.03.2021
930 Clouds 19 1016 59 10000 3.09 360 11:25 29.03.2021
931 Clouds 18 1015 63 10000 4.12 80 10:43 29.03.2021
932 Clouds 17 1015 63 10000 4.12 80 10:19 29.03.2021
933 Clouds 16 1015 63 10000 4.12 80 09:31 29.03.2021
934 Clouds 17 1015 63 10000 6.17 100 08:30 29.03.2021
935 Clear 15 1015 77 10000 5.14 80 07:54 29.03.2021
936 Clear 15 1015 77 10000 5.66 60 06:57 29.03.2021
937 Clear 17 1016 72 10000 5.14 60 05:45 29.03.2021
938 Clouds 16 1018 63 10000 4.12 60 02:32 29.03.2021
939 Clouds 15 1019 82 10000 2.57 0 00:27 29.03.2021
940 Clouds 16 1019 72 10000 3.09 90 23:57 28.03.2021
941 Clouds 16 1020 82 10000 1.03 0 23:25 28.03.2021
942 Clouds 16 1020 72 10000 2.06 360 22:43 28.03.2021
943 Clouds 18 1017 59 8000 2.06 20 22:25 28.03.2021
944 Clouds 18 1017 59 8000 2.06 20 21:47 28.03.2021
945 Clouds 19 1017 59 8000 2.06 20 21:24 28.03.2021
946 Clouds 19 1018 63 8000 3.09 140 20:53 28.03.2021
947 Clouds 19 1018 63 8000 3.09 140 20:35 28.03.2021
948 Clouds 21 1018 53 8000 6.17 340 19:56 28.03.2021
949 Clouds 22 1018 53 8000 6.17 340 19:38 28.03.2021
950 Clouds 22 1018 53 8000 6.17 340 19:20 28.03.2021
951 Clouds 22 1017 46 8000 3.09 240 18:41 28.03.2021
952 Clouds 22 1017 46 8000 3.09 240 18:18 28.03.2021
953 Clouds 23 1018 38 8000 3.09 360 17:37 28.03.2021
954 Clouds 22 1019 40 8000 3.09 80 16:56 28.03.2021
955 Clouds 23 1019 40 8000 3.09 80 16:28 28.03.2021
956 Clouds 20 1020 60 6000 2.06 80 15:58 28.03.2021
957 Clouds 20 1020 60 6000 2.06 80 15:24 28.03.2021
958 Clouds 20 1025 56 6000 2.06 340 14:47 28.03.2021
959 Clouds 20 1025 56 6000 2.06 340 14:18 28.03.2021
960 Clouds 20 1020 52 10000 1.03 360 13:35 28.03.2021
961 Clouds 19 1020 59 10000 2.06 140 12:57 28.03.2021
962 Clouds 18 1020 59 10000 2.06 140 12:34 28.03.2021
963 Clear 17 1019 59 10000 1.03 240 11:55 28.03.2021
964 Clear 16 1019 59 10000 1.03 240 11:37 28.03.2021
965 Clear 15 1018 59 10000 4.12 100 10:49 28.03.2021
966 Clear 15 1018 59 10000 4.12 100 10:31 28.03.2021
967 Clear 14 1017 67 10000 2.06 120 09:51 28.03.2021
968 Clear 15 1017 67 10000 2.06 120 09:28 28.03.2021
969 Clear 14 1016 67 10000 0.51 20 08:51 28.03.2021
970 Clear 14 1016 67 10000 0.51 20 08:33 28.03.2021
971 Clear 14 1016 67 10000 0.51 0 07:41 28.03.2021
972 Clear 18 1017 63 10000 1.54 150 06:20 28.03.2021
973 Clear 17 1018 72 10000 2.06 140 03:50 28.03.2021
974 Clear 13 1018 76 10000 4.12 130 00:36 28.03.2021
975 Clear 14 1018 76 10000 1.54 130 23:53 27.03.2021
976 Clear 15 1018 76 10000 2.06 110 23:34 27.03.2021
977 Clear 15 1018 82 10000 3.6 110 22:40 27.03.2021
978 Clear 15 1018 82 10000 3.6 110 22:21 27.03.2021
979 Clear 17 1018 63 10000 2.57 90 21:42 27.03.2021
980 Clouds 19 1016 52 10000 1.03 120 21:21 27.03.2021
981 Clouds 20 1016 52 10000 1.03 120 20:58 27.03.2021
982 Clouds 20 1016 52 10000 1.03 120 20:37 27.03.2021
983 Clouds 21 1017 46 10000 2.06 20 19:56 27.03.2021
984 Clouds 22 1017 46 10000 2.06 20 19:37 27.03.2021
985 Clouds 22 1017 46 10000 2.06 20 19:18 27.03.2021
986 Clouds 23 1017 43 8000 3.09 20 18:41 27.03.2021
987 Clouds 23 1017 43 8000 3.09 20 18:20 27.03.2021
988 Clouds 24 1017 20 8000 5.14 300 17:36 27.03.2021
989 Clouds 24 1017 20 8000 5.14 300 17:18 27.03.2021
990 Clouds 22 1016 53 8000 3.09 20 16:43 27.03.2021
991 Clouds 22 1016 53 8000 3.09 20 16:23 27.03.2021
992 Clouds 23 1016 49 8000 4.12 60 15:45 27.03.2021
993 Clouds 23 1016 53 6000 3.09 80 14:59 27.03.2021
994 Clouds 23 1016 53 6000 3.09 80 14:38 27.03.2021
995 Clouds 23 1017 53 10000 2.06 80 13:39 27.03.2021
996 Clouds 23 1017 53 10000 2.06 80 13:19 27.03.2021
997 Clouds 22 1017 53 10000 4.12 120 12:43 27.03.2021
998 Clouds 22 1017 43 10000 5.14 100 11:50 27.03.2021
999 Clouds 21 1017 43 10000 5.14 100 11:31 27.03.2021
1000 Clouds 20 1017 52 10000 5.14 100 10:49 27.03.2021
1001 Clouds 19 1017 52 10000 5.14 100 10:30 27.03.2021
1002 Clouds 15 1017 77 10000 3.09 120 09:50 27.03.2021
1003 Clear 13 1017 77 10000 3.09 120 09:20 27.03.2021
1004 Clear 11 1017 82 10000 2.06 160 08:40 27.03.2021
1005 Clear 11 1017 76 10000 2.06 180 07:52 27.03.2021
1006 Clear 9 1017 87 10000 1.54 130 06:59 27.03.2021
1007 Clear 9 1017 93 10000 2.06 120 06:39 27.03.2021
1008 Clear 11 1017 87 10000 2.06 80 04:42 27.03.2021
1009 Clear 15 1019 77 10000 2.57 60 02:26 27.03.2021
1010 Clear 16 1019 72 10000 4.12 60 00:44 27.03.2021
1011 Clear 16 1019 72 10000 4.63 50 00:25 27.03.2021
1012 Clear 16 1020 67 10000 3.09 60 23:27 26.03.2021
1013 Clear 16 1019 59 10000 4.63 60 22:40 26.03.2021
1014 Clear 16 1019 59 10000 4.63 60 22:40 26.03.2021
1015 Clear 17 1019 55 10000 6.17 60 21:45 26.03.2021
1016 Clear 18 1019 52 10000 5.14 60 21:23 26.03.2021
1017 Clear 18 1019 52 10000 5.14 60 20:57 26.03.2021
1018 Clear 18 1019 52 10000 5.14 60 20:31 26.03.2021
1019 Clear 19 1019 52 10000 7.2 40 19:52 26.03.2021
1020 Clear 19 1019 52 10000 7.2 40 19:33 26.03.2021
1021 Clear 21 1019 40 10000 5.14 80 18:51 26.03.2021
1022 Clear 22 1019 40 10000 5.14 80 18:31 26.03.2021
1023 Clear 22 1019 43 10000 6.17 40 17:57 26.03.2021
1024 Clear 23 1019 43 10000 6.17 40 17:35 26.03.2021
1025 Clear 23 1019 40 10000 6.17 20 16:49 26.03.2021
1026 Clear 24 1019 40 10000 6.17 20 16:22 26.03.2021
1027 Clear 24 1019 40 10000 6.17 40 15:36 26.03.2021
1028 Clear 24 1020 43 10000 5.14 40 14:50 26.03.2021
1029 Clear 25 1020 38 10000 5.14 60 13:52 26.03.2021
1030 Clear 25 1020 38 10000 5.14 60 13:52 26.03.2021
1031 Clear 25 1020 38 10000 5.14 60 13:26 26.03.2021
1032 Clear 24 1021 31 10000 7.2 40 12:40 26.03.2021
1033 Clear 22 1021 35 10000 4.12 120 11:49 26.03.2021
1034 Clear 21 1021 35 10000 4.12 120 11:31 26.03.2021
1035 Clear 18 1021 52 10000 3.09 100 10:44 26.03.2021
1036 Clear 17 1021 52 10000 3.09 100 10:23 26.03.2021
1037 Clouds 14 1021 67 8000 3.09 160 09:41 26.03.2021
1038 Clouds 11 1020 82 8000 3.09 180 08:49 26.03.2021
1039 Clouds 11 1020 82 8000 3.09 180 08:31 26.03.2021
1040 Clouds 11 1020 82 8000 1.03 200 07:57 26.03.2021
1041 Clear 8 1020 93 10000 2.57 120 07:22 26.03.2021
1042 Clear 8 1020 93 10000 2.57 110 06:56 26.03.2021
1043 Clouds 8 1020 87 9000 2.06 110 05:32 26.03.2021
1044 Clear 8 1021 87 10000 2.06 120 04:23 26.03.2021
1045 Clear 10 1023 87 10000 1.54 120 01:18 26.03.2021
1046 Clear 10 1023 93 10000 1.03 120 00:18 26.03.2021
1047 Clear 11 1023 93 10000 3.09 130 23:42 25.03.2021
1048 Clear 15 1023 82 10000 2.57 50 22:50 25.03.2021
1049 Clear 15 1023 82 10000 2.57 50 22:27 25.03.2021
1050 Clear 15 1022 77 10000 3.09 50 21:49 25.03.2021
1051 Clear 16 1022 67 10000 4.12 40 21:29 25.03.2021
1052 Clear 17 1022 67 10000 4.12 40 20:41 25.03.2021
1053 Clear 17 1022 67 10000 4.12 40 20:23 25.03.2021
1054 Clear 18 1021 63 10000 3.09 40 19:43 25.03.2021
1055 Clear 18 1021 63 10000 3.09 40 19:24 25.03.2021
1056 Clear 19 1021 59 10000 5.14 20 18:46 25.03.2021
1057 Clear 20 1021 59 10000 5.14 20 18:26 25.03.2021
1058 Clear 21 1021 52 10000 6.17 60 17:42 25.03.2021
1059 Clear 21 1021 52 10000 6.17 60 17:23 25.03.2021
1060 Clear 22 1022 52 10000 4.12 60 16:39 25.03.2021
1061 Clear 22 1022 52 10000 4.12 60 16:20 25.03.2021
1062 Clear 22 1022 56 10000 5.14 360 15:42 25.03.2021
1063 Clear 22 1022 56 10000 5.14 360 15:19 25.03.2021
1064 Clear 22 1031 56 8000 4.12 40 14:42 25.03.2021
1065 Clear 21 1023 60 8000 5.14 360 13:41 25.03.2021
1066 Clear 20 1023 60 8000 5.14 360 13:23 25.03.2021
1067 Clear 19 1024 59 8000 3.09 20 12:41 25.03.2021
1068 Clear 19 1024 59 8000 3.09 20 12:20 25.03.2021
1069 Clear 17 1024 67 6000 4.12 100 11:48 25.03.2021
1070 Clear 17 1024 67 6000 4.12 100 11:26 25.03.2021
1071 Clear 15 1024 77 6000 4.12 80 10:52 25.03.2021
1072 Clear 14 1024 77 6000 4.12 80 10:24 25.03.2021
1073 Mist 11 1024 100 3000 1.03 140 09:56 25.03.2021
1074 Mist 10 1024 100 3000 1.03 140 09:38 25.03.2021
1075 Mist 7 1024 100 3000 1.03 160 08:46 25.03.2021
1076 Mist 6 1024 100 3000 1.03 160 07:59 25.03.2021
1077 Clear 5 1024 87 10000 1.03 110 07:19 25.03.2021
1078 Clouds 5 1024 93 10000 2.06 120 06:25 25.03.2021
1079 Clouds 5 1023 93 10000 1.54 120 05:49 25.03.2021
1080 Fog 7 1025 100 200 1.54 120 02:48 25.03.2021
1081 Clouds 12 1027 87 10000 2.06 60 00:24 25.03.2021
1082 Clear 12 1027 93 10000 1.54 70 23:53 24.03.2021
1083 Clear 12 1027 93 10000 1.03 110 23:29 24.03.2021
1084 Clear 12 1027 93 10000 1.54 120 22:49 24.03.2021
1085 Clear 13 1027 93 10000 2.57 90 22:28 24.03.2021
1086 Clear 13 1026 82 10000 2.57 70 21:44 24.03.2021
1087 Clear 15 1025 77 10000 4.12 20 21:24 24.03.2021
1088 Clear 14 1025 77 10000 4.12 20 20:45 24.03.2021
1089 Clear 15 1025 77 10000 4.12 20 20:20 24.03.2021
1090 Clear 16 1025 72 10000 4.12 40 19:49 24.03.2021
1091 Clear 16 1025 72 10000 4.12 40 19:29 24.03.2021
1092 Clear 18 1025 63 10000 6.17 20 18:51 24.03.2021
1093 Clear 18 1025 63 10000 6.17 20 18:23 24.03.2021
1094 Clear 18 1025 63 10000 7.2 20 17:52 24.03.2021
1095 Clear 19 1025 63 10000 7.2 20 17:32 24.03.2021
1096 Clear 19 1024 59 10000 6.17 20 16:53 24.03.2021
1097 Clear 20 1024 59 10000 6.17 20 16:31 24.03.2021
1098 Clear 21 1025 52 10000 6.17 20 15:50 24.03.2021
1099 Clear 21 1025 52 10000 6.17 20 15:32 24.03.2021
1100 Clear 21 1025 56 10000 4.12 40 14:48 24.03.2021
1101 Clear 20 1025 56 10000 4.12 40 14:26 24.03.2021
1102 Clear 20 1025 52 10000 8.23 20 13:55 24.03.2021
1103 Clear 20 1025 52 10000 8.23 20 13:28 24.03.2021
1104 Clear 20 1026 49 10000 1.03 0 12:44 24.03.2021
1105 Clear 18 1026 55 10000 1.03 0 12:23 24.03.2021
1106 Clear 17 1026 67 10000 1.03 0 11:49 24.03.2021
1107 Clear 16 1025 67 8000 2.06 180 10:59 24.03.2021
1108 Clear 15 1025 67 8000 2.06 180 10:40 24.03.2021
1109 Clear 15 1025 67 8000 2.06 180 10:21 24.03.2021
1110 Clear 11 1025 93 8000 2.06 180 09:52 24.03.2021
1111 Clear 10 1025 93 8000 2.06 180 09:22 24.03.2021
1112 Clear 6 1024 93 8000 1.03 180 08:51 24.03.2021
1113 Clear 6 1024 93 8000 1.03 180 08:26 24.03.2021
1114 Clear 6 1024 93 8000 1.03 180 08:26 24.03.2021
1115 Clear 6 1024 87 10000 1.03 180 07:40 24.03.2021
1116 Clear 4 1024 100 10000 1.03 170 06:54 24.03.2021
1117 Clear 6 1024 93 10000 1.54 130 05:30 24.03.2021
1118 Clear 7 1025 93 10000 0.51 130 00:51 24.03.2021
1119 Clear 11 1025 76 10000 1.54 50 23:59 23.03.2021
1120 Clear 13 1025 76 10000 1.54 50 23:22 23.03.2021
1121 Clear 13 1024 76 10000 1.54 60 22:54 23.03.2021
1122 Clear 14 1024 71 10000 1.54 60 22:36 23.03.2021
1123 Clear 14 1024 71 10000 2.06 50 21:54 23.03.2021
1124 Clear 15 1023 67 10000 3.09 40 21:34 23.03.2021
1125 Clear 15 1023 67 10000 3.09 40 20:56 23.03.2021
1126 Clear 16 1023 67 10000 3.09 40 20:38 23.03.2021
1127 Clear 16 1023 67 10000 3.09 40 20:19 23.03.2021
1128 Clear 17 1023 59 10000 4.12 60 19:41 23.03.2021
1129 Clear 17 1023 59 10000 4.12 60 19:22 23.03.2021
1130 Clear 18 1022 63 10000 5.14 40 18:38 23.03.2021
1131 Clear 18 1022 63 10000 5.14 40 18:19 23.03.2021
1132 Clear 18 1022 63 10000 5.14 40 18:19 23.03.2021
1133 Clear 19 1022 55 10000 5.14 20 17:43 23.03.2021
1134 Clear 19 1022 55 10000 5.14 20 17:21 23.03.2021
1135 Clear 20 1022 59 10000 6.17 20 16:26 23.03.2021
1136 Clear 20 1023 55 10000 6.17 40 15:51 23.03.2021
1137 Clear 20 1023 55 10000 6.17 40 15:24 23.03.2021
1138 Clear 20 1023 52 10000 4.12 20 14:49 23.03.2021
1139 Clear 19 1023 52 10000 4.12 20 14:20 23.03.2021
1140 Clear 19 1023 45 10000 4.12 40 13:47 23.03.2021
1141 Clear 19 1023 45 10000 4.12 40 13:25 23.03.2021
1142 Clear 18 1024 45 10000 4.12 40 12:46 23.03.2021
1143 Clear 18 1024 45 10000 4.12 40 12:26 23.03.2021
1144 Clear 18 1024 45 10000 4.12 40 11:49 23.03.2021
1145 Clear 18 1024 45 10000 4.12 40 11:26 23.03.2021
1146 Clear 14 1023 62 10000 1.03 20 10:42 23.03.2021
1147 Clear 14 1023 62 10000 1.03 20 10:21 23.03.2021
1148 Clear 11 1022 81 10000 2.06 140 09:51 23.03.2021
1149 Clear 9 1022 81 10000 2.06 140 09:23 23.03.2021
1150 Clear 6 1022 87 10000 2.06 160 08:55 23.03.2021
1151 Clear 6 1022 87 10000 2.06 160 08:37 23.03.2021
1152 Clear 6 1022 87 10000 2.06 160 08:37 23.03.2021
1153 Clear 6 1022 87 10000 2.06 160 08:19 23.03.2021
1154 Clear 7 1021 81 10000 1.03 60 07:27 23.03.2021
1155 Clear 4 1021 93 10000 2.06 200 06:53 23.03.2021
1156 Clear 6 1021 87 10000 2.06 100 03:57 23.03.2021
1157 Clear 6 1021 93 10000 3.09 100 03:18 23.03.2021
1158 Clear 8 1021 87 10000 1.54 140 23:56 22.03.2021
1159 Clear 12 1021 87 10000 2.06 120 23:20 22.03.2021
1160 Clear 12 1021 87 10000 1.54 120 22:44 22.03.2021
1161 Clear 12 1021 82 10000 2.06 60 22:21 22.03.2021
1162 Clear 13 1021 76 10000 2.57 60 21:49 22.03.2021
1163 Clear 15 1020 63 10000 3.09 40 21:27 22.03.2021
1164 Clear 14 1020 63 10000 3.09 40 20:44 22.03.2021
1165 Clear 15 1020 63 10000 3.09 40 20:26 22.03.2021
1166 Clear 16 1020 59 10000 6.17 360 19:58 22.03.2021
1167 Clear 16 1020 59 10000 6.17 360 19:38 22.03.2021
1168 Clear 16 1020 59 10000 6.17 360 19:20 22.03.2021
1169 Clear 17 1019 55 10000 7.2 20 18:41 22.03.2021
1170 Clear 17 1019 55 10000 7.2 20 18:22 22.03.2021
1171 Clear 18 1019 52 10000 8.23 20 17:49 22.03.2021
1172 Clear 18 1019 52 10000 8.23 20 17:22 22.03.2021
1173 Clear 18 1019 48 10000 7.2 360 16:55 22.03.2021
1174 Clear 18 1019 48 10000 7.2 360 16:36 22.03.2021
1175 Clear 18 1019 48 10000 6.17 40 15:43 22.03.2021
1176 Clear 18 1019 48 10000 6.17 40 15:23 22.03.2021
1177 Clear 18 1020 48 10000 5.14 20 14:57 22.03.2021
1178 Clear 18 1020 48 10000 5.14 20 14:34 22.03.2021
1179 Clear 18 1020 45 10000 5.14 20 13:50 22.03.2021
1180 Clear 18 1020 45 10000 5.14 20 13:29 22.03.2021
1181 Clear 17 1020 42 10000 5.14 60 12:58 22.03.2021
1182 Clear 17 1020 42 10000 5.14 60 12:26 22.03.2021
1183 Clear 16 1020 45 10000 3.09 40 11:51 22.03.2021
1184 Clear 16 1020 45 10000 3.09 40 11:30 22.03.2021
1185 Clear 14 1020 54 8000 3.09 100 10:57 22.03.2021
1186 Clear 13 1020 54 8000 3.09 100 10:37 22.03.2021
1187 Clear 13 1020 54 8000 3.09 100 10:18 22.03.2021
1188 Clear 10 1019 66 8000 2.06 160 09:34 22.03.2021
1189 Clear 6 1019 87 8000 1.03 140 08:55 22.03.2021
1190 Clear 6 1019 76 8000 2.57 95 08:37 22.03.2021
1191 Clear 7 1019 76 8000 2.81 95 08:19 22.03.2021
1192 Clear 7 1019 76 8000 2.81 95 07:41 22.03.2021
1193 Clear 4 1018 93 10000 2.06 110 06:51 22.03.2021
1194 Clear 8 1019 87 10000 2.57 70 03:24 22.03.2021
1195 Clear 7 1020 93 10000 2.57 160 00:53 22.03.2021
1196 Clear 11 1020 81 10000 2.06 80 00:19 22.03.2021
1197 Clear 12 1020 71 10000 3.6 40 23:40 21.03.2021
1198 Clear 12 1020 71 10000 3.6 40 23:18 21.03.2021
1199 Clear 12 1020 71 10000 3.6 40 22:43 21.03.2021
1200 Clear 13 1020 71 10000 3.6 30 21:43 21.03.2021
1201 Clouds 14 1019 58 10000 5.14 40 21:25 21.03.2021
1202 Clouds 14 1019 58 10000 5.14 40 20:57 21.03.2021
1203 Clouds 15 1019 58 10000 5.14 40 20:38 21.03.2021
1204 Clouds 15 1019 58 10000 5.14 40 20:19 21.03.2021
1205 Clouds 15 1019 55 10000 6.17 20 19:40 21.03.2021
1206 Clouds 15 1019 55 10000 6.17 20 19:19 21.03.2021
1207 Clouds 16 1019 51 10000 7.2 20 18:41 21.03.2021
1208 Clouds 16 1019 51 10000 7.2 20 18:18 21.03.2021
1209 Clouds 17 1019 42 10000 7.2 20 17:42 21.03.2021
1210 Clouds 17 1019 42 10000 7.2 20 17:18 21.03.2021
1211 Clouds 17 1019 39 10000 7.2 20 16:50 21.03.2021
1212 Clouds 17 1019 39 10000 7.2 20 16:23 21.03.2021
1213 Clouds 17 1019 45 10000 8.23 20 15:48 21.03.2021
1214 Clouds 17 1019 45 10000 8.23 20 15:22 21.03.2021
1215 Clouds 17 1020 45 10000 8.23 20 14:48 21.03.2021
1216 Clouds 17 1020 45 10000 8.23 20 14:27 21.03.2021
1217 Clouds 17 1020 36 10000 5.14 60 13:59 21.03.2021
1218 Clouds 17 1020 36 10000 5.14 60 13:40 21.03.2021
1219 Clear 16 1021 48 10000 6.17 60 12:45 21.03.2021
1220 Clear 16 1021 48 10000 6.17 60 12:25 21.03.2021
1221 Clear 16 1021 48 10000 6.17 60 12:25 21.03.2021
1222 Clear 15 1021 44 10000 5.14 80 11:42 21.03.2021
1223 Clear 15 1021 44 10000 5.14 80 11:24 21.03.2021
1224 Clear 13 1020 54 10000 4.63 100 10:48 21.03.2021
1225 Clear 12 1020 54 10000 4.63 100 10:29 21.03.2021
1226 Clouds 10 1020 71 8000 2.06 160 09:51 21.03.2021
1227 Clouds 9 1020 71 8000 2.06 160 09:32 21.03.2021
1228 Clouds 8 1020 71 8000 2.06 180 08:59 21.03.2021
1229 Clouds 7 1020 71 8000 2.06 180 08:36 21.03.2021
1230 Clouds 4 1019 93 10000 2.06 100 08:18 21.03.2021
1231 Clear 4 1019 93 10000 2.06 110 07:29 21.03.2021
1232 Clear 5 1019 93 10000 2.06 160 06:21 21.03.2021
1233 Clear 9 1018 87 10000 3.09 50 04:52 21.03.2021
1234 Clouds 10 1016 81 10000 3.09 50 00:58 21.03.2021
1235 Clouds 10 1016 81 10000 3.6 50 00:38 21.03.2021
1236 Clouds 10 1016 81 10000 3.6 50 00:20 21.03.2021
1237 Clouds 10 1016 81 10000 4.63 50 23:45 20.03.2021
1238 Clouds 10 1015 81 10000 4.12 40 23:20 20.03.2021
1239 Clouds 11 1015 76 10000 3.09 20 22:24 20.03.2021
1240 Clouds 11 1014 76 10000 2.57 30 21:51 20.03.2021
1241 Clouds 12 1013 62 10000 6.17 20 21:33 20.03.2021
1242 Clouds 12 1013 62 10000 6.17 20 20:58 20.03.2021
1243 Clouds 13 1013 62 10000 6.17 20 20:39 20.03.2021
1244 Clouds 13 1013 62 10000 6.17 20 20:21 20.03.2021
1245 Clouds 14 1012 47 10000 9.77 360 19:41 20.03.2021
1246 Clouds 14 1012 47 10000 9.77 360 19:22 20.03.2021
1247 Clouds 14 1012 38 10000 8.23 20 18:45 20.03.2021
1248 Clouds 14 1012 38 10000 8.23 20 18:45 20.03.2021
1249 Clouds 15 1012 38 10000 8.23 20 18:21 20.03.2021
1250 Clouds 15 1012 48 10000 10.8 360 17:44 20.03.2021
1251 Clouds 15 1012 48 10000 10.8 360 17:22 20.03.2021
1252 Clouds 15 1011 63 10000 8.75 360 16:44 20.03.2021
1253 Clouds 16 1011 63 10000 8.75 360 16:20 20.03.2021
1254 Clouds 16 1010 59 10000 10.8 320 15:49 20.03.2021
1255 Clouds 17 1010 59 10000 10.29 320 15:29 20.03.2021
1256 Clouds 18 1011 59 10000 5.14 300 14:41 20.03.2021
1257 Clouds 17 1011 59 10000 5.14 300 14:20 20.03.2021
1258 Clouds 16 1011 67 10000 6.17 260 13:31 20.03.2021
1259 Clouds 15 1012 77 10000 4.12 240 12:42 20.03.2021
1260 Clouds 15 1012 77 10000 4.12 240 12:23 20.03.2021
1261 Clouds 14 1012 72 8000 6.17 240 11:44 20.03.2021
1262 Clouds 14 1012 72 8000 6.17 240 11:23 20.03.2021
1263 Clear 14 1012 67 10000 3.09 220 10:47 20.03.2021
1264 Clear 13 1012 67 10000 3.09 220 10:25 20.03.2021
1265 Clouds 12 1012 76 10000 4.12 200 09:53 20.03.2021
1266 Clouds 11 1012 76 10000 4.12 200 09:26 20.03.2021
1267 Clouds 10 1012 76 8000 3.09 220 08:55 20.03.2021
1268 Clouds 10 1012 76 8000 3.09 220 08:27 20.03.2021
1269 Clouds 10 1012 76 8000 5.14 200 07:49 20.03.2021
1270 Clouds 10 1012 76 8000 5.14 200 07:49 20.03.2021
1271 Clouds 7 1012 93 10000 3.6 210 07:29 20.03.2021
1272 Clouds 7 1012 93 10000 3.09 220 06:46 20.03.2021
1273 Clouds 7 1012 93 10000 2.57 210 05:30 20.03.2021
1274 Clouds 8 1013 93 10000 3.09 230 03:46 20.03.2021
1275 Clouds 9 1013 93 10000 2.57 230 02:40 20.03.2021
1276 Clouds 11 1014 87 10000 1.54 310 23:48 19.03.2021
1277 Clouds 11 1014 87 10000 1.54 310 23:48 19.03.2021
1278 Clouds 12 1014 93 10000 2.06 290 23:21 19.03.2021
1279 Clouds 11 1014 93 10000 1.54 300 22:45 19.03.2021
1280 Clouds 12 1014 87 10000 2.06 320 22:24 19.03.2021
1281 Clouds 12 1013 87 10000 1.54 310 21:51 19.03.2021
1282 Clouds 14 1013 67 10000 4.12 20 21:21 19.03.2021
1283 Clouds 14 1013 67 10000 4.12 20 20:46 19.03.2021
1284 Clouds 14 1013 67 10000 4.12 20 20:27 19.03.2021
1285 Clouds 15 1013 63 10000 4.12 20 19:52 19.03.2021
1286 Clouds 15 1013 63 10000 4.12 20 19:25 19.03.2021
1287 Clouds 16 1013 63 10000 5.14 360 18:56 19.03.2021
1288 Clouds 16 1013 63 10000 5.14 360 18:36 19.03.2021
1289 Clouds 16 1013 63 10000 5.14 360 18:18 19.03.2021
1290 Clouds 17 1013 59 10000 7.72 360 17:42 19.03.2021
1291 Clouds 17 1013 59 10000 7.72 360 17:22 19.03.2021
1292 Clouds 18 1012 59 10000 7.72 360 16:44 19.03.2021
1293 Clouds 18 1012 59 10000 7.72 360 16:26 19.03.2021
1294 Clouds 19 1013 59 10000 7.2 360 15:34 19.03.2021
1295 Clouds 18 1013 68 10000 7.2 340 14:54 19.03.2021
1296 Clouds 18 1013 68 10000 7.2 340 14:35 19.03.2021
1297 Clouds 18 1013 68 10000 7.2 360 13:54 19.03.2021
1298 Clouds 18 1013 68 10000 7.2 360 13:21 19.03.2021
1299 Clouds 18 1013 68 10000 6.17 360 12:48 19.03.2021
1300 Clouds 18 1013 68 10000 6.17 360 12:29 19.03.2021
1301 Clouds 17 1013 72 10000 5.14 340 11:36 19.03.2021
1302 Clouds 16 1013 77 10000 4.12 340 10:53 19.03.2021
1303 Clouds 15 1013 77 10000 4.12 340 10:25 19.03.2021
1304 Clouds 13 1013 94 8000 1.03 20 09:46 19.03.2021
1305 Clouds 13 1013 94 8000 1.03 20 09:26 19.03.2021
1306 Clouds 12 1012 94 8000 1.03 80 08:52 19.03.2021
1307 Clouds 12 1012 94 8000 1.03 80 08:29 19.03.2021
1308 Clouds 12 1012 94 10000 0.51 200 07:50 19.03.2021
1309 Clouds 11 1012 94 10000 0.51 200 07:32 19.03.2021
1310 Mist 14 1011 100 3000 2.57 230 05:54 19.03.2021
1311 Mist 14 1012 100 4000 2.06 210 02:37 19.03.2021
1312 Clouds 15 1012 88 10000 4.12 270 23:57 18.03.2021
1313 Clouds 15 1012 88 10000 4.12 260 23:30 18.03.2021
1314 Clouds 15 1012 88 10000 4.12 260 23:30 18.03.2021
1315 Clouds 15 1012 94 10000 3.6 260 22:58 18.03.2021
1316 Clouds 15 1012 88 10000 2.57 230 22:27 18.03.2021
1317 Clouds 15 1012 88 10000 3.09 250 21:56 18.03.2021
1318 Clouds 16 1011 77 10000 4.12 280 21:38 18.03.2021
1319 Clouds 16 1011 77 10000 4.12 280 20:43 18.03.2021
1320 Clouds 16 1011 77 10000 4.12 280 20:23 18.03.2021
1321 Clouds 16 1011 72 10000 5.14 280 19:45 18.03.2021
1322 Clouds 17 1011 72 10000 5.14 280 19:24 18.03.2021
1323 Clouds 18 1011 72 10000 5.14 260 18:53 18.03.2021
1324 Clouds 18 1011 72 10000 5.14 260 18:53 18.03.2021
1325 Clouds 18 1011 72 10000 5.14 260 18:26 18.03.2021
1326 Clouds 18 1011 72 10000 5.14 260 18:26 18.03.2021
1327 Clouds 18 1011 72 10000 7.2 280 17:44 18.03.2021
1328 Clouds 18 1011 72 10000 7.2 280 17:20 18.03.2021
1329 Clouds 19 1011 68 10000 7.2 300 16:42 18.03.2021
1330 Clouds 20 1011 68 10000 7.2 300 16:23 18.03.2021
1331 Clouds 20 1011 64 10000 7.2 280 15:43 18.03.2021
1332 Clouds 20 1011 64 10000 7.2 280 15:23 18.03.2021
1333 Clouds 20 1011 64 10000 7.2 280 15:23 18.03.2021
1334 Clouds 20 1012 64 10000 6.17 300 14:52 18.03.2021
1335 Clouds 19 1012 64 10000 6.17 300 14:29 18.03.2021
1336 Clouds 19 1012 68 10000 6.17 300 13:49 18.03.2021
1337 Clouds 19 1012 68 10000 6.17 300 13:25 18.03.2021
1338 Clouds 18 1013 63 8000 4.12 220 12:42 18.03.2021
1339 Clouds 18 1013 63 8000 4.12 220 12:24 18.03.2021
1340 Clouds 17 1013 72 8000 4.12 220 11:51 18.03.2021
1341 Clouds 17 1013 72 8000 4.12 220 11:31 18.03.2021
1342 Clouds 15 1013 82 8000 4.12 200 10:44 18.03.2021
1343 Clouds 15 1013 82 8000 4.12 200 10:25 18.03.2021
1344 Clouds 14 1012 88 8000 4.12 180 09:54 18.03.2021
1345 Clouds 13 1012 88 8000 4.12 180 09:28 18.03.2021
1346 Clouds 13 1012 94 8000 3.09 200 08:47 18.03.2021
1347 Clouds 13 1012 94 8000 3.09 200 08:29 18.03.2021
1348 Clear 13 1011 94 10000 3.09 200 07:51 18.03.2021
1349 Clear 13 1011 94 10000 3.09 200 07:24 18.03.2021
1350 Mist 14 1012 94 3000 3.09 230 06:27 18.03.2021
1351 Mist 13 1012 94 2000 3.6 220 05:42 18.03.2021
1352 Fog 13 1013 100 200 1.54 220 00:57 18.03.2021
1353 Fog 14 1013 100 600 1.54 280 23:58 17.03.2021
1354 Clouds 16 1013 81 10000 0.85 107 22:44 17.03.2021
1355 Clouds 14 1014 94 8000 1.03 310 22:25 17.03.2021
1356 Clouds 14 1014 94 8000 0.51 0 21:55 17.03.2021
1357 Clouds 15 1013 88 8000 2.06 20 21:33 17.03.2021
1358 Clouds 15 1013 88 8000 2.06 20 21:33 17.03.2021
1359 Clouds 15 1013 88 8000 2.06 20 20:58 17.03.2021
1360 Clouds 16 1013 88 8000 2.06 20 20:40 17.03.2021
1361 Clouds 16 1013 88 8000 2.06 20 20:21 17.03.2021
1362 Clouds 17 1012 82 10000 2.06 280 19:43 17.03.2021
1363 Clouds 17 1012 82 10000 2.06 280 19:21 17.03.2021
1364 Clouds 17 1012 82 10000 3.09 360 18:52 17.03.2021
1365 Clouds 18 1012 82 10000 3.09 360 18:33 17.03.2021
1366 Clear 19 1012 77 10000 5.14 300 17:46 17.03.2021
1367 Clear 19 1012 77 10000 5.14 300 17:23 17.03.2021
1368 Clear 20 1013 72 10000 5.14 320 16:45 17.03.2021
1369 Clear 20 1013 72 10000 5.14 320 16:24 17.03.2021
1370 Clear 20 1013 77 10000 4.12 300 15:53 17.03.2021
1371 Clear 20 1013 77 10000 4.12 300 15:35 17.03.2021
1372 Clear 20 1014 72 10000 4.12 320 14:45 17.03.2021
1373 Clear 20 1014 72 10000 4.12 320 14:26 17.03.2021
1374 Clouds 20 1014 77 8000 5.14 340 13:55 17.03.2021
1375 Clouds 19 1014 77 8000 5.14 340 13:27 17.03.2021
1376 Clouds 18 1014 72 6000 3.09 220 12:51 17.03.2021
1377 Clouds 18 1014 72 6000 3.09 220 12:31 17.03.2021
1378 Mist 15 1014 100 2000 1.03 20 11:51 17.03.2021
1379 Mist 15 1014 100 2000 1.03 20 11:23 17.03.2021
1380 Fog 13 1015 100 800 1.03 280 10:55 17.03.2021
1381 Fog 13 1015 100 800 1.03 280 10:26 17.03.2021
1382 Fog 13 1015 100 800 1.03 280 10:26 17.03.2021
1383 Clouds 11 1014 94 5000 1.03 80 09:48 17.03.2021
1384 Clouds 11 1014 94 5000 1.03 80 09:48 17.03.2021
1385 Clouds 11 1014 94 5000 1.03 80 09:25 17.03.2021
1386 Mist 9 1014 100 4000 1.03 80 08:58 17.03.2021
1387 Mist 9 1014 100 4000 1.03 80 08:38 17.03.2021
1388 Mist 9 1014 100 4000 2.06 160 07:49 17.03.2021
1389 Mist 9 1014 100 4000 2.06 160 07:30 17.03.2021
1390 Fog 12 1014 100 200 1.03 160 06:42 17.03.2021
1391 Fog 13 1014 100 100 2.06 170 04:23 17.03.2021
1392 Fog 12 1014 100 250 2.06 160 03:24 17.03.2021
1393 Fog 13 1016 100 200 0.51 240 00:40 17.03.2021
1394 Mist 14 1017 100 4000 0.51 0 23:33 16.03.2021
1395 Clouds 14 1017 94 5000 2.03 36 22:51 16.03.2021
1396 Clouds 15 1016 88 6000 1.54 30 22:33 16.03.2021
1397 Clouds 15 1016 88 7000 2.06 30 21:51 16.03.2021
1398 Clear 16 1015 88 10000 3.09 20 21:32 16.03.2021
1399 Clear 16 1015 88 10000 3.09 20 20:59 16.03.2021
1400 Clear 16 1015 88 10000 3.09 20 20:38 16.03.2021
1401 Clear 16 1015 88 10000 3.09 20 20:18 16.03.2021
1402 Clear 17 1015 82 10000 4.12 360 19:42 16.03.2021
1403 Clear 18 1015 82 10000 4.12 360 19:23 16.03.2021
1404 Clear 18 1015 72 10000 4.12 40 18:44 16.03.2021
1405 Clear 19 1015 72 10000 4.12 40 18:26 16.03.2021
1406 Clear 19 1015 72 10000 6.17 20 17:48 16.03.2021
1407 Clear 19 1015 72 10000 6.17 20 17:30 16.03.2021
1408 Clear 19 1015 72 10000 5.14 20 16:53 16.03.2021
1409 Clear 19 1015 72 10000 5.14 20 16:30 16.03.2021
1410 Clear 21 1016 68 10000 6.17 20 15:47 16.03.2021
1411 Clear 20 1016 68 10000 6.17 20 15:21 16.03.2021
1412 Clear 19 1016 72 10000 4.12 340 14:58 16.03.2021
1413 Clear 19 1016 72 10000 4.12 340 14:40 16.03.2021
1414 Clear 19 1016 72 10000 4.12 340 14:21 16.03.2021
1415 Clear 19 1017 72 10000 6.17 360 13:54 16.03.2021
1416 Clear 19 1017 72 10000 6.17 360 13:26 16.03.2021
1417 Clear 18 1017 68 10000 3.09 360 12:53 16.03.2021
1418 Clear 17 1017 68 10000 3.09 360 12:34 16.03.2021
1419 Clouds 17 1018 72 6000 2.06 40 11:54 16.03.2021
1420 Clouds 16 1018 72 6000 2.06 40 11:27 16.03.2021
1421 Clouds 15 1018 82 6000 2.06 240 10:44 16.03.2021
1422 Clouds 14 1018 82 6000 2.06 240 10:20 16.03.2021
1423 Clouds 14 1018 82 6000 2.06 240 10:20 16.03.2021
1424 Mist 14 1017 88 4000 3.09 200 09:39 16.03.2021
1425 Mist 14 1017 88 4000 3.09 200 09:18 16.03.2021
1426 Mist 13 1017 94 4000 2.06 160 08:49 16.03.2021
1427 Mist 13 1017 94 4000 2.06 160 08:31 16.03.2021
1428 Mist 12 1017 100 4000 1.03 140 07:38 16.03.2021
1429 Mist 13 1017 100 1500 1.03 0 06:57 16.03.2021
1430 Mist 13 1017 100 1100 1.54 150 06:35 16.03.2021
1431 Fog 13 1017 100 800 2.06 170 05:35 16.03.2021
1432 Fog 12 1018 100 200 1.03 0 02:46 16.03.2021
1433 Fog 12 1018 100 200 1.03 0 02:24 16.03.2021
1434 Fog 12 1019 93 400 2.06 150 00:25 16.03.2021
1435 Clouds 14 1019 82 6000 1.03 0 23:29 15.03.2021
1436 Clouds 14 1019 88 7000 1.54 50 22:56 15.03.2021
1437 Clouds 14 1019 88 7000 1.54 50 22:56 15.03.2021
1438 Drizzle 14 1019 88 8000 2.06 30 22:36 15.03.2021
1439 Drizzle 14 1019 88 8000 2.06 30 22:18 15.03.2021
1440 Clear 16 1018 82 10000 3.09 360 21:39 15.03.2021
1441 Clear 16 1018 82 10000 3.09 360 21:21 15.03.2021
1442 Clear 16 1018 82 10000 3.09 360 20:45 15.03.2021
1443 Clear 16 1018 82 10000 3.09 360 20:26 15.03.2021
1444 Clear 18 1018 68 10000 3.09 20 19:56 15.03.2021
1445 Clear 18 1018 68 10000 3.09 20 19:35 15.03.2021
1446 Clear 19 1018 68 10000 4.12 360 18:58 15.03.2021
1447 Clear 19 1018 68 10000 4.12 360 18:33 15.03.2021
1448 Clear 19 1018 68 10000 3.09 20 17:57 15.03.2021
1449 Clear 19 1018 68 10000 3.09 20 17:39 15.03.2021
1450 Clear 19 1018 68 10000 3.09 20 17:21 15.03.2021
1451 Clear 20 1018 64 10000 4.12 360 16:42 15.03.2021
1452 Clear 19 1018 63 10000 3.09 320 15:55 15.03.2021
1453 Clear 19 1018 63 10000 3.09 320 15:28 15.03.2021
1454 Clear 19 1019 59 10000 4.12 320 14:47 15.03.2021
1455 Clear 19 1019 59 10000 4.12 320 14:28 15.03.2021
1456 Clear 20 1019 60 10000 4.63 340 13:59 15.03.2021
1457 Clear 20 1019 60 10000 4.63 340 13:35 15.03.2021
1458 Clear 18 1019 59 10000 4.12 20 12:51 15.03.2021
1459 Clear 18 1019 59 10000 4.12 20 12:21 15.03.2021
1460 Clear 17 1019 67 10000 2.06 20 11:59 15.03.2021
1461 Clear 16 1019 67 10000 2.06 20 11:40 15.03.2021
1462 Clear 16 1019 67 10000 2.06 20 11:21 15.03.2021
1463 Clouds 15 1019 88 8000 2.06 140 10:41 15.03.2021
1464 Clouds 15 1019 88 8000 2.06 140 10:22 15.03.2021
1465 Clouds 12 1019 93 8000 1.54 140 09:41 15.03.2021
1466 Clouds 10 1019 93 8000 1.54 140 09:21 15.03.2021
1467 Clouds 8 1019 93 8000 2.06 180 08:45 15.03.2021
1468 Clouds 7 1019 93 8000 2.06 180 08:22 15.03.2021
1469 Clear 8 1018 93 10000 2.06 180 07:40 15.03.2021
1470 Clear 10 1018 93 10000 2.06 180 07:22 15.03.2021
1471 Clouds 11 1019 100 6000 1.54 110 05:37 15.03.2021
1472 Clear 11 1020 100 10000 1.03 0 03:20 15.03.2021
1473 Clear 13 1021 87 10000 2.06 40 00:42 15.03.2021
1474 Clear 14 1021 88 10000 3.09 60 23:24 14.03.2021
1475 Clear 14 1021 88 10000 2.57 60 22:49 14.03.2021
1476 Clear 14 1021 94 10000 3.09 60 22:28 14.03.2021
1477 Clear 14 1021 94 10000 4.12 50 21:56 14.03.2021
1478 Clear 15 1021 82 10000 4.12 40 21:24 14.03.2021
1479 Clear 15 1021 82 10000 4.12 40 20:59 14.03.2021
1480 Clear 15 1021 82 10000 4.12 40 20:40 14.03.2021
1481 Clear 16 1021 82 10000 4.12 40 20:22 14.03.2021
1482 Clear 16 1020 72 10000 7.2 60 19:41 14.03.2021
1483 Clear 17 1020 72 10000 7.2 60 19:18 14.03.2021
1484 Clear 17 1020 67 10000 6.17 60 18:37 14.03.2021
1485 Clear 17 1021 67 10000 7.2 20 17:54 14.03.2021
1486 Clear 18 1021 67 10000 7.2 20 17:36 14.03.2021
1487 Clear 18 1021 67 10000 7.2 20 17:18 14.03.2021
1488 Clear 18 1021 59 10000 6.17 40 16:40 14.03.2021
1489 Clear 18 1021 59 10000 6.17 40 16:20 14.03.2021
1490 Clear 18 1021 55 10000 5.14 40 15:45 14.03.2021
1491 Clear 18 1021 59 10000 5.66 30 14:52 14.03.2021
1492 Clear 18 1023 55 10000 6.17 40 14:31 14.03.2021
1493 Clear 18 1023 55 10000 6.17 40 13:55 14.03.2021
1494 Clear 18 1023 55 10000 6.17 40 13:36 14.03.2021
1495 Clear 17 1023 59 10000 5.14 40 12:58 14.03.2021
1496 Clear 17 1023 59 10000 5.14 40 12:40 14.03.2021
1497 Clear 17 1023 59 10000 5.14 40 12:22 14.03.2021
1498 Clear 16 1023 59 10000 6.17 40 11:38 14.03.2021
1499 Clear 15 1023 59 10000 6.17 40 11:19 14.03.2021
1500 Clear 14 1023 67 10000 4.12 40 10:38 14.03.2021
1501 Clear 14 1023 67 10000 4.12 40 10:19 14.03.2021
1502 Clear 12 1022 82 10000 2.06 80 09:56 14.03.2021
1503 Clear 12 1022 82 10000 2.06 80 09:37 14.03.2021
1504 Clear 12 1022 82 10000 2.06 80 09:19 14.03.2021
1505 Clouds 10 1022 87 8000 3.09 80 08:36 14.03.2021
1506 Clouds 9 1022 87 8000 7.2 40 07:52 14.03.2021
1507 Clear 8 1022 93 10000 2.57 70 07:26 14.03.2021
1508 Clear 12 1022 87 10000 2.57 70 05:34 14.03.2021
1509 Clouds 12 1024 93 10000 2.57 60 01:19 14.03.2021
1510 Clear 12 1024 93 10000 1.03 0 00:20 14.03.2021
1511 Clear 13 1024 87 10000 1.03 0 23:58 13.03.2021
1512 Clear 12 1024 87 10000 2.06 60 23:38 13.03.2021
1513 Clear 12 1024 87 10000 2.06 60 23:38 13.03.2021
1514 Clear 12 1024 87 10000 2.06 60 23:18 13.03.2021
1515 Clear 12 1024 87 10000 2.57 60 22:44 13.03.2021
1516 Clear 13 1023 76 10000 3.09 40 21:55 13.03.2021
1517 Clear 13 1023 76 10000 3.09 40 21:55 13.03.2021
1518 Clear 15 1023 67 10000 7.2 40 21:35 13.03.2021
1519 Clear 15 1023 67 10000 7.2 40 20:57 13.03.2021
1520 Clear 15 1023 67 10000 7.2 40 20:37 13.03.2021
1521 Clear 15 1023 67 10000 7.2 40 20:19 13.03.2021
1522 Clear 16 1023 63 10000 7.2 40 19:38 13.03.2021
1523 Clear 16 1023 63 10000 7.2 40 19:19 13.03.2021
1524 Clear 17 1023 55 10000 7.2 40 18:42 13.03.2021
1525 Clear 17 1023 55 10000 7.2 40 18:20 13.03.2021
1526 Clear 18 1023 59 10000 7.2 40 17:47 13.03.2021
1527 Clear 18 1023 59 10000 7.2 40 17:28 13.03.2021
1528 Clear 18 1023 55 10000 7.2 40 16:51 13.03.2021
1529 Clear 18 1023 55 10000 7.2 40 16:33 13.03.2021
1530 Clouds 18 1023 59 10000 7.2 40 15:54 13.03.2021
1531 Clouds 18 1024 68 10000 7.2 40 14:59 13.03.2021
1532 Clouds 18 1024 68 10000 7.2 40 14:40 13.03.2021
1533 Clouds 19 1024 68 10000 7.2 40 14:19 13.03.2021
1534 Clouds 19 1024 59 10000 7.2 40 13:27 13.03.2021
1535 Clouds 18 1024 63 10000 4.12 60 12:52 13.03.2021
1536 Clouds 18 1024 63 10000 4.12 60 12:30 13.03.2021
1537 Clouds 17 1024 68 10000 5.14 80 11:53 13.03.2021
1538 Clouds 17 1024 68 10000 5.14 80 11:32 13.03.2021
1539 Clouds 16 1023 77 10000 7.2 120 10:58 13.03.2021
1540 Clouds 15 1023 77 10000 7.2 120 10:31 13.03.2021
1541 Clouds 14 1023 82 10000 2.06 180 09:59 13.03.2021
1542 Clouds 13 1023 82 10000 2.06 180 09:31 13.03.2021
1543 Clouds 14 1023 63 10000 3.09 120 08:54 13.03.2021
1544 Clouds 14 1023 63 10000 3.09 120 08:21 13.03.2021
1545 Clouds 13 1022 82 10000 3.09 120 07:57 13.03.2021
1546 Clouds 13 1022 82 10000 3.09 120 07:30 13.03.2021
1547 Clouds 14 1022 88 10000 3.6 70 05:29 13.03.2021
1548 Clouds 14 1023 100 8000 2.57 80 01:22 13.03.2021
1549 Clear 14 1023 100 9000 2.06 70 00:24 13.03.2021
1550 Clouds 14 1024 88 10000 3.09 40 23:33 12.03.2021
1551 Clear 14 1024 94 10000 3.6 40 22:57 12.03.2021
1552 Clear 14 1023 94 10000 4.63 30 22:30 12.03.2021
1553 Clouds 14 1023 94 10000 3.6 30 21:56 12.03.2021
1554 Clouds 14 1023 94 10000 3.6 30 21:56 12.03.2021
1555 Clouds 15 1023 82 10000 4.12 60 21:37 12.03.2021
1556 Clouds 15 1023 82 10000 4.12 60 21:37 12.03.2021
1557 Clouds 15 1023 82 10000 4.12 60 21:37 12.03.2021
1558 Clouds 15 1023 82 10000 4.12 60 21:18 12.03.2021
1559 Clouds 15 1023 82 10000 4.12 60 20:47 12.03.2021
1560 Clouds 16 1023 82 10000 4.12 60 20:22 12.03.2021
1561 Clouds 16 1023 72 10000 4.12 80 19:44 12.03.2021
1562 Clouds 17 1023 72 10000 4.12 80 19:25 12.03.2021
1563 Clouds 18 1023 68 10000 4.12 40 18:47 12.03.2021
1564 Clouds 18 1023 68 10000 4.12 40 18:25 12.03.2021
1565 Clouds 19 1023 63 10000 3.09 60 17:43 12.03.2021
1566 Clouds 19 1023 63 10000 3.09 60 17:24 12.03.2021
1567 Clouds 18 1023 68 10000 6.17 20 16:44 12.03.2021
1568 Clouds 18 1023 68 10000 6.17 20 16:23 12.03.2021
1569 Clouds 18 1023 68 10000 6.17 20 16:23 12.03.2021
1570 Clouds 18 1024 68 10000 7.2 360 15:38 12.03.2021
1571 Clouds 18 1025 68 10000 6.17 360 14:53 12.03.2021
1572 Clouds 18 1025 68 10000 6.17 360 14:22 12.03.2021
1573 Clouds 18 1026 59 10000 5.14 20 13:58 12.03.2021
1574 Clouds 18 1026 59 10000 5.14 20 13:58 12.03.2021
1575 Clouds 18 1026 59 10000 5.14 20 13:37 12.03.2021
1576 Clouds 18 1026 59 10000 5.14 20 13:18 12.03.2021
1577 Clouds 18 1025 63 10000 4.12 40 12:48 12.03.2021
1578 Clouds 18 1025 63 10000 4.12 40 12:27 12.03.2021
1579 Clouds 17 1026 72 10000 4.12 60 11:53 12.03.2021
1580 Clouds 16 1026 72 10000 4.12 60 11:24 12.03.2021
1581 Clear 15 1026 82 8000 3.09 180 10:57 12.03.2021
1582 Clear 14 1026 82 8000 3.09 180 10:28 12.03.2021
1583 Clear 14 1026 82 8000 3.09 180 10:28 12.03.2021
1584 Clear 11 1026 100 8000 2.06 180 09:57 12.03.2021
1585 Clear 10 1026 100 8000 2.06 180 09:26 12.03.2021
1586 Clear 7 1025 100 8000 2.06 180 08:47 12.03.2021
1587 Clear 8 1025 100 8000 2.06 180 08:26 12.03.2021
1588 Clear 8 1024 100 8000 2.06 180 07:40 12.03.2021
1589 Clear 7 1024 93 10000 1.54 150 06:57 12.03.2021
1590 Clear 7 1024 100 10000 2.57 130 06:29 12.03.2021
1591 Clear 11 1025 87 10000 1.03 0 02:58 12.03.2021
1592 Clear 12 1026 100 10000 1.03 40 00:51 12.03.2021
1593 Clear 13 1026 93 10000 1.54 120 23:34 11.03.2021
1594 Clear 13 1026 93 10000 2.57 110 22:51 11.03.2021
1595 Clear 13 1026 87 10000 1.54 90 22:31 11.03.2021
1596 Clear 14 1026 88 10000 2.57 50 21:56 11.03.2021
1597 Clear 15 1026 82 10000 4.12 20 21:37 11.03.2021
1598 Clear 15 1026 82 10000 4.12 20 21:19 11.03.2021
1599 Clear 15 1026 82 10000 4.12 20 20:41 11.03.2021
1600 Clear 16 1026 82 10000 4.12 20 20:19 11.03.2021
1601 Clear 17 1025 67 10000 7.2 20 19:45 11.03.2021
1602 Clear 17 1025 67 10000 7.2 20 19:26 11.03.2021
1603 Clear 18 1025 55 10000 5.14 360 18:48 11.03.2021
1604 Clear 18 1025 55 10000 5.14 360 18:29 11.03.2021
1605 Clear 18 1025 63 10000 3.09 60 17:44 11.03.2021
1606 Clear 19 1025 63 10000 3.09 60 16:54 11.03.2021
1607 Clear 19 1025 63 10000 3.09 60 16:28 11.03.2021
1608 Clear 20 1026 60 10000 3.09 60 15:49 11.03.2021
1609 Clear 20 1026 60 10000 3.09 60 15:22 11.03.2021
1610 Clear 20 1026 56 10000 3.09 60 14:49 11.03.2021
1611 Clear 20 1026 56 10000 3.09 60 14:20 11.03.2021
1612 Clear 20 1027 56 10000 3.09 60 13:49 11.03.2021
1613 Clear 19 1027 56 10000 3.09 60 13:31 11.03.2021
1614 Clear 18 1027 63 10000 3.09 60 12:58 11.03.2021
1615 Clear 18 1027 63 10000 3.09 60 12:39 11.03.2021
1616 Clear 18 1027 63 10000 3.09 60 12:21 11.03.2021
1617 Clear 17 1027 67 8000 3.09 20 11:43 11.03.2021
1618 Clear 15 1027 67 8000 3.09 20 11:21 11.03.2021
1619 Clear 15 1027 88 6000 2.06 40 10:42 11.03.2021
1620 Clear 13 1027 88 6000 2.06 40 10:20 11.03.2021
1621 Clear 11 1026 100 6000 1.03 40 09:41 11.03.2021
1622 Clear 11 1026 100 6000 1.03 40 09:22 11.03.2021
1623 Clear 8 1026 93 8000 2.06 180 08:47 11.03.2021
1624 Clear 9 1026 93 8000 2.06 180 08:19 11.03.2021
1625 Clear 7 1025 93 8000 1.54 140 07:29 11.03.2021
1626 Clear 9 1025 93 10000 1.03 0 06:50 11.03.2021
1627 Clear 8 1025 93 10000 2.06 100 06:30 11.03.2021
1628 -273 0 0 0 0 0 03:43 11.03.2021
1629 Clear 13 1025 93 10000 3.09 70 00:59 11.03.2021
1630 Clear 13 1025 87 10000 4.12 40 23:32 10.03.2021
1631 Clear 13 1025 87 10000 4.12 40 23:32 10.03.2021
1632 Clear 13 1025 87 9000 4.12 40 22:57 10.03.2021
1633 Clear 13 1025 87 10000 2.57 30 22:33 10.03.2021
1634 Clear 14 1025 82 10000 3.6 30 21:47 10.03.2021
1635 Clear 15 1024 77 10000 4.12 40 21:25 10.03.2021
1636 Clear 14 1024 77 10000 4.12 40 20:48 10.03.2021
1637 Clear 15 1024 77 10000 4.12 40 20:30 10.03.2021
1638 Clear 15 1023 67 10000 6.17 40 19:54 10.03.2021
1639 Clear 16 1023 67 10000 6.17 40 19:30 10.03.2021
1640 Clear 17 1023 63 10000 7.2 20 18:55 10.03.2021
1641 Clear 17 1023 63 10000 7.2 20 18:36 10.03.2021
1642 Clear 17 1023 63 10000 7.2 20 18:18 10.03.2021
1643 Clear 17 1023 63 10000 8.23 40 17:41 10.03.2021
1644 Clear 17 1023 63 10000 8.23 40 17:19 10.03.2021
1645 Clouds 18 1023 55 10000 8.75 20 16:47 10.03.2021
1646 Clouds 18 1023 55 10000 8.75 20 16:25 10.03.2021
1647 Clouds 18 1023 55 10000 8.75 20 15:49 10.03.2021
1648 Clouds 18 1023 55 10000 8.75 20 15:25 10.03.2021
1649 Clouds 18 1023 59 10000 6.17 20 14:57 10.03.2021
1650 Clouds 18 1023 59 10000 6.17 20 14:22 10.03.2021
1651 Clouds 17 1023 59 10000 6.17 60 13:53 10.03.2021
1652 Clouds 17 1023 59 10000 6.17 60 13:31 10.03.2021
1653 Clouds 16 1024 63 10000 5.14 80 12:48 10.03.2021
1654 Clouds 16 1024 63 10000 5.14 80 12:24 10.03.2021
1655 Clear 16 1024 67 8000 2.06 160 11:50 10.03.2021
1656 Clear 15 1024 67 8000 2.06 160 11:25 10.03.2021
1657 Clear 13 1023 82 8000 2.06 180 10:51 10.03.2021
1658 Clear 12 1023 82 8000 2.06 180 10:32 10.03.2021
1659 Clear 10 1023 93 8000 2.06 160 09:55 10.03.2021
1660 Clear 9 1023 93 8000 2.06 160 09:37 10.03.2021
1661 Clear 9 1023 93 8000 2.06 160 09:18 10.03.2021
1662 Clear 6 1022 100 8000 2.06 180 08:43 10.03.2021
1663 Clouds 6 1022 100 8000 2.06 180 08:25 10.03.2021
1664 Clouds 7 1021 93 8000 1.03 160 07:42 10.03.2021
1665 Clouds 7 1021 93 8000 1.03 160 07:24 10.03.2021
1666 Clouds 6 1021 93 10000 1.54 140 06:51 10.03.2021
1667 Clouds 10 1021 93 10000 1.54 140 02:43 10.03.2021
1668 Clouds 11 1021 93 10000 2.06 100 00:31 10.03.2021
1669 Clouds 11 1021 76 10000 2.06 50 23:33 09.03.2021
1670 Clouds 12 1020 76 10000 2.06 40 22:52 09.03.2021
1671 Clouds 12 1020 82 10000 2.57 40 22:34 09.03.2021
1672 Clouds 12 1020 82 10000 2.57 30 21:58 09.03.2021
1673 Clouds 13 1018 67 10000 4.63 340 21:38 09.03.2021
1674 Clouds 13 1018 67 10000 4.63 340 21:19 09.03.2021
1675 Clouds 14 1018 67 10000 4.63 340 20:45 09.03.2021
1676 Clouds 14 1018 67 10000 4.63 340 20:23 09.03.2021
1677 Clouds 15 1018 51 10000 4.63 340 19:57 09.03.2021
1678 Clouds 15 1018 51 10000 4.63 340 19:29 09.03.2021
1679 Clouds 16 1017 59 10000 4.63 340 18:54 09.03.2021
1680 Clouds 16 1017 59 10000 4.63 340 18:30 09.03.2021
1681 Clouds 17 1017 51 10000 4.63 340 17:59 09.03.2021
1682 Clouds 16 1017 51 10000 4.63 340 17:39 09.03.2021
1683 Clouds 16 1017 51 10000 4.63 340 17:20 09.03.2021
1684 Clouds 17 1017 59 10000 5.14 360 16:40 09.03.2021
1685 Clouds 17 1017 59 10000 5.14 360 16:20 09.03.2021
1686 Clouds 17 1018 51 10000 5.14 320 15:47 09.03.2021
1687 Clouds 16 1018 51 10000 5.14 320 15:24 09.03.2021
1688 Clouds 16 1018 55 10000 2.06 60 14:46 09.03.2021
1689 Clouds 16 1018 55 10000 2.06 60 14:24 09.03.2021
1690 Clouds 15 1018 63 10000 1.03 320 13:39 09.03.2021
1691 Clouds 15 1018 63 10000 1.03 320 13:21 09.03.2021
1692 Clouds 14 1019 63 10000 1.03 80 12:46 09.03.2021
1693 Clouds 14 1019 63 10000 1.03 80 12:27 09.03.2021
1694 Clouds 13 1019 88 10000 2.06 300 11:42 09.03.2021
1695 Clouds 13 1019 88 10000 2.06 300 11:21 09.03.2021
1696 Clouds 13 1018 82 10000 2.06 240 10:57 09.03.2021
1697 Clouds 12 1018 82 10000 2.06 240 10:39 09.03.2021
1698 Clouds 12 1018 82 10000 2.06 240 10:20 09.03.2021
1699 Clouds 12 1018 82 10000 2.06 240 10:20 09.03.2021
1700 Clouds 11 1017 87 10000 1.54 140 09:44 09.03.2021
1701 Clouds 11 1017 87 10000 1.54 140 09:26 09.03.2021
1702 Clouds 10 1017 87 10000 3.09 200 08:48 09.03.2021
1703 Clouds 10 1017 87 10000 3.09 200 08:29 09.03.2021
1704 Clouds 12 1016 93 10000 3.09 200 07:40 09.03.2021
1705 Clouds 12 1016 93 10000 3.09 200 07:21 09.03.2021
1706 Clouds 11 1016 93 10000 1.54 230 06:38 09.03.2021
1707 Clouds 11 1017 100 10000 2.06 180 05:48 09.03.2021
1708 Clouds 13 1018 87 10000 2.06 20 00:43 09.03.2021
1709 Clouds 12 1018 93 10000 2.06 350 23:45 08.03.2021
1710 Clouds 12 1018 93 10000 1.54 280 23:27 08.03.2021
1711 Clouds 12 1018 93 10000 1.03 260 22:58 08.03.2021
1712 Clouds 12 1018 93 10000 1.03 220 22:39 08.03.2021
1713 Clouds 12 1018 93 10000 1.03 220 22:20 08.03.2021
1714 Clouds 12 1017 87 10000 2.06 340 21:40 08.03.2021
1715 Clouds 13 1017 67 10000 4.12 340 21:20 08.03.2021
1716 Clouds 13 1017 67 10000 4.12 340 20:38 08.03.2021
1717 Clouds 13 1017 67 10000 4.12 340 20:18 08.03.2021
1718 Clouds 15 1016 63 10000 4.12 340 19:38 08.03.2021
1719 Clouds 15 1016 63 10000 6.17 360 18:48 08.03.2021
1720 Clouds 15 1016 63 10000 6.17 360 18:23 08.03.2021
1721 Clouds 16 1016 63 10000 9.26 340 17:57 08.03.2021
1722 Clouds 16 1016 63 10000 9.26 340 17:38 08.03.2021
1723 Clouds 16 1017 72 10000 4.12 340 16:58 08.03.2021
1724 Clouds 16 1017 72 10000 4.12 340 16:33 08.03.2021
1725 Clouds 16 1017 63 10000 4.12 320 15:59 08.03.2021
1726 Clouds 16 1017 63 10000 4.12 320 15:38 08.03.2021
1727 Clouds 16 1017 63 10000 4.12 320 15:18 08.03.2021
1728 Clouds 16 1017 72 10000 4.12 320 14:21 08.03.2021
1729 Clouds 16 1018 63 10000 5.14 340 13:47 08.03.2021
1730 Clouds 16 1018 63 10000 5.14 340 13:23 08.03.2021
1731 Clouds 16 1018 67 10000 3.09 360 12:55 08.03.2021
1732 Clouds 15 1018 67 10000 3.09 360 12:29 08.03.2021
1733 Clouds 14 1018 72 8000 5.14 340 11:45 08.03.2021
1734 Clouds 14 1018 72 8000 5.14 340 11:20 08.03.2021
1735 Clouds 14 1018 94 8000 5.14 340 10:47 08.03.2021
1736 Clouds 13 1018 94 8000 5.14 340 10:28 08.03.2021
1737 Clouds 13 1018 94 8000 2.06 180 09:45 08.03.2021
1738 Clouds 13 1018 94 8000 2.06 180 09:25 08.03.2021
1739 Clouds 12 1017 94 8000 3.09 180 08:31 08.03.2021
1740 Clouds 12 1017 94 8000 3.09 220 07:49 08.03.2021
1741 Clouds 12 1017 94 8000 3.09 220 07:21 08.03.2021
1742 Mist 13 1017 100 5000 1.54 270 05:20 08.03.2021
1743 Mist 13 1019 100 4500 2.06 250 01:45 08.03.2021
1744 Mist 11 1019 100 1000 2.06 230 00:41 08.03.2021
1745 Mist 14 1019 100 2800 1.54 240 23:53 07.03.2021
1746 Mist 14 1019 100 2800 1.03 0 23:20 07.03.2021
1747 Mist 14 1019 94 4000 1.03 0 22:46 07.03.2021
1748 Mist 14 1019 100 4500 2.06 250 22:26 07.03.2021
1749 Clouds 14 1019 100 10000 1.54 290 21:49 07.03.2021
1750 Clouds 15 1018 88 10000 2.06 360 21:31 07.03.2021
1751 Clouds 15 1018 88 10000 2.06 360 20:57 07.03.2021
1752 Clouds 15 1018 88 10000 2.06 360 20:37 07.03.2021
1753 Clouds 15 1018 88 10000 2.06 360 20:18 07.03.2021
1754 Clouds 16 1018 82 10000 7.2 360 19:40 07.03.2021
1755 Clouds 16 1018 82 10000 7.2 360 19:22 07.03.2021
1756 Clouds 16 1017 82 10000 7.2 320 18:50 07.03.2021
1757 Clouds 16 1017 82 10000 7.2 320 18:20 07.03.2021
1758 Clouds 16 1017 77 10000 6.17 340 17:56 07.03.2021
1759 Clouds 17 1017 77 10000 6.17 340 17:37 07.03.2021
1760 Clouds 17 1017 77 10000 6.17 340 17:18 07.03.2021
1761 Clouds 17 1017 77 10000 6.17 340 17:18 07.03.2021
1762 Clouds 17 1017 72 10000 7.2 320 16:42 07.03.2021
1763 Clouds 17 1017 72 10000 7.2 320 16:20 07.03.2021
1764 Clouds 17 1018 82 10000 6.17 320 15:47 07.03.2021
1765 Clouds 17 1018 82 10000 6.17 320 15:29 07.03.2021
1766 Clouds 17 1018 82 10000 7.2 320 14:47 07.03.2021
1767 Clouds 17 1018 82 10000 7.2 320 14:28 07.03.2021
1768 Clouds 17 1018 82 10000 6.17 320 13:44 07.03.2021
1769 Clouds 16 1018 82 10000 6.17 320 13:24 07.03.2021
1770 Clouds 16 1019 88 8000 7.2 320 12:47 07.03.2021
1771 Clouds 16 1019 88 8000 7.2 320 12:29 07.03.2021
1772 Clouds 16 1019 88 8000 7.2 320 12:29 07.03.2021
1773 Clouds 14 1019 100 6000 1.03 120 11:52 07.03.2021
1774 Clouds 14 1019 100 6000 1.03 120 11:23 07.03.2021
1775 Clouds 14 1018 100 5000 1.54 100 10:50 07.03.2021
1776 Clouds 14 1018 100 5000 1.54 100 10:31 07.03.2021
1777 Clouds 13 1018 100 6000 2.57 180 09:51 07.03.2021
1778 Clouds 13 1018 100 6000 2.57 180 09:26 07.03.2021
1779 Clouds 12 1017 100 10000 2.06 180 08:48 07.03.2021
1780 Clouds 12 1017 100 10000 2.06 180 08:25 07.03.2021
1781 Clouds 12 1013 94 10000 2.06 180 07:51 07.03.2021
1782 Clouds 12 1017 100 7000 3.09 200 02:44 07.03.2021
1783 Clouds 11 1017 100 6000 2.57 210 01:45 07.03.2021
1784 Clouds 12 1018 93 7000 2.06 160 23:56 06.03.2021
1785 Clouds 12 1017 100 10000 2.06 210 23:37 06.03.2021
1786 Clouds 12 1017 93 10000 1.03 220 22:52 06.03.2021
1787 Clouds 13 1017 93 10000 0.51 0 22:30 06.03.2021
1788 Clouds 13 1017 94 10000 1.54 320 21:59 06.03.2021
1789 Clouds 14 1016 82 10000 4.12 340 21:25 06.03.2021
1790 Clouds 15 1016 82 10000 4.12 340 20:55 06.03.2021
1791 Clouds 15 1016 82 10000 4.12 340 20:36 06.03.2021
1792 Clouds 15 1015 72 10000 5.14 320 19:50 06.03.2021
1793 Clouds 15 1015 72 10000 5.14 320 19:23 06.03.2021
1794 Clouds 16 1015 67 10000 4.12 320 18:57 06.03.2021
1795 Clouds 16 1015 67 10000 4.12 320 18:38 06.03.2021
1796 Clouds 16 1015 67 10000 4.12 320 18:18 06.03.2021
1797 Clouds 17 1014 77 10000 3.09 280 17:45 06.03.2021
1798 Clouds 17 1014 77 10000 3.09 280 17:25 06.03.2021
1799 Clouds 17 1014 72 10000 4.12 20 16:52 06.03.2021
1800 Clouds 17 1014 72 10000 4.12 20 16:29 06.03.2021
1801 Clouds 17 1014 67 10000 6.17 340 15:54 06.03.2021
1802 Clouds 17 1014 67 10000 6.17 340 15:34 06.03.2021
1803 Clouds 16 1015 72 10000 6.17 340 14:54 06.03.2021
1804 Clouds 16 1015 72 10000 6.17 340 14:30 06.03.2021
1805 Clouds 17 1015 68 10000 3.09 240 13:44 06.03.2021
1806 Clouds 17 1015 68 10000 3.09 240 13:23 06.03.2021
1807 Clouds 16 1015 72 8000 3.09 240 12:46 06.03.2021
1808 Clouds 16 1015 72 8000 3.09 240 12:20 06.03.2021
1809 Clouds 16 1015 72 8000 3.09 240 12:20 06.03.2021
1810 Clouds 16 1015 72 8000 3.09 240 12:20 06.03.2021
1811 Clouds 16 1015 72 8000 3.09 240 12:20 06.03.2021
1812 Clouds 16 1015 88 6000 3.09 180 11:57 06.03.2021
1813 Clouds 15 1015 88 6000 3.09 180 11:22 06.03.2021
1814 Mist 13 1014 100 4000 4.12 180 10:52 06.03.2021
1815 Mist 13 1014 100 4000 4.12 180 10:28 06.03.2021
1816 Mist 12 1014 94 4000 4.12 180 09:50 06.03.2021
1817 Mist 12 1014 94 4000 4.12 180 09:21 06.03.2021
1818 Mist 11 1013 100 3000 4.12 180 08:52 06.03.2021
1819 Mist 12 1013 100 3000 4.12 180 08:22 06.03.2021
1820 Mist 12 1013 100 3000 6.17 180 07:41 06.03.2021
1821 Mist 12 1013 100 4000 2.57 200 07:20 06.03.2021
1822 Mist 11 1012 100 3000 3.09 220 05:38 06.03.2021
1823 Clouds 13 1012 100 8000 1.54 320 02:51 06.03.2021
1824 Clouds 12 1012 100 3000 1.03 0 01:27 06.03.2021
1825 Clouds 12 1013 100 900 2.57 20 00:39 06.03.2021
1826 Clouds 12 1013 100 2500 1.54 110 23:34 05.03.2021
1827 Clouds 12 1013 100 3000 2.57 150 22:58 05.03.2021
1828 Clouds 12 1013 100 4000 2.06 160 22:39 05.03.2021
1829 Clouds 12 1013 100 4000 2.06 160 22:20 05.03.2021
1830 Clouds 12 1012 94 8000 2.06 150 21:41 05.03.2021
1831 Clouds 13 1012 94 8000 4.12 180 21:22 05.03.2021
1832 Clouds 13 1012 94 8000 4.12 180 20:42 05.03.2021
1833 Clouds 13 1012 94 8000 4.12 180 20:23 05.03.2021
1834 Clouds 13 1012 88 5000 3.09 200 19:44 05.03.2021
1835 Clouds 13 1012 88 5000 3.09 200 19:22 05.03.2021
1836 Clouds 14 1012 88 5000 3.09 120 18:44 05.03.2021
1837 Clouds 14 1012 88 5000 3.09 120 18:25 05.03.2021
1838 Clouds 14 1012 82 6000 3.09 120 17:49 05.03.2021
1839 Clouds 14 1012 82 6000 3.09 120 17:31 05.03.2021
1840 Clouds 15 1012 82 10000 3.09 20 16:42 05.03.2021
1841 Clouds 15 1012 82 10000 3.09 20 16:23 05.03.2021
1842 Clouds 17 1013 72 6000 2.06 220 15:54 05.03.2021
1843 Clouds 18 1013 72 6000 2.06 220 15:27 05.03.2021
1844 Clouds 19 1013 52 10000 6.17 220 14:43 05.03.2021
1845 Clouds 19 1013 52 10000 6.17 220 14:24 05.03.2021
1846 Clouds 18 1014 59 10000 6.17 200 13:43 05.03.2021
1847 Clouds 18 1014 59 10000 6.17 200 13:21 05.03.2021
1848 Clouds 17 1014 72 10000 7.2 240 12:43 05.03.2021
1849 Clouds 15 1015 82 6000 7.2 220 11:39 05.03.2021
1850 Clouds 15 1015 82 6000 7.2 220 11:39 05.03.2021
1851 Clouds 15 1015 82 6000 7.2 220 11:19 05.03.2021
1852 Clouds 14 1015 94 5000 5.14 200 10:45 05.03.2021
1853 Clouds 14 1015 94 5000 5.14 200 10:26 05.03.2021
1854 Clouds 12 1015 100 5000 5.14 180 09:58 05.03.2021
1855 Clouds 12 1015 100 5000 5.14 180 09:38 05.03.2021
1856 Clouds 12 1015 100 5000 5.14 180 09:20 05.03.2021
1857 Clouds 11 1015 100 10000 3.09 200 08:38 05.03.2021
1858 Clouds 11 1015 100 10000 3.09 200 08:20 05.03.2021
1859 Clouds 12 1014 100 8000 2.57 200 07:33 05.03.2021
1860 Clouds 12 1015 100 10000 2.06 220 06:34 05.03.2021
1861 Clouds 11 1015 100 10000 1.54 230 05:41 05.03.2021
1862 Clouds 14 1016 100 10000 2.57 200 01:18 05.03.2021
1863 Clouds 13 1017 94 10000 2.06 200 23:54 04.03.2021
1864 Clouds 14 1017 94 10000 2.57 210 23:24 04.03.2021
1865 Clouds 14 1017 94 10000 3.09 230 22:30 04.03.2021
1866 Clouds 14 1017 94 10000 2.57 230 21:53 04.03.2021
1867 Clouds 15 1016 82 8000 4.12 260 21:32 04.03.2021
1868 Clouds 16 1016 82 8000 4.12 260 20:58 04.03.2021
1869 Clouds 16 1016 82 8000 4.12 260 20:39 04.03.2021
1870 Clouds 16 1016 82 8000 4.12 260 20:20 04.03.2021
1871 Clouds 16 1016 82 8000 3.09 260 19:49 04.03.2021
1872 Clouds 16 1016 82 8000 3.09 260 19:23 04.03.2021
1873 Clouds 17 1017 82 8000 6.17 280 18:51 04.03.2021
1874 Clouds 17 1017 82 8000 6.17 280 18:30 04.03.2021
1875 Clouds 18 1016 77 8000 6.17 260 17:48 04.03.2021
1876 Clouds 18 1016 77 8000 6.17 260 17:30 04.03.2021
1877 Clouds 19 1016 72 8000 6.17 280 16:51 04.03.2021
1878 Clouds 19 1016 72 8000 6.17 280 16:32 04.03.2021
1879 Clouds 19 1017 77 8000 6.17 280 15:57 04.03.2021
1880 Clouds 19 1017 77 8000 6.17 280 15:38 04.03.2021
1881 Clouds 19 1017 77 8000 6.17 280 15:20 04.03.2021
1882 Clouds 19 1017 72 6000 5.14 240 14:39 04.03.2021
1883 Clouds 18 1017 77 6000 3.09 260 13:57 04.03.2021
1884 Clouds 18 1017 77 6000 3.09 260 13:36 04.03.2021
1885 Clouds 18 1017 77 6000 3.09 260 13:18 04.03.2021
1886 Clouds 17 1018 82 6000 5.14 240 12:40 04.03.2021
1887 Clouds 16 1018 88 6000 3.09 180 11:49 04.03.2021
1888 Clouds 15 1018 88 6000 3.09 180 11:28 04.03.2021
1889 Clouds 14 1018 94 6000 2.06 200 10:57 04.03.2021
1890 Clouds 13 1018 94 6000 2.06 200 10:35 04.03.2021
1891 Clouds 12 1017 94 6000 3.09 180 09:51 04.03.2021
1892 Clouds 12 1017 94 6000 3.09 180 09:26 04.03.2021
1893 Clouds 12 1017 100 6000 2.06 200 08:49 04.03.2021
1894 Clouds 12 1017 100 6000 2.06 200 08:23 04.03.2021
1895 Clouds 11 1017 100 10000 2.06 200 07:35 04.03.2021
1896 Clouds 9 1017 100 7000 1.03 200 06:28 04.03.2021
1897 Clouds 9 1017 93 6000 1.03 220 05:42 04.03.2021
1898 Mist 10 1019 100 4000 2.06 220 01:49 04.03.2021
1899 Clouds 12 1020 100 8000 2.06 140 23:36 03.03.2021
1900 Clouds 13 1020 94 8000 1.54 280 22:29 03.03.2021
1901 Clouds 13 1020 94 8000 2.06 320 21:57 03.03.2021
1902 Clear 15 1020 77 8000 4.12 60 21:39 03.03.2021
1903 Clear 15 1020 77 8000 4.12 60 21:21 03.03.2021
1904 Clear 16 1020 77 8000 4.12 60 20:43 03.03.2021
1905 Clear 17 1020 77 8000 4.12 60 20:24 03.03.2021
1906 Clear 18 1020 72 10000 5.14 20 19:47 03.03.2021
1907 Clear 18 1020 72 10000 5.14 20 19:28 03.03.2021
1908 Clear 19 1020 68 10000 5.14 20 18:53 03.03.2021
1909 Clear 19 1020 68 10000 5.14 20 18:34 03.03.2021
1910 Clear 20 1020 68 10000 5.14 20 17:57 03.03.2021
1911 Clear 20 1020 68 10000 5.14 20 17:20 03.03.2021
1912 Clouds 17 1025 88 6000 2.57 180 16:51 03.03.2021
1913 Clouds 17 1025 88 6000 2.57 180 16:27 03.03.2021
1914 Clear 20 1020 68 10000 5.14 20 15:51 03.03.2021
1915 Clear 19 1020 68 10000 5.14 20 15:31 03.03.2021
1916 Clear 19 1021 63 10000 6.17 60 14:39 03.03.2021
1917 Clear 19 1021 63 10000 6.17 60 14:20 03.03.2021
1918 Clear 19 1022 63 8000 3.09 40 13:39 03.03.2021
1919 Clear 19 1022 63 8000 3.09 40 13:21 03.03.2021
1920 Clear 18 1022 68 8000 4.12 40 12:41 03.03.2021
1921 Clear 17 1022 68 8000 4.12 40 12:22 03.03.2021
1922 Clear 16 1022 72 6000 3.09 40 11:44 03.03.2021
1923 Clear 16 1022 72 6000 3.09 40 11:26 03.03.2021
1924 Clear 15 1022 88 6000 1.03 40 10:45 03.03.2021
1925 Clear 14 1022 88 6000 1.03 40 10:21 03.03.2021
1926 Clear 10 1022 93 6000 1.03 180 09:41 03.03.2021
1927 Clear 9 1021 93 8000 1.03 160 08:52 03.03.2021
1928 Clear 9 1021 93 8000 1.03 160 08:24 03.03.2021
1929 Clear 9 1021 93 10000 1.03 140 07:55 03.03.2021
1930 Clear 9 1021 93 10000 1.03 140 07:26 03.03.2021
1931 Fog 12 1021 100 350 1.54 130 06:21 03.03.2021
1932 Fog 12 1021 100 400 1.03 190 05:44 03.03.2021
1933 Mist 12 1022 100 2000 2.57 120 04:36 03.03.2021
1934 Clear 12 1022 100 5000 2.06 110 03:53 03.03.2021
1935 Clouds 13 1023 100 8000 2.06 70 00:19 03.03.2021
1936 Clouds 14 1023 94 10000 2.57 40 23:32 02.03.2021
1937 Clouds 14 1023 94 8000 3.09 40 22:50 02.03.2021
1938 Clouds 14 1023 94 8000 3.09 40 22:21 02.03.2021
1939 Clouds 14 1023 88 8000 3.09 30 21:51 02.03.2021
1940 Clear 15 1022 82 10000 4.12 40 21:32 02.03.2021
1941 Clear 15 1022 82 10000 4.12 40 20:55 02.03.2021
1942 Clear 16 1022 82 10000 4.12 40 20:37 02.03.2021
1943 Clear 16 1022 82 10000 4.12 40 20:19 02.03.2021
1944 Clear 17 1021 72 10000 3.09 20 19:46 02.03.2021
1945 Clear 17 1021 72 10000 3.09 20 19:26 02.03.2021
1946 Clear 18 1021 68 10000 5.14 40 18:41 02.03.2021
1947 Clear 18 1021 68 10000 5.14 40 18:21 02.03.2021
1948 Clouds 19 1021 63 10000 6.17 360 17:57 02.03.2021
1949 Clouds 19 1021 63 10000 6.17 360 17:38 02.03.2021
1950 Clouds 19 1021 63 10000 6.17 360 17:18 02.03.2021
1951 Clouds 19 1021 63 10000 4.12 360 16:40 02.03.2021
1952 Clouds 19 1021 63 10000 6.17 340 15:54 02.03.2021
1953 Clouds 19 1021 63 10000 6.17 340 15:26 02.03.2021
1954 Clouds 19 1022 68 10000 4.12 340 14:42 02.03.2021
1955 Clouds 19 1022 68 10000 4.12 340 14:18 02.03.2021
1956 Clouds 18 1022 68 10000 3.09 320 13:42 02.03.2021
1957 Clouds 18 1022 68 10000 3.09 320 13:23 02.03.2021
1958 Clouds 18 1022 77 8000 4.12 280 12:45 02.03.2021
1959 Clouds 18 1022 77 8000 4.12 280 12:24 02.03.2021
1960 Clouds 17 1022 82 6000 2.06 300 11:44 02.03.2021
1961 Clouds 16 1022 82 6000 2.06 300 11:22 02.03.2021
1962 Mist 14 1022 94 4000 3.09 200 10:43 02.03.2021
1963 Mist 13 1022 94 4000 3.09 200 10:24 02.03.2021
1964 Mist 11 1021 100 3000 2.06 180 09:41 02.03.2021
1965 Mist 10 1021 100 3000 2.06 180 09:21 02.03.2021
1966 Fog 9 1020 100 800 2.06 160 08:40 02.03.2021
1967 Fog 9 1020 100 800 2.06 160 08:21 02.03.2021
1968 Fog 9 1020 100 800 3.09 160 07:38 02.03.2021
1969 Mist 8 1019 93 2000 2.06 150 06:36 02.03.2021
1970 Mist 8 1019 93 2000 2.06 150 05:46 02.03.2021
1971 Mist 8 1019 93 2000 2.06 150 05:46 02.03.2021
1972 Fog 8 1019 100 300 1.03 0 05:28 02.03.2021
1973 Clouds 12 1019 100 5000 2.06 210 01:46 02.03.2021
1974 Clouds 12 1019 100 5000 2.06 220 01:28 02.03.2021
1975 Clouds 13 1019 93 10000 1.54 190 00:51 02.03.2021
1976 Clouds 13 1019 93 10000 1.54 190 23:28 01.03.2021
1977 Clouds 13 1019 93 10000 1.03 0 22:42 01.03.2021
1978 Clouds 13 1019 93 10000 0.51 120 22:23 01.03.2021
1979 Clouds 14 1019 93 10000 0.7 288 21:50 01.03.2021
1980 Clouds 15 1017 77 10000 3.6 340 21:24 01.03.2021
1981 Clouds 15 1017 77 10000 3.6 340 20:48 01.03.2021
1982 Clouds 15 1017 77 10000 3.6 340 20:28 01.03.2021
1983 Clouds 16 1016 72 10000 3.09 300 19:55 01.03.2021
1984 Clouds 17 1016 72 10000 3.09 300 19:33 01.03.2021
1985 Clouds 17 1016 72 10000 4.63 320 18:59 01.03.2021
1986 Clouds 17 1016 72 10000 4.63 320 18:36 01.03.2021
1987 Clouds 17 1016 72 10000 4.63 320 18:18 01.03.2021
1988 Clouds 18 1015 72 10000 2.57 20 17:41 01.03.2021
1989 Clouds 18 1015 72 10000 2.57 20 17:19 01.03.2021
1990 Clouds 19 1015 68 10000 5.14 320 16:43 01.03.2021
1991 Clouds 18 1015 68 10000 5.14 320 16:24 01.03.2021
1992 Clouds 19 1015 55 10000 4.12 340 15:41 01.03.2021
1993 Clouds 19 1015 55 10000 4.12 340 15:20 01.03.2021
1994 Clouds 19 1015 63 10000 4.12 80 14:47 01.03.2021
1995 Clouds 19 1015 63 10000 4.12 80 14:29 01.03.2021
1996 Clouds 18 1016 63 8000 4.12 20 13:43 01.03.2021
1997 Clouds 18 1016 63 8000 4.12 20 13:23 01.03.2021
1998 Clouds 18 1015 68 5000 2.06 60 12:55 01.03.2021
1999 Clouds 17 1015 68 5000 2.06 60 12:36 01.03.2021
2000 Clouds 17 1015 68 5000 2.06 60 12:18 01.03.2021
2001 Clouds 17 1015 77 5000 2.06 80 11:40 01.03.2021
2002 Mist 14 1015 88 3000 2.06 140 10:44 01.03.2021
2003 Mist 13 1015 88 3000 2.06 140 10:23 01.03.2021
2004 Mist 10 1014 93 3000 2.57 160 09:58 01.03.2021
2005 Mist 9 1014 93 3000 2.57 160 09:40 01.03.2021
2006 Mist 9 1014 93 3000 2.57 160 09:21 01.03.2021
2007 Clouds 8 1014 93 6000 1.54 180 08:48 01.03.2021
2008 Clouds 7 1014 93 6000 1.54 180 08:18 01.03.2021
2009 Clouds 7 1013 93 10000 2.57 230 06:53 01.03.2021
2010 Clouds 11 1013 93 10000 2.06 90 04:21 01.03.2021
2011 Clouds 12 1014 93 10000 2.06 130 00:44 01.03.2021
2012 Clouds 12 1014 93 10000 2.06 110 23:36 28.02.2021
2013 Clouds 13 1014 87 10000 2.57 110 22:51 28.02.2021
2014 Clouds 13 1014 87 10000 3.09 90 22:23 28.02.2021
2015 Clouds 14 1014 88 10000 3.6 70 21:49 28.02.2021
2016 Clouds 15 1013 82 10000 3.09 40 21:28 28.02.2021
2017 Clouds 15 1013 82 10000 3.09 40 20:56 28.02.2021
2018 Clouds 15 1013 82 10000 3.09 40 20:36 28.02.2021
2019 Clouds 15 1012 82 10000 4.12 40 19:47 28.02.2021
2020 Clouds 15 1012 82 10000 4.12 40 19:47 28.02.2021
2021 Clouds 15 1012 82 10000 4.12 40 19:28 28.02.2021
2022 Clouds 16 1012 77 10000 4.12 20 18:57 28.02.2021
2023 Clouds 16 1012 77 10000 4.12 20 18:57 28.02.2021
2024 Clouds 16 1012 77 10000 4.12 20 18:37 28.02.2021
2025 Clouds 16 1012 77 10000 4.12 20 18:18 28.02.2021
2026 Clouds 16 1012 77 10000 4.12 20 17:45 28.02.2021
2027 Clouds 16 1012 77 10000 4.12 20 17:27 28.02.2021
2028 Clouds 17 1012 72 10000 3.09 20 16:50 28.02.2021
2029 Clouds 16 1012 72 10000 3.09 20 16:30 28.02.2021
2030 Clouds 16 1013 72 10000 3.09 340 15:53 28.02.2021
2031 Clouds 16 1013 72 10000 3.09 340 15:53 28.02.2021
2032 Clouds 16 1013 72 10000 3.09 340 15:31 28.02.2021
2033 Clouds 17 1013 63 10000 2.06 280 14:58 28.02.2021
2034 Clouds 17 1013 63 10000 2.06 280 14:39 28.02.2021
2035 Clouds 17 1013 63 10000 2.06 280 14:20 28.02.2021
2036 Clouds 17 1014 67 10000 3.09 180 13:41 28.02.2021
2037 Clouds 17 1014 67 10000 3.09 180 13:41 28.02.2021
2038 Clouds 18 1014 67 10000 3.09 180 13:19 28.02.2021
2039 Clouds 16 1015 88 10000 2.06 60 12:54 28.02.2021
2040 Clouds 15 1015 88 10000 2.06 60 12:36 28.02.2021
2041 Clouds 15 1015 88 10000 2.06 60 12:18 28.02.2021
2042 Clouds 14 1015 94 10000 1.03 120 11:42 28.02.2021
2043 Clouds 13 1015 94 10000 1.03 120 11:22 28.02.2021
2044 Clear 12 1015 100 10000 2.06 160 10:45 28.02.2021
2045 Clear 12 1015 100 10000 2.06 160 10:25 28.02.2021
2046 Clear 11 1015 93 10000 2.06 160 09:40 28.02.2021
2047 Clear 10 1015 93 10000 2.06 160 09:22 28.02.2021
2048 Clear 10 1015 100 10000 1.03 100 08:46 28.02.2021
2049 Clear 10 1015 100 10000 1.03 100 08:28 28.02.2021
2050 Clear 10 1015 93 10000 2.06 140 07:50 28.02.2021
2051 Clear 10 1015 93 10000 2.06 140 07:28 28.02.2021
2052 Clear 11 1015 100 10000 2.06 190 06:25 28.02.2021
2053 Mist 11 1015 100 4000 1.54 180 05:23 28.02.2021
2054 Clouds 13 1016 100 6000 2.06 190 02:40 28.02.2021
2055 Clouds 13 1016 100 10000 1.54 220 01:36 28.02.2021
2056 Clouds 14 1016 100 10000 2.06 220 00:43 28.02.2021
2057 Clouds 14 1017 94 10000 1.03 0 00:21 28.02.2021
2058 Clouds 14 1017 88 10000 1.54 100 23:44 27.02.2021
2059 Clouds 14 1017 94 10000 1.54 30 23:18 27.02.2021
2060 Clouds 14 1017 88 10000 1.03 0 22:43 27.02.2021
2061 Clouds 13 1017 100 10000 2.06 260 22:18 27.02.2021
2062 Clouds 15 1016 77 10000 3.09 20 21:38 27.02.2021
2063 Clouds 15 1016 77 10000 3.09 20 21:38 27.02.2021
2064 Clouds 15 1016 77 10000 3.09 20 21:20 27.02.2021
2065 Clouds 15 1016 77 10000 3.09 20 20:46 27.02.2021
2066 Clouds 15 1016 77 10000 3.09 20 20:26 27.02.2021
2067 Clouds 15 1016 77 10000 5.14 320 19:45 27.02.2021
2068 Clouds 16 1016 77 10000 5.14 320 19:25 27.02.2021
2069 Clouds 16 1017 72 10000 4.63 320 18:43 27.02.2021
2070 Clouds 16 1017 72 10000 4.63 320 18:21 27.02.2021
2071 Clouds 17 1017 67 10000 5.66 340 17:45 27.02.2021
2072 Clouds 17 1017 67 10000 5.66 340 17:21 27.02.2021
2073 Clouds 17 1017 77 10000 4.12 300 16:59 27.02.2021
2074 Clouds 17 1017 77 10000 4.12 300 16:41 27.02.2021
2075 Clouds 17 1017 77 10000 4.12 300 16:23 27.02.2021
2076 Clouds 16 1018 77 10000 6.17 320 15:39 27.02.2021
2077 Clouds 17 1019 72 10000 3.6 320 14:52 27.02.2021
2078 Clouds 17 1019 72 10000 3.6 320 14:33 27.02.2021
2079 Clouds 17 1020 72 10000 3.6 280 13:56 27.02.2021
2080 Clouds 17 1020 72 10000 3.6 280 13:33 27.02.2021
2081 Clouds 16 1020 77 10000 4.12 32 12:58 27.02.2021
2082 Clouds 16 1020 77 10000 4.12 32 12:36 27.02.2021
2083 Clouds 16 1020 77 10000 4.12 32 12:18 27.02.2021
2084 Clouds 15 1020 77 10000 1.03 360 11:42 27.02.2021
2085 Clouds 15 1020 77 10000 1.03 360 11:23 27.02.2021
2086 Clouds 13 1020 94 8000 0.65 89 10:46 27.02.2021
2087 Clouds 13 1020 94 8000 0.96 164 10:28 27.02.2021
2088 Clouds 11 1020 93 10000 1.03 140 09:50 27.02.2021
2089 Clouds 11 1020 93 10000 1.03 140 09:26 27.02.2021
2090 Clouds 10 1020 93 10000 1.03 140 08:42 27.02.2021
2091 Clouds 10 1020 93 10000 1.03 140 08:21 27.02.2021
2092 Clouds 10 1020 93 10000 1.03 180 07:42 27.02.2021
2093 Clouds 12 1021 93 10000 0.51 0 04:47 27.02.2021
2094 Clouds 11 1023 93 8000 1.54 160 00:54 27.02.2021
2095 Clouds 11 1023 93 8000 1.03 120 23:54 26.02.2021
2096 Clouds 12 1023 93 10000 1.03 0 23:28 26.02.2021
2097 Clouds 12 1022 93 10000 1.54 210 22:50 26.02.2021
2098 Clouds 13 1023 87 10000 0.51 90 22:29 26.02.2021
2099 Clouds 13 1022 82 10000 0.51 0 21:43 26.02.2021
2100 Clouds 13 1022 77 10000 1.03 120 21:24 26.02.2021
2101 Clouds 13 1022 77 10000 1.03 120 20:44 26.02.2021
2102 Clouds 14 1022 77 10000 1.03 120 20:21 26.02.2021
2103 Clouds 14 1022 67 10000 2.06 240 19:48 26.02.2021
2104 Clouds 15 1022 67 10000 2.06 240 19:25 26.02.2021
2105 Clouds 15 1022 67 10000 1.03 220 18:42 26.02.2021
2106 Clouds 15 1022 67 10000 1.03 220 18:22 26.02.2021
2107 Clouds 15 1022 63 10000 3.09 240 17:41 26.02.2021
2108 Clouds 15 1022 63 10000 3.09 240 17:23 26.02.2021
2109 Clouds 15 1022 63 10000 4.12 240 16:52 26.02.2021
2110 Clouds 15 1022 63 10000 4.12 240 16:31 26.02.2021
2111 Clouds 15 1023 63 10000 4.12 220 15:57 26.02.2021
2112 Clouds 15 1023 63 10000 4.12 220 15:38 26.02.2021
2113 Clouds 15 1023 63 10000 4.12 220 15:19 26.02.2021
2114 Clouds 15 1024 63 10000 4.12 200 14:45 26.02.2021
2115 Clouds 15 1024 63 10000 4.12 200 14:25 26.02.2021
2116 Clouds 15 1024 72 10000 7.2 180 13:42 26.02.2021
2117 Clouds 14 1024 72 10000 7.2 180 13:23 26.02.2021
2118 Clouds 13 1025 77 10000 7.2 200 12:39 26.02.2021
2119 Clouds 13 1024 82 10000 5.14 200 11:54 26.02.2021
2120 Clouds 13 1024 82 10000 5.14 200 11:36 26.02.2021
2121 Clouds 13 1024 94 8000 2.06 220 10:48 26.02.2021
2122 Clouds 13 1024 94 8000 3.09 180 09:56 26.02.2021
2123 Clouds 12 1024 94 8000 3.09 180 09:31 26.02.2021
2124 Clouds 12 1023 94 8000 2.06 180 08:56 26.02.2021
2125 Clouds 12 1023 94 8000 2.06 180 08:26 26.02.2021
2126 Clouds 11 1023 94 8000 3.09 20 07:49 26.02.2021
2127 Rain 11 1023 93 10000 1.54 180 06:43 26.02.2021
2128 Drizzle 11 1023 93 10000 1.03 150 05:31 26.02.2021
2129 Clouds 13 1024 100 8000 1.54 170 03:48 26.02.2021
2130 Clouds 13 1024 100 7000 2.57 140 02:35 26.02.2021
2131 Clouds 14 1024 94 10000 2.06 80 23:57 25.02.2021
2132 Clouds 14 1025 94 10000 1.54 360 23:28 25.02.2021
2133 Clouds 14 1025 100 5000 7.2 350 22:50 25.02.2021
2134 Clouds 14 1025 100 5000 7.2 350 22:50 25.02.2021
2135 Clouds 14 1025 100 5000 7.2 350 22:19 25.02.2021
2136 Clouds 15 1024 82 10000 6.69 340 21:44 25.02.2021
2137 Clouds 15 1024 82 10000 6.17 340 21:26 25.02.2021
2138 Clouds 15 1024 82 10000 6.17 340 20:41 25.02.2021
2139 Clouds 16 1024 82 10000 6.17 340 20:22 25.02.2021
2140 Clouds 16 1023 82 10000 4.63 300 19:52 25.02.2021
2141 Clouds 16 1023 82 10000 4.63 300 19:22 25.02.2021
2142 Clouds 16 1023 72 10000 5.66 340 18:57 25.02.2021
2143 Clouds 17 1023 72 10000 5.66 340 18:25 25.02.2021
2144 Clouds 18 1023 63 10000 3.09 280 17:49 25.02.2021
2145 Clouds 18 1023 63 10000 3.09 280 17:26 25.02.2021
2146 Clouds 18 1023 72 10000 5.14 320 16:46 25.02.2021
2147 Clouds 19 1023 72 10000 5.14 320 16:25 25.02.2021
2148 Clouds 18 1024 59 10000 6.17 320 15:30 25.02.2021
2149 Clouds 18 1024 68 10000 6.17 320 14:57 25.02.2021
2150 Clouds 18 1024 68 10000 6.17 320 14:24 25.02.2021
2151 Clouds 19 1025 63 10000 2.06 260 13:53 25.02.2021
2152 Clouds 18 1025 63 10000 2.06 260 13:26 25.02.2021
2153 Clouds 17 1026 68 8000 2.06 300 12:55 25.02.2021
2154 Clouds 17 1026 68 8000 2.06 300 12:21 25.02.2021
2155 Clouds 16 1026 77 6000 2.06 160 11:47 25.02.2021
2156 Clouds 16 1026 77 6000 2.06 160 11:19 25.02.2021
2157 Clouds 15 1026 88 6000 2.57 200 10:45 25.02.2021
2158 Clouds 15 1026 88 6000 2.57 200 10:23 25.02.2021
2159 Clouds 12 1026 94 6000 4.63 200 09:42 25.02.2021
2160 Clouds 10 1025 100 5000 3.09 200 08:55 25.02.2021
2161 Clouds 11 1025 100 5000 3.09 200 08:25 25.02.2021
2162 Clouds 11 1025 94 5000 3.09 200 07:53 25.02.2021
2163 Clouds 11 1025 94 5000 3.09 200 07:29 25.02.2021
2164 Clouds 12 1025 93 6000 2.57 210 06:51 25.02.2021
2165 Mist 12 1026 100 3000 3.09 210 01:57 25.02.2021
2166 Mist 12 1026 100 3000 3.09 210 01:37 25.02.2021
2167 Clouds 12 1026 100 5000 3.09 200 00:39 25.02.2021
2168 Clouds 13 1026 93 5000 2.57 230 23:51 24.02.2021
2169 Clouds 13 1026 93 6000 2.57 240 23:24 24.02.2021
2170 Clouds 13 1025 93 6000 2.57 180 22:44 24.02.2021
2171 Clouds 13 1025 93 8000 1.54 180 22:25 24.02.2021
2172 Clouds 14 1025 94 10000 0.51 0 21:45 24.02.2021
2173 Clear 15 1024 77 10000 4.12 280 20:54 24.02.2021
2174 Clear 16 1024 77 10000 4.12 280 20:31 24.02.2021
2175 Clear 16 1023 59 10000 4.12 280 19:56 24.02.2021
2176 Clear 17 1023 59 10000 4.12 280 19:28 24.02.2021
2177 Clear 18 1023 52 10000 3.09 320 18:56 24.02.2021
2178 Clear 19 1023 52 10000 3.09 320 18:34 24.02.2021
2179 Clear 18 1023 59 10000 3.09 320 17:52 24.02.2021
2180 Clear 19 1023 59 10000 3.09 320 17:29 24.02.2021
2181 Clear 21 1023 49 10000 4.12 360 16:57 24.02.2021
2182 Clear 21 1023 49 10000 4.12 360 16:36 24.02.2021
2183 Clear 21 1023 49 10000 4.12 360 16:18 24.02.2021
2184 Clear 21 1023 46 10000 3.09 20 15:37 24.02.2021
2185 Clear 20 1023 49 10000 4.12 360 14:53 24.02.2021
2186 Clear 19 1023 49 10000 4.12 360 14:32 24.02.2021
2187 Clear 19 1024 55 10000 4.12 320 13:57 24.02.2021
2188 Clear 19 1024 55 10000 4.12 320 13:38 24.02.2021
2189 Clear 19 1024 55 10000 4.12 320 13:19 24.02.2021
2190 Clear 19 1024 42 10000 2.06 40 12:43 24.02.2021
2191 Clear 19 1024 42 10000 2.06 40 12:23 24.02.2021
2192 Clear 17 1024 51 10000 2.06 120 11:45 24.02.2021
2193 Clear 13 1024 67 10000 4.12 140 10:49 24.02.2021
2194 Clear 12 1024 67 10000 4.12 140 10:29 24.02.2021
2195 Clear 9 1024 76 10000 3.09 160 09:41 24.02.2021
2196 Clear 9 1024 76 10000 3.09 160 09:18 24.02.2021
2197 Clear 6 1023 81 10000 3.09 180 08:34 24.02.2021
2198 Clear 7 1023 81 10000 3.09 180 07:55 24.02.2021
2199 Clear 7 1023 81 10000 3.09 180 07:20 24.02.2021
2200 Clear 6 1023 87 10000 1.54 160 06:20 24.02.2021
2201 Clear 7 1024 87 10000 1.54 120 02:47 24.02.2021
2202 Clear 13 1025 67 10000 3.09 50 23:59 23.02.2021
2203 Clear 13 1025 67 10000 3.09 60 23:20 23.02.2021
2204 Clear 14 1025 72 10000 4.63 50 22:37 23.02.2021
2205 Clear 14 1025 72 10000 4.63 50 22:18 23.02.2021
2206 Clear 14 1025 72 10000 4.63 30 21:40 23.02.2021
2207 Clear 15 1025 67 10000 6.69 40 21:22 23.02.2021
2208 Clear 15 1025 67 10000 6.69 40 20:47 23.02.2021
2209 Clear 15 1025 67 10000 6.69 40 20:47 23.02.2021
2210 Clear 16 1025 67 10000 6.69 40 20:28 23.02.2021
2211 Clear 16 1025 59 10000 4.12 40 19:47 23.02.2021
2212 Clear 17 1025 59 10000 4.12 40 19:27 23.02.2021
2213 Clear 18 1025 55 10000 8.75 40 18:50 23.02.2021
2214 Clear 18 1025 55 10000 8.75 40 18:29 23.02.2021
2215 Clear 19 1025 48 10000 6.17 40 17:54 23.02.2021
2216 Clear 19 1025 48 10000 6.17 40 17:29 23.02.2021
2217 Clear 19 1025 52 10000 8.23 40 16:47 23.02.2021
2218 Clear 19 1025 52 10000 8.23 40 16:25 23.02.2021
2219 Clear 19 1026 52 10000 6.69 40 15:52 23.02.2021
2220 Clear 19 1026 52 10000 6.69 40 15:34 23.02.2021
2221 Clear 19 1026 55 10000 6.17 40 14:58 23.02.2021
2222 Clear 19 1026 55 10000 6.17 40 14:40 23.02.2021
2223 Clear 19 1026 55 10000 6.17 40 14:19 23.02.2021
2224 Clear 19 1026 55 10000 5.14 20 13:39 23.02.2021
2225 Clear 19 1026 55 10000 5.14 20 13:19 23.02.2021
2226 Clear 18 1027 55 10000 2.57 40 12:46 23.02.2021
2227 Clear 17 1027 55 10000 2.57 40 12:20 23.02.2021
2228 Clear 16 1027 55 10000 5.14 100 11:45 23.02.2021
2229 Clear 16 1027 55 10000 5.14 100 11:19 23.02.2021
2230 Clear 15 1027 63 10000 3.6 80 10:40 23.02.2021
2231 Clear 15 1027 63 10000 3.6 80 10:19 23.02.2021
2232 Clear 11 1026 82 10000 2.06 160 09:42 23.02.2021
2233 Clear 11 1026 82 10000 2.06 160 09:21 23.02.2021
2234 Clear 9 1026 87 10000 2.57 180 08:47 23.02.2021
2235 Clear 9 1026 87 10000 2.57 180 08:21 23.02.2021
2236 Clear 10 1025 82 10000 2.06 180 07:39 23.02.2021
2237 Clear 11 1025 93 10000 1.54 160 05:29 23.02.2021
2238 Clear 12 1025 93 10000 2.06 100 02:54 23.02.2021
2239 Clear 12 1025 93 10000 2.06 100 02:54 23.02.2021
2240 Clear 12 1025 93 10000 2.06 100 02:54 23.02.2021
2241 Clear 12 1025 93 10000 1.54 110 02:33 23.02.2021
2242 Clear 13 1026 71 10000 2.57 60 00:20 23.02.2021
2243 Clear 14 1025 76 10000 2.57 60 23:46 22.02.2021
2244 Clear 14 1025 71 10000 2.57 60 23:18 22.02.2021
2245 Clouds 14 1025 67 10000 3.09 60 22:39 22.02.2021
2246 Clouds 14 1025 67 10000 3.09 60 22:20 22.02.2021
2247 Clear 15 1024 63 10000 2.06 40 21:38 22.02.2021
2248 Clear 15 1024 63 10000 2.06 40 21:20 22.02.2021
2249 Clear 15 1024 63 10000 2.06 40 20:48 22.02.2021
2250 Clear 15 1024 63 10000 2.06 40 20:27 22.02.2021
2251 Clear 16 1023 59 10000 3.09 20 19:50 22.02.2021
2252 Clear 16 1023 59 10000 3.09 20 19:30 22.02.2021
2253 Clear 16 1023 59 10000 3.09 20 19:30 22.02.2021
2254 Clouds 17 1023 55 10000 4.12 360 18:49 22.02.2021
2255 Clouds 18 1023 55 10000 4.12 360 18:29 22.02.2021
2256 Clouds 18 1022 55 10000 4.12 320 17:51 22.02.2021
2257 Clouds 18 1022 55 10000 4.12 320 17:22 22.02.2021
2258 Clouds 18 1022 52 10000 5.14 320 16:51 22.02.2021
2259 Clouds 17 1022 52 10000 5.14 320 16:31 22.02.2021
2260 Clouds 18 1022 48 10000 2.06 340 15:39 22.02.2021
2261 Clouds 18 1022 48 10000 2.06 340 15:21 22.02.2021
2262 Clouds 17 1023 52 10000 3.09 180 14:42 22.02.2021
2263 Clouds 17 1023 52 10000 3.09 180 14:21 22.02.2021
2264 Clouds 17 1023 55 10000 4.12 200 13:41 22.02.2021
2265 Clouds 15 1023 63 10000 5.14 200 12:55 22.02.2021
2266 Clouds 15 1023 63 10000 5.14 200 12:23 22.02.2021
2267 Clear 14 1023 72 10000 5.14 180 11:56 22.02.2021
2268 Clear 13 1023 72 10000 5.14 180 11:32 22.02.2021
2269 Clear 12 1023 76 10000 6.17 200 10:59 22.02.2021
2270 Clear 12 1023 76 10000 6.17 200 10:59 22.02.2021
2271 Clear 11 1023 76 10000 6.17 200 10:41 22.02.2021
2272 Clear 11 1023 76 10000 6.17 200 10:20 22.02.2021
2273 Clear 10 1022 82 10000 6.17 200 09:39 22.02.2021
2274 Clear 10 1022 82 10000 6.17 200 09:21 22.02.2021
2275 Clear 10 1022 82 10000 6.17 200 09:21 22.02.2021
2276 Clear 8 1021 87 10000 4.12 180 08:49 22.02.2021
2277 Clear 8 1021 87 10000 4.12 180 08:21 22.02.2021
2278 Clear 8 1021 87 10000 4.12 180 07:50 22.02.2021
2279 Clouds 7 1021 93 10000 3.09 180 07:22 22.02.2021
2280 Clouds 6 1021 93 10000 2.57 180 06:28 22.02.2021
2281 Clouds 6 1021 100 10000 2.57 180 04:55 22.02.2021
2282 Clouds 10 1021 100 10000 3.09 200 03:23 22.02.2021
2283 Clouds 10 1021 93 10000 2.57 180 01:59 22.02.2021
2284 Clouds 10 1020 93 10000 3.09 190 00:44 22.02.2021
2285 Clouds 10 1020 93 10000 2.57 180 00:18 22.02.2021
2286 Clouds 10 1020 93 10000 3.09 190 23:26 21.02.2021
2287 Clouds 10 1020 87 10000 2.06 180 22:36 21.02.2021
2288 Clouds 11 1019 87 10000 1.03 0 21:53 21.02.2021
2289 Clouds 12 1017 76 10000 2.57 320 21:34 21.02.2021
2290 Clouds 12 1017 76 10000 2.57 320 21:34 21.02.2021
2291 Clouds 12 1017 76 10000 2.57 320 20:58 21.02.2021
2292 Clouds 12 1017 76 10000 2.57 320 20:39 21.02.2021
2293 Clouds 12 1017 76 10000 2.57 320 20:18 21.02.2021
2294 Clouds 13 1017 72 10000 5.14 360 19:46 21.02.2021
2295 Clouds 14 1017 72 10000 5.14 360 19:26 21.02.2021
2296 Clouds 15 1016 59 10000 5.66 80 18:39 21.02.2021
2297 Clouds 15 1016 59 10000 5.66 80 18:21 21.02.2021
2298 Clouds 15 1015 59 10000 3.6 80 17:28 21.02.2021
2299 Clouds 15 1014 55 10000 5.66 280 16:55 21.02.2021
2300 Clouds 15 1014 55 10000 5.66 280 16:33 21.02.2021
2301 Clouds 14 1014 82 10000 3.09 280 15:47 21.02.2021
2302 Clouds 14 1014 82 10000 3.09 280 15:20 21.02.2021
2303 Clouds 12 1014 87 8000 6.17 320 14:42 21.02.2021
2304 Clouds 12 1014 87 8000 6.17 320 14:42 21.02.2021
2305 Clouds 12 1014 87 8000 6.17 320 14:22 21.02.2021
2306 Clouds 15 1013 72 10000 7.2 260 13:46 21.02.2021
2307 Clouds 14 1013 72 10000 7.2 260 13:23 21.02.2021
2308 Clouds 12 1013 87 8000 4.63 260 12:31 21.02.2021
2309 Clouds 12 1012 87 6000 6.17 260 11:45 21.02.2021
2310 Clouds 12 1011 100 6000 4.12 260 10:59 21.02.2021
2311 Clouds 12 1011 100 6000 4.12 260 10:24 21.02.2021
2312 Clouds 11 1010 87 6000 7.72 300 09:55 21.02.2021
2313 Clouds 11 1010 87 6000 7.72 300 09:31 21.02.2021
2314 Clouds 12 1008 88 10000 9.26 220 08:58 21.02.2021
2315 Clouds 13 1008 88 10000 9.26 220 08:23 21.02.2021
2316 Clouds 13 1008 72 8000 9.26 200 07:35 21.02.2021
2317 Clouds 12 1008 82 10000 12.35 190 06:55 21.02.2021
2318 Clouds 14 1010 82 10000 1.03 0 03:39 21.02.2021
2319 Clouds 14 1011 77 10000 4.63 320 02:30 21.02.2021
2320 Clouds 16 1010 44 8000 5.14 240 00:44 21.02.2021
2321 Clear 16 1009 41 10000 5.66 250 00:19 21.02.2021
2322 Clear 16 1010 55 10000 3.6 260 23:25 20.02.2021
2323 Clear 16 1010 55 10000 3.09 250 22:44 20.02.2021
2324 Clear 18 1010 48 10000 3.6 230 22:25 20.02.2021
2325 Clear 18 1009 45 10000 4.12 220 21:45 20.02.2021
2326 Clear 19 1008 32 10000 2.06 240 21:24 20.02.2021
2327 Clear 19 1008 32 10000 2.06 240 20:46 20.02.2021
2328 Clear 20 1008 32 10000 2.06 240 20:22 20.02.2021
2329 Clear 19 1008 28 10000 2.06 240 19:52 20.02.2021
2330 Clear 21 1008 28 10000 2.06 240 19:29 20.02.2021
2331 Clear 22 1009 25 10000 3.09 220 18:41 20.02.2021
2332 Clear 22 1009 25 10000 3.09 220 18:21 20.02.2021
2333 Clear 23 1010 23 10000 5.14 220 17:38 20.02.2021
2334 Clear 24 1011 22 10000 5.14 220 16:56 20.02.2021
2335 Clear 24 1011 22 10000 5.14 220 16:32 20.02.2021
2336 Clear 24 1011 22 10000 5.14 220 16:32 20.02.2021
2337 Clear 24 1011 23 10000 4.12 200 15:53 20.02.2021
2338 Clear 24 1011 23 10000 4.12 200 15:31 20.02.2021
2339 Clear 22 1013 17 10000 7.2 220 14:47 20.02.2021
2340 Clear 22 1013 17 10000 7.2 220 14:23 20.02.2021
2341 Clear 22 1014 30 10000 7.2 200 13:47 20.02.2021
2342 Clear 22 1014 30 10000 7.2 200 13:47 20.02.2021
2343 Clear 22 1014 30 10000 7.2 200 13:24 20.02.2021
2344 Clear 22 1014 37 10000 3.09 180 12:50 20.02.2021
2345 Clear 22 1014 37 10000 3.09 180 12:23 20.02.2021
2346 Clear 18 1015 42 10000 4.12 160 11:44 20.02.2021
2347 Clear 17 1015 42 10000 4.12 160 11:24 20.02.2021
2348 Clear 14 1015 54 10000 2.06 160 10:49 20.02.2021
2349 Clear 10 1015 54 10000 4.12 180 09:55 20.02.2021
2350 Clear 10 1015 54 10000 4.12 180 09:28 20.02.2021
2351 Clear 9 1015 66 10000 2.06 180 08:36 20.02.2021
2352 Clear 9 1015 62 10000 4.12 180 07:57 20.02.2021
2353 Clouds 11 1017 93 5000 2.06 180 02:46 20.02.2021
2354 Mist 11 1017 93 4000 2.06 170 02:24 20.02.2021
2355 Mist 11 1017 100 2000 2.06 150 01:48 20.02.2021
2356 Fog 11 1018 100 750 1.03 160 00:45 20.02.2021
2357 Fog 12 1018 100 250 1.54 150 23:55 19.02.2021
2358 Mist 12 1019 93 2800 1.54 110 23:18 19.02.2021
2359 Mist 13 1019 93 3500 0.51 0 22:27 19.02.2021
2360 Mist 14 1018 94 3200 1.54 100 21:54 19.02.2021
2361 Clear 14 1018 88 10000 1.54 360 21:31 19.02.2021
2362 Clear 15 1018 88 10000 1.54 360 20:48 19.02.2021
2363 Clear 15 1018 88 10000 1.54 360 20:28 19.02.2021
2364 Clouds 16 1018 82 6000 2.06 360 19:55 19.02.2021
2365 Clouds 16 1018 82 6000 2.06 360 19:27 19.02.2021
2366 Clear 18 1018 72 10000 6.17 360 18:56 19.02.2021
2367 Clear 18 1018 72 10000 6.17 360 18:33 19.02.2021
2368 Clear 19 1017 68 10000 2.06 360 17:51 19.02.2021
2369 Clear 19 1017 68 10000 2.06 360 17:22 19.02.2021
2370 Clear 19 1018 68 10000 4.63 20 16:38 19.02.2021
2371 Clear 19 1018 68 10000 4.63 20 16:18 19.02.2021
2372 Clear 19 1018 68 10000 4.12 40 15:41 19.02.2021
2373 Clear 19 1018 68 10000 4.12 40 15:20 19.02.2021
2374 Clear 18 1019 72 6000 1.03 40 14:38 19.02.2021
2375 Clear 18 1019 72 6000 1.03 40 14:20 19.02.2021
2376 Mist 17 1019 82 3000 1.03 40 13:44 19.02.2021
2377 Mist 16 1019 82 3000 1.03 40 13:24 19.02.2021
2378 Mist 14 1020 94 3000 2.06 80 12:42 19.02.2021
2379 Mist 13 1020 94 3000 2.06 80 12:23 19.02.2021
2380 Mist 12 1020 94 3000 2.06 100 11:51 19.02.2021
2381 Mist 12 1020 94 3000 2.06 100 11:23 19.02.2021
2382 Mist 12 1020 94 3000 3.6 160 10:50 19.02.2021
2383 Mist 12 1020 94 3000 3.6 160 10:22 19.02.2021
2384 Mist 12 1020 94 3000 2.06 160 09:47 19.02.2021
2385 Mist 12 1020 94 3000 2.06 160 09:25 19.02.2021
2386 Mist 12 1020 94 3000 1.54 160 08:50 19.02.2021
2387 Mist 12 1020 94 3000 1.54 160 08:23 19.02.2021
2388 Clouds 11 1020 93 8000 2.06 220 07:48 19.02.2021
2389 Clouds 11 1020 93 8000 2.06 220 07:29 19.02.2021
2390 Fog 11 1019 100 200 2.57 170 06:53 19.02.2021
2391 Fog 10 1019 100 300 1.54 200 05:27 19.02.2021
2392 Fog 13 1019 100 100 2.06 180 04:41 19.02.2021
2393 Fog 12 1020 100 200 0.51 0 01:47 19.02.2021
2394 Fog 12 1020 100 600 0.51 0 00:37 19.02.2021
2395 Fog 12 1020 100 900 0.51 0 23:54 18.02.2021
2396 Mist 13 1020 93 3000 0.51 0 23:34 18.02.2021
2397 Mist 13 1020 100 4000 2.06 130 22:47 18.02.2021
2398 Mist 13 1020 87 4000 1.54 120 22:28 18.02.2021
2399 Clouds 13 1020 93 7000 2.06 90 21:47 18.02.2021
2400 Clear 14 1020 82 10000 3.09 360 21:25 18.02.2021
2401 Clear 14 1020 82 10000 3.09 360 21:25 18.02.2021
2402 Clear 14 1020 82 10000 3.09 360 20:41 18.02.2021
2403 Clear 15 1020 82 10000 3.09 360 20:23 18.02.2021
2404 Clear 16 1019 77 10000 3.09 360 19:46 18.02.2021
2405 Clear 16 1019 77 10000 3.09 360 19:26 18.02.2021
2406 Clear 17 1019 72 10000 3.09 20 18:53 18.02.2021
2407 Clear 17 1019 72 10000 3.09 20 18:29 18.02.2021
2408 Clouds 17 1019 72 10000 5.14 320 17:52 18.02.2021
2409 Clouds 17 1019 72 10000 5.14 320 17:26 18.02.2021
2410 Clouds 18 1019 72 10000 4.12 360 16:53 18.02.2021
2411 Clouds 18 1019 72 10000 4.12 360 16:35 18.02.2021
2412 Clouds 18 1019 68 8000 6.17 360 15:55 18.02.2021
2413 Clouds 18 1019 68 8000 6.17 360 15:36 18.02.2021
2414 Clouds 18 1019 68 8000 6.17 360 15:18 18.02.2021
2415 Clouds 18 1020 72 8000 4.12 300 14:42 18.02.2021
2416 Clouds 18 1020 72 8000 4.12 300 14:23 18.02.2021
2417 Clouds 16 1020 72 6000 3.09 260 13:44 18.02.2021
2418 Clouds 16 1020 72 6000 3.09 260 13:18 18.02.2021
2419 Clouds 16 1021 77 6000 2.06 300 12:42 18.02.2021
2420 Clouds 15 1021 77 6000 2.06 300 12:21 18.02.2021
2421 Mist 13 1021 94 4000 2.06 200 11:46 18.02.2021
2422 Mist 13 1021 94 4000 2.06 200 11:25 18.02.2021
2423 Mist 13 1020 94 3000 5.14 160 10:44 18.02.2021
2424 Mist 12 1020 94 3000 5.14 160 10:25 18.02.2021
2425 Mist 12 1020 100 3000 2.06 180 09:40 18.02.2021
2426 Mist 12 1020 100 3000 2.06 180 09:21 18.02.2021
2427 Mist 11 1019 100 3000 2.06 200 08:40 18.02.2021
2428 Mist 11 1019 100 3000 2.06 200 08:21 18.02.2021
2429 Clouds 11 1019 100 5000 2.57 210 07:32 18.02.2021
2430 Mist 11 1019 100 4000 1.54 200 06:41 18.02.2021
2431 Drizzle 13 1020 100 2600 1.54 220 02:29 18.02.2021
2432 Fog 14 1021 100 300 1.54 290 23:55 17.02.2021
2433 Fog 14 1020 100 700 1.03 0 23:22 17.02.2021
2434 Fog 13 1020 93 400 1.54 190 22:51 17.02.2021
2435 Drizzle 13 1020 93 350 0.51 0 22:26 17.02.2021
2436 Mist 13 1020 94 4000 0.51 0 21:54 17.02.2021
2437 Clear 14 1020 88 5000 2.06 360 21:22 17.02.2021
2438 Clear 15 1020 88 5000 2.06 360 20:48 17.02.2021
2439 Clear 15 1020 88 5000 2.06 360 20:29 17.02.2021
2440 Clear 15 1019 82 5000 2.06 20 19:49 17.02.2021
2441 Clear 16 1019 82 5000 2.06 20 19:31 17.02.2021
2442 Clouds 17 1019 77 6000 3.09 340 18:45 17.02.2021
2443 Clouds 18 1019 77 6000 3.09 340 18:25 17.02.2021
2444 Clouds 18 1019 68 5000 4.12 340 17:42 17.02.2021
2445 Clouds 18 1019 68 5000 4.12 340 17:20 17.02.2021
2446 Mist 18 1019 77 3000 4.12 360 16:46 17.02.2021
2447 Mist 18 1019 77 3000 4.12 360 16:27 17.02.2021
2448 Mist 18 1020 77 3000 4.12 340 15:44 17.02.2021
2449 Mist 18 1020 77 3000 4.12 340 15:26 17.02.2021
2450 Mist 17 1021 77 3000 3.09 20 14:49 17.02.2021
2451 Mist 17 1021 77 3000 3.09 20 14:29 17.02.2021
2452 Mist 17 1022 77 3000 4.12 320 13:48 17.02.2021
2453 Mist 16 1022 77 3000 4.12 320 13:30 17.02.2021
2454 Mist 14 1022 88 3000 2.06 80 12:49 17.02.2021
2455 Mist 14 1022 88 3000 2.06 80 12:24 17.02.2021
2456 Fog 12 1023 100 900 1.54 160 11:45 17.02.2021
2457 Fog 13 1023 100 900 1.54 160 11:25 17.02.2021
2458 Fog 12 1023 100 900 2.57 120 10:49 17.02.2021
2459 Fog 12 1023 100 900 2.57 120 10:31 17.02.2021
2460 Fog 12 1022 100 900 1.03 360 09:55 17.02.2021
2461 Fog 12 1022 100 900 1.03 360 09:30 17.02.2021
2462 Fog 12 1022 100 900 2.57 340 08:45 17.02.2021
2463 Fog 12 1022 100 900 2.57 340 08:23 17.02.2021
2464 Fog 12 1022 100 900 2.06 320 07:34 17.02.2021
2465 Fog 10 1022 100 250 0.51 0 06:36 17.02.2021
2466 Mist 13 1023 100 2000 1.54 50 03:47 17.02.2021
2467 Mist 13 1024 94 2400 1.54 70 02:30 17.02.2021
2468 Mist 14 1023 94 3000 2.06 110 01:33 17.02.2021
2469 Mist 14 1025 94 3000 1.54 80 00:25 17.02.2021
2470 Mist 14 1025 94 4000 1.54 20 23:38 16.02.2021
2471 Mist 14 1025 94 4000 2.06 20 22:46 16.02.2021
2472 Mist 14 1025 100 3000 2.06 350 22:26 16.02.2021
2473 Clouds 14 1025 94 3000 2.06 340 21:59 16.02.2021
2474 Clear 15 1024 88 10000 1.03 20 21:39 16.02.2021
2475 Clear 15 1024 88 10000 1.03 20 21:21 16.02.2021
2476 Clear 15 1024 88 10000 1.03 20 20:47 16.02.2021
2477 Clear 15 1024 88 10000 1.03 20 20:24 16.02.2021
2478 Clear 16 1024 82 10000 3.09 20 19:48 16.02.2021
2479 Clear 17 1024 82 10000 3.09 20 19:28 16.02.2021
2480 Clear 18 1024 77 10000 3.09 20 18:50 16.02.2021
2481 Clear 18 1024 77 10000 3.09 20 18:26 16.02.2021
2482 Clear 18 1024 77 10000 4.12 320 17:53 16.02.2021
2483 Clear 19 1024 77 10000 4.12 320 17:27 16.02.2021
2484 Clear 19 1025 68 10000 5.14 320 16:57 16.02.2021
2485 Clear 19 1025 68 10000 5.14 320 16:38 16.02.2021
2486 Clear 19 1025 68 10000 5.14 320 16:19 16.02.2021
2487 Clear 19 1025 68 10000 4.12 340 15:36 16.02.2021
2488 Clear 19 1025 68 10000 4.12 340 15:18 16.02.2021
2489 Clear 19 1026 56 10000 2.57 310 14:40 16.02.2021
2490 Clear 18 1027 68 10000 3.09 320 14:21 16.02.2021
2491 Clear 18 1027 68 10000 3.09 320 13:45 16.02.2021
2492 Clear 19 1027 63 10000 4.12 320 12:59 16.02.2021
2493 Clear 19 1027 63 10000 4.12 320 12:41 16.02.2021
2494 Clear 19 1027 63 10000 4.12 320 12:19 16.02.2021
2495 Clear 16 1026 63 10000 2.06 200 11:40 16.02.2021
2496 Clear 17 1026 63 10000 2.06 200 11:20 16.02.2021
2497 Clear 15 1026 72 10000 3.09 200 10:46 16.02.2021
2498 Clear 14 1026 72 10000 3.09 200 10:27 16.02.2021
2499 Clear 11 1025 93 10000 2.06 160 09:53 16.02.2021
2500 Clear 10 1025 93 10000 2.06 160 09:28 16.02.2021
2501 Clear 10 1025 93 10000 2.06 160 09:28 16.02.2021
2502 Clear 8 1025 93 10000 1.03 120 08:52 16.02.2021
2503 Clear 8 1025 93 10000 1.03 120 08:29 16.02.2021
2504 Clear 9 1025 87 10000 2.06 180 07:54 16.02.2021
2505 Clouds 9 1025 87 5000 0.51 0 06:55 16.02.2021
2506 Clear 14 1026 100 10000 2.06 150 02:42 16.02.2021
2507 Clouds 14 1027 93 6000 2.06 210 23:55 15.02.2021
2508 Clear 14 1027 93 8000 3.09 190 23:29 15.02.2021
2509 Clear 14 1027 93 6000 3.6 200 22:50 15.02.2021
2510 Clear 15 1026 88 10000 2.06 220 22:28 15.02.2021
2511 Clear 15 1026 88 10000 1.54 220 21:47 15.02.2021
2512 Clear 17 1025 63 10000 1.54 280 21:25 15.02.2021
2513 Clear 17 1025 63 10000 1.54 280 20:55 15.02.2021
2514 Clear 18 1025 63 10000 1.54 280 20:37 15.02.2021
2515 Clear 20 1024 45 10000 1.03 260 19:51 15.02.2021
2516 Clear 20 1024 45 10000 1.03 260 19:29 15.02.2021
2517 Clear 21 1024 40 10000 3.09 320 18:58 15.02.2021
2518 Clear 22 1024 40 10000 3.09 320 18:29 15.02.2021
2519 Clear 23 1024 43 10000 2.06 20 17:58 15.02.2021
2520 Clear 23 1024 43 10000 2.06 20 17:40 15.02.2021
2521 Clear 23 1024 43 10000 2.06 20 17:21 15.02.2021
2522 Clear 23 1023 43 10000 4.12 20 16:45 15.02.2021
2523 Clear 24 1023 43 10000 4.12 20 16:22 15.02.2021
2524 Clear 25 1024 44 10000 5.14 360 15:44 15.02.2021
2525 Clear 25 1024 44 10000 5.14 360 15:19 15.02.2021
2526 Clear 26 1024 38 10000 1.03 280 14:48 15.02.2021
2527 Clear 26 1024 38 10000 1.03 280 14:21 15.02.2021
2528 Clear 24 1024 41 10000 2.06 100 13:49 15.02.2021
2529 Clear 24 1024 41 10000 2.06 100 13:22 15.02.2021
2530 Clear 21 1025 37 10000 1.54 140 12:51 15.02.2021
2531 Clear 20 1025 37 10000 1.54 140 12:27 15.02.2021
2532 Clear 19 1025 52 10000 2.06 140 11:53 15.02.2021
2533 Clear 18 1025 52 10000 2.06 140 11:27 15.02.2021
2534 Clear 15 1024 67 8000 2.06 200 10:55 15.02.2021
2535 Clear 15 1024 67 8000 2.06 200 10:36 15.02.2021
2536 Clear 15 1024 67 8000 2.06 200 10:18 15.02.2021
2537 Clear 12 1023 82 8000 3.09 200 09:47 15.02.2021
2538 Clear 11 1023 82 8000 3.09 200 09:25 15.02.2021
2539 Clear 10 1023 76 10000 1.03 340 08:23 15.02.2021
2540 Clear 10 1022 87 10000 2.06 120 07:20 15.02.2021
2541 Clear 10 1022 100 10000 2.06 170 06:41 15.02.2021
2542 Clear 12 1023 100 6000 2.57 150 04:41 15.02.2021
2543 Clear 13 1023 100 8000 2.57 140 02:21 15.02.2021
2544 Clear 13 1023 100 6000 2.06 140 00:22 15.02.2021
2545 Clouds 14 1024 100 5000 0.51 0 23:29 14.02.2021
2546 Clear 14 1024 100 8000 1.54 160 22:47 14.02.2021
2547 Clear 14 1023 100 9000 2.06 120 22:29 14.02.2021
2548 Clouds 15 1023 100 9000 1.54 100 21:53 14.02.2021
2549 Clear 16 1022 77 10000 1.03 60 21:31 14.02.2021
2550 Clear 16 1022 77 10000 1.03 60 20:53 14.02.2021
2551 Clear 17 1022 77 10000 1.03 60 20:30 14.02.2021
2552 Clear 17 1022 59 10000 5.14 20 19:50 14.02.2021
2553 Clear 18 1022 59 10000 5.14 20 19:31 14.02.2021
2554 Clear 19 1022 63 10000 3.09 60 18:42 14.02.2021
2555 Clear 19 1022 63 10000 3.09 60 18:22 14.02.2021
2556 Clear 20 1022 63 10000 5.14 20 17:42 14.02.2021
2557 Clear 20 1022 63 10000 5.14 20 17:19 14.02.2021
2558 Clear 22 1021 56 10000 4.12 20 16:40 14.02.2021
2559 Clear 22 1021 56 10000 4.12 20 16:18 14.02.2021
2560 Clear 21 1021 60 10000 3.09 60 15:44 14.02.2021
2561 Clear 21 1022 60 10000 5.14 20 14:58 14.02.2021
2562 Clear 21 1022 60 10000 5.14 20 14:30 14.02.2021
2563 Clear 20 1022 60 10000 3.09 140 13:57 14.02.2021
2564 Clear 20 1022 60 10000 3.09 140 13:31 14.02.2021
2565 Clear 18 1023 68 8000 3.09 120 12:49 14.02.2021
2566 Clear 18 1023 68 8000 3.09 120 12:22 14.02.2021
2567 Clear 16 1023 82 8000 2.06 40 11:51 14.02.2021
2568 Clear 15 1023 82 8000 2.06 40 11:25 14.02.2021
2569 Clear 13 1023 88 6000 1.03 20 10:49 14.02.2021
2570 Clear 10 1022 93 10000 2.06 340 09:58 14.02.2021
2571 Clear 10 1022 93 10000 2.06 340 09:39 14.02.2021
2572 Clear 10 1022 93 10000 2.06 340 09:21 14.02.2021
2573 Clear 10 1022 87 8000 1.03 100 08:43 14.02.2021
2574 Clear 10 1021 93 8000 1.03 100 07:57 14.02.2021
2575 Clouds 9 1021 100 6000 3.09 110 06:52 14.02.2021
2576 Clouds 10 1022 100 10000 3.09 100 05:43 14.02.2021
2577 Clear 13 1022 100 10000 3.09 60 03:33 14.02.2021
2578 Clouds 13 1022 100 10000 3.09 40 02:29 14.02.2021
2579 Clouds 12 1022 100 8000 1.54 70 00:48 14.02.2021
2580 Clear 12 1023 100 10000 2.06 50 00:29 14.02.2021
2581 Clear 12 1023 100 10000 2.06 90 23:42 13.02.2021
2582 Clear 12 1023 100 10000 2.57 100 23:21 13.02.2021
2583 Clear 13 1023 100 10000 2.57 100 22:44 13.02.2021
2584 Clear 13 1023 100 10000 3.09 60 22:20 13.02.2021
2585 Clear 13 1023 100 10000 3.6 50 21:43 13.02.2021
2586 Clear 14 1023 82 10000 4.12 60 21:22 13.02.2021
2587 Clear 15 1023 82 10000 4.12 60 20:30 13.02.2021
2588 Clouds 15 1023 72 10000 6.69 40 19:57 13.02.2021
2589 Clouds 15 1023 72 10000 6.69 40 19:38 13.02.2021
2590 Clouds 15 1023 72 10000 6.69 40 19:18 13.02.2021
2591 Clear 16 1023 67 10000 7.2 40 18:44 13.02.2021
2592 Clear 17 1023 67 10000 7.2 40 18:22 13.02.2021
2593 Clear 17 1024 68 10000 9.26 40 17:42 13.02.2021
2594 Clear 18 1024 68 10000 9.26 40 17:22 13.02.2021
2595 Clear 17 1023 67 10000 9.26 40 16:42 13.02.2021
2596 Clear 17 1023 67 10000 9.26 40 16:21 13.02.2021
2597 Clear 18 1024 68 10000 9.77 40 15:39 13.02.2021
2598 Clear 18 1024 68 10000 6.17 40 14:58 13.02.2021
2599 Clear 18 1024 68 10000 6.17 40 14:32 13.02.2021
2600 Clear 17 1024 67 10000 6.69 60 13:48 13.02.2021
2601 Clear 17 1024 67 10000 6.69 60 13:25 13.02.2021
2602 Clouds 16 1025 72 10000 5.66 40 12:46 13.02.2021
2603 Clouds 16 1025 72 10000 5.66 40 12:19 13.02.2021
2604 Clouds 15 1025 77 10000 6.17 60 11:45 13.02.2021
2605 Clouds 15 1025 77 10000 6.17 60 11:20 13.02.2021
2606 Clouds 14 1025 82 8000 3.6 80 10:46 13.02.2021
2607 Clouds 13 1025 82 8000 3.6 80 10:25 13.02.2021
2608 Clouds 12 1025 87 8000 3.6 80 09:56 13.02.2021
2609 Clouds 12 1025 87 8000 3.6 80 09:30 13.02.2021
2610 Clear 11 1025 94 8000 3.09 80 08:56 13.02.2021
2611 Clear 11 1025 94 8000 3.09 80 08:35 13.02.2021
2612 Clear 11 1024 94 8000 5.14 80 07:52 13.02.2021
2613 Clear 11 1024 100 10000 2.57 60 06:39 13.02.2021
2614 Clouds 13 1024 100 10000 3.09 60 05:27 13.02.2021
2615 Clouds 14 1024 100 10000 4.12 60 03:58 13.02.2021
2616 Clouds 14 1024 100 9000 4.63 40 01:48 13.02.2021
2617 Clouds 14 1025 100 10000 5.14 50 00:42 13.02.2021
2618 Clouds 15 1025 100 10000 5.14 50 23:54 12.02.2021
2619 Clouds 15 1025 100 10000 5.66 50 23:26 12.02.2021
2620 Clear 14 1025 100 10000 4.63 40 22:44 12.02.2021
2621 Clear 14 1024 100 10000 5.14 40 22:25 12.02.2021
2622 Clear 15 1024 100 10000 4.63 40 21:46 12.02.2021
2623 Clouds 15 1017 88 10000 4.12 60 21:27 12.02.2021
2624 Clouds 16 1017 88 10000 4.12 60 20:49 12.02.2021
2625 Clouds 16 1017 88 10000 4.12 60 20:30 12.02.2021
2626 Clouds 16 1023 77 10000 5.14 60 19:58 12.02.2021
2627 Clouds 16 1023 77 10000 5.14 60 19:38 12.02.2021
2628 Clouds 18 1023 68 10000 4.12 60 18:58 12.02.2021
2629 Clouds 18 1023 68 10000 4.12 60 18:30 12.02.2021
2630 Clouds 19 1023 63 10000 6.17 60 17:46 12.02.2021
2631 Clouds 19 1023 63 10000 6.17 60 17:22 12.02.2021
2632 Clouds 19 1023 63 10000 6.17 60 16:35 12.02.2021
2633 Clouds 19 1024 68 10000 6.17 40 15:47 12.02.2021
2634 Clouds 19 1024 68 10000 6.17 40 15:21 12.02.2021
2635 Clouds 20 1024 60 10000 6.17 60 14:42 12.02.2021
2636 Clouds 20 1024 60 10000 6.17 60 14:23 12.02.2021
2637 Clouds 19 1025 63 8000 7.2 100 13:41 12.02.2021
2638 Clouds 18 1025 63 8000 7.2 100 13:22 12.02.2021
2639 Clouds 17 1025 77 6000 6.17 100 12:49 12.02.2021
2640 Clouds 17 1025 77 6000 6.17 100 12:30 12.02.2021
2641 Clouds 15 1025 88 6000 2.06 120 11:42 12.02.2021
2642 Clouds 15 1025 88 6000 2.06 120 11:20 12.02.2021
2643 Clouds 13 1025 94 6000 3.09 160 10:44 12.02.2021
2644 Clouds 12 1025 94 6000 2.06 160 09:49 12.02.2021
2645 Clouds 11 1025 94 6000 2.06 160 09:29 12.02.2021
2646 Clouds 11 1024 100 6000 2.06 180 08:50 12.02.2021
2647 Clouds 10 1024 100 6000 2.06 180 08:28 12.02.2021
2648 Clouds 10 1024 100 6000 1.76 103 07:57 12.02.2021
2649 Clouds 10 1024 100 6000 1.76 103 07:32 12.02.2021
2650 Clouds 9 1024 93 8000 1.54 160 06:55 12.02.2021
2651 Clouds 10 1024 93 10000 2.57 140 05:47 12.02.2021
2652 Clear 12 1023 93 10000 0.51 0 04:31 12.02.2021
2653 Clouds 13 1023 93 8000 2.06 120 01:32 12.02.2021
2654 Clouds 13 1024 93 6000 2.06 140 23:41 11.02.2021
2655 Clouds 14 1024 94 8000 2.57 120 23:22 11.02.2021
2656 Clouds 14 1024 94 8000 2.06 120 22:47 11.02.2021
2657 Clouds 14 1024 94 8000 2.57 70 22:25 11.02.2021
2658 Clouds 14 1024 94 8000 2.06 40 21:59 11.02.2021
2659 Clouds 15 1022 88 10000 3.09 20 21:38 11.02.2021
2660 Clouds 15 1022 88 10000 3.09 20 21:18 11.02.2021
2661 Clouds 15 1022 88 10000 3.09 20 20:42 11.02.2021
2662 Clouds 15 1022 88 10000 3.09 20 20:21 11.02.2021
2663 Clouds 15 1022 88 10000 3.09 20 19:48 11.02.2021
2664 Clouds 15 1022 88 10000 3.09 20 19:28 11.02.2021
2665 Clouds 15 1021 94 10000 3.6 360 18:49 11.02.2021
2666 Clouds 15 1021 94 10000 3.6 360 18:28 11.02.2021
2667 Clouds 16 1021 88 10000 3.09 20 17:52 11.02.2021
2668 Clouds 16 1021 88 10000 3.09 20 17:22 11.02.2021
2669 Clouds 16 1021 88 10000 4.12 40 16:53 11.02.2021
2670 Clouds 17 1021 88 10000 4.12 40 16:35 11.02.2021
2671 Clouds 18 1021 77 10000 5.14 360 15:59 11.02.2021
2672 Clouds 18 1021 77 10000 5.14 360 15:40 11.02.2021
2673 Clouds 18 1021 77 10000 5.14 360 15:40 11.02.2021
2674 Clouds 18 1021 77 10000 5.14 360 15:20 11.02.2021
2675 Clouds 18 1021 72 10000 4.12 40 14:40 11.02.2021
2676 Clouds 18 1021 72 10000 4.12 40 14:21 11.02.2021
2677 Clouds 18 1021 77 10000 4.63 20 13:38 11.02.2021
2678 Clear 18 1021 77 10000 4.63 20 13:18 11.02.2021
2679 Clear 17 1022 82 8000 2.57 360 12:44 11.02.2021
2680 Clear 16 1022 82 8000 2.57 360 12:21 11.02.2021
2681 Clear 14 1022 88 6000 3.09 360 11:41 11.02.2021
2682 Clear 14 1022 88 6000 3.09 360 11:20 11.02.2021
2683 Clear 14 1022 88 6000 3.09 360 11:20 11.02.2021
2684 Clear 12 1021 94 6000 1.03 140 10:42 11.02.2021
2685 Clear 12 1021 94 6000 1.03 140 10:23 11.02.2021
2686 Clear 10 1021 93 6000 1.03 180 09:45 11.02.2021
2687 Clear 10 1021 93 6000 1.03 180 09:19 11.02.2021
2688 Clear 9 1021 93 8000 1.03 160 08:50 11.02.2021
2689 Clear 9 1020 93 10000 1.54 180 07:58 11.02.2021
2690 Fog 8 1021 100 500 1.03 90 06:51 11.02.2021
2691 Fog 9 1021 100 200 1.54 130 06:32 11.02.2021
2692 Mist 12 1022 100 5000 0.51 100 03:54 11.02.2021
2693 Clear 12 1022 100 6000 1.54 110 02:28 11.02.2021
2694 Mist 13 1022 100 5000 1.03 130 00:46 11.02.2021
2695 Mist 13 1022 100 4500 1.03 110 00:18 11.02.2021
2696 Mist 13 1022 100 4500 2.06 120 23:39 10.02.2021
2697 Clear 14 1022 100 8000 1.54 60 22:51 10.02.2021
2698 Clear 14 1022 100 8000 1.54 40 22:27 10.02.2021
2699 Clear 14 1022 100 8000 2.06 10 21:55 10.02.2021
2700 Clear 15 1021 82 10000 4.12 320 21:37 10.02.2021
2701 Clear 15 1021 82 10000 4.12 320 21:18 10.02.2021
2702 Clear 15 1021 82 10000 4.12 320 20:40 10.02.2021
2703 Clear 15 1021 82 10000 4.12 320 20:20 10.02.2021
2704 Clear 16 1020 77 10000 3.09 320 19:43 10.02.2021
2705 Clear 17 1020 77 10000 3.09 320 19:22 10.02.2021
2706 Clear 18 1020 72 10000 5.14 340 18:40 10.02.2021
2707 Clear 18 1020 72 10000 5.14 340 18:21 10.02.2021
2708 Clouds 19 1020 68 10000 4.12 320 17:50 10.02.2021
2709 Clouds 19 1020 68 10000 4.12 320 17:22 10.02.2021
2710 Clouds 19 1020 68 10000 4.12 320 16:50 10.02.2021
2711 Clouds 19 1020 68 10000 4.12 320 16:29 10.02.2021
2712 Clouds 19 1021 63 10000 2.06 280 15:45 10.02.2021
2713 Clouds 19 1021 63 10000 2.06 280 15:22 10.02.2021
2714 Clouds 18 1022 68 10000 4.12 220 14:42 10.02.2021
2715 Clouds 18 1022 68 10000 4.12 220 14:20 10.02.2021
2716 Clouds 18 1022 77 10000 4.12 200 13:50 10.02.2021
2717 Clouds 17 1022 77 10000 4.12 200 13:27 10.02.2021
2718 Clouds 17 1022 77 10000 5.14 200 12:46 10.02.2021
2719 Clouds 16 1022 77 10000 5.14 200 12:28 10.02.2021
2720 Clear 16 1022 82 10000 4.12 200 11:47 10.02.2021
2721 Clear 16 1022 82 10000 4.12 200 11:47 10.02.2021
2722 Clear 15 1022 82 10000 4.12 200 11:28 10.02.2021
2723 Clouds 14 1021 88 8000 4.12 200 10:47 10.02.2021
2724 Clouds 13 1021 88 8000 4.12 200 10:19 10.02.2021
2725 Clouds 12 1021 94 6000 2.06 200 09:43 10.02.2021
2726 Clouds 12 1021 94 6000 2.06 200 09:21 10.02.2021
2727 Clouds 12 1020 100 6000 3.09 200 08:50 10.02.2021
2728 Clouds 12 1020 100 6000 3.09 200 07:59 10.02.2021
2729 Clouds 12 1020 100 10000 3.09 200 07:18 10.02.2021
2730 Clouds 13 1020 100 10000 4.63 220 04:47 10.02.2021
2731 Clouds 13 1020 100 10000 3.6 230 00:51 10.02.2021
2732 Clouds 12 1020 100 10000 3.6 230 23:39 09.02.2021
2733 Clouds 13 1020 100 10000 4.12 230 23:19 09.02.2021
2734 Clouds 14 1020 100 10000 3.09 230 22:25 09.02.2021
2735 Clouds 14 1020 100 10000 3.09 230 21:58 09.02.2021
2736 Clouds 15 1019 100 10000 3.09 230 21:40 09.02.2021
2737 Clouds 16 1019 82 10000 3.09 220 21:18 09.02.2021
2738 Clouds 16 1019 82 10000 3.09 220 20:41 09.02.2021
2739 Clouds 16 1019 82 10000 3.09 220 20:22 09.02.2021
2740 Clouds 16 1018 77 10000 5.14 240 19:39 09.02.2021
2741 Clouds 16 1018 77 10000 5.14 240 19:20 09.02.2021
2742 Clouds 17 1018 68 10000 5.14 260 18:41 09.02.2021
2743 Clouds 18 1018 68 10000 5.14 260 18:20 09.02.2021
2744 Clouds 18 1017 68 10000 5.14 260 17:42 09.02.2021
2745 Clouds 17 1017 68 10000 5.14 260 17:23 09.02.2021
2746 Clouds 15 1025 88 6000 2.57 180 16:49 09.02.2021
2747 Clouds 15 1025 88 6000 2.57 180 16:19 09.02.2021
2748 Clouds 18 1017 72 10000 7.2 280 15:50 09.02.2021
2749 Clouds 18 1017 72 10000 7.2 280 15:27 09.02.2021
2750 Clouds 18 1018 72 10000 5.66 220 14:56 09.02.2021
2751 Clouds 18 1018 72 10000 5.66 220 14:28 09.02.2021
2752 Clouds 17 1018 77 10000 6.69 220 13:54 09.02.2021
2753 Clouds 17 1018 77 10000 6.69 220 13:29 09.02.2021
2754 Clouds 16 1019 100 10000 7.2 220 12:57 09.02.2021
2755 Clouds 16 1019 88 10000 5.66 200 12:38 09.02.2021
2756 Clouds 16 1019 88 10000 5.66 200 12:20 09.02.2021
2757 Clouds 16 1019 88 10000 5.66 200 11:41 09.02.2021
2758 Clouds 16 1019 88 10000 5.66 200 11:21 09.02.2021
2759 Clouds 15 1018 94 10000 6.69 200 10:51 09.02.2021
2760 Clouds 15 1018 94 10000 6.69 200 10:19 09.02.2021
2761 Clouds 14 1018 100 5000 4.63 200 09:44 09.02.2021
2762 Clouds 14 1018 100 5000 4.63 200 09:25 09.02.2021
2763 Mist 14 1017 100 3000 4.63 200 08:51 09.02.2021
2764 Mist 14 1017 100 3000 4.63 200 08:27 09.02.2021
2765 Mist 14 1017 100 3000 3.09 200 07:36 09.02.2021
2766 Clouds 14 1017 100 9000 4.12 230 04:58 09.02.2021
2767 Clouds 14 1017 100 10000 4.63 230 03:42 09.02.2021
2768 Clouds 14 1019 100 7000 2.57 220 01:20 09.02.2021
2769 Clouds 14 1019 100 8000 3.09 220 23:58 08.02.2021
2770 Clouds 14 1019 100 7000 3.6 210 23:22 08.02.2021
2771 Clouds 14 1019 100 10000 3.6 230 22:46 08.02.2021
2772 Clouds 14 1019 100 10000 3.6 240 22:26 08.02.2021
2773 Clouds 14 1019 100 10000 3.6 240 21:58 08.02.2021
2774 Clouds 15 1018 88 10000 4.12 260 21:38 08.02.2021
2775 Clouds 15 1018 88 10000 4.12 260 21:18 08.02.2021
2776 Clouds 15 1018 88 10000 4.12 260 20:42 08.02.2021
2777 Clouds 15 1018 88 10000 4.12 260 20:22 08.02.2021
2778 Clouds 15 1018 88 10000 6.17 260 19:48 08.02.2021
2779 Clouds 16 1018 88 10000 6.17 260 19:26 08.02.2021
2780 Clouds 16 1017 82 10000 6.17 260 18:49 08.02.2021
2781 Clouds 16 1017 82 10000 6.17 260 18:25 08.02.2021
2782 Clouds 16 1017 88 10000 6.17 240 17:47 08.02.2021
2783 Clouds 16 1017 88 10000 6.17 240 17:26 08.02.2021
2784 Clouds 16 1016 82 10000 7.2 240 16:47 08.02.2021
2785 Clouds 17 1016 82 10000 7.2 240 16:28 08.02.2021
2786 Clouds 17 1017 72 10000 6.17 240 15:56 08.02.2021
2787 Clouds 18 1017 72 10000 6.17 240 15:37 08.02.2021
2788 Clouds 18 1017 72 10000 6.17 240 15:18 08.02.2021
2789 Clouds 17 1017 77 10000 7.2 220 14:42 08.02.2021
2790 Clouds 17 1017 77 10000 7.2 220 14:24 08.02.2021
2791 Clouds 16 1018 77 10000 7.2 240 13:45 08.02.2021
2792 Clouds 16 1018 77 10000 7.2 240 13:25 08.02.2021
2793 Clouds 15 1018 72 10000 11.32 280 12:39 08.02.2021
2794 Clear 15 1018 77 10000 9.26 200 11:58 08.02.2021
2795 Clear 15 1018 77 10000 9.26 200 11:35 08.02.2021
2796 Clear 13 1018 76 10000 8.23 200 10:46 08.02.2021
2797 Clear 12 1018 76 10000 8.23 200 10:26 08.02.2021
2798 Clear 12 1018 76 10000 8.23 200 10:26 08.02.2021
2799 Clear 11 1018 87 10000 7.2 200 09:56 08.02.2021
2800 Clear 10 1018 87 10000 7.2 200 09:36 08.02.2021
2801 Clear 10 1018 87 10000 7.2 200 09:36 08.02.2021
2802 Clouds 10 1018 87 8000 6.17 200 08:55 08.02.2021
2803 Clouds 10 1018 87 8000 6.17 200 08:26 08.02.2021
2804 Clouds 10 1018 87 8000 6.17 200 07:40 08.02.2021
2805 Clear 9 1018 100 10000 5.14 210 06:33 08.02.2021
2806 Clear 11 1018 100 10000 5.14 200 05:18 08.02.2021
2807 Clear 11 1019 100 10000 3.09 210 02:26 08.02.2021
2808 Clouds 11 1020 100 10000 3.09 210 00:25 08.02.2021
2809 Clouds 11 1020 100 10000 3.09 210 23:54 07.02.2021
2810 Clouds 11 1020 100 10000 2.57 220 23:28 07.02.2021
2811 Clouds 11 1020 100 10000 3.09 220 22:57 07.02.2021
2812 Clouds 11 1020 100 10000 3.09 220 22:38 07.02.2021
2813 Clouds 11 1020 100 10000 3.09 220 22:20 07.02.2021
2814 Clouds 12 1020 100 10000 2.57 230 21:49 07.02.2021
2815 Clouds 13 1019 72 10000 3.6 240 21:24 07.02.2021
2816 Clouds 13 1019 72 10000 3.6 240 21:24 07.02.2021
2817 Clouds 13 1019 72 10000 3.6 240 20:50 07.02.2021
2818 Clouds 13 1019 72 10000 3.6 240 20:29 07.02.2021
2819 Clouds 14 1019 63 10000 3.6 240 19:49 07.02.2021
2820 Clouds 14 1019 63 10000 3.6 240 19:29 07.02.2021
2821 Clouds 15 1019 55 10000 3.6 280 18:48 07.02.2021
2822 Clouds 16 1019 55 10000 3.6 280 18:27 07.02.2021
2823 Clouds 16 1019 55 10000 4.12 260 17:58 07.02.2021
2824 Clouds 16 1019 55 10000 4.12 260 17:39 07.02.2021
2825 Clouds 16 1019 55 10000 4.12 260 17:18 07.02.2021
2826 Clouds 15 1018 59 10000 6.17 280 16:42 07.02.2021
2827 Clouds 15 1018 59 10000 6.17 280 16:21 07.02.2021
2828 Clouds 16 1019 59 10000 6.17 280 15:44 07.02.2021
2829 Clouds 15 1019 59 10000 6.17 280 15:21 07.02.2021
2830 Clouds 16 1019 59 10000 5.14 240 14:46 07.02.2021
2831 Clouds 16 1019 59 10000 5.14 240 14:26 07.02.2021
2832 Clouds 15 1020 67 10000 4.12 240 13:50 07.02.2021
2833 Clouds 15 1020 67 10000 4.12 240 13:30 07.02.2021
2834 Clouds 14 1019 72 10000 3.6 200 12:42 07.02.2021
2835 Clouds 14 1019 72 10000 3.6 200 12:22 07.02.2021
2836 Clouds 13 1019 82 8000 4.12 200 11:45 07.02.2021
2837 Clouds 13 1019 82 8000 4.12 200 11:26 07.02.2021
2838 Clouds 11 1018 93 6000 2.57 160 10:42 07.02.2021
2839 Clouds 11 1018 93 6000 2.57 160 10:42 07.02.2021
2840 Clouds 11 1018 93 6000 2.57 160 10:22 07.02.2021
2841 Clouds 10 1017 93 6000 3.09 200 09:43 07.02.2021
2842 Clouds 9 1017 93 6000 3.09 200 09:20 07.02.2021
2843 Clouds 10 1016 93 8000 4.63 200 08:19 07.02.2021
2844 Clouds 9 1016 100 10000 5.14 220 06:33 07.02.2021
2845 Clouds 8 1016 100 10000 4.12 210 05:56 07.02.2021
2846 Clouds 10 1015 100 10000 5.66 230 02:53 07.02.2021
2847 Clouds 10 1015 100 10000 5.66 230 00:58 07.02.2021
2848 Clouds 10 1015 100 10000 5.66 230 00:28 07.02.2021
2849 Clouds 10 1015 100 10000 4.12 230 23:32 06.02.2021
2850 Clouds 10 1014 100 10000 4.12 210 22:31 06.02.2021
2851 Clouds 10 1012 82 10000 4.63 220 21:39 06.02.2021
2852 Clouds 10 1012 82 10000 4.63 220 21:20 06.02.2021
2853 Clouds 10 1012 82 10000 4.63 220 20:45 06.02.2021
2854 Clouds 10 1012 82 10000 4.63 220 20:23 06.02.2021
2855 Clouds 11 1012 82 10000 3.09 220 19:55 06.02.2021
2856 Clouds 11 1012 82 10000 3.09 220 19:28 06.02.2021
2857 Clouds 12 1011 76 10000 3.09 200 18:46 06.02.2021
2858 Clouds 12 1011 76 10000 3.09 200 18:27 06.02.2021
2859 Clouds 12 1011 82 10000 3.09 220 17:44 06.02.2021
2860 Clouds 11 1011 82 10000 3.09 220 17:22 06.02.2021
2861 Clouds 12 1011 87 10000 4.12 200 16:58 06.02.2021
2862 Clouds 12 1011 87 10000 4.12 200 16:37 06.02.2021
2863 Clouds 13 1011 87 10000 4.12 200 16:19 06.02.2021
2864 Clouds 13 1011 77 10000 3.09 220 15:40 06.02.2021
2865 Clouds 13 1011 77 10000 3.09 220 15:19 06.02.2021
2866 Clouds 12 1011 82 10000 3.6 240 14:44 06.02.2021
2867 Clouds 12 1011 82 10000 3.6 240 14:23 06.02.2021
2868 Clouds 12 1011 94 10000 4.63 240 13:47 06.02.2021
2869 Clouds 13 1011 88 10000 4.63 220 12:56 06.02.2021
2870 Clouds 13 1011 88 10000 4.63 220 12:21 06.02.2021
2871 Clouds 13 1011 88 10000 3.6 220 11:47 06.02.2021
2872 Clouds 13 1011 88 10000 3.6 220 11:22 06.02.2021
2873 Clouds 11 1010 93 8000 4.12 200 10:56 06.02.2021
2874 Clouds 11 1010 93 8000 4.12 200 10:28 06.02.2021
2875 Clouds 11 1010 93 8000 4.12 200 09:56 06.02.2021
2876 Clouds 11 1010 93 8000 4.12 200 09:36 06.02.2021
2877 Clouds 11 1010 93 8000 4.12 200 09:18 06.02.2021
2878 Clouds 10 1009 93 10000 5.14 200 08:33 06.02.2021
2879 Clouds 10 1009 93 10000 4.12 200 07:56 06.02.2021
2880 Clouds 9 1009 93 8000 2.57 200 05:43 06.02.2021
2881 Clouds 12 1009 100 6000 2.57 240 03:53 06.02.2021
2882 Clouds 12 1009 93 8000 3.09 210 01:38 06.02.2021
2883 Clouds 12 1009 93 8000 3.09 210 00:46 06.02.2021
2884 Clouds 12 1009 93 8000 3.09 220 00:19 06.02.2021
2885 Clouds 11 1009 100 8000 3.6 230 23:42 05.02.2021
2886 Clouds 12 1009 100 6000 3.09 220 23:24 05.02.2021
2887 Clouds 12 1009 100 4000 4.12 230 22:45 05.02.2021
2888 Clouds 12 1008 93 10000 4.12 220 22:19 05.02.2021
2889 Clouds 12 1008 93 10000 3.09 220 21:44 05.02.2021
2890 Clouds 12 1008 93 10000 3.6 220 21:25 05.02.2021
2891 Clouds 12 1007 93 10000 4.63 220 20:43 05.02.2021
2892 Clouds 12 1006 76 10000 6.17 240 19:51 05.02.2021
2893 Clouds 13 1006 76 10000 6.17 240 19:19 05.02.2021
2894 Clouds 15 1005 72 10000 3.09 240 18:53 05.02.2021
2895 Clouds 15 1005 72 10000 3.09 240 18:23 05.02.2021
2896 Clouds 15 1005 67 10000 7.2 240 17:44 05.02.2021
2897 Clouds 16 1005 67 10000 7.2 240 17:21 05.02.2021
2898 Clouds 16 1005 67 10000 5.14 260 16:49 05.02.2021
2899 Clouds 16 1005 67 10000 5.14 260 16:24 05.02.2021
2900 Clouds 16 1004 55 10000 8.23 220 15:54 05.02.2021
2901 Clouds 16 1004 55 10000 8.23 220 15:26 05.02.2021
2902 Clouds 14 1015 71 10000 4.02 200 14:41 05.02.2021
2903 Clouds 14 1006 72 6000 4.12 200 14:23 05.02.2021
2904 Clouds 14 1006 72 6000 4.12 200 13:59 05.02.2021
2905 Clouds 14 1006 72 6000 4.12 200 13:36 05.02.2021
2906 Clouds 14 1006 72 6000 7.2 200 12:55 05.02.2021
2907 Clouds 14 1006 72 6000 7.2 200 12:36 05.02.2021
2908 Clouds 13 1006 76 6000 5.14 180 11:41 05.02.2021
2909 Clouds 12 1006 76 6000 5.14 180 11:21 05.02.2021
2910 Clouds 12 1006 82 6000 8.23 180 10:58 05.02.2021
2911 Clouds 12 1006 82 6000 8.23 180 10:27 05.02.2021
2912 Clouds 11 1005 93 6000 5.14 200 09:48 05.02.2021
2913 Clouds 11 1005 93 6000 5.14 200 09:28 05.02.2021
2914 Clouds 11 1005 93 6000 8.75 180 08:58 05.02.2021
2915 Clouds 11 1005 93 6000 8.75 180 08:23 05.02.2021
2916 Clouds 12 1005 94 6000 5.14 200 07:37 05.02.2021
2917 Clouds 11 1005 100 10000 4.63 230 06:54 05.02.2021
2918 Clouds 13 1005 100 7000 4.12 260 05:38 05.02.2021
2919 Clouds 13 1005 100 7000 3.6 240 03:22 05.02.2021
2920 Mist 13 1005 100 2000 2.57 240 02:24 05.02.2021
2921 Clouds 14 1006 100 6000 1.54 220 00:41 05.02.2021
2922 Clouds 14 1006 100 6000 1.54 220 00:41 05.02.2021
2923 Clouds 14 1006 100 7000 0.51 0 00:20 05.02.2021
2924 Clouds 14 1006 100 7000 0.51 0 23:58 04.02.2021
2925 Clouds 14 1006 100 8000 2.06 180 23:39 04.02.2021
2926 Clouds 14 1006 100 8000 2.06 180 23:20 04.02.2021
2927 Clouds 14 1006 100 8000 2.06 150 22:51 04.02.2021
2928 Clouds 14 1007 100 8000 1.54 140 22:27 04.02.2021
2929 Clouds 14 1007 100 8000 2.06 130 21:42 04.02.2021
2930 Clouds 15 1006 72 5000 2.06 280 21:20 04.02.2021
2931 Clouds 15 1006 72 5000 2.06 280 20:49 04.02.2021
2932 Clouds 15 1006 72 5000 2.06 280 20:30 04.02.2021
2933 Clouds 15 1006 72 5000 2.06 280 20:30 04.02.2021
2934 Clouds 15 1006 72 5000 2.06 280 20:30 04.02.2021
2935 Clouds 15 1006 72 5000 2.06 280 20:30 04.02.2021
2936 Clouds 15 1006 72 5000 1.03 240 19:43 04.02.2021
2937 Clouds 16 1006 77 5000 2.06 280 18:57 04.02.2021
2938 Clouds 16 1006 77 5000 2.06 280 18:26 04.02.2021
2939 Clouds 16 1006 77 5000 2.06 280 18:26 04.02.2021
2940 Clouds 17 1007 72 5000 3.6 320 17:53 04.02.2021
2941 Clouds 17 1007 72 5000 3.6 320 17:53 04.02.2021
2942 Clouds 17 1007 72 5000 3.6 320 17:28 04.02.2021
2943 Clouds 15 1007 88 5000 4.63 280 16:57 04.02.2021
2944 Clouds 15 1007 88 5000 4.63 280 16:39 04.02.2021
2945 Clouds 15 1007 88 5000 4.63 280 16:18 04.02.2021
2946 Clouds 18 1008 68 5000 5.14 300 15:40 04.02.2021
2947 Clouds 18 1008 68 5000 5.14 300 15:20 04.02.2021
2948 Clouds 18 1008 68 5000 5.14 300 15:20 04.02.2021
2949 Clouds 18 1008 68 5000 5.14 300 14:48 04.02.2021
2950 Clouds 17 1008 68 5000 5.14 300 14:21 04.02.2021
2951 Clouds 17 1010 68 5000 3.6 260 13:45 04.02.2021
2952 Clouds 16 1010 68 5000 3.6 260 13:26 04.02.2021
2953 Mist 16 1010 82 3000 3.6 200 12:54 04.02.2021
2954 Mist 15 1011 88 3000 3.6 200 11:57 04.02.2021
2955 Mist 15 1011 88 3000 3.6 200 11:37 04.02.2021
2956 Mist 15 1011 88 3000 3.6 200 11:18 04.02.2021
2957 Fog 13 1011 100 900 2.57 180 10:34 04.02.2021
2958 Fog 11 1011 100 800 2.06 160 09:45 04.02.2021
2959 Fog 11 1011 100 800 2.06 160 09:23 04.02.2021
2960 Mist 11 1011 100 3000 2.06 160 08:51 04.02.2021
2961 Mist 11 1011 100 3000 2.06 160 08:26 04.02.2021
2962 Mist 11 1011 100 3000 2.21 182 07:56 04.02.2021
2963 Mist 11 1011 100 3000 2.21 182 07:33 04.02.2021
2964 Mist 11 1011 100 1200 2.06 160 06:52 04.02.2021
2965 Mist 11 1012 100 1200 1.03 0 06:34 04.02.2021
2966 Fog 11 1014 100 400 1.03 180 02:40 04.02.2021
2967 Fog 11 1014 100 400 1.03 180 02:21 04.02.2021
2968 Mist 13 1015 100 2000 1.03 180 00:24 04.02.2021
2969 Mist 13 1015 100 1500 1.54 330 23:34 03.02.2021
2970 Mist 13 1016 100 2000 1.03 340 22:40 03.02.2021
2971 Mist 13 1016 100 2000 1.03 340 22:21 03.02.2021
2972 Mist 13 1016 100 2000 1.03 340 22:21 03.02.2021
2973 Mist 13 1016 100 4000 0.51 0 21:51 03.02.2021
2974 Clouds 14 1016 77 10000 1.54 340 21:24 03.02.2021
2975 Clouds 14 1016 77 10000 1.54 340 20:54 03.02.2021
2976 Clouds 15 1016 77 10000 1.54 340 20:35 03.02.2021
2977 Clouds 15 1016 72 10000 3.09 340 19:56 03.02.2021
2978 Clouds 16 1016 72 10000 3.09 340 19:27 03.02.2021
2979 Clouds 17 1016 63 10000 3.6 320 18:58 03.02.2021
2980 Clouds 18 1016 63 10000 3.6 320 18:38 03.02.2021
2981 Clouds 18 1016 63 10000 3.6 320 18:19 03.02.2021
2982 Clouds 18 1016 63 10000 2.57 300 17:46 03.02.2021
2983 Clouds 18 1016 63 10000 2.57 300 17:26 03.02.2021
2984 Clouds 17 1016 68 10000 2.06 220 16:43 03.02.2021
2985 Clouds 17 1016 68 10000 2.06 220 16:23 03.02.2021
2986 Clouds 17 1017 68 10000 3.6 280 15:41 03.02.2021
2987 Clouds 17 1017 68 10000 3.6 280 15:41 03.02.2021
2988 Clouds 17 1017 68 10000 3.6 280 15:22 03.02.2021
2989 Clouds 16 1017 72 8000 3.6 320 14:47 03.02.2021
2990 Clouds 16 1017 72 8000 3.6 320 14:23 03.02.2021
2991 Clouds 16 1018 72 8000 3.6 140 13:48 03.02.2021
2992 Clouds 16 1018 72 8000 3.6 140 13:21 03.02.2021
2993 Clouds 16 1019 72 8000 2.57 160 12:45 03.02.2021
2994 Clouds 16 1019 72 8000 2.57 160 12:21 03.02.2021
2995 Clouds 14 1019 82 6000 4.12 200 11:43 03.02.2021
2996 Clouds 14 1019 82 6000 4.12 200 11:24 03.02.2021
2997 Clouds 14 1019 88 5000 2.06 200 10:45 03.02.2021
2998 Clouds 14 1019 88 5000 2.06 200 10:20 03.02.2021
2999 Clouds 15 1018 94 5000 2.06 180 09:45 03.02.2021
3000 Clouds 14 1018 94 5000 2.06 180 09:27 03.02.2021
3001 Clouds 15 1018 94 600 2.06 100 08:48 03.02.2021
3002 Clouds 15 1018 94 6000 2.06 140 07:59 03.02.2021
3003 Clouds 15 1018 94 6000 2.06 140 07:26 03.02.2021
3004 Mist 13 1018 100 1700 1.03 0 06:38 03.02.2021
3005 Mist 14 1019 100 1500 1.03 130 04:50 03.02.2021
3006 Mist 14 1019 100 1500 0.51 0 04:27 03.02.2021
3007 Fog 13 1019 100 600 1.54 350 02:43 03.02.2021
3008 Fog 14 1020 100 400 2.06 30 01:58 03.02.2021
3009 Fog 14 1020 100 600 3.09 20 00:27 03.02.2021
3010 Fog 14 1020 100 600 2.57 20 23:44 02.02.2021
3011 Fog 14 1020 100 800 3.09 30 23:26 02.02.2021
3012 Fog 14 1020 100 700 3.09 20 22:52 02.02.2021
3013 Mist 14 1019 100 3000 3.09 20 22:22 02.02.2021
3014 Clouds 14 1019 100 6000 2.06 10 21:48 02.02.2021
3015 Clear 15 1018 88 10000 4.12 40 21:27 02.02.2021
3016 Clear 15 1018 88 10000 4.12 40 20:52 02.02.2021
3017 Clear 15 1018 88 10000 4.12 40 20:25 02.02.2021
3018 Clear 16 1018 82 10000 3.09 40 19:59 02.02.2021
3019 Clear 16 1018 82 10000 3.09 40 19:40 02.02.2021
3020 Clear 16 1018 82 10000 3.09 40 19:22 02.02.2021
3021 Clear 17 1017 77 10000 3.09 60 18:42 02.02.2021
3022 Clear 17 1017 77 10000 3.09 60 18:24 02.02.2021
3023 Clear 18 1018 72 10000 4.12 40 17:42 02.02.2021
3024 Clear 18 1018 72 10000 4.12 40 17:21 02.02.2021
3025 Clear 19 1018 63 10000 5.14 20 16:51 02.02.2021
3026 Clear 19 1018 63 10000 5.14 20 16:31 02.02.2021
3027 Clear 18 1018 72 10000 5.14 40 15:57 02.02.2021
3028 Clear 18 1018 72 10000 5.14 40 15:34 02.02.2021
3029 Clear 18 1019 72 10000 5.14 60 14:56 02.02.2021
3030 Clear 18 1019 72 10000 5.14 60 14:37 02.02.2021
3031 Clear 18 1019 72 10000 5.14 60 14:18 02.02.2021
3032 Clouds 17 1021 82 10000 6.17 40 13:42 02.02.2021
3033 Clouds 17 1021 82 10000 6.17 40 13:24 02.02.2021
3034 Clouds 17 1021 82 8000 6.17 60 12:53 02.02.2021
3035 Clouds 17 1021 82 8000 6.17 60 12:23 02.02.2021
3036 Clouds 15 1021 82 6000 4.12 40 11:40 02.02.2021
3037 Clouds 15 1021 82 6000 4.12 40 11:19 02.02.2021
3038 Clouds 15 1021 82 6000 4.12 40 11:19 02.02.2021
3039 Mist 14 1021 94 4000 3.09 80 10:45 02.02.2021
3040 Mist 13 1021 94 4000 3.09 80 10:26 02.02.2021
3041 Mist 11 1021 94 4000 2.06 100 09:45 02.02.2021
3042 Mist 11 1021 94 4000 2.06 100 09:23 02.02.2021
3043 Mist 11 1021 94 4000 3.09 80 08:43 02.02.2021
3044 Clear 11 1020 94 6000 4.12 40 07:47 02.02.2021
3045 Mist 9 1020 100 1500 2.06 70 07:25 02.02.2021
3046 Fog 8 1020 100 200 1.54 80 06:40 02.02.2021
3047 Fog 8 1020 100 200 1.54 100 05:51 02.02.2021
3048 Fog 12 1021 100 200 1.54 100 04:18 02.02.2021
3049 Clouds 14 1022 100 10000 3.6 50 02:25 02.02.2021
3050 Clouds 14 1022 100 10000 3.6 40 00:40 02.02.2021
3051 Clouds 14 1022 100 8000 4.12 50 23:57 01.02.2021
3052 Clouds 14 1022 100 8000 4.12 50 22:59 01.02.2021
3053 Clouds 14 1022 100 10000 5.14 50 22:39 01.02.2021
3054 Clouds 14 1022 100 10000 5.14 50 22:19 01.02.2021
3055 Clouds 15 1022 100 10000 5.66 40 21:45 01.02.2021
3056 Clouds 15 1022 94 8000 3.6 20 21:22 01.02.2021
3057 Clouds 15 1022 94 8000 3.6 20 20:42 01.02.2021
3058 Clouds 16 1022 94 8000 3.6 20 20:24 01.02.2021
3059 Clear 16 1022 88 10000 4.12 40 19:47 01.02.2021
3060 Clear 16 1022 88 10000 4.12 40 19:21 01.02.2021
3061 Clear 16 1022 88 10000 4.12 40 19:21 01.02.2021
3062 Clear 18 1022 72 10000 4.63 60 18:55 01.02.2021
3063 Clear 18 1022 72 10000 4.63 60 18:32 01.02.2021
3064 Clear 18 1022 72 10000 6.17 20 17:57 01.02.2021
3065 Clear 18 1022 72 10000 6.17 20 17:39 01.02.2021
3066 Clear 18 1022 72 10000 6.17 20 17:18 01.02.2021
3067 Clear 18 1022 72 10000 4.63 60 16:33 01.02.2021
3068 Clear 18 1022 68 10000 7.2 60 15:50 01.02.2021
3069 Clear 18 1022 68 10000 7.2 60 15:21 01.02.2021
3070 Clear 18 1023 68 10000 6.17 20 14:57 01.02.2021
3071 Clear 18 1023 68 10000 6.17 20 14:39 01.02.2021
3072 Clear 18 1024 72 10000 4.12 20 13:56 01.02.2021
3073 Clear 18 1024 72 10000 4.12 20 13:38 01.02.2021
3074 Clear 18 1024 72 10000 4.12 20 13:38 01.02.2021
3075 Clear 18 1024 72 10000 4.12 20 13:38 01.02.2021
3076 Clear 18 1024 72 10000 4.12 20 13:19 01.02.2021
3077 Clear 18 1024 68 10000 5.14 60 12:44 01.02.2021
3078 Clear 17 1024 68 10000 5.14 60 12:23 01.02.2021
3079 Clear 16 1024 77 6000 3.09 60 11:42 01.02.2021
3080 Clear 16 1024 77 6000 3.09 60 11:20 01.02.2021
3081 Clear 13 1024 100 6000 1.03 160 10:46 01.02.2021
3082 Clear 12 1024 100 6000 1.03 160 10:20 01.02.2021
3083 Clear 10 1023 100 10000 1.03 180 09:44 01.02.2021
3084 Clear 10 1023 100 10000 1.03 180 09:24 01.02.2021
3085 Clear 10 1023 100 10000 1.03 180 08:51 01.02.2021
3086 Clear 10 1023 100 10000 1.03 200 07:53 01.02.2021
3087 Mist 8 1023 93 4000 2.06 160 06:34 01.02.2021
3088 Mist 12 1024 93 4000 1.54 60 04:30 01.02.2021
3089 Clear 12 1025 93 6000 1.54 110 01:41 01.02.2021
3090 Clear 13 1025 94 8000 2.06 60 23:45 31.01.2021
3091 Clouds 13 1025 94 8000 1.54 50 22:44 31.01.2021
3092 Clear 13 1025 94 8000 2.57 40 22:25 31.01.2021
3093 Clear 14 1025 94 8000 2.06 40 21:55 31.01.2021
3094 Clear 15 1025 77 10000 1.03 20 21:26 31.01.2021
3095 Clear 15 1025 77 10000 1.03 20 20:59 31.01.2021
3096 Clear 15 1025 77 10000 1.03 20 20:37 31.01.2021
3097 Clear 15 1025 77 10000 1.03 20 20:18 31.01.2021
3098 Clear 16 1025 72 10000 2.06 360 19:37 31.01.2021
3099 Clear 16 1025 72 10000 2.06 360 19:19 31.01.2021
3100 Clear 16 1025 72 10000 2.06 360 19:19 31.01.2021
3101 Clear 17 1025 67 10000 3.09 60 18:41 31.01.2021
3102 Clear 17 1025 67 10000 3.09 60 18:23 31.01.2021
3103 Clouds 18 1024 63 10000 2.06 20 17:49 31.01.2021
3104 Clouds 18 1024 63 10000 2.06 20 17:24 31.01.2021
3105 Clouds 18 1024 63 10000 3.09 360 16:52 31.01.2021
3106 Clouds 18 1024 63 10000 3.09 360 16:33 31.01.2021
3107 Clouds 18 1025 63 10000 4.63 20 15:52 31.01.2021
3108 Clouds 18 1025 63 10000 4.63 20 15:34 31.01.2021
3109 Clouds 18 1026 68 10000 4.12 60 14:50 31.01.2021
3110 Clouds 18 1026 68 10000 4.12 60 14:25 31.01.2021
3111 Clouds 17 1027 77 10000 3.6 360 13:56 31.01.2021
3112 Clouds 17 1027 77 10000 3.6 360 13:56 31.01.2021
3113 Clouds 17 1027 77 10000 3.6 360 13:37 31.01.2021
3114 Clouds 17 1027 77 10000 2.06 80 12:50 31.01.2021
3115 Clouds 16 1027 77 10000 2.06 80 12:23 31.01.2021
3116 Clouds 16 1027 77 10000 2.06 80 12:23 31.01.2021
3117 Clouds 16 1027 82 6000 1.03 160 11:58 31.01.2021
3118 Clouds 16 1027 82 6000 1.03 160 11:37 31.01.2021
3119 Clouds 13 1026 94 6000 3.09 200 11:19 31.01.2021
3120 Clouds 13 1026 94 6000 3.09 200 10:43 31.01.2021
3121 Clouds 13 1026 94 6000 3.09 200 10:24 31.01.2021
3122 Mist 10 1026 93 3000 1.03 140 09:33 31.01.2021
3123 Clouds 10 1025 87 10000 1.03 20 08:34 31.01.2021
3124 Clouds 11 1025 87 10000 1.03 120 07:48 31.01.2021
3125 Fog 12 1025 100 300 0.51 0 05:53 31.01.2021
3126 Mist 14 1026 100 2000 1.03 0 00:52 31.01.2021
3127 Clouds 14 1026 100 10000 1.03 220 00:26 31.01.2021
3128 Clouds 15 1026 100 10000 0.51 0 23:34 30.01.2021
3129 Clouds 14 1026 100 10000 1.03 200 22:59 30.01.2021
3130 Clouds 14 1026 100 10000 2.06 190 22:33 30.01.2021
3131 Clouds 15 1026 100 10000 0.51 0 21:43 30.01.2021
3132 Clouds 16 1025 77 10000 4.12 260 21:23 30.01.2021
3133 Clouds 16 1025 77 10000 4.12 260 21:23 30.01.2021
3134 Clouds 16 1025 77 10000 4.12 260 20:50 30.01.2021
3135 Clouds 16 1025 77 10000 4.12 260 20:32 30.01.2021
3136 Clouds 16 1024 77 10000 2.06 220 19:55 30.01.2021
3137 Clouds 16 1024 77 10000 2.06 220 19:36 30.01.2021
3138 Clouds 16 1024 77 10000 2.06 220 19:18 30.01.2021
3139 Clouds 16 1024 72 10000 2.06 260 18:39 30.01.2021
3140 Clouds 16 1024 72 10000 2.06 260 18:19 30.01.2021
3141 Clouds 16 1024 67 10000 2.06 320 17:24 30.01.2021
3142 Clouds 16 1024 67 10000 4.12 260 16:57 30.01.2021
3143 Clouds 16 1024 67 10000 4.12 260 16:37 30.01.2021
3144 Clouds 16 1024 67 10000 4.12 260 16:19 30.01.2021
3145 Clouds 16 1024 77 10000 5.14 300 15:42 30.01.2021
3146 Clouds 16 1024 77 10000 5.14 300 15:22 30.01.2021
3147 Clouds 16 1025 77 8000 2.06 280 14:52 30.01.2021
3148 Clouds 15 1025 77 8000 2.06 280 14:22 30.01.2021
3149 Clouds 15 1026 77 8000 2.06 320 13:40 30.01.2021
3150 Clouds 15 1026 77 8000 2.06 320 13:19 30.01.2021
3151 Clouds 14 1026 82 8000 1.03 240 12:42 30.01.2021
3152 Clouds 15 1026 82 8000 1.03 240 12:20 30.01.2021
3153 Clouds 15 1026 82 6000 4.12 320 11:37 30.01.2021
3154 Clouds 15 1026 82 6000 3.09 320 10:51 30.01.2021
3155 Clouds 14 1025 82 6000 3.09 280 09:53 30.01.2021
3156 Clouds 14 1025 82 6000 3.09 280 09:31 30.01.2021
3157 Clouds 14 1024 82 6000 3.09 260 08:56 30.01.2021
3158 Clouds 14 1024 82 6000 3.09 260 08:36 30.01.2021
3159 Clouds 14 1024 88 6000 3.09 300 07:23 30.01.2021
3160 Clouds 14 1024 100 7000 2.57 170 06:19 30.01.2021
3161 Mist 14 1026 100 4000 2.57 320 03:35 30.01.2021
3162 Mist 14 1025 100 3000 2.06 140 02:26 30.01.2021
3163 Clouds 14 1025 100 6000 1.03 0 01:35 30.01.2021
3164 Mist 14 1026 100 4000 3.09 340 00:49 30.01.2021
3165 Mist 14 1025 100 4000 1.54 350 00:21 30.01.2021
3166 Mist 13 1025 100 3000 1.54 350 23:49 29.01.2021
3167 Mist 13 1025 100 2500 2.57 340 23:27 29.01.2021
3168 Mist 13 1025 100 2000 1.54 340 22:45 29.01.2021
3169 Mist 13 1025 100 2000 1.03 10 22:22 29.01.2021
3170 Mist 14 1024 100 3000 1.54 40 21:43 29.01.2021
3171 Mist 15 1024 88 3000 1.54 360 21:25 29.01.2021
3172 Mist 15 1024 88 3000 1.54 360 20:42 29.01.2021
3173 Mist 15 1024 88 3000 1.54 360 20:42 29.01.2021
3174 Mist 15 1024 88 3000 1.54 360 20:21 29.01.2021
3175 Mist 15 1024 88 3000 3.09 360 19:39 29.01.2021
3176 Mist 15 1024 88 3000 3.09 360 19:20 29.01.2021
3177 Mist 17 1024 77 3000 3.09 340 18:44 29.01.2021
3178 Mist 17 1024 77 3000 3.09 20 17:45 29.01.2021
3179 Mist 17 1024 77 3000 3.09 20 17:22 29.01.2021
3180 Mist 17 1023 77 3000 4.12 360 16:47 29.01.2021
3181 Mist 17 1023 77 3000 4.12 360 16:24 29.01.2021
3182 Mist 17 1024 82 3000 4.12 320 15:52 29.01.2021
3183 Mist 17 1024 82 3000 4.12 320 15:34 29.01.2021
3184 Mist 17 1025 82 2000 2.57 300 14:57 29.01.2021
3185 Mist 17 1025 82 2000 2.57 300 14:21 29.01.2021
3186 Mist 17 1025 88 2000 2.57 300 13:45 29.01.2021
3187 Mist 17 1025 88 2000 2.57 300 13:26 29.01.2021
3188 Mist 16 1025 100 2000 3.6 160 12:30 29.01.2021
3189 Mist 15 1025 100 2000 3.6 160 11:51 29.01.2021
3190 Mist 15 1025 100 2000 3.6 160 11:20 29.01.2021
3191 Mist 14 1025 100 2000 4.12 140 10:58 29.01.2021
3192 Mist 14 1025 100 2000 4.12 140 10:39 29.01.2021
3193 Mist 14 1024 100 2000 4.63 140 09:50 29.01.2021
3194 Mist 14 1024 100 2000 4.63 140 09:50 29.01.2021
3195 Mist 14 1024 100 2000 4.63 140 09:29 29.01.2021
3196 Mist 14 1024 94 2000 1.03 100 08:48 29.01.2021
3197 Mist 14 1024 94 2000 1.03 100 08:25 29.01.2021
3198 Mist 14 1024 94 2000 1.03 60 07:43 29.01.2021
3199 Mist 14 1024 94 2000 1.03 60 07:23 29.01.2021
3200 Mist 14 1024 100 2000 1.54 130 06:34 29.01.2021
3201 Fog 14 1024 100 300 3.09 340 03:53 29.01.2021
3202 Fog 14 1023 100 300 4.12 160 00:47 29.01.2021
3203 Fog 15 1024 100 300 3.09 160 00:22 29.01.2021
3204 Fog 15 1024 100 300 3.09 160 00:22 29.01.2021
3205 Fog 15 1024 100 200 2.06 140 23:47 28.01.2021
3206 Fog 15 1024 100 300 1.54 100 23:27 28.01.2021
3207 Clear 15 1023 93 10000 1.79 20 22:59 28.01.2021
3208 Clear 15 1023 93 10000 1.79 20 22:38 28.01.2021
3209 Clear 15 1023 93 10000 1.79 20 22:20 28.01.2021
3210 Fog 15 1024 100 400 1.54 100 21:42 28.01.2021
3211 Clouds 15 1023 94 6000 2.06 20 21:21 28.01.2021
3212 Clouds 15 1023 94 6000 2.06 20 20:44 28.01.2021
3213 Clouds 15 1023 94 6000 2.06 20 20:19 28.01.2021
3214 Mist 15 1024 94 2000 4.12 40 19:49 28.01.2021
3215 Mist 15 1024 94 2000 4.12 40 19:27 28.01.2021
3216 Mist 16 1023 94 2000 5.14 360 18:49 28.01.2021
3217 Mist 16 1023 94 2000 5.14 360 18:29 28.01.2021
3218 Mist 17 1022 94 2000 5.14 360 17:53 28.01.2021
3219 Mist 17 1022 94 2000 5.14 360 17:32 28.01.2021
3220 Mist 18 1022 88 2000 5.14 360 16:57 28.01.2021
3221 Mist 18 1022 88 2000 5.14 360 16:37 28.01.2021
3222 Mist 18 1022 88 2000 5.14 360 16:18 28.01.2021
3223 Mist 19 1022 82 2000 7.2 360 15:25 28.01.2021
3224 Mist 19 1023 77 2000 4.12 340 14:47 28.01.2021
3225 Mist 19 1023 77 2000 4.12 340 14:23 28.01.2021
3226 Mist 19 1024 82 2000 3.6 20 13:55 28.01.2021
3227 Mist 19 1024 82 2000 3.6 20 13:23 28.01.2021
3228 Mist 16 1024 88 2000 1.54 80 12:49 28.01.2021
3229 Mist 16 1024 88 2000 1.54 80 12:26 28.01.2021
3230 Clouds 14 1024 94 2000 4.12 140 11:44 28.01.2021
3231 Clouds 15 1024 94 2000 4.12 140 11:22 28.01.2021
3232 Mist 15 1023 94 2000 3.09 140 10:57 28.01.2021
3233 Mist 15 1023 94 2000 3.09 140 10:39 28.01.2021
3234 Mist 15 1023 94 2000 3.09 140 10:20 28.01.2021
3235 Mist 15 1023 94 2000 2.57 100 09:36 28.01.2021
3236 Mist 15 1023 94 2000 2.57 100 09:18 28.01.2021
3237 Clouds 14 1023 82 8000 3.09 80 08:40 28.01.2021
3238 Clouds 15 1023 88 10000 3.09 60 07:49 28.01.2021
3239 Clouds 15 1023 88 10000 3.09 60 07:18 28.01.2021
3240 Fog 14 1023 100 800 3.09 40 06:46 28.01.2021
3241 Clouds 15 1023 100 5000 2.57 90 04:30 28.01.2021
3242 Clouds 15 1024 100 6000 3.6 70 02:33 28.01.2021
3243 Fog 15 1025 100 400 4.12 60 00:35 28.01.2021
3244 Fog 15 1025 100 400 4.63 60 23:25 27.01.2021
3245 Fog 15 1025 100 500 4.12 50 22:44 27.01.2021
3246 Fog 15 1025 100 500 5.66 50 22:26 27.01.2021
3247 Fog 15 1025 100 600 4.63 50 21:59 27.01.2021
3248 Fog 15 1025 100 600 4.12 40 21:41 27.01.2021
3249 Fog 15 1025 100 600 4.12 40 21:40 27.01.2021
3250 Clouds 16 1024 100 5000 5.14 40 21:22 27.01.2021
3251 Clouds 16 1024 100 5000 5.14 40 20:41 27.01.2021
3252 Clouds 16 1024 94 8000 5.14 40 19:59 27.01.2021
3253 Clouds 16 1024 94 8000 5.14 40 19:41 27.01.2021
3254 Clouds 16 1024 94 8000 5.14 40 19:20 27.01.2021
3255 Clouds 17 1024 88 10000 6.69 40 18:43 27.01.2021
3256 Clouds 17 1024 88 10000 6.69 40 18:23 27.01.2021
3257 Clouds 18 1024 82 10000 4.12 60 17:46 27.01.2021
3258 Clouds 18 1024 82 10000 4.12 60 17:26 27.01.2021
3259 Clear 21 1024 78 8000 4.63 30 16:48 27.01.2021
3260 Clear 21 1024 78 10000 4.63 30 16:28 27.01.2021
3261 Clear 20 1024 77 10000 3.09 30 15:51 27.01.2021
3262 Clear 20 1025 77 10000 4.12 30 15:32 27.01.2021
3263 Clear 20 1025 77 10000 3.6 60 14:45 27.01.2021
3264 Clear 19 1026 100 10000 4.12 50 14:22 27.01.2021
3265 Clear 19 1026 100 10000 4.12 50 13:48 27.01.2021
3266 Clear 19 1026 100 10000 4.63 40 13:19 27.01.2021
3267 Clear 17 1027 100 10000 2.57 50 12:40 27.01.2021
3268 Clear 17 1027 100 10000 2.57 50 12:21 27.01.2021
3269 Clear 17 1027 100 10000 2.57 50 11:44 27.01.2021
3270 Clear 15 1026 100 10000 2.57 60 11:22 27.01.2021
3271 Clear 15 1026 100 10000 2.57 60 11:22 27.01.2021
3272 Clear 13 1026 100 6000 2.57 60 10:40 27.01.2021
3273 Clear 13 1026 100 6000 2.57 60 10:21 27.01.2021
3274 Clear 11 1026 100 6000 1.54 40 09:47 27.01.2021
3275 Clouds 9 1026 100 6000 1.03 80 08:59 27.01.2021
3276 Fog 9 1025 100 4000 1.03 130 08:31 27.01.2021
3277 Clouds 9 1025 100 6000 2.06 130 07:43 27.01.2021
3278 Mist 10 1025 100 3000 2.06 110 07:19 27.01.2021
3279 Clear 12 1026 100 8000 2.57 70 06:19 27.01.2021
3280 Clear 13 1026 100 10000 3.09 50 05:43 27.01.2021
3281 Clear 15 1026 100 8000 2.57 40 03:34 27.01.2021
3282 Clear 15 1026 100 10000 3.09 50 02:23 27.01.2021
3283 Clear 15 1027 100 10000 2.57 50 01:49 27.01.2021
3284 Clouds 15 1027 100 8000 4.12 50 00:33 27.01.2021
3285 Clouds 15 1027 100 6000 4.12 40 23:49 26.01.2021
3286 Clouds 15 1027 100 10000 4.12 50 23:28 26.01.2021
3287 Clouds 15 1027 100 10000 4.63 40 22:50 26.01.2021
3288 Clouds 15 1027 100 10000 5.14 40 22:23 26.01.2021
3289 Clouds 15 1027 100 8000 5.14 30 21:54 26.01.2021
3290 Clear 16 1027 94 8000 4.12 20 21:34 26.01.2021
3291 Clear 16 1027 94 8000 4.12 20 20:58 26.01.2021
3292 Clear 16 1027 94 8000 4.12 20 20:39 26.01.2021
3293 Clear 16 1027 94 8000 4.12 20 20:21 26.01.2021
3294 Clear 17 1026 88 10000 3.09 40 19:45 26.01.2021
3295 Clear 17 1026 88 10000 3.09 40 19:20 26.01.2021
3296 Clear 18 1026 72 10000 5.14 40 18:47 26.01.2021
3297 Clear 18 1026 72 10000 5.14 40 18:27 26.01.2021
3298 Clear 18 1025 72 10000 5.14 40 17:52 26.01.2021
3299 Clear 18 1025 72 10000 5.14 40 17:33 26.01.2021
3300 Clear 19 1026 68 10000 7.2 20 16:56 26.01.2021
3301 Clear 19 1026 68 10000 7.2 20 16:37 26.01.2021
3302 Clear 19 1026 68 10000 7.2 20 16:18 26.01.2021
3303 Clear 20 1025 64 10000 4.12 20 15:44 26.01.2021
3304 Clear 20 1025 64 10000 4.12 20 15:24 26.01.2021
3305 Clear 19 1026 68 10000 4.12 40 14:45 26.01.2021
3306 Clear 19 1026 68 10000 4.12 40 14:25 26.01.2021
3307 Clear 19 1027 68 10000 4.12 20 13:34 26.01.2021
3308 Clear 18 1028 77 8000 3.09 80 12:58 26.01.2021
3309 Clear 18 1028 77 8000 3.09 80 12:40 26.01.2021
3310 Clear 18 1028 77 8000 3.09 80 12:20 26.01.2021
3311 Clear 16 1028 82 8000 3.09 80 11:50 26.01.2021
3312 Clear 15 1028 82 8000 3.09 80 11:25 26.01.2021
3313 Clear 13 1027 100 6000 2.06 160 10:42 26.01.2021
3314 Clear 12 1027 100 6000 2.06 160 10:22 26.01.2021
3315 Clear 10 1027 100 6000 2.06 140 09:40 26.01.2021
3316 Clear 10 1027 100 6000 2.06 140 09:22 26.01.2021
3317 Clear 10 1027 93 6000 1.03 160 08:49 26.01.2021
3318 Clear 9 1027 93 6000 1.03 160 08:18 26.01.2021
3319 Clear 7 1026 100 8000 2.06 150 07:19 26.01.2021
3320 Clear 8 1026 100 10000 1.54 110 05:53 26.01.2021
3321 Clear 9 1026 100 10000 0.51 20 05:34 26.01.2021
3322 Clear 12 1026 100 10000 1.03 90 03:39 26.01.2021
3323 Clear 13 1026 100 7000 2.06 90 01:35 26.01.2021
3324 Drizzle 13 1026 100 5000 1.54 140 00:36 26.01.2021
3325 Clouds 13 1026 100 5000 2.06 150 23:33 25.01.2021
3326 Clouds 13 1026 100 5000 2.06 160 22:51 25.01.2021
3327 Clouds 14 1026 100 8000 1.03 130 22:33 25.01.2021
3328 Clouds 13 1026 100 8000 1.03 140 21:48 25.01.2021
3329 Clouds 14 1025 100 6000 2.06 300 21:22 25.01.2021
3330 Clouds 15 1025 100 6000 2.06 300 20:45 25.01.2021
3331 Clouds 15 1025 100 6000 2.06 300 20:27 25.01.2021
3332 Clouds 15 1024 94 6000 3.09 340 19:50 25.01.2021
3333 Clouds 15 1024 94 6000 3.09 340 19:27 25.01.2021
3334 Clouds 16 1024 94 10000 4.12 340 18:48 25.01.2021
3335 Clouds 16 1024 94 10000 4.12 340 18:48 25.01.2021
3336 Clouds 15 1024 94 10000 4.12 340 18:26 25.01.2021
3337 Clouds 16 1023 88 6000 6.17 320 17:49 25.01.2021
3338 Clouds 16 1023 88 6000 6.17 320 17:26 25.01.2021
3339 Clouds 16 1023 94 6000 5.14 320 16:57 25.01.2021
3340 Clouds 16 1023 94 6000 5.14 320 16:39 25.01.2021
3341 Clouds 16 1023 94 6000 5.14 320 16:20 25.01.2021
3342 Clouds 17 1023 88 6000 5.14 320 15:41 25.01.2021
3343 Clouds 18 1023 88 6000 5.14 320 15:22 25.01.2021
3344 Clouds 18 1023 82 8000 6.17 320 14:39 25.01.2021
3345 Clouds 18 1023 82 8000 6.17 320 14:39 25.01.2021
3346 Clouds 18 1023 82 8000 6.17 320 14:18 25.01.2021
3347 Clouds 18 1023 82 8000 4.12 320 13:44 25.01.2021
3348 Clear 18 1023 82 8000 4.12 320 13:25 25.01.2021
3349 Clear 18 1024 77 8000 2.06 180 12:45 25.01.2021
3350 Clear 17 1024 77 8000 2.06 180 12:19 25.01.2021
3351 Clear 15 1024 88 8000 2.06 180 11:31 25.01.2021
3352 Mist 13 1023 100 3000 2.06 180 10:53 25.01.2021
3353 Mist 13 1023 100 3000 2.06 180 10:23 25.01.2021
3354 Mist 10 1023 100 3000 1.03 180 09:54 25.01.2021
3355 Mist 10 1023 100 3000 1.03 180 09:34 25.01.2021
3356 Fog 10 1022 100 200 3.6 169 08:53 25.01.2021
3357 Fog 10 1022 100 200 1.94 183 08:23 25.01.2021
3358 Fog 10 1022 100 200 1.03 140 07:30 25.01.2021
3359 Fog 10 1022 100 250 2.06 330 06:47 25.01.2021
3360 Mist 14 1022 100 1200 2.57 160 02:59 25.01.2021
3361 Mist 14 1023 100 1200 1.54 120 00:48 25.01.2021
3362 Clouds 15 1023 100 5000 2.57 340 23:40 24.01.2021
3363 Clouds 15 1023 100 5000 2.57 340 23:19 24.01.2021
3364 Clouds 14 1022 100 6000 2.06 350 22:41 24.01.2021
3365 Clouds 14 1022 100 6000 2.06 350 22:20 24.01.2021
3366 Clouds 14 1022 100 10000 2.57 340 21:44 24.01.2021
3367 Clouds 15 1022 88 10000 2.06 280 21:21 24.01.2021
3368 Clouds 15 1022 88 10000 2.06 280 20:43 24.01.2021
3369 Clouds 15 1022 88 10000 2.06 280 20:20 24.01.2021
3370 Clouds 16 1021 88 10000 2.06 340 19:50 24.01.2021
3371 Clouds 16 1021 88 10000 2.06 340 19:26 24.01.2021
3372 Clouds 17 1021 82 10000 2.06 260 18:57 24.01.2021
3373 Clouds 17 1021 82 10000 2.06 260 18:38 24.01.2021
3374 Clouds 17 1021 82 10000 2.06 260 18:19 24.01.2021
3375 Clouds 17 1021 82 10000 3.09 320 17:48 24.01.2021
3376 Clouds 17 1021 82 10000 3.09 320 17:21 24.01.2021
3377 Clouds 18 1022 72 10000 5.14 320 16:43 24.01.2021
3378 Clouds 19 1022 72 10000 5.14 320 16:25 24.01.2021
3379 Clouds 19 1022 72 10000 4.12 280 15:58 24.01.2021
3380 Clouds 19 1022 72 10000 4.12 280 15:40 24.01.2021
3381 Clouds 19 1022 72 10000 4.12 280 15:18 24.01.2021
3382 Clouds 18 1023 77 10000 4.12 280 14:37 24.01.2021
3383 Clear 17 1023 77 10000 2.06 200 13:45 24.01.2021
3384 Clear 17 1023 77 10000 2.06 200 13:24 24.01.2021
3385 Clouds 16 1024 77 8000 2.06 200 12:43 24.01.2021
3386 Clouds 15 1024 77 8000 2.06 200 12:20 24.01.2021
3387 Clouds 14 1024 82 8000 4.12 180 11:50 24.01.2021
3388 Clouds 14 1024 82 8000 4.12 180 11:24 24.01.2021
3389 Clouds 11 1023 93 8000 3.09 200 10:45 24.01.2021
3390 Clouds 10 1023 93 8000 3.09 200 10:18 24.01.2021
3391 Clear 9 1023 93 10000 2.06 180 09:22 24.01.2021
3392 Clear 8 1022 100 10000 2.06 160 08:57 24.01.2021
3393 Clear 8 1022 100 10000 2.06 160 08:22 24.01.2021
3394 Clouds 11 1024 100 10000 2.06 200 02:41 24.01.2021
3395 Clouds 11 1024 100 10000 1.03 200 01:52 24.01.2021
3396 Clouds 11 1025 100 10000 2.06 160 00:26 24.01.2021
3397 Clouds 11 1024 100 10000 1.54 150 23:53 23.01.2021
3398 Clouds 11 1025 100 10000 2.06 150 23:26 23.01.2021
3399 Clouds 11 1025 100 10000 2.06 150 22:53 23.01.2021
3400 Clouds 11 1025 100 10000 1.54 140 22:33 23.01.2021
3401 Clouds 12 1025 100 10000 1.6 282 21:53 23.01.2021
3402 Clear 13 1024 82 10000 1.03 300 21:22 23.01.2021
3403 Clear 13 1024 82 10000 1.03 300 20:48 23.01.2021
3404 Clear 13 1024 82 10000 1.03 300 20:48 23.01.2021
3405 Clear 13 1024 82 10000 1.03 300 20:25 23.01.2021
3406 Clear 14 1024 77 10000 1.54 300 19:47 23.01.2021
3407 Clear 15 1024 77 10000 1.54 300 19:23 23.01.2021
3408 Clouds 16 1023 72 10000 2.06 320 18:51 23.01.2021
3409 Clouds 16 1023 72 10000 2.06 320 18:26 23.01.2021
3410 Clouds 17 1023 63 10000 5.14 320 17:55 23.01.2021
3411 Clouds 17 1023 63 10000 5.14 320 17:27 23.01.2021
3412 Clouds 17 1024 67 10000 3.6 340 16:51 23.01.2021
3413 Clouds 17 1024 67 10000 3.6 340 16:31 23.01.2021
3414 Clouds 17 1024 67 10000 2.57 300 15:48 23.01.2021
3415 Clouds 17 1024 67 10000 2.57 300 15:26 23.01.2021
3416 Clouds 17 1024 72 10000 1.03 340 14:37 23.01.2021
3417 Clouds 17 1024 72 10000 1.03 340 14:19 23.01.2021
3418 Clouds 17 1025 72 10000 2.06 200 13:40 23.01.2021
3419 Clouds 17 1025 72 10000 2.06 200 13:21 23.01.2021
3420 Clouds 16 1026 72 10000 2.06 200 12:41 23.01.2021
3421 Clouds 15 1026 72 10000 2.06 200 12:21 23.01.2021
3422 Clouds 13 1026 100 8000 2.06 200 11:34 23.01.2021
3423 Clouds 12 1025 100 8000 2.57 180 10:52 23.01.2021
3424 Clouds 11 1025 100 8000 2.57 180 10:22 23.01.2021
3425 Clouds 11 1026 100 10000 3.09 180 09:49 23.01.2021
3426 Clouds 10 1025 100 10000 2.57 160 08:57 23.01.2021
3427 Clouds 10 1025 100 10000 2.57 160 08:37 23.01.2021
3428 Clouds 10 1024 100 10000 2.06 180 07:37 23.01.2021
3429 Fog 10 1024 100 150 1.03 160 05:44 23.01.2021
3430 Fog 13 1026 100 250 0.51 0 00:56 23.01.2021
3431 Fog 13 1026 100 800 1.54 230 23:53 22.01.2021
3432 Mist 14 1027 100 4000 2.06 260 23:34 22.01.2021
3433 Clouds 14 1026 100 10000 2.06 220 22:40 22.01.2021
3434 Clouds 14 1026 100 10000 2.06 220 21:51 22.01.2021
3435 Clouds 15 1025 94 8000 1.03 200 21:32 22.01.2021
3436 Clouds 16 1025 94 8000 1.03 200 20:59 22.01.2021
3437 Clouds 16 1025 94 8000 1.03 200 20:39 22.01.2021
3438 Clouds 16 1025 94 8000 2.06 260 19:59 22.01.2021
3439 Clouds 16 1025 94 8000 2.06 260 19:26 22.01.2021
3440 Clouds 17 1025 94 8000 3.09 260 18:59 22.01.2021
3441 Clouds 17 1025 94 8000 3.09 260 18:41 22.01.2021
3442 Clouds 17 1025 94 8000 3.09 260 18:22 22.01.2021
3443 Clouds 17 1025 94 6000 4.12 240 17:43 22.01.2021
3444 Rain 17 1025 94 6000 4.12 240 17:24 22.01.2021
3445 Rain 16 1024 100 6000 4.12 240 16:44 22.01.2021
3446 Clouds 16 1024 100 6000 4.12 240 16:23 22.01.2021
3447 Rain 17 1024 100 3000 4.12 240 15:29 22.01.2021
3448 Mist 17 1024 100 3000 4.12 240 14:58 22.01.2021
3449 Mist 17 1024 100 3000 4.12 240 14:30 22.01.2021
3450 Rain 17 1025 94 8000 3.09 240 13:47 22.01.2021
3451 Rain 16 1025 94 8000 3.09 240 13:28 22.01.2021
3452 Clouds 16 1025 94 8000 5.14 220 12:48 22.01.2021
3453 Clouds 16 1025 94 8000 5.14 220 12:23 22.01.2021
3454 Clouds 16 1025 88 8000 4.12 220 11:46 22.01.2021
3455 Clouds 15 1024 94 8000 7.2 200 10:56 22.01.2021
3456 Clouds 15 1024 94 8000 7.2 200 10:35 22.01.2021
3457 Rain 14 1024 94 6000 5.14 200 09:59 22.01.2021
3458 Clouds 14 1024 94 6000 5.14 200 09:29 22.01.2021
3459 Clouds 14 1024 94 6000 7.2 200 08:50 22.01.2021
3460 Clouds 14 1024 94 6000 7.2 200 08:25 22.01.2021
3461 Clouds 14 1024 94 8000 5.14 200 07:34 22.01.2021
3462 Clouds 15 1025 94 6000 5.14 230 03:38 22.01.2021
3463 Clouds 14 1025 94 10000 3.09 230 00:39 22.01.2021
3464 Clouds 14 1025 94 10000 3.6 220 23:52 21.01.2021
3465 Clouds 15 1025 94 10000 3.6 240 23:31 21.01.2021
3466 Clouds 15 1025 94 10000 4.63 270 22:51 21.01.2021
3467 Clouds 15 1025 94 10000 3.09 250 22:30 21.01.2021
3468 Clouds 15 1025 94 10000 3.6 250 21:43 21.01.2021
3469 Clouds 16 1024 88 5000 4.12 240 21:20 21.01.2021
3470 Clouds 16 1024 88 5000 4.12 240 20:48 21.01.2021
3471 Clouds 16 1024 88 5000 4.12 240 20:29 21.01.2021
3472 Clouds 17 1023 88 5000 4.63 240 19:52 21.01.2021
3473 Clouds 17 1023 88 5000 4.63 240 19:30 21.01.2021
3474 Clouds 17 1023 88 10000 2.06 260 18:59 21.01.2021
3475 Clouds 17 1023 88 10000 2.06 260 18:39 21.01.2021
3476 Clouds 17 1023 88 10000 2.06 260 18:20 21.01.2021
3477 Clouds 18 1023 82 10000 1.03 220 17:51 21.01.2021
3478 Clouds 18 1023 82 10000 1.03 220 17:20 21.01.2021
3479 Clouds 19 1023 68 10000 5.14 260 16:48 21.01.2021
3480 Clouds 19 1023 68 10000 5.14 260 16:25 21.01.2021
3481 Clouds 19 1023 72 10000 5.14 220 15:59 21.01.2021
3482 Clouds 19 1023 72 10000 5.14 220 15:33 21.01.2021
3483 Clouds 19 1024 72 10000 5.14 260 14:53 21.01.2021
3484 Clouds 19 1024 72 10000 5.14 260 14:35 21.01.2021
3485 Clouds 19 1025 72 10000 6.17 240 13:48 21.01.2021
3486 Clouds 19 1025 72 10000 6.17 240 13:28 21.01.2021
3487 Clouds 17 1025 82 10000 3.6 220 12:55 21.01.2021
3488 Clouds 17 1025 82 10000 3.6 220 12:37 21.01.2021
3489 Clouds 17 1025 82 10000 3.6 220 12:18 21.01.2021
3490 Clouds 16 1024 82 10000 6.69 180 11:43 21.01.2021
3491 Clouds 16 1024 82 10000 6.69 180 11:43 21.01.2021
3492 Clouds 16 1024 82 10000 6.69 180 11:23 21.01.2021
3493 Clouds 15 1024 88 8000 5.66 200 10:45 21.01.2021
3494 Clouds 15 1024 88 8000 5.66 200 10:25 21.01.2021
3495 Mist 13 1024 100 3000 2.57 200 09:43 21.01.2021
3496 Mist 13 1024 100 3000 2.57 200 09:24 21.01.2021
3497 Fog 13 1023 100 800 5.14 180 08:37 21.01.2021
3498 Clouds 13 1023 100 6000 5.14 200 07:59 21.01.2021
3499 Clouds 13 1023 100 6000 5.14 200 07:26 21.01.2021
3500 Clouds 12 1023 100 10000 4.12 220 06:46 21.01.2021
3501 Clouds 13 1023 100 10000 4.12 210 05:19 21.01.2021
3502 Rain 14 1023 100 4000 3.09 220 02:24 21.01.2021
3503 Rain 14 1023 100 3300 3.09 290 00:44 21.01.2021
3504 Drizzle 14 1023 100 3000 6.17 220 23:52 20.01.2021
3505 Drizzle 14 1022 100 5000 6.17 220 23:31 20.01.2021
3506 Rain 14 1022 100 8000 6.17 220 22:57 20.01.2021
3507 Drizzle 14 1022 100 6000 7.2 220 22:36 20.01.2021
3508 Drizzle 14 1022 100 6000 6.69 220 21:56 20.01.2021
3509 Clouds 15 1021 88 10000 5.14 220 21:24 20.01.2021
3510 Clouds 15 1021 88 10000 5.14 220 20:55 20.01.2021
3511 Clouds 15 1021 88 10000 5.14 220 20:36 20.01.2021
3512 Clouds 15 1021 88 10000 5.14 220 20:36 20.01.2021
3513 Rain 15 1021 88 10000 5.14 220 20:18 20.01.2021
3514 Rain 15 1020 88 10000 1.03 220 19:40 20.01.2021
3515 Rain 15 1020 88 10000 1.03 220 19:21 20.01.2021
3516 Rain 15 1019 82 10000 7.72 240 18:41 20.01.2021
3517 Rain 16 1019 72 8000 9.26 260 17:57 20.01.2021
3518 Rain 16 1019 72 8000 9.26 260 17:37 20.01.2021
3519 Rain 16 1019 72 8000 6.17 240 16:53 20.01.2021
3520 Rain 17 1019 72 8000 6.17 240 16:33 20.01.2021
3521 Clouds 17 1019 72 10000 7.2 220 15:51 20.01.2021
3522 Clouds 17 1019 72 10000 7.2 220 15:33 20.01.2021
3523 Clouds 17 1020 67 10000 4.63 280 14:48 20.01.2021
3524 Clouds 17 1020 67 10000 4.63 280 14:22 20.01.2021
3525 Clouds 15 1021 72 10000 6.17 220 13:42 20.01.2021
3526 Clouds 15 1021 72 10000 6.17 220 13:21 20.01.2021
3527 Clouds 15 1022 77 10000 8.75 220 12:39 20.01.2021
3528 Clouds 13 1021 82 10000 7.2 200 11:55 20.01.2021
3529 Clouds 13 1021 82 10000 7.2 200 11:35 20.01.2021
3530 Clouds 12 1021 82 10000 8.23 120 10:56 20.01.2021
3531 Clouds 12 1021 82 10000 8.23 120 10:32 20.01.2021
3532 Clouds 11 1020 82 10000 9.77 200 09:54 20.01.2021
3533 Clouds 10 1020 82 10000 9.77 200 09:26 20.01.2021
3534 Clouds 10 1020 87 10000 7.72 180 08:55 20.01.2021
3535 Clouds 10 1020 87 10000 7.72 180 08:29 20.01.2021
3536 Clouds 10 1021 82 10000 5.14 200 07:56 20.01.2021
3537 Clouds 10 1021 82 10000 5.14 200 07:35 20.01.2021
3538 Clouds 7 1021 100 6000 4.63 210 05:51 20.01.2021
3539 Mist 10 1022 100 4000 3.6 190 03:28 20.01.2021
3540 Mist 9 1023 100 4000 3.09 180 01:19 20.01.2021
3541 Mist 10 1023 100 4000 3.6 190 00:46 20.01.2021
3542 Mist 9 1023 100 5000 3.09 190 23:49 19.01.2021
3543 Mist 9 1023 100 4000 2.57 200 23:26 19.01.2021
3544 Mist 9 1023 100 4000 2.57 200 23:26 19.01.2021
3545 Mist 10 1023 100 5000 2.57 180 22:57 19.01.2021
3546 Clouds 10 1023 100 6000 0.51 220 22:36 19.01.2021
3547 Clouds 10 1023 100 6000 0.51 220 22:18 19.01.2021
3548 Clouds 10 1023 100 8000 2.61 228 21:42 19.01.2021
3549 Clear 12 1023 71 10000 1.03 360 21:23 19.01.2021
3550 Clear 12 1023 71 10000 1.03 360 20:43 19.01.2021
3551 Clear 12 1023 71 10000 1.03 360 20:23 19.01.2021
3552 Clear 13 1023 67 10000 2.06 320 19:53 19.01.2021
3553 Clear 14 1023 67 10000 2.06 320 19:27 19.01.2021
3554 Clear 15 1023 63 10000 2.06 300 18:47 19.01.2021
3555 Clear 15 1023 63 10000 2.06 300 18:26 19.01.2021
3556 Clear 17 1023 59 10000 3.09 360 17:46 19.01.2021
3557 Clear 17 1023 59 10000 3.09 360 17:26 19.01.2021
3558 Clear 17 1023 59 10000 4.12 300 16:49 19.01.2021
3559 Clear 17 1023 59 10000 4.12 300 16:26 19.01.2021
3560 Clear 16 1024 63 10000 3.09 340 15:57 19.01.2021
3561 Clear 16 1024 63 10000 3.09 340 15:57 19.01.2021
3562 Clear 16 1024 63 10000 3.09 340 15:37 19.01.2021
3563 Clouds 17 1025 59 8000 3.09 320 14:57 19.01.2021
3564 Clouds 16 1025 59 8000 3.09 320 14:38 19.01.2021
3565 Clouds 16 1025 59 8000 3.09 320 14:18 19.01.2021
3566 Clouds 15 1026 63 6000 1.03 100 13:40 19.01.2021
3567 Clear 15 1026 63 6000 1.03 100 13:20 19.01.2021
3568 Clear 15 1026 67 6000 3.09 180 12:42 19.01.2021
3569 Clear 15 1026 67 6000 3.09 180 12:21 19.01.2021
3570 Mist 12 1026 76 4000 2.06 160 11:43 19.01.2021
3571 Mist 11 1026 76 4000 2.06 160 11:23 19.01.2021
3572 Mist 8 1026 87 4000 3.09 180 10:50 19.01.2021
3573 Mist 8 1026 87 4000 3.09 180 10:31 19.01.2021
3574 Mist 5 1026 93 4000 3.09 160 09:52 19.01.2021
3575 Mist 5 1026 93 4000 3.09 160 09:24 19.01.2021
3576 Clear 5 1026 93 6000 3.09 180 08:52 19.01.2021
3577 Clear 5 1026 93 6000 3.09 180 08:19 19.01.2021
3578 Clear 5 1025 100 6000 2.06 160 07:36 19.01.2021
3579 Mist 5 1026 100 2000 1.54 170 05:59 19.01.2021
3580 Mist 9 1027 100 3000 2.06 160 02:29 19.01.2021
3581 Mist 9 1027 100 4000 1.03 230 00:48 19.01.2021
3582 Mist 9 1027 100 4000 1.03 200 23:58 18.01.2021
3583 Mist 9 1027 100 4000 1.03 200 23:31 18.01.2021
3584 Clouds 10 1027 100 6000 0.51 0 22:51 18.01.2021
3585 Clouds 10 1027 100 7000 0.51 0 22:24 18.01.2021
3586 Clouds 10 1027 100 8000 1.03 0 21:49 18.01.2021
3587 Clear 12 1026 82 10000 1.03 120 21:24 18.01.2021
3588 Clear 12 1026 82 10000 1.03 120 20:59 18.01.2021
3589 Clear 12 1026 82 10000 1.03 120 20:38 18.01.2021
3590 Clear 12 1026 82 10000 1.03 120 20:20 18.01.2021
3591 Clear 13 1025 76 10000 1.03 40 19:48 18.01.2021
3592 Clear 13 1025 76 10000 1.03 40 19:27 18.01.2021
3593 Clear 14 1025 67 10000 3.09 20 18:44 18.01.2021
3594 Clear 15 1025 67 10000 3.09 20 18:21 18.01.2021
3595 Clear 16 1025 55 10000 5.14 360 17:40 18.01.2021
3596 Clear 16 1025 55 10000 5.14 360 17:18 18.01.2021
3597 Clear 17 1025 51 10000 3.09 320 16:41 18.01.2021
3598 Clear 17 1025 51 10000 3.09 320 16:19 18.01.2021
3599 Clear 16 1025 51 10000 3.09 320 15:41 18.01.2021
3600 Clear 16 1025 51 10000 3.09 320 15:19 18.01.2021
3601 Clear 16 1026 51 10000 3.09 320 14:43 18.01.2021
3602 Clear 16 1026 51 10000 3.09 320 14:25 18.01.2021
3603 Clear 16 1027 55 8000 1.03 40 13:45 18.01.2021
3604 Clear 15 1027 55 8000 1.03 40 13:26 18.01.2021
3605 Clear 14 1027 67 6000 2.06 160 12:51 18.01.2021
3606 Clear 14 1027 67 6000 2.06 160 12:20 18.01.2021
3607 Clear 12 1027 71 6000 3.09 160 11:53 18.01.2021
3608 Clear 10 1027 71 6000 3.09 160 11:30 18.01.2021
3609 Clear 8 1027 87 6000 2.06 180 10:57 18.01.2021
3610 Clear 7 1027 87 6000 2.06 180 10:39 18.01.2021
3611 Mist 5 1026 93 4000 3.09 180 09:43 18.01.2021
3612 Mist 5 1026 93 4000 3.09 180 09:43 18.01.2021
3613 Mist 4 1026 93 4000 3.09 180 09:24 18.01.2021
3614 Mist 5 1026 100 3000 3.09 180 08:48 18.01.2021
3615 Mist 4 1026 100 3000 3.09 180 07:56 18.01.2021
3616 Clear 3 1026 100 10000 1.03 160 07:27 18.01.2021
3617 Mist 7 1026 100 4000 0.51 140 04:59 18.01.2021
3618 Mist 7 1026 100 4000 0.51 0 04:33 18.01.2021
3619 Mist 8 1026 100 4800 0.51 150 03:59 18.01.2021
3620 Mist 8 1026 100 4800 1.54 130 03:39 18.01.2021
3621 Mist 8 1026 100 4800 1.54 130 03:19 18.01.2021
3622 Clear 10 1026 100 1500 3.6 130 02:37 18.01.2021
3623 Fog 8 1027 100 250 1.03 190 00:43 18.01.2021
3624 Fog 8 1027 100 250 1.03 160 00:23 18.01.2021
3625 Fog 8 1027 100 350 1.54 170 23:44 17.01.2021
3626 Fog 8 1027 100 350 1.03 0 23:20 17.01.2021
3627 Fog 9 1027 100 650 0.51 0 22:28 17.01.2021
3628 Mist 10 1027 100 3000 0.63 128 21:59 17.01.2021
3629 Clear 11 1027 82 10000 1.03 20 21:39 17.01.2021
3630 Clear 11 1027 82 10000 1.03 20 21:21 17.01.2021
3631 Clear 11 1027 82 10000 1.03 20 20:47 17.01.2021
3632 Clear 11 1027 82 10000 1.03 20 20:47 17.01.2021
3633 Clear 12 1027 82 10000 1.03 20 20:25 17.01.2021
3634 Clear 13 1027 72 10000 1.03 360 19:42 17.01.2021
3635 Clear 14 1027 72 10000 1.03 360 19:21 17.01.2021
3636 Clear 15 1026 67 10000 2.06 20 18:38 17.01.2021
3637 Clear 15 1026 67 10000 2.06 20 18:19 17.01.2021
3638 Clear 15 1026 63 10000 2.06 360 17:45 17.01.2021
3639 Clear 16 1026 63 10000 2.06 360 17:24 17.01.2021
3640 Clear 15 1026 67 10000 2.06 320 16:43 17.01.2021
3641 Clear 15 1026 67 10000 2.06 320 16:20 17.01.2021
3642 Clear 16 1026 63 10000 4.12 80 15:42 17.01.2021
3643 Clear 16 1026 63 10000 4.12 80 15:21 17.01.2021
3644 Clear 16 1027 67 10000 1.03 280 14:47 17.01.2021
3645 Clear 15 1027 67 10000 1.03 280 14:26 17.01.2021
3646 Clear 13 1028 76 10000 3.09 140 13:44 17.01.2021
3647 Clear 13 1028 76 10000 3.09 140 13:26 17.01.2021
3648 Clouds 11 1028 76 8000 2.06 180 12:52 17.01.2021
3649 Clouds 11 1028 76 8000 2.06 180 12:30 17.01.2021
3650 Clouds 9 1028 81 8000 3.6 180 11:48 17.01.2021
3651 Clouds 9 1028 81 8000 3.6 180 11:22 17.01.2021
3652 Clouds 5 1027 93 8000 2.57 180 10:44 17.01.2021
3653 Clouds 5 1027 93 8000 2.57 180 10:20 17.01.2021
3654 Clouds 4 1027 93 8000 1.03 140 09:20 17.01.2021
3655 Clear 4 1026 93 10000 2.06 160 08:43 17.01.2021
3656 Mist 3 1026 93 2000 1.03 0 06:29 17.01.2021
3657 Mist 7 1026 93 4000 0.51 0 04:28 17.01.2021
3658 Clouds 8 1027 93 6000 0.51 0 02:38 17.01.2021
3659 Clouds 9 1027 93 8000 2.57 100 00:47 17.01.2021
3660 Clouds 10 1027 93 8000 2.57 90 00:18 17.01.2021
3661 Clouds 10 1027 93 8000 2.06 70 23:48 16.01.2021
3662 Clouds 11 1027 93 8000 2.06 60 23:19 16.01.2021
3663 Clouds 11 1027 93 6000 3.09 30 22:34 16.01.2021
3664 Clouds 11 1027 93 6000 3.09 30 21:58 16.01.2021
3665 Clear 12 1027 71 8000 2.57 40 21:24 16.01.2021
3666 Clear 12 1027 71 8000 2.57 40 20:53 16.01.2021
3667 Clear 12 1027 71 8000 2.57 40 20:53 16.01.2021
3668 Clear 12 1027 71 8000 2.57 40 20:30 16.01.2021
3669 Clear 12 1026 71 8000 3.09 40 19:55 16.01.2021
3670 Clear 12 1026 71 8000 3.09 40 19:37 16.01.2021
3671 Clear 12 1026 71 8000 3.09 40 19:18 16.01.2021
3672 Clear 14 1026 67 10000 4.63 60 18:40 16.01.2021
3673 Clear 14 1026 67 10000 4.63 60 18:20 16.01.2021
3674 Clear 15 1025 63 10000 7.2 20 17:41 16.01.2021
3675 Clear 15 1025 63 10000 7.2 20 17:21 16.01.2021
3676 Clear 16 1025 55 10000 5.14 40 16:45 16.01.2021
3677 Clear 16 1025 55 10000 5.14 40 16:21 16.01.2021
3678 Clear 16 1026 59 10000 5.14 20 15:43 16.01.2021
3679 Clear 16 1027 63 10000 5.14 40 14:59 16.01.2021
3680 Clear 15 1027 63 10000 5.14 40 14:18 16.01.2021
3681 Clear 15 1027 67 10000 3.09 60 13:47 16.01.2021
3682 Clear 15 1027 67 10000 3.09 60 13:19 16.01.2021
3683 Clear 13 1028 67 10000 5.66 100 12:39 16.01.2021
3684 Clear 13 1028 67 10000 5.66 100 12:20 16.01.2021
3685 Clear 13 1028 67 10000 5.66 100 12:20 16.01.2021
3686 Clouds 12 1028 82 6000 1.54 140 11:46 16.01.2021
3687 Clouds 11 1028 82 6000 1.54 140 11:24 16.01.2021
3688 Mist 9 1027 87 4000 2.06 180 10:43 16.01.2021
3689 Mist 6 1027 93 4000 2.57 180 09:59 16.01.2021
3690 Mist 6 1027 93 4000 2.57 180 09:31 16.01.2021
3691 Mist 5 1027 100 4000 1.54 180 08:35 16.01.2021
3692 Mist 5 1027 100 4000 1.03 240 07:31 16.01.2021
3693 Clear 5 1026 100 8000 1.03 130 06:43 16.01.2021
3694 Clouds 8 1027 100 9000 1.03 190 04:39 16.01.2021
3695 Clouds 8 1026 100 10000 1.54 150 02:55 16.01.2021
3696 Clouds 8 1027 100 7000 1.03 0 00:49 16.01.2021
3697 Clouds 9 1027 100 6000 2.06 160 00:26 16.01.2021
3698 Clouds 9 1027 100 8000 2.06 160 23:49 15.01.2021
3699 Clouds 9 1027 100 10000 1.03 150 22:51 15.01.2021
3700 Clouds 9 1027 100 10000 1.03 0 22:23 15.01.2021
3701 Clouds 10 1027 100 10000 1.03 40 21:46 15.01.2021
3702 Clouds 11 1027 76 10000 1.03 360 20:58 15.01.2021
3703 Clouds 11 1027 76 10000 1.03 360 20:40 15.01.2021
3704 Clouds 11 1027 76 10000 1.03 360 20:19 15.01.2021
3705 Clouds 13 1027 67 10000 1.03 360 19:40 15.01.2021
3706 Clouds 13 1027 67 10000 1.03 360 19:22 15.01.2021
3707 Clouds 14 1026 63 10000 4.12 20 18:43 15.01.2021
3708 Clouds 15 1026 63 10000 4.12 20 18:19 15.01.2021
3709 Clouds 15 1026 63 10000 3.09 340 17:51 15.01.2021
3710 Clouds 16 1026 63 10000 3.09 340 17:25 15.01.2021
3711 Clouds 15 1026 59 10000 5.14 300 16:52 15.01.2021
3712 Clouds 15 1026 59 10000 5.14 300 16:25 15.01.2021
3713 Clouds 15 1027 63 10000 4.12 320 15:42 15.01.2021
3714 Clouds 15 1027 63 10000 4.12 320 15:22 15.01.2021
3715 Clouds 15 1027 59 10000 2.06 300 14:50 15.01.2021
3716 Clouds 16 1027 59 10000 2.06 300 14:27 15.01.2021
3717 Clouds 15 1028 59 10000 2.06 240 13:44 15.01.2021
3718 Clouds 16 1028 59 10000 2.06 240 13:23 15.01.2021
3719 Clouds 14 1029 62 10000 4.12 200 12:59 15.01.2021
3720 Clouds 14 1029 62 10000 4.12 200 12:36 15.01.2021
3721 Clouds 14 1029 62 10000 4.12 200 12:18 15.01.2021
3722 Clouds 11 1029 71 10000 2.06 160 11:41 15.01.2021
3723 Clouds 7 1028 76 10000 5.14 180 10:58 15.01.2021
3724 Clouds 7 1028 76 10000 5.14 180 10:39 15.01.2021
3725 Clouds 7 1028 76 10000 5.14 180 10:19 15.01.2021
3726 Clouds 6 1028 81 8000 3.09 200 09:46 15.01.2021
3727 Clouds 6 1028 81 8000 3.09 200 09:27 15.01.2021
3728 Clouds 6 1028 81 8000 4.12 180 08:27 15.01.2021
3729 Clouds 5 1028 87 8000 5.14 180 07:41 15.01.2021
3730 Clouds 5 1028 87 8000 5.14 180 07:21 15.01.2021
3731 Clear 4 1028 100 10000 1.03 170 05:36 15.01.2021
3732 Clear 7 1028 100 10000 2.06 140 02:19 15.01.2021
3733 Clear 7 1029 100 7000 2.57 160 00:20 15.01.2021
3734 Clear 8 1029 100 10000 1.54 160 23:29 14.01.2021
3735 Clear 8 1029 100 10000 0.51 150 22:50 14.01.2021
3736 Clear 8 1029 100 10000 0.51 0 22:27 14.01.2021
3737 Clouds 9 1029 100 10000 1.54 10 21:56 14.01.2021
3738 Clear 10 1029 71 10000 0.42 56 21:37 14.01.2021
3739 Clear 10 1029 71 10000 0.76 17 21:19 14.01.2021
3740 Clear 10 1029 71 10000 0.76 17 20:42 14.01.2021
3741 Clear 12 1029 100 10000 1.03 20 19:54 14.01.2021
3742 Clear 12 1029 100 10000 1.03 20 19:35 14.01.2021
3743 Clouds 13 1029 58 10000 2.06 40 18:56 14.01.2021
3744 Clouds 14 1029 58 10000 2.06 40 18:34 14.01.2021
3745 Clouds 15 1028 55 10000 2.06 360 17:54 14.01.2021
3746 Clouds 15 1028 55 10000 2.06 360 17:28 14.01.2021
3747 Clouds 15 1028 51 10000 3.09 340 16:54 14.01.2021
3748 Clouds 15 1028 51 10000 3.09 340 16:27 14.01.2021
3749 Clouds 15 1028 51 10000 3.09 340 16:27 14.01.2021
3750 Clouds 15 1029 55 10000 2.06 320 15:54 14.01.2021
3751 Clouds 15 1029 55 10000 2.06 320 15:28 14.01.2021
3752 Clouds 14 1030 58 8000 3.09 320 14:42 14.01.2021
3753 Clouds 14 1030 58 8000 3.09 320 14:22 14.01.2021
3754 Clouds 14 1030 62 8000 1.03 260 13:55 14.01.2021
3755 Clouds 14 1030 62 8000 1.03 260 13:24 14.01.2021
3756 Clear 14 1031 67 8000 2.06 180 12:56 14.01.2021
3757 Clear 13 1031 67 8000 2.06 180 12:21 14.01.2021
3758 Clear 11 1031 71 8000 4.12 160 11:55 14.01.2021
3759 Clear 11 1031 71 8000 4.12 160 11:28 14.01.2021
3760 Clear 8 1030 81 8000 4.12 180 10:58 14.01.2021
3761 Clear 7 1030 81 8000 4.12 180 10:40 14.01.2021
3762 Clear 7 1030 81 8000 4.12 180 10:18 14.01.2021
3763 Clear 5 1030 93 8000 3.09 180 09:42 14.01.2021
3764 Clouds 5 1030 93 8000 3.09 180 09:20 14.01.2021
3765 Clouds 5 1030 87 8000 2.06 160 08:33 14.01.2021
3766 Clouds 5 1029 93 8000 2.06 180 07:57 14.01.2021
3767 Clear 3 1029 100 10000 2.06 130 07:31 14.01.2021
3768 Clear 3 1029 100 10000 2.06 110 06:34 14.01.2021
3769 Clear 7 1030 100 8000 1.03 160 04:57 14.01.2021
3770 Clouds 8 1031 100 10000 1.54 140 00:27 14.01.2021
3771 Clouds 9 1031 100 10000 2.57 130 23:31 13.01.2021
3772 Clouds 9 1031 100 7000 1.54 90 22:49 13.01.2021
3773 Clouds 9 1030 100 7000 2.06 60 22:21 13.01.2021
3774 Clouds 10 1030 100 10000 2.06 50 21:43 13.01.2021
3775 Clouds 11 1030 66 10000 1.54 20 21:22 13.01.2021
3776 Clouds 11 1030 66 10000 1.54 20 20:51 13.01.2021
3777 Clouds 12 1030 66 10000 1.54 20 20:25 13.01.2021
3778 Clouds 12 1030 71 10000 2.06 20 19:49 13.01.2021
3779 Clouds 12 1030 71 10000 2.06 20 19:27 13.01.2021
3780 Clear 13 1029 58 10000 6.17 20 18:51 13.01.2021
3781 Clear 14 1029 58 10000 6.17 20 18:32 13.01.2021
3782 Clear 15 1029 55 10000 4.12 40 17:47 13.01.2021
3783 Clear 15 1029 55 10000 4.12 40 17:18 13.01.2021
3784 Clouds 16 1029 51 10000 2.57 180 16:45 13.01.2021
3785 Clouds 15 1029 51 10000 2.57 180 16:21 13.01.2021
3786 Clouds 15 1029 55 10000 5.14 80 15:41 13.01.2021
3787 Clouds 15 1029 55 10000 5.14 80 15:20 13.01.2021
3788 Clouds 15 1030 55 10000 5.66 80 14:30 13.01.2021
3789 Clear 15 1030 55 10000 6.69 80 13:48 13.01.2021
3790 Clear 15 1030 55 10000 6.69 80 13:25 13.01.2021
3791 Clear 13 1031 58 8000 2.57 120 12:46 13.01.2021
3792 Clear 13 1031 58 8000 2.57 120 12:25 13.01.2021
3793 Clear 11 1031 71 5000 3.09 180 11:51 13.01.2021
3794 Clear 10 1031 71 5000 3.09 180 11:33 13.01.2021
3795 Clear 8 1030 81 6000 2.06 200 10:49 13.01.2021
3796 Clear 7 1030 81 6000 2.06 200 10:29 13.01.2021
3797 Clear 5 1030 87 8000 2.57 180 09:49 13.01.2021
3798 Clear 4 1030 87 8000 2.57 180 09:26 13.01.2021
3799 Clear 9 1027 58 8000 2.06 180 08:46 13.01.2021
3800 Clear 9 1027 58 8000 2.06 180 08:23 13.01.2021
3801 Clear 4 1029 87 8000 1.54 160 07:29 13.01.2021
3802 Clear 3 1028 100 10000 1.03 0 06:21 13.01.2021
3803 Clear 7 1028 100 10000 1.54 150 04:19 13.01.2021
3804 Clear 8 1028 100 10000 1.03 130 03:44 13.01.2021
3805 Clear 8 1028 100 10000 1.03 130 03:22 13.01.2021
3806 Clear 9 1028 100 10000 2.06 60 00:51 13.01.2021
3807 Clear 9 1028 100 10000 2.57 90 23:44 12.01.2021
3808 Clear 10 1028 100 10000 3.09 60 22:59 12.01.2021
3809 Clear 10 1028 100 10000 2.57 50 22:39 12.01.2021
3810 Clear 10 1028 100 10000 2.57 50 22:19 12.01.2021
3811 Clear 10 1028 100 10000 3.6 40 21:44 12.01.2021
3812 Clear 11 1027 58 10000 3.09 40 21:25 12.01.2021
3813 Clear 11 1027 58 10000 3.09 40 20:47 12.01.2021
3814 Clear 11 1027 58 10000 3.09 40 20:27 12.01.2021
3815 Clear 12 1027 54 10000 6.17 60 19:44 12.01.2021
3816 Clear 13 1027 50 10000 5.14 40 18:59 12.01.2021
3817 Clear 13 1027 50 10000 5.14 40 18:41 12.01.2021
3818 Clear 13 1027 50 10000 5.14 40 18:21 12.01.2021
3819 Clear 14 1026 51 10000 6.17 20 17:34 12.01.2021
3820 Clear 15 1026 47 10000 4.63 40 16:56 12.01.2021
3821 Clear 15 1026 47 10000 4.63 40 16:38 12.01.2021
3822 Clear 15 1026 47 10000 4.63 40 16:18 12.01.2021
3823 Clear 15 1026 47 10000 4.63 40 16:18 12.01.2021
3824 Clear 15 1026 44 10000 3.09 40 15:29 12.01.2021
3825 Clear 14 1027 54 10000 4.12 40 14:58 12.01.2021
3826 Clear 14 1027 54 10000 4.12 40 14:39 12.01.2021
3827 Clear 14 1027 54 10000 4.12 40 14:19 12.01.2021
3828 Clear 14 1028 54 10000 2.57 60 13:46 12.01.2021
3829 Clear 12 1028 58 10000 2.06 120 12:40 12.01.2021
3830 Clear 12 1028 58 10000 2.06 120 12:21 12.01.2021
3831 Clear 10 1028 66 10000 1.03 180 11:40 12.01.2021
3832 Clear 8 1028 76 10000 1.54 160 10:50 12.01.2021
3833 Clear 7 1028 76 10000 1.54 160 10:20 12.01.2021
3834 Clear 4 1027 87 10000 2.06 160 09:55 12.01.2021
3835 Clear 4 1027 87 10000 2.06 160 09:26 12.01.2021
3836 Clear 4 1026 87 10000 2.06 180 08:42 12.01.2021
3837 Clear 4 1026 87 10000 2.06 180 08:23 12.01.2021
3838 Clear 4 1026 93 10000 2.06 160 07:35 12.01.2021
3839 Clear 4 1025 100 8000 2.06 110 06:22 12.01.2021
3840 Clear 7 1025 100 6000 2.06 90 05:30 12.01.2021
3841 Clear 7 1025 93 10000 2.57 150 03:26 12.01.2021
3842 Clouds 7 1026 100 10000 2.06 160 02:18 12.01.2021
3843 Clouds 7 1025 100 10000 2.06 130 01:26 12.01.2021
3844 Clouds 8 1025 100 10000 2.06 130 23:46 11.01.2021
3845 Clouds 8 1025 100 10000 1.54 130 23:23 11.01.2021
3846 Clouds 9 1025 100 10000 1.54 140 22:52 11.01.2021
3847 Clouds 9 1024 100 10000 1.54 110 22:33 11.01.2021
3848 Clouds 9 1024 100 10000 2.06 120 21:57 11.01.2021
3849 Clouds 10 1023 71 10000 1.03 180 21:37 11.01.2021
3850 Clouds 10 1023 71 10000 1.03 180 21:18 11.01.2021
3851 Clouds 11 1023 71 10000 1.03 180 20:40 11.01.2021
3852 Clouds 11 1023 71 10000 1.03 180 20:22 11.01.2021
3853 Clouds 11 1022 71 10000 1.03 40 19:53 11.01.2021
3854 Clouds 11 1022 71 10000 1.03 40 19:24 11.01.2021
3855 Clouds 11 1022 71 10000 1.03 40 19:24 11.01.2021
3856 Clouds 12 1022 62 10000 1.03 40 18:45 11.01.2021
3857 Clouds 13 1022 62 10000 1.03 40 18:25 11.01.2021
3858 Clouds 14 1021 51 10000 2.06 340 17:44 11.01.2021
3859 Clouds 14 1021 51 10000 2.06 340 17:25 11.01.2021
3860 Clouds 15 1021 55 10000 4.12 320 16:55 11.01.2021
3861 Clouds 14 1021 55 10000 4.12 320 16:35 11.01.2021
3862 Clouds 13 1020 67 10000 2.06 200 15:59 11.01.2021
3863 Clouds 13 1020 67 10000 2.06 200 15:39 11.01.2021
3864 Clouds 13 1020 67 10000 2.06 200 15:19 11.01.2021
3865 Clouds 13 1021 67 10000 3.09 160 14:39 11.01.2021
3866 Clouds 13 1021 71 10000 3.09 200 13:49 11.01.2021
3867 Clouds 12 1021 71 10000 3.09 200 13:25 11.01.2021
3868 Clouds 11 1021 76 8000 5.14 200 12:46 11.01.2021
3869 Clouds 11 1021 76 8000 5.14 200 12:27 11.01.2021
3870 Clouds 9 1021 87 8000 3.09 180 11:56 11.01.2021
3871 Clouds 9 1021 87 8000 3.09 180 11:26 11.01.2021
3872 Clouds 8 1020 87 8000 3.09 180 10:47 11.01.2021
3873 Rain 8 1020 87 8000 3.09 180 10:24 11.01.2021
3874 Rain 8 1018 87 8000 5.14 220 09:39 11.01.2021
3875 Rain 8 1018 87 8000 5.14 220 09:20 11.01.2021
3876 Rain 8 1017 81 8000 5.14 240 08:44 11.01.2021
3877 Rain 8 1017 81 8000 5.14 240 08:18 11.01.2021
3878 Rain 8 1017 81 8000 3.09 240 07:26 11.01.2021
3879 Rain 7 1017 100 6000 2.57 270 06:58 11.01.2021
3880 Rain 7 1017 100 10000 3.6 240 03:51 11.01.2021
3881 Clouds 7 1017 100 10000 3.09 220 01:30 11.01.2021
3882 Clouds 7 1017 100 10000 3.09 220 01:30 11.01.2021
3883 Clouds 6 1016 100 10000 3.6 220 23:59 10.01.2021
3884 Clouds 6 1016 100 10000 3.09 220 23:30 10.01.2021
3885 Clouds 7 1016 100 10000 3.09 220 22:48 10.01.2021
3886 Clouds 8 1016 100 10000 1.03 0 22:24 10.01.2021
3887 Rain 8 1015 100 6000 2.57 330 21:45 10.01.2021
3888 Rain 8 1014 93 5000 3.09 200 21:21 10.01.2021
3889 Rain 8 1014 93 5000 3.09 200 21:21 10.01.2021
3890 Rain 8 1014 93 5000 3.09 200 20:53 10.01.2021
3891 Rain 8 1014 93 5000 3.09 200 20:33 10.01.2021
3892 Rain 8 1014 93 5000 3.09 200 20:33 10.01.2021
3893 Rain 9 1013 81 5000 1.03 180 19:43 10.01.2021
3894 Rain 9 1013 81 5000 1.03 180 19:25 10.01.2021
3895 Rain 9 1013 81 6000 5.14 300 18:56 10.01.2021
3896 Rain 9 1013 81 6000 5.14 300 18:36 10.01.2021
3897 Rain 10 1013 81 6000 5.14 300 18:18 10.01.2021
3898 Rain 10 1012 87 8000 4.63 240 17:21 10.01.2021
3899 Rain 10 1012 87 8000 4.12 280 16:33 10.01.2021
3900 Rain 10 1012 87 8000 4.12 280 16:33 10.01.2021
3901 Rain 12 1012 62 10000 7.2 260 15:57 10.01.2021
3902 Rain 12 1012 62 10000 7.2 260 15:25 10.01.2021
3903 Rain 12 1012 62 10000 6.69 260 14:50 10.01.2021
3904 Rain 13 1012 62 10000 6.69 260 14:32 10.01.2021
3905 Rain 13 1013 67 10000 6.69 260 13:55 10.01.2021
3906 Rain 12 1013 67 10000 6.69 260 13:37 10.01.2021
3907 Rain 12 1013 67 10000 6.69 260 13:18 10.01.2021
3908 Rain 11 1013 81 10000 5.14 200 12:47 10.01.2021
3909 Rain 10 1013 81 10000 5.14 200 12:27 10.01.2021
3910 Rain 10 1013 71 10000 2.06 220 11:39 10.01.2021
3911 Rain 10 1013 71 10000 2.06 220 11:18 10.01.2021
3912 Rain 8 1012 87 10000 2.06 180 10:36 10.01.2021
3913 Rain 8 1012 87 10000 2.06 180 10:18 10.01.2021
3914 Rain 7 1011 87 3000 3.6 180 09:27 10.01.2021
3915 Rain 7 1011 93 3000 7.2 200 08:21 10.01.2021
3916 Rain 8 1011 93 3000 7.2 226 07:29 10.01.2021
3917 Rain 7 1011 100 8000 6.69 220 06:20 10.01.2021
3918 Rain 8 1011 100 8000 7.2 240 05:36 10.01.2021
3919 Rain 9 1011 100 8000 7.2 220 02:58 10.01.2021
3920 Rain 9 1011 100 8000 6.17 220 01:22 10.01.2021
3921 Rain 8 1012 100 6000 8.23 230 23:49 09.01.2021
3922 Rain 8 1012 100 8000 5.14 230 23:30 09.01.2021
3923 Rain 8 1012 100 6000 7.2 230 22:48 09.01.2021
3924 Rain 10 1012 100 2000 3.6 300 22:19 09.01.2021
3925 Rain 10 1012 100 8000 7.2 250 21:57 09.01.2021
3926 Rain 11 1010 71 10000 6.17 260 21:38 09.01.2021
3927 Rain 11 1010 71 10000 6.17 260 21:18 09.01.2021
3928 Rain 11 1010 71 10000 6.17 260 20:44 09.01.2021
3929 Rain 9 1010 76 8000 6.17 260 19:45 09.01.2021
3930 Rain 12 1010 76 8000 6.17 260 19:22 09.01.2021
3931 Rain 12 1010 76 8000 8.23 240 18:56 09.01.2021
3932 Rain 12 1010 76 8000 8.23 240 18:34 09.01.2021
3933 Rain 13 1009 58 10000 10.29 240 17:50 09.01.2021
3934 Rain 13 1009 58 10000 10.29 240 17:31 09.01.2021
3935 Rain 14 1009 62 10000 10.29 240 16:36 09.01.2021
3936 Rain 14 1009 72 10000 10.8 260 15:53 09.01.2021
3937 Rain 13 1009 72 10000 10.8 260 15:33 09.01.2021
3938 Rain 14 1010 55 10000 6.17 260 14:42 09.01.2021
3939 Rain 14 1010 55 10000 6.17 260 14:21 09.01.2021
3940 Rain 13 1011 62 10000 6.17 220 13:50 09.01.2021
3941 Rain 14 1011 62 10000 6.17 220 13:31 09.01.2021
3942 Rain 11 1012 76 10000 3.09 240 12:55 09.01.2021
3943 Rain 11 1012 76 10000 3.09 240 12:26 09.01.2021
3944 Rain 11 1012 76 8000 6.17 180 11:56 09.01.2021
3945 Rain 11 1012 76 8000 6.17 180 11:35 09.01.2021
3946 Rain 11 1012 76 8000 64.82 220 10:55 09.01.2021
3947 Rain 11 1012 76 8000 64.82 220 10:36 09.01.2021
3948 Rain 10 1011 81 8000 3.09 240 09:54 09.01.2021
3949 Rain 10 1011 81 8000 3.09 240 09:29 09.01.2021
3950 Rain 10 1010 81 8000 4.12 200 09:00 09.01.2021
3951 Rain 10 1010 81 8000 3.09 220 07:43 09.01.2021
3952 Rain 9 1010 100 8000 5.66 230 06:40 09.01.2021
3953 Rain 9 1010 100 8000 5.14 230 06:22 09.01.2021
3954 Rain 12 1009 100 10000 4.12 260 03:47 09.01.2021
3955 Clouds 12 1009 100 10000 5.66 270 02:39 09.01.2021
3956 Rain 12 1009 100 10000 5.66 270 02:19 09.01.2021
3957 Rain 12 1008 100 8000 4.63 260 00:46 09.01.2021
3958 Rain 12 1008 100 10000 5.14 260 00:22 09.01.2021
3959 Rain 13 1008 100 10000 5.14 270 23:30 08.01.2021
3960 Rain 13 1007 100 8000 5.14 280 22:38 08.01.2021
3961 Rain 13 1007 100 8000 4.63 290 21:46 08.01.2021
3962 Rain 13 1004 94 6000 7.72 300 20:57 08.01.2021
3963 Rain 14 1004 94 6000 7.72 300 20:27 08.01.2021
3964 Rain 15 1002 94 6000 7.2 280 19:56 08.01.2021
3965 Rain 15 1002 94 6000 7.2 280 19:22 08.01.2021
3966 Rain 16 1001 77 6000 7.2 240 18:48 08.01.2021
3967 Rain 16 1001 77 6000 7.2 240 18:20 08.01.2021
3968 Rain 16 1004 82 6000 5.14 260 17:48 08.01.2021
3969 Rain 17 1004 82 6000 5.14 260 17:22 08.01.2021
3970 Rain 17 998 72 6000 10.8 220 16:35 08.01.2021
3971 Rain 18 998 72 6000 7.72 240 15:44 08.01.2021
3972 Rain 18 998 72 6000 7.72 240 15:18 08.01.2021
3973 Rain 19 998 72 10000 9.77 220 14:35 08.01.2021
3974 Rain 17 999 88 8000 5.14 240 13:44 08.01.2021
3975 Rain 17 999 88 8000 5.14 240 13:18 08.01.2021
3976 Rain 16 1001 94 8000 6.17 300 12:47 08.01.2021
3977 Rain 16 1001 94 8000 6.17 300 12:19 08.01.2021
3978 Rain 16 1001 100 8000 4.12 200 11:44 08.01.2021
3979 Rain 15 1001 100 8000 4.12 200 11:25 08.01.2021
3980 Rain 15 1001 94 8000 3.09 180 10:50 08.01.2021
3981 Rain 15 1001 94 8000 3.09 180 10:26 08.01.2021
3982 Rain 15 1001 94 6000 3.09 200 09:45 08.01.2021
3983 Rain 15 1001 94 6000 3.09 200 09:25 08.01.2021
3984 Rain 15 1001 100 6000 4.12 200 08:33 08.01.2021
3985 Rain 14 1003 100 1500 7.2 310 07:25 08.01.2021
3986 Rain 13 1002 100 2900 5.14 230 05:43 08.01.2021
3987 Clouds 17 1005 100 10000 10.29 230 23:46 07.01.2021
3988 Rain 17 1005 100 10000 10.29 220 23:28 07.01.2021
3989 Rain 17 1005 100 10000 5.14 210 22:45 07.01.2021
3990 Rain 17 1005 100 10000 6.17 220 22:25 07.01.2021
3991 Rain 17 1005 100 10000 6.69 220 21:44 07.01.2021
3992 Rain 17 1004 88 10000 4.12 220 21:26 07.01.2021
3993 Rain 16 1004 88 10000 4.12 220 20:47 07.01.2021
3994 Rain 16 1004 88 10000 4.12 220 20:28 07.01.2021
3995 Rain 16 1004 88 10000 5.66 220 19:44 07.01.2021
3996 Rain 16 1004 88 10000 5.66 220 19:21 07.01.2021
3997 Rain 17 1003 100 3000 7.72 340 18:30 07.01.2021
3998 Rain 17 1003 100 3000 7.72 340 18:30 07.01.2021
3999 Rain 18 1003 100 3000 3.6 300 17:47 07.01.2021
4000 Rain 18 1003 100 3000 3.6 300 17:27 07.01.2021
4001 Rain 17 1003 94 6000 2.57 180 16:53 07.01.2021
4002 Rain 17 1003 94 6000 2.57 180 16:27 07.01.2021
4003 Rain 17 1003 100 3000 1.54 40 15:41 07.01.2021
4004 Rain 17 1005 94 6000 1.54 40 14:57 07.01.2021
4005 Rain 17 1005 94 6000 1.54 40 14:27 07.01.2021
4006 Rain 17 1006 94 6000 1.03 40 13:45 07.01.2021
4007 Rain 17 1006 94 6000 1.03 40 13:18 07.01.2021
4008 Rain 19 1006 100 10000 8.23 240 12:42 07.01.2021
4009 Rain 17 1007 93 6000 3.6 320 11:55 07.01.2021
4010 Rain 17 1007 93 6000 3.6 320 11:36 07.01.2021
4011 Rain 15 1025 87 8000 2.6 180 10:50 07.01.2021
4012 Rain 15 1025 87 8000 2.6 180 10:27 07.01.2021
4013 Rain 15 1005 100 4000 1.5 260 09:48 07.01.2021
4014 Rain 15 1005 100 4000 1.5 260 09:19 07.01.2021
4015 Rain 16 1004 93 3000 2.6 160 08:29 07.01.2021
4016 Rain 16 1004 100 3000 5.7 320 07:51 07.01.2021
4017 Rain 16 1004 100 3000 5.7 320 07:26 07.01.2021
4018 Rain 16 1004 100 8000 10.3 230 05:26 07.01.2021
4019 Rain 16 1004 100 8000 7.7 220 00:31 07.01.2021
4020 Rain 16 1004 100 5000 5.7 220 23:49 06.01.2021
4021 Rain 17 1004 100 8000 8.2 220 22:44 06.01.2021
4022 Rain 17 1003 100 10000 9.3 220 21:44 06.01.2021
4023 Rain 16 1003 100 8000 6.2 200 21:23 06.01.2021
4024 Rain 16 1003 100 8000 6.2 200 20:58 06.01.2021
4025 Rain 16 1003 100 8000 6.2 200 20:36 06.01.2021
4026 Rain 16 1002 93 8000 6.2 200 20:18 06.01.2021
4027 Rain 15 1002 93 8000 6.2 200 19:38 06.01.2021
4028 Rain 15 1002 93 8000 6.2 200 19:18 06.01.2021
4029 Rain 16 1002 82 8000 6.2 200 18:41 06.01.2021
4030 Rain 16 1002 82 8000 6.2 200 18:23 06.01.2021
4031 Rain 16 1002 87 8000 7.2 180 17:42 06.01.2021
4032 Rain 16 1002 87 8000 7.2 180 17:24 06.01.2021
4033 Rain 16 1004 93 8000 2.1 240 16:42 06.01.2021
4034 Rain 16 1004 93 8000 2.1 240 16:19 06.01.2021
4035 Rain 16 1004 88 6000 3.1 220 15:52 06.01.2021
4036 Rain 17 1004 88 6000 3.1 220 15:31 06.01.2021
4037 Rain 17 1004 100 5000 2.1 100 14:46 06.01.2021
4038 Rain 17 1004 100 5000 2.1 100 14:20 06.01.2021
4039 Rain 16 1005 100 5000 2.1 100 13:42 06.01.2021
4040 Rain 16 1005 100 5000 2.1 100 13:22 06.01.2021
4041 Rain 15 1006 100 4000 3.1 100 12:48 06.01.2021
4042 Rain 14 1008 100 3000 1 160 11:54 06.01.2021
4043 Rain 13 1008 100 3000 1 160 11:26 06.01.2021
4044 Rain 13 1007 100 5000 1 80 10:58 06.01.2021
4045 Rain 13 1007 100 5000 1 80 10:20 06.01.2021
4046 Rain 12 1007 100 6000 2.1 120 09:49 06.01.2021
4047 Clouds 12 1007 100 6000 2.1 100 08:57 06.01.2021
4048 Clouds 12 1007 100 6000 2.1 100 08:30 06.01.2021
4049 Clouds 11 1007 100 6000 2.1 120 07:54 06.01.2021
4050 Mist 12 1007 100 2000 2.1 90 06:48 06.01.2021
4051 Fog 11 1007 100 800 1 110 05:33 06.01.2021
4052 Rain 12 1008 100 800 1 40 04:34 06.01.2021
4053 Rain 12 1007 100 800 1.5 330 02:47 06.01.2021
4054 Rain 13 1007 100 2000 2.1 240 02:23 06.01.2021
4055 Rain 13 1007 100 10000 6.7 250 00:34 06.01.2021
4056 Rain 13 1007 100 10000 6.7 260 23:29 05.01.2021
4057 Rain 13 1006 100 2000 7.7 240 22:43 05.01.2021
4058 Rain 13 1006 100 2000 7.7 240 22:21 05.01.2021
4059 Rain 13 1006 100 10000 9.8 240 21:55 05.01.2021
4060 Rain 13 1005 100 6000 4.1 40 20:49 05.01.2021
4061 Rain 13 1005 100 6000 4.1 40 20:25 05.01.2021
4062 Rain 16 1005 93 6000 7.2 260 19:44 05.01.2021
4063 Rain 16 1005 93 6000 7.2 260 19:21 05.01.2021
4064 Rain 16 1004 93 6000 7.2 220 18:43 05.01.2021
4065 Rain 16 1004 93 6000 7.2 220 18:24 05.01.2021
4066 Rain 14 1005 100 6000 3.1 160 17:50 05.01.2021
4067 Rain 14 1005 100 6000 3.1 160 17:27 05.01.2021
4068 Rain 13 1005 100 6000 3.1 160 16:53 05.01.2021
4069 Rain 13 1005 100 6000 3.1 160 16:22 05.01.2021
4070 Rain 12 1007 93 6000 3.1 140 15:50 05.01.2021
4071 Rain 12 1007 93 6000 3.1 140 15:25 05.01.2021
4072 Rain 12 1007 100 6000 3.1 160 14:39 05.01.2021
4073 Rain 11 1008 93 6000 3.1 140 13:51 05.01.2021
4074 Rain 11 1008 93 6000 3.1 140 13:30 05.01.2021
4075 Rain 11 1010 100 6000 4.1 120 12:49 05.01.2021
4076 Rain 11 1010 100 6000 4.1 120 12:28 05.01.2021
4077 Rain 11 1010 93 6000 1 160 11:39 05.01.2021
4078 -273 0 0 0 0 0 11:19 05.01.2021
4079 Rain 11 1010 93 6000 1 160 11:18 05.01.2021
4080 Rain 10 1010 93 10000 2.1 140 10:43 05.01.2021
4081 Clouds 10 1010 93 10000 1 100 09:50 05.01.2021
4082 Clouds 10 1010 93 10000 1 100 09:30 05.01.2021
4083 Rain 10 1010 93 8000 3.1 180 08:29 05.01.2021
4084 Rain 10 1010 93 8000 3.1 180 08:29 05.01.2021
4085 Rain 9 1010 100 10000 2.6 180 07:50 05.01.2021
4086 Rain 10 1012 100 10000 2.1 200 04:59 05.01.2021
4087 Clear 9 1012 100 10000 1 0 01:31 05.01.2021
4088 Clear 9 1012 100 10000 1.5 130 00:21 05.01.2021
4089 Clear 9 1013 100 10000 2.1 100 23:38 04.01.2021
4090 Clear 8 1013 100 10000 2.1 100 23:19 04.01.2021
4091 Clear 8 1013 93 10000 2.1 60 22:41 04.01.2021
4092 Clear 9 1013 81 10000 2.1 50 21:56 04.01.2021
4093 Clear 10 1013 58 10000 1 40 21:37 04.01.2021
4094 Clear 10 1013 58 10000 1 40 20:52 04.01.2021
4095 Clear 11 1013 58 10000 1 40 20:32 04.01.2021
4096 Clear 11 1013 58 10000 1 40 20:32 04.01.2021
4097 Clear 12 1013 50 10000 3.1 40 19:55 04.01.2021
4098 Clear 12 1013 50 10000 3.1 40 19:29 04.01.2021
4099 Clear 13 1013 50 10000 3.1 40 18:58 04.01.2021
4100 Clear 13 1013 50 10000 3.1 40 18:29 04.01.2021
4101 Clear 14 1013 44 10000 4.1 20 17:44 04.01.2021
4102 Clear 14 1013 44 10000 4.1 20 17:26 04.01.2021
4103 Clear 15 1013 44 10000 6.2 20 16:48 04.01.2021
4104 Clear 15 1013 44 10000 6.2 20 16:27 04.01.2021
4105 Clear 14 1013 47 10000 4.1 80 15:52 04.01.2021
4106 Clear 14 1013 47 10000 4.1 80 15:34 04.01.2021
4107 Clear 14 1014 44 10000 5.1 100 14:50 04.01.2021
4108 Clear 14 1016 50 10000 6.2 100 13:53 04.01.2021
4109 Clear 13 1016 50 10000 6.2 100 13:34 04.01.2021
4110 Clear 13 1017 50 10000 5.1 140 12:50 04.01.2021
4111 Clear 12 1017 50 10000 5.1 140 12:25 04.01.2021
4112 Clear 10 1017 62 10000 4.1 140 11:31 04.01.2021
4113 Clear 8 1017 66 10000 2.4 96 10:56 04.01.2021
4114 Clear 7 1017 66 10000 2.4 96 10:37 04.01.2021
4115 Clear 7 1017 66 10000 2.89 105 10:18 04.01.2021
4116 Clear 4 1017 75 10000 2.1 160 09:23 04.01.2021
4117 Clouds 4 1017 75 8000 3.1 180 08:48 04.01.2021
4118 Clouds 4 1017 75 8000 3.1 180 08:18 04.01.2021
4119 Clouds 3 1016 86 8000 2.1 180 07:44 04.01.2021
4120 Clouds 2 1017 100 10000 1.5 130 05:34 04.01.2021
4121 Clouds 6 1017 100 10000 2.1 140 04:31 04.01.2021
4122 Clouds 8 1018 100 10000 2.6 70 00:48 04.01.2021
4123 Clouds 8 1018 100 10000 2.6 70 23:49 03.01.2021
4124 Clouds 9 1018 100 10000 2.6 70 23:24 03.01.2021
4125 Clouds 9 1018 100 10000 3.1 60 22:56 03.01.2021
4126 Clouds 9 1018 100 10000 2.6 70 22:33 03.01.2021
4127 Clouds 10 1018 100 10000 3.1 60 21:56 03.01.2021
4128 Clear 11 1018 66 10000 3.1 20 21:29 03.01.2021
4129 Clear 11 1018 66 10000 3.1 20 20:50 03.01.2021
4130 Clear 11 1018 66 10000 3.1 20 20:32 03.01.2021
4131 Clear 11 1018 66 10000 4.1 40 19:57 03.01.2021
4132 Clear 12 1018 66 10000 4.1 40 19:35 03.01.2021
4133 Clear 13 1018 58 10000 3.1 60 18:57 03.01.2021
4134 Clear 13 1018 58 10000 3.1 60 18:38 03.01.2021
4135 Clear 13 1018 58 10000 3.1 60 18:19 03.01.2021
4136 Clouds 14 1018 54 10000 4.1 40 17:45 03.01.2021
4137 Clouds 14 1018 54 10000 4.1 40 17:23 03.01.2021
4138 Clouds 15 1018 51 10000 6.2 60 16:42 03.01.2021
4139 Clouds 15 1018 51 10000 6.2 60 16:20 03.01.2021
4140 Clouds 15 1018 51 10000 5.1 60 15:46 03.01.2021
4141 Clouds 15 1018 51 10000 5.1 60 15:27 03.01.2021
4142 Clear 15 1019 51 10000 5.1 60 14:55 03.01.2021
4143 Clear 15 1019 51 10000 5.1 60 14:29 03.01.2021
4144 Clear 15 1019 51 10000 4.1 80 13:41 03.01.2021
4145 Clear 15 1019 51 10000 4.1 80 13:23 03.01.2021
4146 Clear 13 1020 58 10000 4.1 80 12:32 03.01.2021
4147 Clear 10 1020 71 10000 2.1 180 11:42 03.01.2021
4148 Clear 10 1020 71 10000 2.1 180 11:24 03.01.2021
4149 Clear 7 1019 81 10000 2.1 180 10:34 03.01.2021
4150 Clear 4 1019 93 10000 2.1 180 09:59 03.01.2021
4151 Clear 4 1019 93 10000 2.1 180 09:34 03.01.2021
4152 Clear 5 1019 87 10000 2.1 180 08:59 03.01.2021
4153 Clear 5 1018 93 10000 3.1 180 07:33 03.01.2021
4154 Clouds 4 1018 93 10000 2.1 110 05:58 03.01.2021
4155 Clouds 7 1019 93 10000 2.1 150 02:27 03.01.2021
4156 Clouds 8 1019 93 10000 1.5 130 01:44 03.01.2021
4157 Clouds 8 1019 93 10000 1.5 130 01:44 03.01.2021
4158 Clouds 9 1020 93 10000 2.1 90 00:18 03.01.2021
4159 Clouds 9 1019 93 10000 2.6 130 23:27 02.01.2021
4160 Clouds 9 1019 93 10000 2.1 90 22:51 02.01.2021
4161 Clouds 9 1019 93 10000 2.6 50 22:32 02.01.2021
4162 Rain 9 1019 93 10000 2.1 60 21:49 02.01.2021
4163 Rain 10 1019 62 10000 3.1 340 21:30 02.01.2021
4164 Rain 11 1019 62 10000 3.1 340 20:49 02.01.2021
4165 Clouds 11 1019 62 10000 3.1 340 20:28 02.01.2021
4166 Clouds 11 1019 62 10000 1 20 19:50 02.01.2021
4167 Clouds 11 1019 62 10000 1 20 19:20 02.01.2021
4168 Clouds 13 1018 47 10000 4.1 20 18:53 02.01.2021
4169 Clouds 13 1018 47 10000 4.1 20 18:33 02.01.2021
4170 Clouds 14 1018 50 10000 3.1 20 17:56 02.01.2021
4171 Clouds 14 1018 50 10000 3.1 20 17:37 02.01.2021
4172 Clouds 14 1018 54 10000 4.1 60 16:48 02.01.2021
4173 Clouds 14 1018 54 10000 4.1 60 16:22 02.01.2021
4174 Clouds 15 1018 54 10000 3.1 40 15:50 02.01.2021
4175 Clouds 15 1018 54 10000 3.1 40 15:28 02.01.2021
4176 Clouds 14 1018 58 10000 4.1 20 14:47 02.01.2021
4177 Clouds 14 1018 58 10000 4.1 20 14:26 02.01.2021
4178 Clouds 15 1019 62 10000 3.1 60 13:44 02.01.2021
4179 Clouds 13 1020 82 8000 2.1 120 12:59 02.01.2021
4180 Clouds 12 1020 82 8000 2.1 120 12:40 02.01.2021
4181 Clouds 12 1020 82 8000 2.1 120 12:19 02.01.2021
4182 Clouds 10 1020 93 8000 4.1 120 11:38 02.01.2021
4183 Clouds 10 1020 93 8000 4.1 120 11:20 02.01.2021
4184 Clouds 10 1020 93 6000 3.1 240 10:40 02.01.2021
4185 Clouds 10 1020 93 6000 3.1 240 10:21 02.01.2021
4186 Clouds 10 1019 100 6000 2.1 200 09:39 02.01.2021
4187 Clouds 9 1019 100 6000 2.1 200 09:19 02.01.2021
4188 Clouds 10 1018 93 6000 3.1 220 08:46 02.01.2021
4189 Clouds 10 1018 93 6000 3.1 220 08:19 02.01.2021
4190 Rain 9 1018 100 10000 2.1 180 07:24 02.01.2021
4191 Rain 9 1018 100 6000 1 210 06:57 02.01.2021
4192 Rain 9 1018 100 6000 1 210 06:57 02.01.2021
4193 Rain 8 1018 100 7000 2.6 230 05:57 02.01.2021
4194 Rain 11 1019 100 10000 2.6 240 01:59 02.01.2021
4195 Rain 10 1019 100 10000 2.6 230 00:39 02.01.2021
4196 Clouds 11 1019 100 10000 2.6 240 23:58 01.01.2021
4197 Clouds 11 1019 100 10000 2.6 250 23:24 01.01.2021
4198 Clouds 11 1019 100 7000 2.6 230 22:57 01.01.2021
4199 Clouds 11 1019 100 7000 2.6 230 22:57 01.01.2021
4200 Clouds 11 1019 100 7000 3.1 230 22:37 01.01.2021
4201 Clouds 11 1019 100 7000 3.1 230 22:18 01.01.2021
4202 Clouds 11 1019 100 8000 3.1 220 21:42 01.01.2021
4203 Clouds 12 1019 93 5000 2.1 260 21:20 01.01.2021
4204 Clouds 12 1019 93 5000 2.1 260 20:50 01.01.2021
4205 Clouds 12 1019 93 5000 2.1 260 20:18 01.01.2021
4206 Clouds 13 1018 87 5000 1 220 19:42 01.01.2021
4207 Clouds 13 1018 87 5000 1 220 19:22 01.01.2021
4208 Clouds 13 1018 87 5000 1 240 18:46 01.01.2021
4209 Rain 13 1018 87 5000 1 240 18:27 01.01.2021
4210 Rain 13 1018 87 5000 1.5 240 17:48 01.01.2021
4211 Clouds 13 1018 87 5000 1.5 240 17:23 01.01.2021
4212 Clouds 13 1018 93 5000 3.1 260 16:51 01.01.2021
4213 Rain 13 1018 93 5000 3.1 260 16:28 01.01.2021
4214 Rain 13 1019 87 8000 4.6 260 15:42 01.01.2021
4215 Rain 12 1019 81 6000 3.6 220 14:50 01.01.2021
4216 Rain 11 1019 81 6000 3.6 220 14:31 01.01.2021
4217 Rain 12 1020 87 5000 3.6 220 13:40 01.01.2021
4218 Rain 12 1020 87 5000 3.6 220 13:20 01.01.2021
4219 Rain 12 1020 81 3000 3.6 220 12:37 01.01.2021
4220 Rain 12 1020 81 3000 3.6 220 12:18 01.01.2021
4221 Clouds 12 1020 66 10000 3.6 200 11:39 01.01.2021
4222 Clouds 11 1020 66 10000 3.6 200 11:18 01.01.2021
4223 Clouds 9 1020 76 10000 5.7 180 10:34 01.01.2021
4224 Clouds 8 1020 87 10000 3.6 180 09:46 01.01.2021
4225 Clouds 8 1020 76 10000 4.1 180 08:54 01.01.2021
4226 Clouds 8 1020 76 10000 4.1 180 08:25 01.01.2021
4227 Clouds 7 1020 100 10000 1 190 04:52 01.01.2021
4228 Clouds 8 1021 100 10000 2.1 230 02:39 01.01.2021
4229 Clouds 8 1021 100 10000 2.1 190 01:35 01.01.2021
4230 Clouds 8 1021 100 10000 2.1 150 00:28 01.01.2021
4231 Clouds 8 1021 100 10000 1.5 140 23:22 31.12.2020
4232 Clouds 9 1021 100 10000 1 100 22:58 31.12.2020
4233 Clouds 9 1021 100 10000 1 80 22:38 31.12.2020
4234 Clouds 9 1021 100 10000 1 80 22:19 31.12.2020
4235 Clouds 10 1021 100 10000 1 80 21:47 31.12.2020
4236 Clouds 10 1021 100 10000 1 80 21:47 31.12.2020
4237 Clouds 11 1021 71 10000 2.1 140 21:23 31.12.2020
4238 Clouds 11 1021 71 10000 2.1 140 20:49 31.12.2020
4239 Clouds 11 1021 71 10000 2.1 140 20:18 31.12.2020
4240 Clouds 12 1020 66 10000 2.1 60 19:46 31.12.2020
4241 Clouds 12 1020 66 10000 2.1 60 19:24 31.12.2020
4242 Clouds 13 1020 67 10000 3.1 60 18:44 31.12.2020
4243 Clouds 14 1020 67 10000 3.1 60 18:24 31.12.2020
4244 Clouds 14 1020 62 10000 4.1 40 17:44 31.12.2020
4245 Clouds 14 1020 62 10000 4.1 40 17:44 31.12.2020
4246 Clouds 14 1020 62 10000 4.1 40 17:23 31.12.2020
4247 Clouds 15 1020 58 10000 4.1 40 16:43 31.12.2020
4248 Clouds 15 1020 58 10000 4.1 40 16:22 31.12.2020
4249 Clouds 15 1020 58 10000 6.2 60 15:46 31.12.2020
4250 Clouds 15 1020 58 10000 6.2 60 15:22 31.12.2020
4251 Clouds 15 1020 55 10000 6.2 20 14:56 31.12.2020
4252 Clouds 15 1020 55 10000 6.2 20 14:38 31.12.2020
4253 Clouds 15 1020 55 10000 6.2 20 14:20 31.12.2020
4254 Clouds 15 1021 54 10000 5.1 80 13:39 31.12.2020
4255 Clouds 14 1021 54 10000 5.1 80 13:20 31.12.2020
4256 Clouds 14 1021 54 10000 4.1 120 12:53 31.12.2020
4257 Clouds 13 1021 54 10000 4.1 120 12:35 31.12.2020
4258 Clouds 12 1021 54 10000 3.1 140 11:52 31.12.2020
4259 Clouds 11 1021 54 10000 3.1 140 11:32 31.12.2020
4260 Clouds 8 1021 65 10000 3.1 160 10:49 31.12.2020
4261 Clouds 7 1021 65 10000 3.1 160 10:29 31.12.2020
4262 Clouds 5 1020 70 10000 3.1 180 09:57 31.12.2020
4263 Clouds 6 1020 70 10000 3.1 180 09:35 31.12.2020
4264 Clouds 6 1020 65 10000 3.1 180 08:51 31.12.2020
4265 Clouds 6 1020 65 10000 3.1 180 08:32 31.12.2020
4266 Clouds 6 1019 65 10000 3.1 180 07:59 31.12.2020
4267 Clouds 6 1019 65 10000 3.1 180 07:32 31.12.2020
4268 Clouds 4 1019 100 10000 1.5 120 05:56 31.12.2020
4269 Clouds 8 1019 100 10000 1.5 100 05:28 31.12.2020
4270 Clear 9 1019 100 10000 3.1 70 02:56 31.12.2020
4271 Clear 9 1019 100 10000 3.1 70 02:25 31.12.2020
4272 Clouds 9 1019 100 10000 2.6 70 01:45 31.12.2020
4273 Clouds 9 1019 100 10000 3.1 70 01:25 31.12.2020
4274 Clouds 9 1019 100 10000 2.1 70 00:48 31.12.2020
4275 Clouds 10 1020 100 10000 2.6 80 23:52 30.12.2020
4276 Clouds 10 1019 100 10000 2.6 60 23:20 30.12.2020
4277 Clouds 10 1019 100 10000 2.6 50 22:49 30.12.2020
4278 Clouds 10 1019 100 10000 2.6 50 22:30 30.12.2020
4279 Clouds 11 1019 100 10000 3.1 50 21:46 30.12.2020
4280 Clear 12 1018 58 10000 6.2 40 21:24 30.12.2020
4281 Clear 12 1018 58 10000 6.2 40 20:51 30.12.2020
4282 Clear 12 1018 58 10000 6.2 40 20:22 30.12.2020
4283 Clear 13 1018 62 10000 6.2 40 19:41 30.12.2020
4284 Clear 13 1018 62 10000 6.2 40 19:23 30.12.2020
4285 Clouds 13 1018 58 10000 3.1 40 18:47 30.12.2020
4286 Clouds 14 1018 58 10000 3.1 40 18:29 30.12.2020
4287 Clouds 14 1018 58 10000 7.2 20 17:51 30.12.2020
4288 Clouds 14 1018 58 10000 7.2 20 17:51 30.12.2020
4289 Clouds 15 1018 58 10000 7.2 20 17:32 30.12.2020
4290 Clouds 14 1017 71 10000 7.2 30 16:58 30.12.2020
4291 Clouds 15 1018 62 10000 6.2 40 16:33 30.12.2020
4292 Clouds 15 1018 62 10000 6.2 40 15:48 30.12.2020
4293 Clouds 15 1018 62 10000 6.2 40 15:25 30.12.2020
4294 Clouds 15 1019 62 10000 6.2 20 14:44 30.12.2020
4295 Clouds 15 1019 62 10000 6.2 20 14:24 30.12.2020
4296 Clouds 15 1019 62 10000 5.1 40 13:42 30.12.2020
4297 Clouds 14 1020 71 10000 6.2 80 12:43 30.12.2020
4298 Clouds 14 1020 71 10000 6.2 80 12:21 30.12.2020
4299 Clouds 13 1020 82 10000 4.1 100 11:36 30.12.2020
4300 Clouds 13 1020 82 10000 4.1 100 11:18 30.12.2020
4301 Clouds 10 1019 93 10000 3.1 120 10:43 30.12.2020
4302 Clouds 10 1019 93 10000 3.1 120 10:43 30.12.2020
4303 Clouds 10 1019 93 10000 3.1 120 10:25 30.12.2020
4304 Clouds 10 1019 100 8000 3.1 180 09:50 30.12.2020
4305 Clouds 9 1019 100 8000 3.1 180 09:28 30.12.2020
4306 Clouds 9 1018 100 8000 3.1 180 08:28 30.12.2020
4307 Clouds 9 1018 93 8000 2.1 180 07:29 30.12.2020
4308 Clouds 9 1017 100 10000 2.1 110 06:52 30.12.2020
4309 Clouds 9 1017 100 10000 2.1 100 06:30 30.12.2020
4310 Clouds 10 1017 100 10000 2.1 120 05:43 30.12.2020
4311 Rain 10 1017 100 10000 2.1 120 05:24 30.12.2020
4312 Mist 10 1017 100 4000 1.5 100 03:28 30.12.2020
4313 Mist 11 1017 100 3100 1.5 170 02:40 30.12.2020
4314 Mist 11 1017 100 3000 1.5 130 01:56 30.12.2020
4315 Mist 11 1017 100 3000 1 0 01:33 30.12.2020
4316 Mist 11 1017 100 2000 1 130 00:50 30.12.2020
4317 Mist 11 1017 100 2400 0.5 0 00:30 30.12.2020
4318 Clouds 11 1017 100 10000 1 0 23:54 29.12.2020
4319 Clouds 11 1017 100 10000 1 180 23:36 29.12.2020
4320 Clouds 11 1017 100 10000 1 180 23:18 29.12.2020
4321 Clouds 12 1017 100 10000 1 180 22:40 29.12.2020
4322 Clouds 11 1017 100 10000 1 180 22:20 29.12.2020
4323 Clouds 11 1017 100 10000 1 0 21:46 29.12.2020
4324 Clouds 12 1016 93 8000 2.1 200 21:25 29.12.2020
4325 Clouds 13 1016 93 8000 2.1 200 20:46 29.12.2020
4326 Clouds 13 1016 93 8000 2.1 200 20:25 29.12.2020
4327 Clouds 13 1016 93 8000 2.1 200 20:25 29.12.2020
4328 Clouds 13 1016 82 8000 2.46 330 19:49 29.12.2020
4329 Clouds 13 1016 82 8000 2.46 335 19:24 29.12.2020
4330 Clouds 14 1015 82 10000 2.1 300 18:54 29.12.2020
4331 Clouds 14 1015 82 10000 2.1 300 18:32 29.12.2020
4332 Clouds 14 1015 82 10000 1 300 17:56 29.12.2020
4333 Clouds 14 1015 82 10000 1 300 17:36 29.12.2020
4334 Clouds 14 1015 82 10000 1 300 17:18 29.12.2020
4335 Clouds 15 1015 82 10000 2.1 300 16:34 29.12.2020
4336 Rain 15 1015 77 8000 5.1 320 15:53 29.12.2020
4337 Rain 14 1015 77 8000 5.1 320 15:33 29.12.2020
4338 Clouds 14 1015 82 10000 4.1 220 14:55 29.12.2020
4339 Clouds 15 1015 82 10000 4.1 220 14:36 29.12.2020
4340 Clouds 14 1015 82 10000 4.1 220 14:18 29.12.2020
4341 Clouds 14 1016 87 8000 3.1 220 13:26 29.12.2020
4342 Clouds 13 1016 93 8000 3.1 200 12:59 29.12.2020
4343 Clouds 12 1016 93 8000 3.1 200 12:36 29.12.2020
4344 Clouds 12 1016 93 8000 3.1 200 12:18 29.12.2020
4345 Clouds 12 1016 100 6000 2.1 200 11:49 29.12.2020
4346 Rain 12 1016 100 6000 2.1 200 11:27 29.12.2020
4347 Rain 11 1015 100 6000 6.2 220 10:22 29.12.2020
4348 Drizzle 11 1014 100 5000 3.1 220 09:41 29.12.2020
4349 Rain 11 1014 100 5000 3.1 220 09:19 29.12.2020
4350 Rain 11 1014 93 5000 2.1 220 08:49 29.12.2020
4351 Rain 11 1013 100 10000 3.6 210 07:41 29.12.2020
4352 Rain 11 1013 100 10000 3.6 210 07:20 29.12.2020
4353 Rain 11 1013 100 10000 4.6 200 05:50 29.12.2020
4354 Clear 10 1014 100 10000 4.6 210 02:33 29.12.2020
4355 Clouds 9 1015 100 10000 4.1 200 00:43 29.12.2020
4356 Clouds 11 1015 100 10000 3.1 220 23:39 28.12.2020
4357 Clouds 10 1015 100 10000 3.1 230 22:56 28.12.2020
4358 Clouds 10 1015 100 10000 2.6 230 22:20 28.12.2020
4359 Clouds 10 1015 100 10000 2.1 250 21:41 28.12.2020
4360 Clouds 12 1014 71 10000 2.1 260 21:20 28.12.2020
4361 Clouds 13 1014 71 10000 2.1 260 20:40 28.12.2020
4362 Clouds 13 1014 71 10000 2.1 260 20:21 28.12.2020
4363 Clouds 15 1014 67 10000 4.1 260 19:42 28.12.2020
4364 Clouds 15 1014 67 10000 4.1 260 19:22 28.12.2020
4365 Clouds 15 1014 59 10000 4.1 260 18:49 28.12.2020
4366 Clouds 16 1014 59 10000 4.1 260 18:28 28.12.2020
4367 Clouds 16 1014 55 10000 4.1 260 17:42 28.12.2020
4368 Clouds 16 1014 55 10000 4.1 260 17:20 28.12.2020
4369 Clouds 17 1014 55 10000 2.6 180 16:34 28.12.2020
4370 Clouds 17 1015 63 10000 3.1 180 15:59 28.12.2020
4371 Clouds 17 1015 63 10000 3.1 180 15:41 28.12.2020
4372 Clouds 17 1015 63 10000 3.1 180 14:54 28.12.2020
4373 Clouds 17 1016 63 10000 3.1 180 13:54 28.12.2020
4374 Clouds 17 1016 63 10000 3.1 180 13:25 28.12.2020
4375 Clouds 16 1017 67 8000 2.6 180 12:40 28.12.2020
4376 Clouds 16 1017 67 8000 2.6 180 12:20 28.12.2020
4377 Clouds 13 1018 82 8000 3.1 180 11:45 28.12.2020
4378 Clouds 13 1018 82 8000 3.1 180 11:23 28.12.2020
4379 Clouds 11 1025 87 8000 5.1 180 10:44 28.12.2020
4380 Clouds 11 1025 87 8000 5.1 180 10:26 28.12.2020
4381 Clouds 8 1017 93 8000 4.1 180 09:46 28.12.2020
4382 Clouds 8 1017 93 8000 4.1 180 09:19 28.12.2020
4383 Clouds 7 1016 93 8000 1.5 160 07:30 28.12.2020
4384 Fog 7 1016 100 800 3.1 200 06:48 28.12.2020
4385 Mist 9 1017 100 4000 2.6 210 04:31 28.12.2020
4386 Clouds 10 1018 100 7000 1.5 210 02:22 28.12.2020
4387 Clouds 11 1018 100 8000 2.1 180 00:30 28.12.2020
4388 Clouds 11 1018 100 8000 2.1 180 23:46 27.12.2020
4389 Clouds 11 1018 100 10000 1 230 23:19 27.12.2020
4390 Clouds 11 1018 100 10000 1 0 21:57 27.12.2020
4391 Clouds 11 1018 100 10000 1 0 21:57 27.12.2020
4392 Clear 13 1017 76 10000 2.1 320 21:26 27.12.2020
4393 Clear 13 1017 76 10000 2.1 320 20:45 27.12.2020
4394 Clear 15 1017 72 10000 3.1 320 19:25 27.12.2020
4395 Clear 15 1017 63 10000 5.1 340 18:57 27.12.2020
4396 Clear 16 1017 63 10000 5.1 340 18:38 27.12.2020
4397 Clear 16 1017 63 10000 5.1 340 18:19 27.12.2020
4398 Clear 17 1017 59 10000 5.1 340 17:43 27.12.2020
4399 Clear 17 1017 59 10000 5.1 340 17:43 27.12.2020
4400 Clear 17 1017 59 10000 5.1 340 17:22 27.12.2020
4401 Clear 17 1017 63 10000 3.1 340 16:35 27.12.2020
4402 Clear 17 1017 63 10000 4.1 320 15:54 27.12.2020
4403 Clouds 17 1018 67 10000 5.1 300 14:59 27.12.2020
4404 Clouds 17 1018 67 10000 5.1 300 14:40 27.12.2020
4405 Clouds 17 1018 67 10000 5.1 300 14:18 27.12.2020
4406 Clouds 17 1019 72 10000 4.1 260 13:22 27.12.2020
4407 Clear 16 1020 82 6000 3.1 240 12:43 27.12.2020
4408 Clear 14 1020 87 6000 3.1 180 11:56 27.12.2020
4409 Clear 13 1020 87 5000 3.1 180 11:35 27.12.2020
4410 Mist 11 1019 100 4000 2.1 180 10:51 27.12.2020
4411 Mist 9 1019 100 4000 2.1 180 10:24 27.12.2020
4412 Mist 7 1019 93 4000 1 120 09:46 27.12.2020
4413 Mist 6 1018 93 4000 1 160 08:39 27.12.2020
4414 Mist 6 1018 93 4000 1 160 08:18 27.12.2020
4415 Mist 6 1018 100 2300 1 0 07:26 27.12.2020
4416 Fog 5 1018 100 200 1 200 05:44 27.12.2020
4417 Mist 10 1019 100 4000 1.5 0 03:33 27.12.2020
4418 Mist 10 1019 100 3000 1 0 02:45 27.12.2020
4419 Mist 11 1019 100 1000 2.1 140 01:33 27.12.2020
4420 Clouds 13 1019 100 8000 3.1 50 23:57 26.12.2020
4421 Clouds 13 1019 100 8000 2.1 40 23:27 26.12.2020
4422 Clouds 13 1019 100 8000 2.6 50 22:49 26.12.2020
4423 Clouds 13 1019 100 8000 3.1 40 22:20 26.12.2020
4424 Clouds 12 1019 100 6000 2.1 30 21:57 26.12.2020
4425 Clear 13 1019 87 5000 1 140 21:38 26.12.2020
4426 Clear 14 1019 87 5000 1 140 20:59 26.12.2020
4427 Clear 14 1019 87 5000 1 140 20:36 26.12.2020
4428 Clear 14 1019 87 5000 1 140 20:36 26.12.2020
4429 Clear 14 1019 87 5000 1 140 20:18 26.12.2020
4430 Clear 15 1019 82 5000 1.5 60 19:25 26.12.2020
4431 Clear 15 1018 82 5000 3.1 20 18:49 26.12.2020
4432 Clear 15 1018 82 5000 3.1 20 18:27 26.12.2020
4433 Clear 17 1018 72 6000 2.1 360 17:40 26.12.2020
4434 Clear 17 1018 72 6000 2.1 360 17:20 26.12.2020
4435 Clear 17 1018 72 6000 4.6 20 16:35 26.12.2020
4436 Clear 18 1019 63 6000 2.1 40 15:27 26.12.2020
4437 Clear 18 1019 63 6000 2.1 40 15:27 26.12.2020
4438 Clear 18 1019 63 6000 2.1 20 14:50 26.12.2020
4439 Clear 18 1019 63 6000 2.1 20 14:28 26.12.2020
4440 Clouds 17 1020 72 5000 2.6 40 13:47 26.12.2020
4441 Clouds 17 1020 72 5000 2.6 40 13:28 26.12.2020
4442 Clouds 16 1021 77 5000 2.1 60 12:44 26.12.2020
4443 Clouds 15 1021 77 5000 2.1 60 12:22 26.12.2020
4444 Mist 14 1021 87 3000 2.1 120 11:51 26.12.2020
4445 Mist 13 1021 87 3000 2.1 120 11:22 26.12.2020
4446 Mist 10 1020 100 3000 2.6 140 10:54 26.12.2020
4447 Mist 9 1020 100 3000 2.6 140 10:27 26.12.2020
4448 Mist 7 1020 93 3000 2.1 120 09:51 26.12.2020
4449 Mist 7 1020 93 3000 2.1 120 09:28 26.12.2020
4450 Mist 6 1019 100 3000 2.1 140 08:33 26.12.2020
4451 Mist 7 1019 93 3000 1.5 140 07:52 26.12.2020
4452 Fog 7 1019 100 900 1 160 06:31 26.12.2020
4453 Clouds 11 1019 100 10000 2.6 120 03:19 26.12.2020
4454 Clouds 12 1020 100 5000 1.5 40 01:35 26.12.2020
4455 Mist 12 1020 100 4000 2.1 40 00:26 26.12.2020
4456 Fog 13 1020 100 5000 2.1 40 23:40 25.12.2020
4457 Fog 13 1020 100 5000 2.1 40 23:22 25.12.2020
4458 Clouds 14 1020 100 10000 3.1 60 22:42 25.12.2020
4459 Clouds 14 1020 100 10000 3.6 60 21:54 25.12.2020
4460 Clear 14 1020 87 10000 3.1 40 21:34 25.12.2020
4461 Clear 14 1020 87 10000 3.1 40 20:50 25.12.2020
4462 Clear 15 1020 87 10000 3.1 40 20:31 25.12.2020
4463 Clear 15 1019 82 10000 4.1 60 19:48 25.12.2020
4464 Clear 15 1019 82 10000 4.1 60 19:21 25.12.2020
4465 Clear 16 1019 77 10000 4.1 60 18:39 25.12.2020
4466 Clear 16 1019 77 10000 5.1 40 17:47 25.12.2020
4467 Clear 16 1019 77 10000 5.1 40 17:28 25.12.2020
4468 Clear 17 1019 63 10000 6.2 20 16:33 25.12.2020
4469 Clouds 17 1019 63 6000 4.1 40 15:59 25.12.2020
4470 Clouds 17 1019 63 6000 4.1 40 15:36 25.12.2020
4471 Clouds 18 1019 63 6000 3.1 60 14:58 25.12.2020
4472 Clouds 18 1019 63 6000 3.1 60 14:29 25.12.2020
4473 Clouds 16 1020 72 6000 4.1 20 13:45 25.12.2020
4474 Clouds 15 1020 72 6000 4.1 20 13:26 25.12.2020
4475 Mist 15 1020 77 4000 5.1 100 12:46 25.12.2020
4476 Mist 15 1020 77 4000 5.1 100 12:46 25.12.2020
4477 Mist 15 1020 77 4000 5.1 100 12:23 25.12.2020
4478 Mist 14 1020 93 3000 3.1 60 11:44 25.12.2020
4479 Mist 13 1020 93 3000 3.1 60 11:20 25.12.2020
4480 Mist 11 1020 100 3000 1 120 10:27 25.12.2020
4481 Mist 10 1019 100 3000 1 60 09:47 25.12.2020
4482 Clouds 10 1019 100 8000 2.1 120 08:49 25.12.2020
4483 Clouds 10 1019 100 8000 2.1 120 08:27 25.12.2020
4484 Clear 9 1018 93 10000 1 70 06:48 25.12.2020
4485 Clear 14 1019 93 10000 2.6 70 04:44 25.12.2020
4486 Clouds 14 1020 100 10000 2.6 50 01:50 25.12.2020
4487 Mist 13 1020 100 3000 3.1 50 00:18 25.12.2020
4488 Mist 14 1020 100 3000 4.1 50 23:26 24.12.2020
4489 Clouds 14 1020 100 7000 3.1 40 22:53 24.12.2020
4490 Clouds 14 1020 100 6000 3.1 40 22:22 24.12.2020
4491 Clouds 14 1021 93 10000 3.1 30 21:41 24.12.2020
4492 Clear 15 1020 77 10000 4.1 40 20:48 24.12.2020
4493 Clear 16 1020 77 10000 3.1 20 19:19 24.12.2020
4494 Clear 17 1020 72 10000 5.1 20 18:20 24.12.2020
4495 Clear 18 1020 63 10000 5.1 20 17:37 24.12.2020
4496 Clear 18 1020 63 10000 5.1 20 17:37 24.12.2020
4497 Clouds 18 1020 72 10000 6.2 20 16:59 24.12.2020
4498 Clouds 18 1020 72 10000 6.2 20 16:23 24.12.2020
4499 Clouds 19 1021 68 10000 5.1 20 15:43 24.12.2020
4500 Clouds 19 1021 68 10000 5.1 20 15:20 24.12.2020
4501 Clouds 19 1022 68 10000 3.1 60 14:51 24.12.2020
4502 Clouds 18 1022 68 10000 3.1 60 14:24 24.12.2020
4503 Clouds 18 1023 77 8000 5.1 120 13:48 24.12.2020
4504 Clouds 17 1023 77 8000 5.1 120 13:30 24.12.2020
4505 Clouds 16 1024 77 6000 5.1 140 12:45 24.12.2020
4506 Clouds 16 1024 77 6000 5.1 140 12:21 24.12.2020
4507 Clouds 14 1024 93 6000 3.1 140 11:47 24.12.2020
4508 Clouds 14 1024 93 6000 3.1 140 11:21 24.12.2020
4509 Mist 12 1024 100 3000 3.1 180 10:56 24.12.2020
4510 Mist 12 1024 100 3000 3.1 180 10:38 24.12.2020
4511 Mist 11 1024 93 3000 2.1 180 09:53 24.12.2020
4512 Mist 11 1024 93 3000 2.1 180 09:30 24.12.2020
4513 Mist 10 1024 100 3000 1 140 08:43 24.12.2020
4514 Mist 11 1023 93 3000 1 180 07:43 24.12.2020
4515 Fog 9 1023 100 400 1 0 07:21 24.12.2020
4516 Fog 10 1023 100 250 0.5 0 05:56 24.12.2020
4517 Fog 13 1024 100 200 1 0 02:33 24.12.2020
4518 Fog 13 1025 100 200 0.5 0 01:45 24.12.2020
4519 Fog 13 1025 100 200 1 0 01:18 24.12.2020
4520 Fog 14 1025 100 300 2.1 80 00:22 24.12.2020
4521 Fog 14 1025 100 300 3.1 90 23:49 23.12.2020
4522 Fog 14 1025 100 300 3.1 90 23:49 23.12.2020
4523 Fog 14 1025 100 500 3.1 60 23:31 23.12.2020
4524 Fog 14 1025 100 900 3.1 60 22:59 23.12.2020
4525 Mist 14 1025 100 3000 2.1 40 22:39 23.12.2020
4526 Mist 14 1025 100 3000 2.1 40 22:18 23.12.2020
4527 Clear 15 1025 87 6000 3.1 40 21:31 23.12.2020
4528 Clear 15 1025 87 6000 3.1 40 20:56 23.12.2020
4529 Clear 16 1025 87 6000 3.1 40 20:37 23.12.2020
4530 Clear 16 1025 87 6000 3.1 40 20:19 23.12.2020
4531 Clear 16 1025 87 6000 3.1 40 19:40 23.12.2020
4532 Clear 16 1025 87 6000 3.1 40 19:21 23.12.2020
4533 Clear 17 1024 77 6000 2.1 40 18:49 23.12.2020
4534 Clear 17 1024 77 6000 2.1 40 18:30 23.12.2020
4535 Clear 18 1024 72 8000 3.1 20 17:42 23.12.2020
4536 Clear 18 1024 72 8000 3.1 20 17:22 23.12.2020
4537 Clear 19 1024 68 8000 4.1 20 16:49 23.12.2020
4538 Clear 19 1024 68 8000 4.1 20 16:30 23.12.2020
4539 Clear 20 1025 64 6000 4.6 20 15:59 23.12.2020
4540 Clear 20 1025 64 6000 4.6 20 15:39 23.12.2020
4541 Clear 20 1025 64 6000 4.6 20 15:20 23.12.2020
4542 Clear 20 1025 64 6000 3.6 20 14:42 23.12.2020
4543 Clear 20 1025 64 6000 3.6 20 14:21 23.12.2020
4544 Clear 19 1026 68 6000 2.1 360 13:45 23.12.2020
4545 Clear 19 1026 68 6000 2.1 360 13:20 23.12.2020
4546 Mist 18 1027 68 4000 1 100 12:55 23.12.2020
4547 Mist 18 1027 68 4000 1 100 12:31 23.12.2020
4548 Mist 16 1027 72 4000 2.1 160 11:56 23.12.2020
4549 Mist 16 1027 72 4000 2.1 160 11:36 23.12.2020
4550 Mist 13 1026 82 4000 2.1 160 10:56 23.12.2020
4551 Mist 12 1026 82 4000 2.1 160 10:38 23.12.2020
4552 Mist 9 1026 100 3000 2.1 180 09:38 23.12.2020
4553 Mist 9 1025 100 4000 2.6 180 08:57 23.12.2020
4554 Mist 9 1025 100 4000 2.6 180 08:33 23.12.2020
4555 Mist 9 1025 100 4000 1.5 120 07:49 23.12.2020
4556 Mist 9 1025 100 1000 2.6 150 06:42 23.12.2020
4557 Fog 9 1025 100 800 2.1 150 05:58 23.12.2020
4558 Fog 12 1025 100 600 2.1 160 05:23 23.12.2020
4559 Clear 12 1025 93 8000 1 140 01:59 23.12.2020
4560 Clear 13 1026 93 8000 2.6 170 00:32 23.12.2020
4561 Clear 13 1026 93 8000 2.1 170 23:43 22.12.2020
4562 Clear 13 1026 93 10000 2.1 160 23:22 22.12.2020
4563 Clear 14 1026 87 10000 2.1 170 22:42 22.12.2020
4564 Clear 14 1026 87 10000 2.1 170 22:24 22.12.2020
4565 Clear 14 1026 87 10000 2.6 200 21:50 22.12.2020
4566 Clear 15 1025 87 10000 1 280 21:20 22.12.2020
4567 Clear 15 1025 87 10000 1 280 20:54 22.12.2020
4568 Clear 16 1025 87 10000 1 280 20:35 22.12.2020
4569 Clear 17 1024 77 10000 1 280 19:56 22.12.2020
4570 Clear 17 1024 77 10000 1 280 19:38 22.12.2020
4571 Clear 17 1024 77 10000 1 280 19:19 22.12.2020
4572 Clear 18 1024 77 10000 2.1 300 18:43 22.12.2020
4573 Clear 18 1024 77 10000 2.1 300 18:24 22.12.2020
4574 Clear 20 1024 64 10000 4.1 320 17:38 22.12.2020
4575 Clear 20 1024 64 10000 4.1 320 17:18 22.12.2020
4576 Clear 20 1024 68 10000 2.1 280 16:47 22.12.2020
4577 Clear 20 1024 68 10000 2.1 280 16:21 22.12.2020
4578 Clear 20 1024 68 10000 6.2 300 15:47 22.12.2020
4579 Clear 21 1024 68 10000 6.2 300 15:29 22.12.2020
4580 Clear 22 1024 49 10000 5.1 240 14:57 22.12.2020
4581 Clear 22 1024 49 10000 5.1 240 14:39 22.12.2020
4582 Clear 22 1024 49 10000 5.1 240 14:19 22.12.2020
4583 Clear 21 1025 56 10000 5.1 220 13:43 22.12.2020
4584 Clear 20 1025 56 10000 5.1 220 13:19 22.12.2020
4585 Clear 19 1025 63 10000 3.1 180 12:46 22.12.2020
4586 Clear 19 1025 63 10000 3.1 180 12:27 22.12.2020
4587 Clear 16 1025 72 6000 3.1 180 11:57 22.12.2020
4588 Clear 16 1025 72 6000 3.1 180 11:39 22.12.2020
4589 Clear 16 1025 72 6000 3.1 180 11:19 22.12.2020
4590 Clear 13 1025 82 6000 5.1 180 10:51 22.12.2020
4591 Clear 12 1025 82 6000 5.1 180 10:24 22.12.2020
4592 Clear 10 1024 93 6000 2.1 180 09:56 22.12.2020
4593 Clear 9 1024 93 6000 2.1 180 09:23 22.12.2020
4594 Clear 9 1024 100 8000 2.1 160 08:53 22.12.2020
4595 Clear 9 1024 100 8000 2.1 160 08:29 22.12.2020
4596 Clear 9 1024 93 6000 2.1 180 07:48 22.12.2020
4597 Mist 8 1024 100 3700 2.6 190 06:48 22.12.2020
4598 Mist 8 1024 100 3200 1.5 190 05:47 22.12.2020
4599 Fog 12 1025 100 800 1 0 03:40 22.12.2020
4600 Clear 12 1025 100 10000 1.5 120 00:47 22.12.2020
4601 Clear 13 1026 100 10000 1.5 200 23:55 21.12.2020
4602 Clear 13 1026 100 10000 0.5 0 23:37 21.12.2020
4603 Clear 13 1026 100 10000 1.5 160 22:39 21.12.2020
4604 Clear 13 1026 100 10000 1.5 160 22:20 21.12.2020
4605 Clear 14 1026 100 10000 0.5 0 21:59 21.12.2020
4606 Clear 14 1026 93 10000 1 0 21:40 21.12.2020
4607 Clouds 15 1026 82 10000 3.1 40 21:22 21.12.2020
4608 Clouds 15 1026 82 10000 3.1 40 20:36 21.12.2020
4609 Clouds 15 1026 82 10000 3.1 40 20:18 21.12.2020
4610 Clouds 15 1026 82 10000 3.1 40 20:18 21.12.2020
4611 Clouds 16 1025 77 10000 4.1 40 19:44 21.12.2020
4612 Clouds 16 1025 77 10000 4.1 40 19:20 21.12.2020
4613 Clouds 16 1025 72 10000 4.1 40 18:52 21.12.2020
4614 Clouds 16 1025 72 10000 4.1 40 18:34 21.12.2020
4615 Clouds 17 1025 63 10000 5.1 40 17:43 21.12.2020
4616 Clouds 17 1025 63 10000 5.1 40 17:24 21.12.2020
4617 Clouds 18 1025 68 10000 6.2 60 16:48 21.12.2020
4618 Clouds 18 1025 68 10000 6.2 60 16:27 21.12.2020
4619 Clouds 18 1025 68 10000 6.2 40 15:57 21.12.2020
4620 Clouds 18 1025 68 10000 6.2 40 15:37 21.12.2020
4621 Clouds 18 1026 63 10000 5.1 40 14:57 21.12.2020
4622 Clouds 18 1026 63 10000 5.1 40 14:21 21.12.2020
4623 Clouds 17 1027 72 10000 5.1 40 13:45 21.12.2020
4624 Clouds 17 1027 72 10000 5.1 40 13:26 21.12.2020
4625 Clouds 16 1028 82 8000 4.1 80 12:45 21.12.2020
4626 Clouds 16 1028 82 8000 4.1 80 12:25 21.12.2020
4627 Clear 15 1028 87 6000 2.1 160 11:58 21.12.2020
4628 Clear 14 1028 87 6000 2.1 160 11:40 21.12.2020
4629 Clear 14 1028 87 6000 2.1 160 11:22 21.12.2020
4630 Clear 12 1027 100 6000 2.1 160 10:48 21.12.2020
4631 Clear 12 1027 100 6000 2.1 160 10:30 21.12.2020
4632 Clear 11 1027 100 6000 2.1 80 09:47 21.12.2020
4633 Clear 11 1027 100 6000 2.1 80 09:25 21.12.2020
4634 Clear 11 1026 100 6000 3.1 120 08:52 21.12.2020
4635 Clear 12 1026 100 6000 2.1 120 07:56 21.12.2020
4636 Clouds 12 1026 100 5000 3.1 70 06:47 21.12.2020
4637 Mist 14 1027 100 5000 2.6 60 04:58 21.12.2020
4638 Fog 14 1027 100 550 3.1 70 01:28 21.12.2020
4639 Fog 14 1028 100 800 2.6 90 00:33 21.12.2020
4640 Mist 14 1027 100 4000 2.1 50 23:36 20.12.2020
4641 Mist 14 1027 100 4000 2.1 60 22:59 20.12.2020
4642 Mist 14 1027 100 4000 2.6 30 22:41 20.12.2020
4643 Mist 14 1027 100 4000 2.6 30 22:22 20.12.2020
4644 Mist 14 1027 100 4000 2.6 20 21:40 20.12.2020
4645 Clouds 15 1026 82 10000 1 40 21:21 20.12.2020
4646 Clouds 15 1026 82 10000 1 40 20:51 20.12.2020
4647 Clouds 16 1026 82 10000 1 40 20:25 20.12.2020
4648 Clouds 16 1026 82 10000 1.5 100 19:49 20.12.2020
4649 Clouds 16 1026 82 10000 1.5 100 19:31 20.12.2020
4650 Clouds 17 1025 82 10000 2.6 20 18:58 20.12.2020
4651 Clouds 17 1025 82 10000 2.6 20 18:38 20.12.2020
4652 Clouds 17 1025 82 10000 2.6 20 18:20 20.12.2020
4653 Clouds 17 1025 82 10000 2.6 40 17:44 20.12.2020
4654 Clouds 17 1025 82 10000 2.6 40 17:23 20.12.2020
4655 Clouds 17 1025 82 8000 2.6 340 16:45 20.12.2020
4656 Clouds 17 1025 82 8000 2.6 340 16:27 20.12.2020
4657 Clouds 17 1025 77 8000 5.1 20 15:48 20.12.2020
4658 Clouds 17 1025 77 8000 5.1 20 15:25 20.12.2020
4659 Clouds 18 1025 77 10000 4.1 20 14:54 20.12.2020
4660 Clouds 18 1025 77 10000 4.1 20 14:30 20.12.2020
4661 Clouds 18 1025 72 10000 1 220 13:47 20.12.2020
4662 Clouds 18 1025 72 10000 1 220 13:25 20.12.2020
4663 Clouds 17 1026 77 10000 1 300 12:58 20.12.2020
4664 Clouds 17 1026 77 10000 1 300 12:39 20.12.2020
4665 Clouds 17 1026 77 10000 1 300 12:19 20.12.2020
4666 Clouds 16 1026 67 10000 3.1 220 11:42 20.12.2020
4667 Clouds 14 1025 72 10000 4.1 180 10:59 20.12.2020
4668 Clouds 14 1025 72 10000 4.1 180 10:41 20.12.2020
4669 Clouds 14 1025 72 10000 4.1 180 10:20 20.12.2020
4670 Clouds 13 1024 76 10000 3.1 200 09:45 20.12.2020
4671 Clouds 13 1024 76 10000 3.1 200 09:27 20.12.2020
4672 Clouds 13 1024 76 10000 2.6 180 08:55 20.12.2020
4673 Clouds 13 1024 76 10000 2.6 180 08:36 20.12.2020
4674 Clear 13 1024 82 10000 3.1 180 07:23 20.12.2020
4675 Clouds 13 1024 100 10000 2.6 200 05:44 20.12.2020
4676 Clouds 14 1024 100 10000 2.1 190 01:35 20.12.2020
4677 Clouds 14 1024 100 10000 2.6 200 00:37 20.12.2020
4678 Clouds 14 1024 100 9000 2.6 210 23:20 19.12.2020
4679 Clouds 14 1024 100 10000 3.6 210 22:56 19.12.2020
4680 Clouds 14 1024 100 10000 2.6 220 22:37 19.12.2020
4681 Clouds 14 1024 100 10000 2.6 220 22:19 19.12.2020
4682 Clouds 14 1024 100 10000 2.1 270 21:42 19.12.2020
4683 Clouds 15 1023 67 6000 1.5 240 21:23 19.12.2020
4684 Clouds 15 1023 67 6000 1.5 240 20:44 19.12.2020
4685 Clouds 15 1023 67 6000 1.5 240 20:21 19.12.2020
4686 Clouds 15 1023 67 6000 2.1 260 19:51 19.12.2020
4687 Clouds 15 1023 67 6000 2.1 260 19:33 19.12.2020
4688 Clouds 16 1022 67 8000 2.1 300 18:41 19.12.2020
4689 Clouds 16 1022 67 8000 2.1 300 18:23 19.12.2020
4690 Clear 17 1022 59 10000 3.6 300 17:48 19.12.2020
4691 Clear 17 1022 59 10000 3.6 300 17:48 19.12.2020
4692 Clear 18 1022 59 10000 3.6 300 17:24 19.12.2020
4693 Clouds 18 1022 59 10000 5.1 280 16:45 19.12.2020
4694 Clouds 18 1022 59 10000 5.1 280 16:27 19.12.2020
4695 Clouds 18 1022 63 10000 3.6 280 15:59 19.12.2020
4696 Clouds 18 1022 63 10000 3.6 280 15:40 19.12.2020
4697 Clouds 17 1022 63 10000 3.1 260 14:43 19.12.2020
4698 Clouds 17 1022 63 10000 3.1 260 14:22 19.12.2020
4699 Clouds 16 1023 72 8000 2.1 240 13:42 19.12.2020
4700 Clouds 16 1023 72 8000 2.1 240 13:20 19.12.2020
4701 Clouds 16 1023 82 5000 3.1 180 12:46 19.12.2020
4702 Clouds 15 1023 82 5000 3.1 180 12:28 19.12.2020
4703 Clouds 14 1024 82 5000 3.1 180 11:58 19.12.2020
4704 Clouds 13 1024 82 5000 3.1 180 11:40 19.12.2020
4705 Clouds 12 1023 87 6000 2.1 180 10:47 19.12.2020
4706 Clouds 11 1023 87 6000 2.1 180 10:27 19.12.2020
4707 Clouds 8 1023 100 6000 1 160 09:59 19.12.2020
4708 Clouds 8 1023 100 6000 1 160 09:39 19.12.2020
4709 Clouds 8 1022 93 6000 1 160 08:52 19.12.2020
4710 Clouds 9 1021 93 6000 2.6 180 07:55 19.12.2020
4711 Clouds 8 1021 93 6000 2.6 180 07:18 19.12.2020
4712 Mist 7 1022 100 3500 2.1 190 06:39 19.12.2020
4713 Mist 10 1021 100 3000 1 170 05:19 19.12.2020
4714 Mist 11 1022 100 4000 1 160 03:29 19.12.2020
4715 Clouds 11 1023 100 6000 1 0 00:41 19.12.2020
4716 Clouds 11 1023 100 6000 1 0 00:19 19.12.2020
4717 Clouds 12 1023 100 7000 1.5 190 23:48 18.12.2020
4718 Clouds 12 1023 100 8000 1 160 23:24 18.12.2020
4719 Clouds 12 1023 93 6000 1.5 140 22:48 18.12.2020
4720 Clouds 12 1022 100 10000 1.42 43 22:24 18.12.2020
4721 Clouds 12 1022 100 10000 1 140 21:51 18.12.2020
4722 Clouds 13 1022 87 10000 1 60 21:31 18.12.2020
4723 Clouds 13 1022 87 10000 1 60 20:44 18.12.2020
4724 Clouds 14 1022 87 10000 1 60 20:23 18.12.2020
4725 Clouds 14 1022 82 10000 2.1 360 19:47 18.12.2020
4726 Clouds 15 1022 82 10000 2.1 360 19:23 18.12.2020
4727 Clouds 15 1022 77 10000 4.1 360 18:45 18.12.2020
4728 Clouds 16 1022 77 10000 4.1 360 18:26 18.12.2020
4729 Clouds 17 1021 72 10000 3.1 300 17:36 18.12.2020
4730 Clouds 18 1021 72 10000 5.1 320 16:59 18.12.2020
4731 Clouds 18 1021 72 10000 5.1 320 16:40 18.12.2020
4732 Clouds 18 1021 72 10000 5.1 320 16:20 18.12.2020
4733 Clear 17 1021 72 10000 5.1 320 15:51 18.12.2020
4734 Clear 17 1021 72 10000 5.1 320 15:33 18.12.2020
4735 Clouds 18 1021 63 10000 4.1 320 14:57 18.12.2020
4736 Clouds 18 1021 63 10000 4.1 320 14:24 18.12.2020
4737 Clouds 17 1022 72 10000 3.1 20 13:53 18.12.2020
4738 Clouds 17 1022 72 10000 3.1 20 13:32 18.12.2020
4739 Clouds 17 1023 63 10000 1 20 12:57 18.12.2020
4740 Clouds 17 1023 63 10000 1 20 12:34 18.12.2020
4741 Clear 15 1023 77 10000 2.1 120 11:28 18.12.2020
4742 Clouds 13 1023 82 8000 2.1 120 10:41 18.12.2020
4743 Clouds 13 1023 82 8000 2.1 120 10:41 18.12.2020
4744 Clouds 13 1023 82 8000 2.1 120 10:21 18.12.2020
4745 Clouds 11 1023 93 8000 1 140 09:58 18.12.2020
4746 Clouds 11 1023 93 8000 1 140 09:37 18.12.2020
4747 Clouds 11 1023 93 8000 1 140 09:18 18.12.2020
4748 Clouds 11 1022 87 8000 2.1 200 08:46 18.12.2020
4749 Clouds 9 1022 93 8000 3.1 200 07:58 18.12.2020
4750 Clouds 8 1022 100 10000 2.6 180 07:20 18.12.2020
4751 Clouds 8 1022 100 5000 2.6 180 06:59 18.12.2020
4752 Mist 9 1023 100 4700 0.5 200 05:44 18.12.2020
4753 Clouds 12 1023 100 9000 1.5 150 04:52 18.12.2020
4754 Clouds 12 1023 100 10000 0.5 0 03:35 18.12.2020
4755 Clouds 12 1023 100 2300 1 240 01:45 18.12.2020
4756 Clouds 13 1024 100 10000 1 140 00:29 18.12.2020
4757 Clouds 13 1024 100 10000 1 140 23:52 17.12.2020
4758 Rain 13 1024 100 10000 0.5 0 23:23 17.12.2020
4759 Rain 13 1024 100 10000 1 200 22:48 17.12.2020
4760 Rain 13 1024 100 10000 1 160 22:27 17.12.2020
4761 Rain 13 1024 100 10000 0.5 110 21:46 17.12.2020
4762 Rain 13 1024 100 10000 0.5 110 21:46 17.12.2020
4763 Clouds 14 1023 82 10000 1 20 21:22 17.12.2020
4764 Clouds 15 1023 82 10000 1 20 20:55 17.12.2020
4765 Clouds 15 1023 82 10000 1 20 20:36 17.12.2020
4766 Clouds 15 1023 82 10000 1 20 20:18 17.12.2020
4767 Clouds 14 1023 77 10000 3.1 360 19:39 17.12.2020
4768 Clouds 14 1023 77 10000 3.1 360 19:21 17.12.2020
4769 Clouds 15 1022 72 10000 3.1 360 18:40 17.12.2020
4770 Clouds 15 1022 72 10000 3.1 360 18:19 17.12.2020
4771 Clouds 16 1022 67 10000 3.1 360 17:46 17.12.2020
4772 Clouds 16 1022 67 10000 3.1 360 17:27 17.12.2020
4773 Clouds 17 1022 72 10000 3.1 340 16:41 17.12.2020
4774 Clouds 17 1022 72 10000 3.1 340 16:22 17.12.2020
4775 Clouds 17 1022 77 10000 6.7 340 15:50 17.12.2020
4776 Clouds 17 1022 77 10000 6.7 340 15:28 17.12.2020
4777 Clouds 18 1022 59 10000 2.6 40 14:50 17.12.2020
4778 Clouds 17 1022 59 10000 2.6 40 14:28 17.12.2020
4779 Clouds 17 1022 72 10000 2.1 300 13:50 17.12.2020
4780 Clouds 17 1022 72 10000 2.1 300 13:27 17.12.2020
4781 Rain 17 1023 72 10000 2.1 120 12:44 17.12.2020
4782 Clouds 16 1023 72 10000 2.1 120 12:24 17.12.2020
4783 Clouds 15 1022 82 10000 3.1 200 11:44 17.12.2020
4784 Rain 15 1022 82 10000 3.1 200 11:23 17.12.2020
4785 Rain 13 1021 87 10000 3.1 160 10:49 17.12.2020
4786 Rain 11 1021 100 10000 2.1 160 09:42 17.12.2020
4787 Rain 11 1021 100 10000 2.1 160 09:21 17.12.2020
4788 Rain 11 1020 93 10000 2.1 220 07:49 17.12.2020
4789 Rain 11 1020 93 10000 2.1 220 07:28 17.12.2020
4790 Rain 10 1020 100 10000 2.6 200 06:51 17.12.2020
4791 Rain 11 1020 100 10000 2.1 210 06:32 17.12.2020
4792 Rain 11 1020 100 10000 2.6 240 03:55 17.12.2020
4793 Clouds 12 1019 100 10000 2.6 210 00:29 17.12.2020
4794 Clouds 12 1019 100 10000 2.6 220 23:51 16.12.2020
4795 Clouds 12 1019 100 10000 2.1 240 23:19 16.12.2020
4796 Clouds 12 1019 100 10000 2.1 240 23:19 16.12.2020
4797 Rain 13 1019 100 8000 2.1 260 22:50 16.12.2020
4798 Rain 13 1019 100 2000 2.6 200 22:31 16.12.2020
4799 Rain 13 1019 100 10000 2.6 170 21:46 16.12.2020
4800 Rain 13 1017 93 10000 5.1 220 21:26 16.12.2020
4801 Rain 13 1017 93 10000 5.1 220 20:52 16.12.2020
4802 Rain 13 1017 93 10000 5.1 220 20:21 16.12.2020
4803 Rain 14 1016 93 8000 6.2 260 19:45 16.12.2020
4804 Rain 15 1016 93 8000 6.2 260 19:18 16.12.2020
4805 Rain 15 1016 87 8000 8.2 200 18:52 16.12.2020
4806 Rain 15 1016 87 8000 8.2 200 18:27 16.12.2020
4807 Rain 16 1016 82 8000 3.1 200 17:43 16.12.2020
4808 Rain 17 1015 72 10000 4.1 240 16:58 16.12.2020
4809 Rain 17 1015 72 10000 4.1 240 16:38 16.12.2020
4810 Rain 17 1016 68 10000 4.1 220 16:19 16.12.2020
4811 Rain 18 1016 68 10000 4.1 220 15:48 16.12.2020
4812 Clouds 18 1016 68 10000 4.1 220 15:23 16.12.2020
4813 Clouds 18 1016 72 10000 7.2 220 14:46 16.12.2020
4814 Clouds 18 1016 72 10000 7.2 220 14:27 16.12.2020
4815 Clouds 18 1017 72 10000 5.1 220 13:42 16.12.2020
4816 Clouds 18 1017 72 10000 5.1 220 13:21 16.12.2020
4817 Clouds 17 1018 77 10000 5.1 220 12:46 16.12.2020
4818 Clouds 17 1018 77 10000 5.1 220 12:20 16.12.2020
4819 Clouds 16 1018 82 8000 6.2 200 11:38 16.12.2020
4820 Clouds 16 1018 82 8000 6.2 200 11:19 16.12.2020
4821 Clouds 14 1018 93 6000 4.1 180 10:41 16.12.2020
4822 Clouds 14 1018 93 6000 4.1 180 10:18 16.12.2020
4823 Clouds 13 1017 93 6000 5.1 200 09:34 16.12.2020
4824 Clouds 12 1017 100 6000 4.1 220 08:23 16.12.2020
4825 Clouds 12 1017 100 6000 3.1 200 07:47 16.12.2020
4826 Clouds 12 1017 100 6000 3.1 200 07:29 16.12.2020
4827 Mist 10 1017 100 3000 2.1 200 05:47 16.12.2020
4828 Fog 13 1017 100 300 2.1 180 02:22 16.12.2020
4829 Clouds 14 1018 100 10000 2.1 100 23:59 15.12.2020
4830 Clouds 14 1018 100 10000 2.6 60 23:40 15.12.2020
4831 Clouds 14 1018 100 10000 2.6 50 22:44 15.12.2020
4832 Clouds 14 1018 100 10000 2.6 40 22:23 15.12.2020
4833 Clouds 14 1018 100 8000 2.6 40 21:49 15.12.2020
4834 Clear 16 1018 82 8000 3.1 40 21:24 15.12.2020
4835 Clear 16 1018 82 8000 3.1 40 20:46 15.12.2020
4836 Clear 16 1018 82 8000 3.1 40 20:46 15.12.2020
4837 Clear 16 1018 82 8000 3.1 40 20:27 15.12.2020
4838 Clear 16 1017 82 10000 3.1 60 19:55 15.12.2020
4839 Clear 16 1017 82 10000 3.1 60 19:35 15.12.2020
4840 Clear 17 1017 77 10000 3.1 40 18:57 15.12.2020
4841 Clear 17 1017 77 10000 3.1 40 18:38 15.12.2020
4842 Clear 17 1017 77 10000 3.1 40 18:20 15.12.2020
4843 Clouds 18 1017 77 10000 4.6 60 17:41 15.12.2020
4844 Clouds 18 1017 77 10000 4.6 60 17:21 15.12.2020
4845 Clouds 19 1017 72 6000 4.6 40 16:34 15.12.2020
4846 Clouds 19 1018 72 6000 3.1 360 15:59 15.12.2020
4847 Clouds 19 1018 72 6000 3.1 360 15:34 15.12.2020
4848 Clouds 19 1018 77 6000 4.1 360 14:53 15.12.2020
4849 Clouds 19 1018 77 6000 4.1 360 14:27 15.12.2020
4850 Clouds 19 1019 77 6000 3.1 20 13:59 15.12.2020
4851 Clouds 19 1019 77 6000 3.1 20 13:40 15.12.2020
4852 Clouds 19 1019 77 6000 3.1 20 13:22 15.12.2020
4853 Clouds 19 1020 77 6000 2.1 100 12:43 15.12.2020
4854 Clouds 19 1020 77 6000 2.1 100 12:18 15.12.2020
4855 Mist 17 1020 93 4000 1.5 200 11:43 15.12.2020
4856 Mist 17 1020 93 4000 1.5 200 11:20 15.12.2020
4857 Mist 14 1020 100 1500 2.1 180 10:41 15.12.2020
4858 Fog 13 1019 100 900 1 160 09:53 15.12.2020
4859 Fog 13 1019 100 900 1 160 09:32 15.12.2020
4860 Fog 13 1019 100 900 2.1 140 08:58 15.12.2020
4861 Fog 13 1019 100 900 2.1 140 08:37 15.12.2020
4862 Fog 13 1019 100 900 2.1 140 08:19 15.12.2020
4863 Clouds 13 1018 100 5000 1.5 140 07:40 15.12.2020
4864 Mist 13 1018 100 2500 1.5 200 06:40 15.12.2020
4865 Mist 15 1018 100 3600 1.5 200 04:55 15.12.2020
4866 Mist 15 1018 100 3400 2.6 190 00:38 15.12.2020
4867 Clouds 15 1018 100 5000 3.1 220 23:47 14.12.2020
4868 Clouds 15 1018 100 10000 2.6 210 23:19 14.12.2020
4869 Clouds 15 1018 100 10000 2.1 210 22:39 14.12.2020
4870 Clouds 16 1018 100 10000 1 250 21:55 14.12.2020
4871 Clouds 16 1017 88 10000 2.1 240 21:36 14.12.2020
4872 Clouds 17 1017 88 10000 2.1 240 20:56 14.12.2020
4873 Clouds 16 1017 88 10000 2.1 240 20:38 14.12.2020
4874 Clouds 17 1017 88 10000 2.1 240 20:18 14.12.2020
4875 Clouds 17 1017 82 10000 2.1 260 19:32 14.12.2020
4876 Clouds 18 1016 82 10000 4.1 260 18:57 14.12.2020
4877 Clouds 18 1016 82 10000 4.1 260 18:38 14.12.2020
4878 Clouds 19 1016 77 10000 4.1 260 17:58 14.12.2020
4879 Clouds 18 1016 77 10000 4.1 260 17:33 14.12.2020
4880 Clouds 18 1016 88 10000 5.1 260 16:53 14.12.2020
4881 Clouds 18 1016 88 10000 5.1 260 16:30 14.12.2020
4882 Rain 18 1016 82 8000 8.2 200 15:53 14.12.2020
4883 Rain 18 1016 82 8000 8.2 200 15:30 14.12.2020
4884 Rain 18 1016 82 8000 8.7 200 14:45 14.12.2020
4885 Rain 18 1016 82 8000 8.7 200 14:27 14.12.2020
4886 Clouds 18 1016 77 10000 6.2 200 13:47 14.12.2020
4887 Clouds 18 1016 77 10000 6.2 200 13:27 14.12.2020
4888 Clouds 18 1016 72 10000 8.7 200 12:54 14.12.2020
4889 Clouds 18 1016 72 10000 8.7 200 12:30 14.12.2020
4890 Clear 18 1016 72 10000 8.2 180 11:37 14.12.2020
4891 Clear 17 1016 77 10000 7.2 180 10:48 14.12.2020
4892 Clear 17 1016 77 10000 7.2 180 10:27 14.12.2020
4893 Clouds 15 1015 93 8000 5.1 180 09:44 14.12.2020
4894 Clouds 14 1015 93 8000 4.1 200 08:50 14.12.2020
4895 Clouds 15 1015 93 8000 4.1 200 08:30 14.12.2020
4896 Clouds 14 1015 93 8000 3.1 220 07:52 14.12.2020
4897 Clouds 14 1015 100 8000 2.6 190 06:55 14.12.2020
4898 Clouds 14 1015 100 8000 3.6 210 05:51 14.12.2020
4899 Mist 15 1015 100 2500 2.6 200 03:29 14.12.2020
4900 Mist 15 1016 100 2000 1.5 190 00:57 14.12.2020
4901 Mist 15 1016 100 2000 1.5 270 00:34 14.12.2020
4902 Mist 15 1016 100 3000 2.1 260 23:59 13.12.2020
4903 Clouds 15 1016 100 6000 1 0 23:41 13.12.2020
4904 Clouds 15 1015 100 6000 1 300 22:51 13.12.2020
4905 Clouds 15 1015 100 6000 1.5 340 22:21 13.12.2020
4906 Clouds 15 1015 100 6000 2.1 340 21:56 13.12.2020
4907 Clouds 15 1014 93 8000 2.1 20 21:35 13.12.2020
4908 Clouds 15 1014 93 8000 2.1 20 20:49 13.12.2020
4909 Clouds 16 1014 93 8000 2.1 20 20:25 13.12.2020
4910 Clouds 16 1014 87 8000 2.1 20 19:45 13.12.2020
4911 Clouds 16 1014 87 8000 2.1 20 19:23 13.12.2020
4912 Clouds 16 1014 82 8000 1 40 18:44 13.12.2020
4913 Clouds 17 1014 82 8000 1 40 18:22 13.12.2020
4914 Clouds 17 1013 88 8000 5.1 60 17:59 13.12.2020
4915 Clouds 17 1013 88 8000 5.1 60 17:41 13.12.2020
4916 Clouds 17 1013 88 8000 5.1 60 17:18 13.12.2020
4917 Clouds 16 1014 93 8000 3.1 40 16:42 13.12.2020
4918 Clouds 16 1014 93 8000 3.1 40 16:21 13.12.2020
4919 Clouds 17 1014 88 8000 3.1 40 15:45 13.12.2020
4920 Clouds 17 1014 88 8000 3.1 40 15:45 13.12.2020
4921 Clouds 17 1014 88 8000 3.1 40 15:45 13.12.2020
4922 Clouds 17 1014 88 8000 3.1 40 15:45 13.12.2020
4923 Clouds 17 1014 88 8000 3.1 40 15:24 13.12.2020
4924 Clouds 16 1015 93 8000 3.1 20 14:45 13.12.2020
4925 Clouds 17 1015 93 8000 3.1 20 14:27 13.12.2020
4926 Clouds 16 1016 93 8000 5.1 80 13:45 13.12.2020
4927 Clouds 16 1016 93 8000 5.1 80 13:27 13.12.2020
4928 Clouds 16 1017 93 8000 3.1 80 12:55 13.12.2020
4929 Clouds 16 1017 93 8000 3.1 80 12:24 13.12.2020
4930 Clouds 16 1017 88 8000 3.1 60 11:51 13.12.2020
4931 Clouds 16 1017 88 8000 3.1 60 11:23 13.12.2020
4932 Clouds 15 1016 93 6000 3.1 40 10:41 13.12.2020
4933 Clouds 15 1016 93 6000 3.1 60 09:59 13.12.2020
4934 Clouds 15 1016 93 6000 3.1 60 09:31 13.12.2020
4935 Clouds 15 1016 93 6000 7.2 40 08:36 13.12.2020
4936 Clouds 14 1016 100 6000 3.1 20 07:52 13.12.2020
4937 Fog 13 1015 100 600 3.1 30 05:49 13.12.2020
4938 Clouds 15 1017 100 10000 2.6 60 02:43 13.12.2020
4939 Clouds 15 1018 100 8000 3.6 60 01:58 13.12.2020
4940 Clouds 15 1018 100 8000 4.6 60 01:19 13.12.2020
4941 Clouds 15 1019 100 5000 4.1 60 00:33 13.12.2020
4942 Mist 15 1020 100 2000 5.1 50 23:33 12.12.2020
4943 Clouds 15 1020 100 5000 4.6 50 22:57 12.12.2020
4944 Clouds 15 1020 100 10000 3.6 40 22:27 12.12.2020
4945 Clouds 15 1020 100 6000 3.1 40 21:45 12.12.2020
4946 Clouds 16 1021 82 10000 4.1 60 21:18 12.12.2020
4947 Clouds 16 1021 82 10000 4.1 60 20:43 12.12.2020
4948 Clouds 16 1021 82 10000 4.1 60 20:19 12.12.2020
4949 Clouds 16 1020 82 10000 5.1 20 19:48 12.12.2020
4950 Clouds 17 1020 82 10000 5.1 20 19:29 12.12.2020
4951 Clouds 17 1021 82 10000 4.1 20 18:48 12.12.2020
4952 Clouds 17 1021 82 10000 4.1 20 18:30 12.12.2020
4953 Clouds 18 1021 77 10000 4.1 40 17:51 12.12.2020
4954 Clouds 18 1021 77 10000 4.1 40 17:32 12.12.2020
4955 Clouds 19 1021 72 10000 6.2 20 16:28 12.12.2020
4956 Clouds 18 1021 82 10000 7.2 360 15:53 12.12.2020
4957 Clouds 18 1021 82 10000 7.2 360 15:35 12.12.2020
4958 Clouds 19 1022 72 10000 4.1 20 14:53 12.12.2020
4959 Clouds 18 1023 88 10000 4.1 340 13:58 12.12.2020
4960 Clouds 18 1023 88 10000 4.1 340 13:38 12.12.2020
4961 Clouds 18 1023 88 10000 4.1 340 13:19 12.12.2020
4962 Clouds 18 1024 82 10000 1 60 12:31 12.12.2020
4963 Clouds 16 1023 93 6000 2.1 220 10:56 12.12.2020
4964 Mist 15 1023 93 4000 3.1 260 09:50 12.12.2020
4965 Mist 14 1023 93 4000 1 180 08:57 12.12.2020
4966 Clouds 16 1023 100 10000 1 30 03:33 12.12.2020
4967 Clouds 16 1024 100 7000 2.6 330 00:48 12.12.2020
4968 Drizzle 16 1025 100 6000 2.6 350 22:50 11.12.2020
4969 Clouds 17 1024 100 6000 3.1 300 20:52 11.12.2020
4970 Drizzle 18 1023 88 2000 4.1 300 18:56 11.12.2020
4971 Clouds 19 1023 82 10000 4.1 280 16:45 11.12.2020
4972 Clouds 18 1024 82 10000 3.1 280 14:19 11.12.2020
4973 Clouds 18 1024 82 8000 3.1 280 13:25 11.12.2020
4974 Clouds 18 1025 88 6000 3.1 240 12:21 11.12.2020
4975 Clouds 18 1025 93 6000 2.1 200 11:52 11.12.2020
4976 Clouds 16 1025 93 6000 2.1 180 10:56 11.12.2020
4977 Clouds 15 1024 93 10000 3.1 220 09:42 11.12.2020
4978 Clouds 14 1024 100 10000 2.1 200 06:25 11.12.2020
4979 Clouds 15 1024 100 10000 3.6 190 05:20 11.12.2020
4980 Clouds 15 1024 100 10000 3.6 190 05:20 11.12.2020
4981 Mist 14 1025 100 4500 3.1 190 02:40 11.12.2020
4982 Clouds 15 1025 100 6000 2.6 190 00:39 11.12.2020
4983 Clouds 15 1025 100 5000 2.6 220 22:57 10.12.2020
4984 Clouds 15 1024 88 10000 4.1 320 21:37 10.12.2020
4985 Clouds 16 1024 88 10000 4.1 320 20:49 10.12.2020
4986 Clouds 16 1024 88 10000 4.1 320 19:49 10.12.2020
4987 Clouds 17 1024 88 10000 4.1 320 19:21 10.12.2020
4988 Clouds 17 1024 88 10000 5.1 300 18:44 10.12.2020
4989 Clouds 19 1023 72 10000 5.1 260 16:56 10.12.2020
4990 Clouds 18 1024 68 10000 6.2 300 15:51 10.12.2020
4991 Clouds 19 1024 68 10000 6.2 260 14:58 10.12.2020
4992 Clouds 18 1024 68 10000 6.2 260 14:38 10.12.2020
4993 Clouds 18 1024 68 10000 6.2 260 14:38 10.12.2020
4994 Clouds 18 1025 68 10000 6.2 320 13:25 10.12.2020
4995 Clouds 16 1026 88 6000 3.1 180 11:48 10.12.2020
4996 Clouds 13 1025 100 6000 3.1 180 09:33 10.12.2020
4997 Clouds 12 1024 100 6000 1.5 180 08:19 10.12.2020
4998 Mist 12 1024 100 2000 1.5 220 06:51 10.12.2020
4999 Mist 12 1025 100 1200 2.1 150 03:55 10.12.2020
5000 Fog 12 1025 100 250 1.5 180 02:27 10.12.2020
5001 Fog 12 1026 100 500 2.6 170 00:48 10.12.2020
5002 Clouds 12 1026 100 8000 0.5 0 23:23 09.12.2020
5003 Clouds 15 1024 87 8000 1 260 20:37 09.12.2020
5004 Clouds 15 1024 87 8000 2.1 340 19:37 09.12.2020
5005 Clouds 18 1023 77 10000 3.1 300 17:55 09.12.2020
5006 Clouds 18 1023 77 10000 1 136 16:54 09.12.2020
5007 Clouds 18 1023 77 10000 1 136 16:25 09.12.2020
5008 Clouds 18 1024 72 10000 3.6 20 15:38 09.12.2020
5009 Clouds 17 1024 77 10000 2.6 360 14:49 09.12.2020
5010 Rain 18 1024 77 10000 2.6 360 14:24 09.12.2020
5011 Rain 18 1025 77 10000 3.1 320 13:19 09.12.2020
5012 Rain 18 1025 72 10000 2.1 200 12:47 09.12.2020
5013 Rain 16 1025 82 6000 2.1 200 11:55 09.12.2020
5014 Rain 16 1025 82 6000 2.1 200 11:27 09.12.2020
5015 Rain 13 1024 93 6000 1.5 160 09:39 09.12.2020
5016 Rain 13 1024 100 6000 1.5 200 08:26 09.12.2020
5017 Clouds 12 1024 100 8000 3.1 190 06:18 09.12.2020
5018 Clouds 13 1024 100 10000 1.5 190 04:46 09.12.2020
5019 Rain 14 1024 100 5000 2.1 230 02:22 09.12.2020
5020 Rain 14 1025 100 10000 2.6 230 23:45 08.12.2020
5021 Rain 15 1024 100 10000 2.6 230 23:21 08.12.2020
5022 Clouds 16 1024 72 10000 5.1 260 21:35 08.12.2020
5023 Clouds 16 1024 72 10000 5.1 260 19:46 08.12.2020
5024 Clouds 16 1024 72 10000 5.1 260 19:25 08.12.2020
5025 Clouds 17 1023 72 10000 5.1 260 18:27 08.12.2020
5026 Clouds 19 1023 59 10000 4.1 240 15:54 08.12.2020
5027 Clouds 18 1024 68 10000 5.1 260 14:34 08.12.2020
5028 Clouds 17 1025 72 10000 4.1 220 13:40 08.12.2020
5029 Clouds 16 1025 77 10000 3.1 220 12:35 08.12.2020
5030 Clouds 15 1025 82 10000 3.1 220 11:52 08.12.2020
5031 Clouds 14 1025 87 10000 3.1 200 10:50 08.12.2020
5032 Clouds 14 1025 87 10000 3.1 200 10:31 08.12.2020
5033 Clouds 13 1024 93 8000 2.1 200 09:34 08.12.2020
5034 Clouds 12 1024 100 10000 4.1 210 07:34 08.12.2020
5035 Rain 14 1024 100 10000 3.1 220 03:43 08.12.2020
5036 Rain 13 1024 93 10000 3.1 220 01:38 08.12.2020
5037 Rain 13 1024 100 10000 3.6 220 00:44 08.12.2020
5038 Rain 14 1024 93 10000 3.6 230 22:50 07.12.2020
5039 Rain 14 1024 93 10000 3.6 220 22:18 07.12.2020
5040 Clouds 15 1023 77 10000 4.1 260 20:45 07.12.2020
5041 Clouds 16 1022 72 10000 5.1 260 18:48 07.12.2020
5042 Clouds 18 1022 68 10000 4.6 280 17:31 07.12.2020
5043 Clouds 19 1022 59 10000 5.7 260 16:56 07.12.2020
5044 Rain 18 1022 59 10000 4.1 220 15:57 07.12.2020
5045 Clouds 18 1022 59 10000 4.1 220 15:23 07.12.2020
5046 Clouds 18 1023 63 10000 6.2 260 14:26 07.12.2020
5047 Clouds 17 1023 59 10000 5.1 220 13:34 07.12.2020
5048 Clouds 15 1023 72 10000 4.1 200 11:46 07.12.2020
5049 Clouds 14 1023 72 10000 4.1 200 11:27 07.12.2020
5050 Clouds 12 1023 71 10000 3.6 200 10:20 07.12.2020
5051 Clouds 10 1022 81 10000 3.1 180 08:30 07.12.2020
5052 Clouds 7 1022 100 10000 2.6 200 06:45 07.12.2020
5053 Clouds 8 1022 100 6000 3.1 190 04:58 07.12.2020
5054 Clouds 8 1022 100 10000 2.1 190 01:57 07.12.2020
5055 Clouds 9 1022 100 10000 2.6 180 00:30 07.12.2020
5056 Clouds 11 1021 100 10000 1 210 22:33 06.12.2020
5057 Clouds 12 1020 71 10000 2.1 240 21:32 06.12.2020
5058 Clouds 13 1020 71 10000 2.1 240 20:34 06.12.2020
5059 Clouds 13 1020 71 10000 2.1 240 19:57 06.12.2020
5060 Clouds 14 1020 67 10000 3.1 280 18:41 06.12.2020
5061 Clouds 15 1019 63 10000 4.6 260 17:23 06.12.2020
5062 Clouds 14 1020 67 10000 3.1 260 15:53 06.12.2020
5063 Rain 15 1020 76 10000 4.1 280 13:59 06.12.2020
5064 Rain 13 1021 71 10000 3.1 80 12:52 06.12.2020
5065 Rain 13 1021 71 10000 3.1 80 12:27 06.12.2020
5066 Rain 13 1021 67 10000 1.5 260 11:37 06.12.2020
5067 Clouds 13 1021 67 10000 1.5 260 11:18 06.12.2020
5068 Rain 10 1020 76 10000 2.6 180 10:26 06.12.2020
5069 Rain 9 1019 81 10000 2.1 180 08:45 06.12.2020
5070 Rain 7 1018 100 10000 2.6 190 06:53 06.12.2020
5071 Rain 8 1018 100 10000 2.6 180 02:40 06.12.2020
5072 Rain 9 1018 100 10000 2.1 200 00:42 06.12.2020
5073 Rain 9 1018 100 10000 2.6 220 00:24 06.12.2020
5074 Rain 10 1018 93 10000 1 0 22:52 05.12.2020
5075 Rain 10 1017 87 10000 1.5 320 22:21 05.12.2020
5076 Rain 9 1017 100 10000 2.1 260 21:51 05.12.2020
5077 Clouds 12 1015 58 10000 4.1 320 21:26 05.12.2020
5078 Clouds 13 1015 58 10000 5.1 320 19:49 05.12.2020
5079 Clouds 14 1015 54 10000 4.1 320 18:45 05.12.2020
5080 Clouds 14 1014 54 10000 5.1 340 17:34 05.12.2020
5081 Rain 14 1014 54 10000 5.1 20 16:42 05.12.2020
5082 Rain 14 1014 54 10000 5.1 20 16:20 05.12.2020
5083 Clouds 15 1014 55 10000 4.1 300 14:28 05.12.2020
5084 Rain 12 1015 76 10000 6.2 340 12:32 05.12.2020
5085 Rain 13 1014 67 10000 6.2 320 11:48 05.12.2020
5086 Rain 12 1013 71 10000 5.1 340 10:32 05.12.2020
5087 Rain 10 1012 100 6000 2.6 300 07:49 05.12.2020
5088 Rain 10 1012 100 4000 4.6 270 07:25 05.12.2020
5089 Rain 11 1011 100 4000 3.1 300 04:44 05.12.2020
5090 Rain 14 1011 100 6000 5.7 270 23:56 04.12.2020
5091 Clouds 13 1011 100 8000 9.3 280 22:32 04.12.2020
5092 Rain 15 1010 87 10000 6.2 260 20:26 04.12.2020
5093 Rain 16 1010 72 10000 7.2 260 18:53 04.12.2020
5094 Rain 17 1010 72 10000 7.2 260 18:20 04.12.2020
5095 Rain 17 1011 72 10000 8.2 260 17:40 04.12.2020
5096 Rain 18 1011 68 10000 8.2 260 15:50 04.12.2020
5097 Rain 16 1013 82 10000 3.1 260 13:58 04.12.2020
5098 Rain 16 1013 82 10000 3.1 260 13:31 04.12.2020
5099 Rain 15 1014 100 10000 3.1 220 12:54 04.12.2020
5100 Rain 15 1014 82 10000 3.1 200 10:42 04.12.2020
5101 Rain 15 1014 82 10000 3.1 200 10:23 04.12.2020
5102 Rain 14 1014 87 10000 3.1 200 07:29 04.12.2020
5103 Rain 14 1014 100 10000 4.6 230 06:39 04.12.2020
5104 Clouds 13 1016 100 10000 3.1 220 02:25 04.12.2020
5105 Clouds 13 1016 100 10000 2.1 230 23:21 03.12.2020
5106 Clouds 13 1016 100 10000 2.1 230 22:45 03.12.2020
5107 Clear 15 1014 82 10000 2.1 300 20:59 03.12.2020
5108 Clear 17 1014 77 10000 2.6 300 19:38 03.12.2020
5109 Clear 17 1014 77 10000 2.6 300 19:19 03.12.2020
5110 Clear 18 1014 77 10000 3.1 260 18:34 03.12.2020
5111 Clear 20 1014 68 10000 4.1 300 17:20 03.12.2020
5112 Clouds 20 1015 72 10000 4.1 340 15:58 03.12.2020
5113 Clouds 20 1015 72 10000 4.1 340 15:31 03.12.2020
5114 Clear 21 1015 72 10000 4.1 300 14:48 03.12.2020
5115 Clear 21 1015 52 10000 2.6 300 13:44 03.12.2020
5116 Clear 20 1016 40 10000 2.1 220 12:32 03.12.2020
5117 Clouds 19 1016 52 6000 2.1 260 11:49 03.12.2020
5118 Clouds 15 1015 67 6000 2.1 180 10:27 03.12.2020
5119 Clouds 9 1013 87 8000 1.5 180 07:48 03.12.2020
5120 Clear 13 1014 82 10000 1.5 70 03:41 03.12.2020
5121 Clear 14 1015 63 10000 3.1 40 01:24 03.12.2020
5122 Clear 16 1015 51 10000 2.6 50 23:41 02.12.2020
5123 Clear 16 1015 51 10000 4.1 40 22:29 02.12.2020
5124 Clear 17 1014 77 10000 4.1 60 21:29 02.12.2020
5125 Clear 17 1014 77 10000 4.1 60 20:48 02.12.2020
5126 Clear 17 1014 77 10000 4.1 60 20:29 02.12.2020
5127 Clear 18 1013 77 10000 4.1 40 19:22 02.12.2020
5128 Clear 20 1013 56 10000 4.1 40 17:48 02.12.2020
5129 Clear 21 1013 56 10000 4.1 40 17:29 02.12.2020
5130 Clear 24 1014 35 10000 5.1 20 15:37 02.12.2020
5131 Clear 24 1015 36 10000 2.1 60 13:19 02.12.2020
5132 Clear 18 1016 48 10000 2.1 160 10:47 02.12.2020
5133 Clear 17 1016 48 10000 2.1 160 10:21 02.12.2020
5134 Clear 12 1016 76 10000 2.6 110 07:42 02.12.2020
5135 Clear 15 1018 62 10000 2.1 130 23:20 01.12.2020
5136 Clear 16 1018 51 10000 3.1 80 22:20 01.12.2020
5137 Clouds 23 1016 43 10000 2.6 40 19:36 01.12.2020
5138 Clouds 23 1016 43 10000 2.6 40 18:46 01.12.2020
5139 Clouds 25 1017 38 10000 4.1 60 16:47 01.12.2020
5140 Clear 25 1018 27 10000 6.2 100 14:34 01.12.2020
5141 Clear 23 1020 40 10000 6.2 100 12:31 01.12.2020
5142 Clear 20 1020 49 10000 5.7 140 11:28 01.12.2020
5143 Clear 18 1020 63 10000 4.1 120 10:46 01.12.2020
5144 Clear 16 1020 63 10000 4.1 120 10:26 01.12.2020
5145 Clear 12 1019 100 10000 2.6 110 07:40 01.12.2020
5146 Clear 15 1020 100 10000 3.1 320 02:57 01.12.2020
5147 Clear 15 1020 100 10000 3.1 320 02:57 01.12.2020
5148 Clear 15 1020 100 10000 1 0 00:57 01.12.2020
5149 Clear 16 1019 87 10000 3.6 330 23:49 30.11.2020
5150 Clear 16 1019 67 10000 1 0 23:18 30.11.2020
5151 Clear 17 1018 59 10000 3.1 60 22:36 30.11.2020
5152 Clear 17 1018 59 10000 3.1 60 22:18 30.11.2020
5153 Clear 19 1016 72 10000 3.1 340 19:46 30.11.2020
5154 Clear 20 1016 64 10000 2.1 40 18:44 30.11.2020
5155 Clear 21 1016 64 10000 2.1 40 18:21 30.11.2020
5156 Clear 22 1015 46 10000 4.1 40 17:43 30.11.2020
5157 Clear 22 1015 46 10000 4.1 40 17:43 30.11.2020
5158 Clear 23 1015 49 10000 3.1 60 16:44 30.11.2020
5159 Clear 21 1015 53 10000 4.1 40 14:47 30.11.2020
5160 Clear 21 1016 56 10000 4.1 100 13:55 30.11.2020
5161 Clouds 20 1015 64 10000 5.1 100 12:57 30.11.2020
5162 Clouds 18 1015 64 10000 5.1 100 12:25 30.11.2020
5163 Clouds 15 1015 87 10000 1 200 10:32 30.11.2020
5164 Clouds 15 1015 87 10000 1 200 09:53 30.11.2020
5165 Clouds 13 1014 93 10000 2.1 140 07:59 30.11.2020
5166 Clear 14 1014 100 10000 2.1 90 01:23 30.11.2020
5167 Clouds 14 1014 100 10000 2.6 120 23:25 29.11.2020
5168 Clouds 14 1014 100 10000 2.6 140 21:44 29.11.2020
5169 Clouds 15 1013 82 10000 1 160 21:25 29.11.2020
5170 Clouds 17 1013 77 10000 3.1 180 18:46 29.11.2020
5171 Clouds 18 1013 72 10000 2.1 200 17:31 29.11.2020
5172 Clouds 17 1013 72 10000 7.2 240 13:35 29.11.2020
5173 Clouds 17 1014 72 10000 6.2 240 12:44 29.11.2020
5174 Clouds 16 1013 72 10000 4.1 200 11:25 29.11.2020
5175 Rain 14 1012 87 8000 4.1 200 08:53 29.11.2020
5176 Rain 14 1012 87 8000 4.1 200 08:34 29.11.2020
5177 Clouds 16 1013 93 10000 6.7 200 02:31 29.11.2020
5178 Clouds 15 1013 93 10000 5.7 210 22:59 28.11.2020
5179 Clouds 15 1013 100 10000 6.2 210 22:18 28.11.2020
5180 Clouds 16 1012 72 10000 4.1 220 19:56 28.11.2020
5181 Clouds 16 1012 72 10000 4.1 220 19:27 28.11.2020
5182 Clouds 17 1011 68 10000 4.1 220 18:55 28.11.2020
5183 Clouds 18 1011 63 10000 5.1 240 17:57 28.11.2020
5184 Clouds 18 1011 68 10000 5.1 240 16:56 28.11.2020
5185 Clouds 18 1012 68 10000 6.2 200 14:58 28.11.2020
5186 Clouds 18 1013 63 10000 5.1 200 13:47 28.11.2020
5187 Clouds 15 1013 72 10000 8.2 200 11:25 28.11.2020
5188 Clouds 12 1011 76 10000 5.1 200 08:47 28.11.2020
5189 Clouds 12 1010 93 10000 4.1 220 03:38 28.11.2020
5190 Clouds 10 1011 100 10000 3.6 210 01:52 28.11.2020
5191 Clouds 10 1010 100 8000 2.1 210 23:19 27.11.2020
5192 Clouds 11 1010 100 8000 2.1 170 21:57 27.11.2020
5193 Clouds 12 1009 87 10000 3.1 200 20:38 27.11.2020
5194 Thunderstorm 13 1009 82 10000 3.1 120 19:31 27.11.2020
5195 Clouds 14 1008 77 10000 4.1 120 18:51 27.11.2020
5196 Clouds 16 1007 63 10000 5.7 220 15:39 27.11.2020
5197 Clouds 16 1007 59 10000 5.7 200 14:18 27.11.2020
5198 Clouds 14 1009 71 10000 7.7 200 12:48 27.11.2020
5199 Clouds 13 1009 76 10000 5.1 200 11:57 27.11.2020
5200 Clouds 12 1009 81 10000 2.6 200 10:51 27.11.2020
5201 Clouds 11 1009 81 10000 2.6 200 10:28 27.11.2020
5202 Rain 11 1007 100 10000 1.34 203 07:39 27.11.2020
5203 Clouds 15 1007 64 10000 4.67 201 22:47 26.11.2020
5204 Clouds 12 1007 100 10000 0.89 226 22:22 26.11.2020
5205 Clouds 11 1007 76 10000 4.1 180 21:39 26.11.2020
5206 Clouds 11 1007 76 10000 4.1 180 20:39 26.11.2020
5207 Clouds 13 1016 71 10000 5.1 200 18:36 26.11.2020
5208 Clouds 14 1006 62 10000 5.1 200 16:38 26.11.2020
5209 Rain 13 1008 67 10000 8.2 280 13:44 26.11.2020
5210 Clouds 15 1008 63 10000 7.11 226 12:52 26.11.2020
5211 Clouds 15 1008 63 10000 7.15 221 12:29 26.11.2020
5212 Clouds 12 1009 71 10000 9.8 180 10:39 26.11.2020
5213 Clouds 12 1009 71 10000 9.8 180 10:18 26.11.2020
5214 Clouds 11 1008 76 10000 8.2 180 09:32 26.11.2020
5215 Clouds 11 1008 81 10000 7.2 180 08:43 26.11.2020
5216 Clouds 11 1008 81 10000 8.7 200 07:49 26.11.2020
5217 Clouds 11 1008 81 10000 8.7 200 07:49 26.11.2020
5218 Rain 11 1011 100 7000 5.7 220 02:18 26.11.2020
5219 Rain 14 1013 100 10000 3.1 300 21:54 25.11.2020
5220 Clouds 15 1012 67 10000 4.6 210 20:31 25.11.2020
5221 Clouds 15 1012 72 10000 5.1 240 18:59 25.11.2020
5222 Thunderstorm 18 1013 72 10000 5.1 280 17:27 25.11.2020
5223 Clouds 22 1012 53 10000 3.1 260 15:43 25.11.2020
5224 Clouds 22 1015 49 10000 6.2 240 14:46 25.11.2020
5225 Clouds 21 1015 52 10000 7.2 240 13:45 25.11.2020
5226 Clear 20 1017 60 10000 6.71 223 12:30 25.11.2020
5227 Clear 19 1017 68 10000 7.2 200 11:21 25.11.2020
5228 Clouds 13 1018 93 7000 4.1 200 09:20 25.11.2020
5229 Clouds 12 1019 93 6000 5.1 180 08:49 25.11.2020
5230 Clouds 10 1019 100 10000 2.1 210 06:59 25.11.2020
5231 Clouds 11 1021 100 10000 2.1 180 03:49 25.11.2020
5232 Clouds 12 1022 93 10000 2.1 190 01:34 25.11.2020
5233 Clouds 14 1023 93 10000 1.5 200 23:59 24.11.2020
5234 Clouds 14 1023 93 10000 2.1 190 23:34 24.11.2020
5235 Clouds 14 1023 93 10000 1.5 180 22:38 24.11.2020
5236 Clouds 16 1022 93 10000 2.1 320 21:34 24.11.2020
5237 Clouds 16 1022 93 10000 2.1 320 20:55 24.11.2020
5238 Clouds 16 1022 93 10000 3.1 300 19:47 24.11.2020
5239 Clouds 20 1022 77 10000 5.1 300 17:32 24.11.2020
5240 Clouds 20 1022 72 10000 5.1 300 16:57 24.11.2020
5241 Clouds 20 1022 72 10000 5.1 300 16:37 24.11.2020
5242 Clouds 21 1022 72 10000 5.1 300 15:55 24.11.2020
5243 Clouds 21 1022 72 10000 5.1 300 15:19 24.11.2020
5244 Clouds 21 1023 72 10000 3.1 320 14:44 24.11.2020
5245 Clouds 20 1024 77 8000 3.1 320 13:34 24.11.2020
5246 Mist 18 1025 93 4000 2.1 220 12:38 24.11.2020
5247 Fog 16 1025 100 800 2.1 180 11:59 24.11.2020
5248 Fog 16 1025 100 800 2.1 180 11:22 24.11.2020
5249 Fog 12 1025 100 800 5.1 180 10:25 24.11.2020
5250 Fog 10 1024 100 600 5.1 200 09:38 24.11.2020
5251 Fog 10 1024 100 600 2.1 180 08:57 24.11.2020
5252 Clouds 8 1023 87 10000 1 160 04:51 24.11.2020
5253 Clear 11 1024 100 10000 2.1 140 00:41 24.11.2020
5254 Clear 13 1024 87 10000 2.1 150 21:56 23.11.2020
5255 Clouds 15 1023 88 8000 1 100 21:25 23.11.2020
5256 Clouds 16 1023 88 8000 1 100 20:29 23.11.2020
5257 Clouds 17 1023 88 8000 1.5 20 19:53 23.11.2020
5258 Clear 21 1022 68 10000 5.1 300 17:29 23.11.2020
5259 Clear 22 1022 56 10000 5.1 320 16:56 23.11.2020
5260 Clear 24 1023 56 10000 4.6 320 14:50 23.11.2020
5261 Clear 23 1024 49 10000 2.1 280 13:56 23.11.2020
5262 Clear 21 1024 56 10000 2.6 220 12:40 23.11.2020
5263 Clear 19 1024 68 6000 2.6 160 11:57 23.11.2020
5264 Clear 18 1024 68 6000 2.6 160 11:38 23.11.2020
5265 Fog 11 1023 100 600 1.5 140 09:47 23.11.2020
5266 Fog 8 1023 100 600 1 140 08:51 23.11.2020
5267 Fog 9 1023 100 600 2.1 160 07:58 23.11.2020
5268 Clouds 14 1023 100 200 1 170 03:32 23.11.2020
5269 Fog 15 1023 100 150 1.5 120 23:51 22.11.2020
5270 Clouds 15 1023 100 5000 1.5 140 22:23 22.11.2020
5271 Clear 17 1022 93 8000 1 360 21:24 22.11.2020
5272 Clear 17 1022 93 8000 1 360 20:27 22.11.2020
5273 Clouds 18 1021 88 8000 2.1 20 19:29 22.11.2020
5274 Clouds 19 1021 82 8000 3.1 360 18:23 22.11.2020
5275 Clear 22 1021 73 8000 3.6 340 16:26 22.11.2020
5276 Clear 22 1021 73 8000 4.6 360 15:27 22.11.2020
5277 Clear 21 1022 77 8000 4.1 360 13:32 22.11.2020
5278 Clear 21 1022 88 6000 1.5 320 12:43 22.11.2020
5279 Fog 18 1023 100 300 0.96 290 11:54 22.11.2020
5280 Clouds 16 1022 100 300 0.34 250 10:51 22.11.2020
5281 Clouds 14 1022 100 300 0.34 250 10:33 22.11.2020
5282 Clouds 14 1022 100 300 0.34 250 10:33 22.11.2020
5283 Clear 13 1021 100 350 0.5 240 04:43 22.11.2020
5284 Fog 14 1021 100 200 0.5 0 00:49 22.11.2020
5285 Mist 14 1021 100 4500 1.5 70 22:42 21.11.2020
5286 Clear 16 1020 88 10000 3.1 360 21:32 21.11.2020
5287 Clear 16 1020 88 10000 3.1 360 20:49 21.11.2020
5288 Clear 16 1020 88 10000 3.1 360 20:21 21.11.2020
5289 Clouds 17 1020 88 10000 3.1 360 19:49 21.11.2020
5290 Clouds 17 1020 88 10000 3.1 360 19:18 21.11.2020
5291 Clouds 20 1020 77 10000 6.2 20 17:32 21.11.2020
5292 Clouds 21 1020 72 10000 6.2 360 16:45 21.11.2020
5293 Clear 23 1020 68 10000 5.1 340 15:42 21.11.2020
5294 Clear 23 1020 68 10000 5.1 340 15:20 21.11.2020
5295 Clear 24 1020 56 10000 7.2 340 14:42 21.11.2020
5296 Clear 24 1021 31 10000 1.66 266 12:59 21.11.2020
5297 Clear 24 1021 31 10000 1.82 204 12:23 21.11.2020
5298 Clear 22 1021 46 8000 3.1 180 11:49 21.11.2020
5299 Clear 17 1021 59 7000 3.1 160 10:28 21.11.2020
5300 Mist 11 1021 87 3000 2.1 160 08:52 21.11.2020
5301 Mist 11 1021 87 3000 2.1 160 08:52 21.11.2020
5302 Mist 11 1021 87 3000 2.1 160 08:34 21.11.2020
5303 Clear 11 1021 81 10000 1 300 05:42 21.11.2020
5304 Clear 16 1020 71 10000 1 240 03:28 21.11.2020
5305 Clear 16 1021 71 10000 3.1 200 00:22 21.11.2020
5306 Clear 17 1022 67 10000 3.1 170 22:59 20.11.2020
5307 Clear 17 1022 72 10000 2.1 140 21:45 20.11.2020
5308 Clouds 17 1021 77 6000 2.1 160 21:21 20.11.2020
5309 Clouds 17 1021 77 6000 2.1 160 21:21 20.11.2020
5310 Clouds 19 1020 72 6000 2.1 20 19:55 20.11.2020
5311 Clouds 20 1020 72 6000 3.6 40 18:55 20.11.2020
5312 Clouds 21 1020 72 6000 3.6 40 18:27 20.11.2020
5313 Clouds 22 1020 64 6000 3.6 20 17:30 20.11.2020
5314 Clouds 24 1019 49 6000 5.1 20 16:47 20.11.2020
5315 Clouds 26 1019 41 6000 3.6 300 15:59 20.11.2020
5316 Clouds 26 1019 41 6000 3.6 300 15:39 20.11.2020
5317 Clouds 24 1021 53 6000 4.1 20 13:54 20.11.2020
5318 Clouds 24 1021 53 6000 4.1 20 13:19 20.11.2020
5319 Clouds 23 1022 43 8000 2.6 40 12:41 20.11.2020
5320 Clouds 23 1022 43 8000 2.6 180 11:50 20.11.2020
5321 Clouds 21 1022 43 8000 2.6 180 11:21 20.11.2020
5322 Clouds 14 1021 67 6000 2.6 140 09:46 20.11.2020
5323 Clouds 13 1021 72 5000 2.1 160 08:28 20.11.2020
5324 Clouds 13 1021 87 5000 2.6 200 07:35 20.11.2020
5325 Clouds 16 1021 100 10000 2.6 170 03:45 20.11.2020
5326 Clear 17 1022 93 10000 1.5 220 23:31 19.11.2020
5327 Clear 17 1022 82 10000 1 360 22:27 19.11.2020
5328 Clear 17 1022 82 10000 1 350 21:49 19.11.2020
5329 Clear 18 1021 72 10000 2.1 340 20:42 19.11.2020
5330 Clear 18 1021 72 10000 2.1 340 20:42 19.11.2020
5331 Clear 18 1021 72 10000 2.1 340 20:19 19.11.2020
5332 Clear 20 1020 68 10000 2.1 340 19:25 19.11.2020
5333 Clear 21 1020 46 10000 1 40 18:35 19.11.2020
5334 Clear 22 1020 60 10000 3.1 20 17:18 19.11.2020
5335 Clear 23 1020 49 10000 4.1 40 16:25 19.11.2020
5336 Clear 25 1020 53 10000 4.1 40 15:28 19.11.2020
5337 Clear 24 1021 68 10000 4.1 320 13:47 19.11.2020
5338 Clear 23 1021 68 10000 4.1 320 13:27 19.11.2020
5339 Clear 24 1021 56 10000 1 160 12:51 19.11.2020
5340 Clear 23 1021 56 10000 1 160 12:25 19.11.2020
5341 Clear 21 1021 68 10000 1 160 11:40 19.11.2020
5342 Clear 21 1021 68 10000 1 160 11:40 19.11.2020
5343 Clear 21 1021 68 10000 1 160 11:20 19.11.2020
5344 Clear 18 1021 59 10000 2.1 140 10:29 19.11.2020
5345 Clear 13 1021 82 10000 1 140 09:45 19.11.2020
5346 Clear 13 1021 82 10000 1 140 09:26 19.11.2020
5347 Clear 11 1020 81 10000 1 160 08:20 19.11.2020
5348 Clear 11 1020 76 10000 2.1 170 06:54 19.11.2020
5349 Clear 17 1021 87 10000 0.5 0 01:46 19.11.2020
5350 Clear 18 1022 68 10000 2.1 50 00:31 19.11.2020
5351 Clear 19 1022 68 10000 2.1 50 23:31 18.11.2020
5352 Clear 19 1022 63 10000 2.6 60 22:57 18.11.2020
5353 Clear 19 1022 60 10000 4.1 40 22:27 18.11.2020
5354 Clear 20 1021 60 10000 4.1 30 21:41 18.11.2020
5355 Clear 21 1021 68 10000 4.1 60 21:21 18.11.2020
5356 Clear 22 1021 53 10000 4.1 60 19:54 18.11.2020
5357 Clear 22 1021 53 10000 4.1 60 19:35 18.11.2020
5358 Clear 23 1020 46 10000 4.1 40 18:57 18.11.2020
5359 Clear 23 1020 46 10000 4.1 40 18:57 18.11.2020
5360 Clear 24 1020 46 10000 4.1 40 18:38 18.11.2020
5361 Clear 25 1020 47 10000 4.1 40 17:37 18.11.2020
5362 Clear 26 1021 44 10000 5.1 40 16:25 18.11.2020
5363 Clear 27 1021 34 10000 4.1 20 15:57 18.11.2020
5364 Clear 28 1021 30 10000 3.1 40 14:41 18.11.2020
5365 Clear 29 1022 26 10000 5.1 20 13:45 18.11.2020
5366 Clear 28 1022 26 10000 5.1 20 13:20 18.11.2020
5367 Clear 27 1023 26 10000 2.1 60 12:42 18.11.2020
5368 Clear 24 1023 33 10000 2.1 100 11:41 18.11.2020
5369 Clear 21 1023 40 10000 2.1 180 10:36 18.11.2020
5370 Clear 20 1023 40 10000 2.1 180 10:18 18.11.2020
5371 Clear 13 1022 66 8000 2.1 180 07:58 18.11.2020
5372 Clear 14 1023 44 10000 1.5 120 06:35 18.11.2020
5373 Clear 19 1025 58 10000 2.1 160 00:33 18.11.2020
5374 Clear 20 1025 55 10000 1.5 110 23:47 17.11.2020
5375 Clear 20 1025 49 10000 2.6 70 22:53 17.11.2020
5376 Clear 21 1025 46 10000 2.6 60 22:29 17.11.2020
5377 Clear 21 1024 43 10000 2.6 60 21:50 17.11.2020
5378 Clear 22 1023 49 10000 3.1 40 21:30 17.11.2020
5379 Clear 22 1023 49 10000 3.1 40 20:50 17.11.2020
5380 Clear 22 1023 49 10000 3.1 40 20:26 17.11.2020
5381 Clear 22 1023 49 10000 3.1 60 19:54 17.11.2020
5382 Clear 24 1023 40 10000 4.1 60 18:30 17.11.2020
5383 Clear 26 1023 38 10000 3.1 40 17:44 17.11.2020
5384 Clear 26 1023 36 10000 4.1 40 16:54 17.11.2020
5385 Clear 26 1023 36 10000 4.1 40 16:20 17.11.2020
5386 Clear 27 1023 36 10000 5.1 360 15:40 17.11.2020
5387 Clear 27 1023 36 10000 5.1 360 15:22 17.11.2020
5388 Clear 28 1024 30 10000 3.1 40 14:54 17.11.2020
5389 Clear 28 1024 30 10000 3.1 40 14:22 17.11.2020
5390 Clear 28 1024 30 10000 4.1 20 13:35 17.11.2020
5391 Clear 28 1025 23 10000 2.1 360 12:48 17.11.2020
5392 Clear 28 1025 23 10000 2.1 360 12:23 17.11.2020
5393 Clear 25 1025 27 10000 3.1 180 11:41 17.11.2020
5394 Clear 22 1025 37 10000 1 160 10:45 17.11.2020
5395 Clear 21 1025 37 10000 1 160 10:23 17.11.2020
5396 Clear 17 1024 48 10000 1 180 09:48 17.11.2020
5397 Clear 16 1024 48 10000 1 180 09:20 17.11.2020
5398 Clear 15 1024 44 10000 3.1 160 08:21 17.11.2020
5399 Clear 16 1023 42 10000 2.1 180 07:43 17.11.2020
5400 Clear 17 1024 50 10000 2.1 120 05:18 17.11.2020
5401 Clear 17 1024 58 10000 2.6 130 03:29 17.11.2020
5402 Clear 18 1025 54 10000 1.5 140 02:29 17.11.2020
5403 Clear 18 1025 51 10000 2.1 140 00:57 17.11.2020
5404 Clear 19 1025 51 7000 1.5 130 23:57 16.11.2020
5405 Clear 19 1026 51 8000 2.1 130 23:37 16.11.2020
5406 Clear 19 1026 51 8000 2.1 130 23:19 16.11.2020
5407 Clear 19 1025 51 10000 1.5 140 22:26 16.11.2020
5408 Clear 19 1025 48 10000 1.5 130 21:58 16.11.2020
5409 Clear 20 1024 49 10000 2.09 98 21:39 16.11.2020
5410 Clear 20 1024 49 10000 2.07 73 21:20 16.11.2020
5411 Clear 21 1024 49 10000 2.24 48 20:26 16.11.2020
5412 Clear 22 1023 46 10000 1 100 19:55 16.11.2020
5413 Clear 22 1023 46 10000 1 100 19:29 16.11.2020
5414 Clear 24 1023 38 10000 3.1 20 18:51 16.11.2020
5415 Clear 25 1023 38 10000 3.1 20 18:19 16.11.2020
5416 Clear 27 1023 26 10000 3.6 360 17:36 16.11.2020
5417 Clear 27 1023 26 10000 3.6 360 17:18 16.11.2020
5418 Clear 27 1023 32 10000 2.1 340 16:49 16.11.2020
5419 Clear 28 1023 32 10000 2.1 340 16:24 16.11.2020
5420 Clear 28 1023 34 10000 6.2 340 15:44 16.11.2020
5421 Clear 28 1023 34 10000 6.2 340 15:26 16.11.2020
5422 Clear 30 1023 26 10000 5.1 320 14:48 16.11.2020
5423 Clear 31 1023 20 10000 2.1 260 13:46 16.11.2020
5424 Clear 29 1024 26 10000 4.1 200 12:59 16.11.2020
5425 Clear 29 1024 26 10000 4.1 200 12:29 16.11.2020
5426 Clouds 25 1024 36 6000 3.6 200 11:40 16.11.2020
5427 Clouds 25 1024 36 6000 3.6 200 11:21 16.11.2020
5428 Clouds 23 1024 43 6000 2.1 160 10:44 16.11.2020
5429 Clouds 22 1024 43 6000 2.1 160 10:25 16.11.2020
5430 Clouds 19 1023 48 10000 3.1 180 09:49 16.11.2020
5431 Clear 18 1023 48 10000 3.1 180 09:23 16.11.2020
5432 Clear 16 1023 48 10000 1 160 08:41 16.11.2020
5433 Clear 14 1024 67 10000 2.6 160 07:48 16.11.2020
5434 Clear 14 1024 67 10000 2.1 150 06:53 16.11.2020
5435 Clear 14 1024 67 10000 1.5 140 06:29 16.11.2020
5436 Clear 20 1023 62 10000 1.5 200 04:48 16.11.2020
5437 Clear 21 1023 63 10000 2.1 170 03:45 16.11.2020
5438 Clear 21 1024 63 10000 3.1 210 01:44 16.11.2020
5439 Clear 22 1024 55 10000 2.1 180 23:58 15.11.2020
5440 Clear 22 1024 55 10000 1.5 170 23:28 15.11.2020
5441 Clear 22 1024 52 10000 1.5 150 22:51 15.11.2020
5442 Clear 23 1024 49 10000 1 170 22:22 15.11.2020
5443 Clear 23 1024 49 10000 3.1 150 21:47 15.11.2020
5444 Clouds 24 1021 50 10000 3.1 320 21:25 15.11.2020
5445 Clouds 24 1021 50 10000 3.1 320 20:44 15.11.2020
5446 Clouds 24 1021 50 10000 3.1 320 20:22 15.11.2020
5447 Clouds 25 1021 47 10000 3.1 320 19:48 15.11.2020
5448 Clouds 25 1021 47 10000 3.1 320 19:22 15.11.2020
5449 Clouds 27 1020 39 10000 3.1 300 18:58 15.11.2020
5450 Clouds 27 1020 39 10000 3.1 300 18:40 15.11.2020
5451 Clouds 28 1020 39 10000 3.1 300 18:20 15.11.2020
5452 Clouds 30 1020 32 10000 3.1 300 17:46 15.11.2020
5453 Clouds 30 1020 32 10000 3.1 300 17:24 15.11.2020
5454 Clouds 30 1020 32 10000 4.1 300 16:50 15.11.2020
5455 Clouds 31 1020 32 10000 4.1 300 16:21 15.11.2020
5456 Clouds 32 1019 29 10000 6.2 300 15:56 15.11.2020
5457 Clouds 31 1019 29 10000 6.2 300 15:29 15.11.2020
5458 Clouds 32 1020 25 10000 2.1 200 14:59 15.11.2020
5459 Clouds 32 1020 25 10000 2.1 200 14:31 15.11.2020
5460 Clear 32 1020 25 10000 5.1 240 13:57 15.11.2020
5461 Clear 32 1020 25 10000 5.1 240 13:37 15.11.2020
5462 Clear 30 1021 30 10000 5.1 180 12:52 15.11.2020
5463 Clear 30 1021 30 10000 5.1 180 12:25 15.11.2020
5464 Clear 28 1021 39 10000 4.1 200 11:47 15.11.2020
5465 Clear 27 1021 39 10000 4.1 200 11:21 15.11.2020
5466 Clear 25 1021 49 10000 9.3 180 10:59 15.11.2020
5467 Clear 24 1021 49 10000 9.3 180 10:41 15.11.2020
5468 Clear 23 1021 49 10000 9.3 180 10:23 15.11.2020
5469 Clear 20 1020 60 10000 3.1 160 09:41 15.11.2020
5470 Clear 20 1020 60 10000 3.1 160 09:19 15.11.2020
5471 Clear 19 1020 56 10000 3.1 160 08:51 15.11.2020
5472 Clear 19 1020 56 10000 3.1 160 08:22 15.11.2020
5473 Clouds 18 1019 59 10000 2.1 160 07:38 15.11.2020
5474 Clear 18 1020 72 10000 2.6 90 04:58 15.11.2020
5475 Clear 19 1021 72 10000 3.1 180 02:55 15.11.2020
5476 Clear 19 1021 72 10000 2.1 90 00:48 15.11.2020
5477 Clear 18 1021 77 10000 2.1 90 00:26 15.11.2020
5478 Clear 18 1021 77 10000 2.1 90 00:26 15.11.2020
5479 Clear 19 1021 72 10000 2.1 80 23:36 14.11.2020
5480 Clear 19 1021 72 10000 2.1 70 22:50 14.11.2020
5481 Clear 19 1021 77 10000 2.1 150 22:29 14.11.2020
5482 Clear 20 1021 72 10000 2.6 80 21:42 14.11.2020
5483 Clear 21 1020 60 10000 2.6 60 21:22 14.11.2020
5484 Clear 21 1020 60 10000 2.6 60 20:50 14.11.2020
5485 Clear 21 1020 60 10000 2.6 60 20:27 14.11.2020
5486 Clear 22 1020 60 10000 2.6 40 19:51 14.11.2020
5487 Clear 22 1020 60 10000 2.6 40 19:30 14.11.2020
5488 Clear 23 1019 56 10000 2.6 60 18:43 14.11.2020
5489 Clear 23 1019 56 10000 2.6 60 18:24 14.11.2020
5490 Clear 23 1019 56 10000 2.6 60 18:24 14.11.2020
5491 Clouds 25 1019 53 10000 3.1 40 17:50 14.11.2020
5492 Clouds 25 1019 53 10000 3.1 40 17:31 14.11.2020
5493 Clouds 25 1020 56 10000 3.1 20 16:57 14.11.2020
5494 Clouds 25 1020 56 10000 3.1 20 16:36 14.11.2020
5495 Clouds 25 1020 56 10000 3.1 20 16:18 14.11.2020
5496 Clouds 25 1020 60 10000 3.1 40 15:50 14.11.2020
5497 Clouds 25 1020 60 10000 3.1 40 15:21 14.11.2020
5498 Clouds 25 1020 60 10000 4.1 20 14:38 14.11.2020
5499 Clouds 25 1020 60 10000 4.1 20 14:20 14.11.2020
5500 Clouds 26 1020 44 10000 3.1 200 13:40 14.11.2020
5501 Clouds 26 1020 44 10000 3.1 200 13:22 14.11.2020
5502 Clouds 24 1021 56 10000 2.6 160 12:45 14.11.2020
5503 Clouds 24 1021 56 10000 2.6 160 12:27 14.11.2020
5504 Clouds 20 1021 60 10000 2.6 160 11:41 14.11.2020
5505 Clouds 20 1021 60 10000 2.6 160 11:22 14.11.2020
5506 Clouds 19 1021 77 10000 1.5 140 10:42 14.11.2020
5507 Clouds 19 1021 77 10000 1.5 140 10:23 14.11.2020
5508 Clear 16 1020 87 10000 1.5 140 09:46 14.11.2020
5509 Clear 15 1020 87 10000 1.5 140 09:28 14.11.2020
5510 Clear 15 1020 87 10000 1.5 160 08:49 14.11.2020
5511 Clear 15 1020 87 10000 1.5 160 08:26 14.11.2020
5512 Clouds 13 1020 100 10000 1.5 130 07:43 14.11.2020
5513 Clouds 14 1020 100 10000 2.6 120 07:22 14.11.2020
5514 Clouds 14 1044 100 10000 1.5 160 06:30 14.11.2020
5515 Clouds 14 1020 100 8000 1.5 140 05:27 14.11.2020
5516 Clouds 15 1020 100 8000 1.5 140 03:52 14.11.2020
5517 Clouds 16 1021 100 10000 1.5 160 00:54 14.11.2020
5518 Clouds 16 1021 100 10000 1.5 160 23:43 13.11.2020
5519 Clouds 17 1022 100 10000 1 150 23:22 13.11.2020
5520 Clouds 17 1021 100 10000 1.53 257 22:42 13.11.2020
5521 Clouds 17 1021 100 10000 2.03 269 22:23 13.11.2020
5522 Clouds 18 1022 100 10000 0.5 0 21:51 13.11.2020
5523 Clouds 19 1020 77 10000 2.1 220 21:29 13.11.2020
5524 Clouds 19 1020 77 10000 2.1 220 20:56 13.11.2020
5525 Clouds 19 1020 77 10000 2.1 220 20:37 13.11.2020
5526 Clouds 19 1020 77 10000 2.1 220 20:19 13.11.2020
5527 Clouds 19 1020 82 10000 3.1 300 19:45 13.11.2020
5528 Clouds 19 1020 82 10000 3.1 300 19:22 13.11.2020
5529 Clouds 19 1019 77 10000 3.1 280 18:53 13.11.2020
5530 Clouds 20 1019 68 10000 6.2 300 17:59 13.11.2020
5531 Clouds 22 1019 68 10000 6.2 300 17:39 13.11.2020
5532 Clouds 22 1019 68 10000 6.2 300 17:18 13.11.2020
5533 Clouds 22 1019 73 10000 4.1 300 16:46 13.11.2020
5534 Clouds 22 1019 73 10000 4.1 300 16:21 13.11.2020
5535 Clear 22 1018 60 10000 4.1 300 15:41 13.11.2020
5536 Clear 22 1018 60 10000 4.1 300 15:23 13.11.2020
5537 Clear 22 1019 60 10000 4.1 300 14:40 13.11.2020
5538 Clear 22 1019 60 10000 4.1 300 14:19 13.11.2020
5539 Clear 22 1020 60 10000 4.1 300 13:40 13.11.2020
5540 Clear 22 1020 60 10000 4.1 300 13:21 13.11.2020
5541 Clear 22 1020 60 10000 4.1 300 13:21 13.11.2020
5542 Clear 23 1020 60 10000 4.1 260 12:45 13.11.2020
5543 Clear 22 1020 60 10000 4.1 260 12:24 13.11.2020
5544 Clear 21 1020 72 10000 5.1 260 11:48 13.11.2020
5545 Clear 21 1020 72 10000 5.1 260 11:24 13.11.2020
5546 Clear 20 1020 72 10000 4.1 260 10:54 13.11.2020
5547 Clear 20 1020 72 10000 4.1 260 10:34 13.11.2020
5548 Clear 19 1019 68 10000 3.1 240 09:56 13.11.2020
5549 Clear 18 1019 68 10000 3.1 240 09:32 13.11.2020
5550 Clouds 17 1019 67 8000 1 200 08:57 13.11.2020
5551 Clouds 17 1019 67 8000 1 200 08:33 13.11.2020
5552 Clouds 18 1018 63 8000 2.1 200 07:55 13.11.2020
5553 Clear 19 1019 77 10000 1.5 230 07:37 13.11.2020
5554 Clear 19 1019 77 10000 1.5 230 07:18 13.11.2020
5555 Clear 19 1018 72 10000 1.5 240 06:41 13.11.2020
5556 Clear 19 1018 72 10000 1 230 05:42 13.11.2020
5557 Clear 20 1019 68 10000 2.6 190 04:39 13.11.2020
5558 Clear 20 1019 56 10000 3.1 220 01:43 13.11.2020
5559 Clear 20 1019 56 10000 2.6 220 00:37 13.11.2020
5560 Clear 19 1019 55 10000 2.6 190 23:59 12.11.2020
5561 Clear 19 1019 55 10000 2.6 180 23:37 12.11.2020
5562 Clear 19 1019 55 10000 2.6 180 23:18 12.11.2020
5563 Clear 18 1019 59 10000 1.5 170 22:42 12.11.2020
5564 Clear 18 1019 59 10000 2.1 160 22:22 12.11.2020
5565 Clear 18 1019 55 10000 1.5 170 21:42 12.11.2020
5566 Clear 18 1017 55 10000 2.18 247 21:24 12.11.2020
5567 Clear 18 1017 55 10000 2.18 247 20:57 12.11.2020
5568 Clear 18 1017 55 10000 2.18 247 20:38 12.11.2020
5569 Clear 18 1017 55 10000 1.09 273 20:18 12.11.2020
5570 Clear 19 1017 49 10000 1 360 19:42 12.11.2020
5571 Clear 19 1017 49 10000 1 360 19:24 12.11.2020
5572 Clear 22 1016 43 10000 2.6 320 18:48 12.11.2020
5573 Clear 23 1016 43 10000 2.6 320 18:23 12.11.2020
5574 Clear 24 1016 38 10000 3.1 300 17:45 12.11.2020
5575 Clear 24 1016 38 10000 3.1 300 17:26 12.11.2020
5576 Clear 25 1015 38 10000 2.1 340 16:46 12.11.2020
5577 Clear 25 1015 38 10000 2.1 340 16:25 12.11.2020
5578 Clear 26 1015 44 10000 2.6 40 15:56 12.11.2020
5579 Clear 27 1015 44 10000 2.6 40 15:32 12.11.2020
5580 Clear 25 1016 40 10000 1 320 14:59 12.11.2020
5581 Clear 25 1016 40 10000 1 320 14:41 12.11.2020
5582 Clear 25 1016 40 10000 1 320 14:21 12.11.2020
5583 Clear 25 1016 43 10000 2.1 320 13:46 12.11.2020
5584 Clear 24 1016 43 10000 2.1 320 13:21 12.11.2020
5585 Clear 24 1017 40 10000 3.1 320 12:50 12.11.2020
5586 Clear 24 1017 40 10000 3.1 320 12:28 12.11.2020
5587 Clouds 22 1018 52 8000 2.6 260 11:59 12.11.2020
5588 Clouds 22 1018 52 8000 2.6 260 11:40 12.11.2020
5589 Clouds 22 1018 52 8000 2.6 260 11:22 12.11.2020
5590 Clouds 17 1017 77 8000 1.5 160 10:41 12.11.2020
5591 Clouds 17 1017 77 8000 1.5 160 10:22 12.11.2020
5592 Clouds 15 1017 77 10000 2.1 40 09:40 12.11.2020
5593 Clouds 15 1017 77 10000 2.1 40 09:20 12.11.2020
5594 Clouds 14 1017 82 10000 1 180 08:41 12.11.2020
5595 Clouds 14 1017 82 10000 1 180 08:21 12.11.2020
5596 Clouds 14 1016 82 10000 1.5 80 07:59 12.11.2020
5597 Clear 14 1017 87 10000 1.5 120 07:39 12.11.2020
5598 Clouds 13 1017 87 10000 0.5 0 06:58 12.11.2020
5599 Clear 14 1017 87 10000 1 0 06:40 12.11.2020
5600 Clear 13 1017 93 10000 2.1 190 04:38 12.11.2020
5601 Clear 13 1018 93 10000 2.1 130 03:20 12.11.2020
5602 Clear 14 1019 100 10000 2.1 110 00:54 12.11.2020
5603 Clouds 14 1020 100 8000 1 0 23:47 11.11.2020
5604 Clouds 14 1020 100 8000 1.5 120 23:25 11.11.2020
5605 Clouds 13 1020 100 8000 1 0 22:57 11.11.2020
5606 Clear 14 1019 100 10000 2.6 130 22:38 11.11.2020
5607 Clear 14 1019 100 10000 2.6 130 22:18 11.11.2020
5608 Clear 16 1019 93 10000 2.1 340 21:41 11.11.2020
5609 Clear 17 1018 82 10000 2.1 20 21:23 11.11.2020
5610 Clear 17 1018 82 10000 2.1 20 20:55 11.11.2020
5611 Clear 17 1018 82 10000 2.1 20 20:37 11.11.2020
5612 Clear 17 1018 82 10000 2.1 20 20:18 11.11.2020
5613 Clear 17 1018 82 10000 2.1 20 19:46 11.11.2020
5614 Clear 17 1018 82 10000 2.1 20 19:28 11.11.2020
5615 Clear 19 1018 72 10000 2.1 320 18:48 11.11.2020
5616 Clear 19 1018 72 10000 2.1 320 18:28 11.11.2020
5617 Clear 21 1018 68 10000 3.1 360 17:41 11.11.2020
5618 Clear 21 1018 68 10000 3.1 360 17:22 11.11.2020
5619 Clear 22 1017 60 10000 5.1 20 16:49 11.11.2020
5620 Clear 22 1017 60 10000 5.1 20 16:31 11.11.2020
5621 Clear 22 1017 64 10000 4.1 340 15:48 11.11.2020
5622 Clear 22 1017 64 10000 4.1 340 15:26 11.11.2020
5623 Clear 23 1018 60 10000 4.1 340 14:55 11.11.2020
5624 Clear 23 1018 60 10000 4.1 20 14:35 11.11.2020
5625 Clear 22 1018 60 10000 4.1 20 13:56 11.11.2020
5626 Clear 22 1018 60 10000 4.1 20 13:33 11.11.2020
5627 Clear 21 1019 64 10000 3.1 360 12:44 11.11.2020
5628 Clear 21 1019 64 10000 3.1 360 12:20 11.11.2020
5629 Clear 19 1019 63 10000 2.1 20 11:49 11.11.2020
5630 Clear 19 1019 63 10000 2.1 20 11:30 11.11.2020
5631 Clear 15 1019 72 10000 2.1 120 10:42 11.11.2020
5632 Clear 15 1019 72 10000 2.1 120 10:24 11.11.2020
5633 Clear 13 1019 87 10000 2.1 140 09:48 11.11.2020
5634 Clear 12 1019 87 10000 2.1 140 09:28 11.11.2020
5635 Clear 10 1018 93 10000 2.1 180 08:46 11.11.2020
5636 Clear 11 1018 93 10000 2.1 180 08:28 11.11.2020
5637 Clear 11 1018 87 10000 2.1 180 07:52 11.11.2020
5638 Clear 11 1018 87 10000 2.1 180 07:32 11.11.2020
5639 Clear 10 1019 100 8000 2.1 140 06:28 11.11.2020
5640 Clear 11 1020 100 8000 1.5 130 04:32 11.11.2020
5641 Clear 14 1021 100 8000 3.1 50 01:32 11.11.2020
5642 Clear 14 1021 100 7000 3.1 30 00:36 11.11.2020
5643 Clear 15 1022 100 9000 3.1 30 23:55 10.11.2020
5644 Clear 15 1022 100 7000 3.1 20 23:24 10.11.2020
5645 Clear 15 1022 100 8000 2.1 40 22:57 10.11.2020
5646 Clear 15 1022 100 10000 2.6 40 22:28 10.11.2020
5647 Clear 16 1022 100 10000 3.1 40 21:56 10.11.2020
5648 Clear 17 1021 82 10000 5.1 40 21:38 10.11.2020
5649 Clear 17 1021 82 10000 5.1 40 21:18 10.11.2020
5650 Clear 17 1021 82 10000 5.1 40 20:42 10.11.2020
5651 Clear 17 1021 82 10000 5.1 40 20:23 10.11.2020
5652 Clear 17 1021 82 10000 5.7 40 19:53 10.11.2020
5653 Clear 18 1021 82 10000 5.7 40 19:35 10.11.2020
5654 Clouds 18 1021 88 10000 6.2 40 18:59 10.11.2020
5655 Clouds 18 1021 88 10000 6.2 40 18:41 10.11.2020
5656 Clouds 18 1021 88 10000 6.2 40 18:20 10.11.2020
5657 Clouds 20 1021 72 10000 7.7 20 17:44 10.11.2020
5658 Clouds 20 1021 72 10000 7.7 20 17:26 10.11.2020
5659 Clouds 21 1021 68 10000 6.2 20 16:57 10.11.2020
5660 Clouds 21 1021 68 10000 6.2 20 16:38 10.11.2020
5661 Clouds 21 1021 68 10000 6.2 20 16:19 10.11.2020
5662 Clear 22 1021 56 10000 7.2 40 15:45 10.11.2020
5663 Clear 22 1021 56 10000 7.2 40 15:24 10.11.2020
5664 Clear 21 1022 60 10000 4.1 60 14:42 10.11.2020
5665 Clear 21 1022 60 10000 4.1 60 14:22 10.11.2020
5666 Clouds 21 1023 60 10000 7.7 40 13:57 10.11.2020
5667 Clouds 21 1023 60 10000 7.7 40 13:36 10.11.2020
5668 Clouds 21 1023 60 10000 7.7 40 13:18 10.11.2020
5669 Clouds 20 1023 68 10000 5.7 40 12:44 10.11.2020
5670 Clouds 20 1023 68 10000 5.7 40 12:44 10.11.2020
5671 Clouds 20 1023 68 10000 5.7 40 12:24 10.11.2020
5672 Clouds 19 1024 72 10000 4.1 60 11:39 10.11.2020
5673 Clouds 19 1024 72 10000 4.1 60 11:20 10.11.2020
5674 Clouds 18 1024 77 10000 4.6 80 10:45 10.11.2020
5675 Clouds 17 1024 77 10000 4.6 80 10:27 10.11.2020
5676 Clouds 16 1024 82 8000 3.1 120 09:51 10.11.2020
5677 Clouds 16 1024 82 8000 3.1 120 09:51 10.11.2020
5678 Clouds 15 1024 82 8000 3.1 120 09:29 10.11.2020
5679 Clear 15 1023 87 10000 2.6 80 08:59 10.11.2020
5680 Clear 15 1023 87 10000 2.6 80 08:40 10.11.2020
5681 Clear 15 1023 87 10000 2.6 80 08:22 10.11.2020
5682 Clouds 14 1023 87 10000 1 60 07:39 10.11.2020
5683 Clouds 14 1023 87 10000 1 60 07:19 10.11.2020
5684 Clouds 14 1023 100 10000 3.1 70 06:38 10.11.2020
5685 Clouds 15 1023 100 10000 3.6 60 05:33 10.11.2020
5686 Clouds 14 1023 100 6000 2.6 40 03:36 10.11.2020
5687 Mist 15 1024 100 4000 2.6 20 01:41 10.11.2020
5688 Fog 15 1024 100 600 2.1 70 00:52 10.11.2020
5689 Clouds 16 1024 100 10000 2.6 60 23:47 09.11.2020
5690 Clouds 16 1024 100 10000 3.1 50 23:23 09.11.2020
5691 Clouds 16 1024 100 8000 2.6 30 22:42 09.11.2020
5692 Clouds 16 1024 100 8000 2.6 30 22:22 09.11.2020
5693 Clouds 16 1024 100 6000 2.6 20 21:44 09.11.2020
5694 Clouds 17 1023 88 10000 3.1 20 21:26 09.11.2020
5695 Clouds 17 1023 88 10000 3.1 20 20:42 09.11.2020
5696 Clouds 17 1023 88 10000 3.1 20 20:22 09.11.2020
5697 Clouds 17 1023 88 10000 4.1 20 19:49 09.11.2020
5698 Clouds 17 1023 88 10000 4.1 20 19:49 09.11.2020
5699 Clouds 18 1023 88 10000 4.1 20 19:24 09.11.2020
5700 Clouds 19 1022 82 10000 5.1 20 18:58 09.11.2020
5701 Clouds 19 1022 82 10000 5.1 20 18:39 09.11.2020
5702 Clouds 19 1022 82 10000 5.1 20 18:19 09.11.2020
5703 Clouds 21 1022 68 10000 5.1 360 17:44 09.11.2020
5704 Clouds 21 1022 68 10000 5.1 360 17:25 09.11.2020
5705 Clouds 21 1022 73 10000 6.2 360 16:44 09.11.2020
5706 Clouds 21 1022 73 10000 6.2 360 16:23 09.11.2020
5707 Clouds 21 1022 68 10000 6.2 340 15:47 09.11.2020
5708 Clouds 21 1022 68 10000 6.2 340 15:28 09.11.2020
5709 Clouds 22 1022 64 10000 6.2 360 14:51 09.11.2020
5710 Clouds 22 1022 64 10000 6.2 360 14:29 09.11.2020
5711 Clouds 22 1023 68 10000 5.1 340 13:57 09.11.2020
5712 Clouds 22 1023 68 10000 5.1 340 13:37 09.11.2020
5713 Clouds 22 1023 68 10000 5.1 340 13:18 09.11.2020
5714 Clear 21 1024 68 10000 4.1 320 12:41 09.11.2020
5715 Clear 21 1024 68 10000 4.1 320 12:21 09.11.2020
5716 Clear 20 1024 72 10000 2.1 200 11:43 09.11.2020
5717 Clear 20 1024 72 10000 2.1 200 11:24 09.11.2020
5718 Clear 18 1024 82 6000 2.1 160 10:57 09.11.2020
5719 Clear 17 1024 82 6000 2.1 160 10:39 09.11.2020
5720 Clear 17 1024 82 6000 2.1 160 10:21 09.11.2020
5721 Mist 14 1023 93 4000 3.1 180 09:30 09.11.2020
5722 Mist 11 1023 93 4000 1 140 08:50 09.11.2020
5723 Mist 11 1023 93 4000 1 140 08:27 09.11.2020
5724 Mist 12 1022 93 4000 1 141 07:55 09.11.2020
5725 Clear 11 1023 100 10000 0.5 150 07:23 09.11.2020
5726 Clear 12 1023 100 10000 0.5 0 06:52 09.11.2020
5727 Clear 15 1022 100 10000 1.5 150 04:30 09.11.2020
5728 Clear 15 1022 100 7000 1 140 01:57 09.11.2020
5729 Clear 15 1023 100 7000 2.1 130 01:39 09.11.2020
5730 Clouds 16 1023 100 8000 1.5 110 00:55 09.11.2020
5731 Clouds 16 1023 100 8000 1 70 23:46 08.11.2020
5732 Clouds 16 1023 100 8000 2.1 130 23:24 08.11.2020
5733 Clear 16 1023 100 10000 1 0 22:43 08.11.2020
5734 Clear 16 1023 100 10000 1.5 50 22:21 08.11.2020
5735 Clear 16 1023 100 10000 1 60 21:47 08.11.2020
5736 Clear 18 1022 82 10000 2.1 360 21:22 08.11.2020
5737 Clear 18 1022 82 10000 2.1 360 20:57 08.11.2020
5738 Clear 18 1022 82 10000 2.1 360 20:38 08.11.2020
5739 Clear 18 1022 82 10000 2.1 360 20:19 08.11.2020
5740 Clear 19 1021 77 10000 2.1 340 19:45 08.11.2020
5741 Clear 19 1021 72 10000 4.6 340 19:22 08.11.2020
5742 Clear 20 1021 72 10000 4.6 340 18:56 08.11.2020
5743 Clear 20 1021 72 10000 4.6 340 18:38 08.11.2020
5744 Clear 20 1021 72 10000 4.6 340 18:20 08.11.2020
5745 Clouds 20 1021 72 10000 5.1 360 17:42 08.11.2020
5746 Clouds 20 1021 72 10000 5.1 360 17:20 08.11.2020
5747 Clear 21 1021 64 10000 6.7 320 16:57 08.11.2020
5748 Clear 21 1021 64 10000 6.7 320 16:57 08.11.2020
5749 Clear 21 1021 64 10000 6.7 320 16:38 08.11.2020
5750 Clear 21 1021 64 10000 6.7 320 16:19 08.11.2020
5751 Clear 21 1021 64 10000 5.1 320 15:45 08.11.2020
5752 Clear 22 1021 64 10000 5.1 320 15:26 08.11.2020
5753 Clear 22 1021 53 10000 5.1 320 14:43 08.11.2020
5754 Clear 22 1021 53 10000 5.1 320 14:23 08.11.2020
5755 Clear 22 1022 53 10000 3.1 340 13:56 08.11.2020
5756 Clear 22 1022 53 10000 3.1 340 13:25 08.11.2020
5757 Clear 22 1023 56 10000 3.1 340 12:55 08.11.2020
5758 Clear 22 1023 56 10000 3.1 340 12:37 08.11.2020
5759 Clear 21 1023 56 10000 3.1 340 12:18 08.11.2020
5760 Clear 20 1023 64 8000 1.5 360 11:41 08.11.2020
5761 Clear 20 1023 64 8000 1.5 360 11:22 08.11.2020
5762 Clear 18 1023 77 6000 1 180 10:53 08.11.2020
5763 Clear 17 1023 77 6000 1 180 10:21 08.11.2020
5764 Clear 15 1022 93 6000 0.5 160 09:59 08.11.2020
5765 Clear 14 1022 93 6000 0.5 160 09:41 08.11.2020
5766 Clear 14 1022 93 6000 0.5 160 09:18 08.11.2020
5767 Clear 11 1022 87 8000 1 160 08:42 08.11.2020
5768 Clear 11 1022 87 8000 1 160 08:22 08.11.2020
5769 Clear 12 1021 87 10000 1 160 07:53 08.11.2020
5770 Clear 12 1021 87 10000 1 160 07:31 08.11.2020
5771 Clear 12 1022 100 10000 1.5 210 06:27 08.11.2020
5772 Clear 12 1022 100 10000 1 150 05:54 08.11.2020
5773 Clear 15 1022 100 10000 0.5 260 04:50 08.11.2020
5774 Clear 15 1022 100 10000 1 0 02:20 08.11.2020
5775 Clear 15 1022 100 10000 1 0 01:19 08.11.2020
5776 Clear 15 1022 100 10000 1 0 01:19 08.11.2020
5777 Clear 15 1022 100 10000 1 0 01:19 08.11.2020
5778 Clear 16 1023 100 10000 1 0 00:30 08.11.2020
5779 Clear 17 1023 93 10000 1.5 50 23:50 07.11.2020
5780 Clear 17 1023 88 10000 1.5 50 23:31 07.11.2020
5781 Clear 17 1023 88 10000 1.5 50 23:31 07.11.2020
5782 Clear 17 1023 88 10000 1.5 50 23:31 07.11.2020
5783 Clear 17 1023 88 10000 1.5 50 22:48 07.11.2020
5784 Clear 17 1023 88 10000 1 60 22:28 07.11.2020
5785 Clear 17 1023 88 10000 1.5 50 21:58 07.11.2020
5786 Clear 17 1023 82 10000 2.1 40 21:40 07.11.2020
5787 Clear 18 1022 68 10000 1 200 21:19 07.11.2020
5788 Clear 18 1022 68 10000 1 200 20:45 07.11.2020
5789 Clear 18 1022 68 10000 1 200 20:27 07.11.2020
5790 Clear 19 1022 63 10000 1 360 19:46 07.11.2020
5791 Clear 19 1022 63 10000 1 360 19:27 07.11.2020
5792 Clear 21 1021 56 10000 2.1 360 18:45 07.11.2020
5793 Clear 21 1021 56 10000 2.1 360 18:26 07.11.2020
5794 Clouds 22 1021 53 10000 4.1 340 17:53 07.11.2020
5795 Clouds 22 1021 53 10000 4.1 340 17:34 07.11.2020
5796 Clouds 22 1021 53 10000 5.1 320 16:47 07.11.2020
5797 Clouds 22 1021 53 10000 5.1 320 16:26 07.11.2020
5798 Clouds 22 1021 56 10000 3.1 280 15:58 07.11.2020
5799 Clouds 22 1021 56 10000 3.1 280 15:40 07.11.2020
5800 Clouds 22 1021 56 10000 3.1 280 15:20 07.11.2020
5801 Clouds 22 1021 56 10000 3.1 280 14:43 07.11.2020
5802 Clouds 22 1021 56 10000 3.1 280 14:24 07.11.2020
5803 Clouds 22 1022 60 10000 4.1 280 13:52 07.11.2020
5804 Clouds 22 1022 60 10000 4.1 280 13:30 07.11.2020
5805 Clouds 21 1023 68 10000 3.1 200 12:44 07.11.2020
5806 Clouds 21 1023 68 10000 3.1 200 12:20 07.11.2020
5807 Clouds 20 1023 73 10000 4.1 180 11:41 07.11.2020
5808 Clouds 20 1023 73 10000 4.1 180 11:22 07.11.2020
5809 Clouds 18 1022 77 10000 6.2 200 10:45 07.11.2020
5810 Clouds 18 1022 77 10000 6.2 200 10:25 07.11.2020
5811 Clouds 17 1021 82 10000 3.1 180 09:52 07.11.2020
5812 Clouds 17 1021 82 10000 3.1 180 09:32 07.11.2020
5813 Clouds 16 1020 88 8000 5.1 200 08:53 07.11.2020
5814 Clouds 16 1020 88 8000 5.1 200 08:34 07.11.2020
5815 Clouds 16 1020 88 8000 4.1 200 07:50 07.11.2020
5816 Clouds 15 1020 100 10000 3.6 190 07:19 07.11.2020
5817 Clouds 15 1020 100 10000 3.6 220 06:47 07.11.2020
5818 Clear 17 1019 100 10000 5.1 240 05:23 07.11.2020
5819 Clear 18 1018 100 10000 6.2 220 03:23 07.11.2020
5820 Clouds 18 1017 100 10000 7.7 220 01:28 07.11.2020
5821 Clouds 18 1017 100 10000 7.7 230 00:43 07.11.2020
5822 Clouds 18 1016 100 10000 8.7 210 23:53 06.11.2020
5823 Clouds 18 1016 100 10000 7.2 210 23:21 06.11.2020
5824 Clouds 18 1015 100 10000 7.7 210 22:41 06.11.2020
5825 Clouds 18 1015 100 10000 7.7 210 22:19 06.11.2020
5826 Clouds 18 1015 100 10000 7.7 220 21:46 06.11.2020
5827 Clouds 19 1013 68 10000 5.1 180 21:21 06.11.2020
5828 Clouds 19 1013 68 10000 5.1 180 20:56 06.11.2020
5829 Clouds 19 1013 68 10000 5.1 180 20:38 06.11.2020
5830 Clouds 19 1013 68 10000 5.1 180 20:18 06.11.2020
5831 Clouds 20 1013 68 10000 5.1 180 19:44 06.11.2020
5832 Clouds 20 1013 68 10000 5.1 180 19:26 06.11.2020
5833 Clouds 20 1012 64 10000 3.1 160 18:45 06.11.2020
5834 Clouds 20 1012 64 10000 3.1 160 18:23 06.11.2020
5835 Clouds 21 1012 56 10000 1 220 17:51 06.11.2020
5836 Clouds 21 1012 56 10000 1 220 17:26 06.11.2020
5837 Clouds 21 1012 52 10000 3.1 300 16:50 06.11.2020
5838 Clouds 22 1012 52 10000 3.1 300 16:27 06.11.2020
5839 Clouds 23 1011 46 10000 3.1 280 15:49 06.11.2020
5840 Clouds 23 1011 46 10000 3.1 280 15:29 06.11.2020
5841 Clouds 23 1011 53 10000 3.1 180 14:53 06.11.2020
5842 Clouds 23 1011 53 10000 3.1 180 14:27 06.11.2020
5843 Clouds 23 1012 56 10000 3.1 180 13:46 06.11.2020
5844 Clouds 23 1012 56 10000 3.1 180 13:24 06.11.2020
5845 Clouds 22 1012 56 10000 5.1 180 12:46 06.11.2020
5846 Clouds 21 1012 56 10000 5.1 180 12:23 06.11.2020
5847 Clouds 19 1011 68 10000 3.1 180 11:55 06.11.2020
5848 Clouds 19 1011 68 10000 3.1 180 11:35 06.11.2020
5849 Clouds 17 1011 77 10000 2.1 140 10:46 06.11.2020
5850 Clouds 17 1011 77 10000 2.1 140 10:25 06.11.2020
5851 Clouds 16 1011 82 10000 3.1 180 09:49 06.11.2020
5852 Clouds 16 1011 82 10000 3.1 180 09:22 06.11.2020
5853 Clouds 15 1010 82 10000 2.1 160 08:51 06.11.2020
5854 Clouds 15 1010 82 10000 2.1 160 08:29 06.11.2020
5855 Clouds 15 1010 82 10000 3.1 140 07:54 06.11.2020
5856 Clouds 15 1011 100 10000 1 0 07:34 06.11.2020
5857 Clouds 15 1011 100 10000 1.5 210 06:59 06.11.2020
5858 Clouds 15 1011 82 10000 2.6 150 06:24 06.11.2020
5859 Clouds 16 1010 100 10000 2.1 120 05:36 06.11.2020
5860 Clouds 15 1012 100 10000 2.6 180 01:23 06.11.2020
5861 Clouds 16 1012 100 10000 2.6 160 00:23 06.11.2020
5862 Clouds 17 1012 100 10000 2.6 250 23:35 05.11.2020
5863 Clouds 16 1012 100 10000 2.1 240 22:58 05.11.2020
5864 Clouds 17 1012 100 10000 2.1 190 22:40 05.11.2020
5865 Clouds 17 1012 100 10000 2.1 190 22:21 05.11.2020
5866 Clouds 17 1012 100 10000 2.1 190 21:44 05.11.2020
5867 Clouds 18 1011 72 10000 1 160 21:23 05.11.2020
5868 Clouds 18 1011 72 10000 1 160 20:58 05.11.2020
5869 Clouds 18 1011 72 10000 1 160 20:39 05.11.2020
5870 Clouds 18 1011 72 10000 1 160 20:21 05.11.2020
5871 Clear 19 1010 64 10000 2.1 220 19:43 05.11.2020
5872 Clear 19 1010 64 10000 2.1 220 19:23 05.11.2020
5873 Clear 20 1010 64 10000 2.6 240 18:49 05.11.2020
5874 Clear 20 1010 64 10000 2.6 240 18:30 05.11.2020
5875 Clear 21 1010 60 10000 2.6 220 17:54 05.11.2020
5876 Clear 21 1010 60 10000 2.6 220 17:36 05.11.2020
5877 Clear 21 1010 60 10000 2.6 220 17:18 05.11.2020
5878 Clouds 21 1009 56 10000 2.72 345 16:41 05.11.2020
5879 Clouds 21 1009 56 10000 3.32 340 16:21 05.11.2020
5880 Clouds 21 1009 56 10000 3.1 200 15:49 05.11.2020
5881 Clouds 21 1009 56 10000 3.1 200 15:24 05.11.2020
5882 Clear 21 1009 56 10000 3.1 220 14:47 05.11.2020
5883 Clear 21 1009 56 10000 3.1 220 14:29 05.11.2020
5884 Clouds 21 1009 60 10000 5.1 240 13:49 05.11.2020
5885 Clouds 21 1009 60 10000 5.1 240 13:30 05.11.2020
5886 Clouds 21 1010 64 10000 3.1 280 12:53 05.11.2020
5887 Clouds 21 1010 64 10000 3.1 280 12:29 05.11.2020
5888 Clouds 20 1010 68 10000 3.1 200 11:57 05.11.2020
5889 Clouds 20 1010 68 10000 3.1 200 11:37 05.11.2020
5890 Clouds 20 1010 68 10000 3.1 200 11:19 05.11.2020
5891 Clouds 18 1010 72 10000 4.1 160 10:43 05.11.2020
5892 Clouds 18 1010 72 10000 4.1 160 10:25 05.11.2020
5893 Clouds 16 1010 72 10000 3.6 180 09:47 05.11.2020
5894 Clouds 16 1010 72 10000 3.6 180 09:22 05.11.2020
5895 Rain 14 1010 82 10000 4.1 200 08:44 05.11.2020
5896 Rain 14 1010 82 10000 4.1 200 08:26 05.11.2020
5897 Clouds 15 1010 82 10000 3.1 160 07:41 05.11.2020
5898 Clouds 15 1010 82 10000 3.1 160 07:20 05.11.2020
5899 Clouds 15 1010 100 10000 4.6 190 06:41 05.11.2020
5900 Clouds 14 1010 100 10000 5.7 200 05:44 05.11.2020
5901 Clouds 15 1011 100 10000 4.6 230 01:35 05.11.2020
5902 Clouds 15 1011 100 6000 3.6 180 00:33 05.11.2020
5903 Clouds 15 1012 100 10000 4.1 180 23:44 04.11.2020
5904 Clouds 15 1012 100 10000 4.1 190 23:26 04.11.2020
5905 Clouds 15 1012 100 10000 3.6 210 22:52 04.11.2020
5906 Clouds 15 1012 100 10000 4.6 250 22:27 04.11.2020
5907 Rain 16 1012 100 6000 8.2 240 21:58 04.11.2020
5908 Clouds 17 1011 82 8000 3.1 260 21:37 04.11.2020
5909 Clouds 17 1011 82 8000 3.1 260 21:18 04.11.2020
5910 Clouds 17 1011 82 8000 3.1 260 20:43 04.11.2020
5911 Clouds 17 1011 82 8000 3.1 260 20:25 04.11.2020
5912 Rain 18 1012 82 8000 2.1 300 19:49 04.11.2020
5913 Rain 18 1012 82 8000 2.1 300 19:29 04.11.2020
5914 Thunderstorm 18 1012 82 8000 2.1 320 18:55 04.11.2020
5915 Thunderstorm 18 1012 82 8000 2.1 320 18:55 04.11.2020
5916 Thunderstorm 18 1012 82 8000 2.1 320 18:37 04.11.2020
5917 Thunderstorm 18 1012 82 8000 2.1 320 18:18 04.11.2020
5918 Thunderstorm 19 1012 82 8000 4.1 280 17:40 04.11.2020
5919 Thunderstorm 19 1012 82 8000 4.1 280 17:21 04.11.2020
5920 Clouds 20 1013 72 10000 6.2 280 16:38 04.11.2020
5921 Clouds 20 1013 72 10000 6.2 280 16:20 04.11.2020
5922 Clouds 21 1014 64 10000 5.1 280 15:47 04.11.2020
5923 Clouds 21 1014 64 10000 5.1 280 15:25 04.11.2020
5924 Clouds 21 1015 68 10000 7.2 300 14:57 04.11.2020
5925 Clouds 21 1015 68 10000 7.2 300 14:39 04.11.2020
5926 Clouds 21 1015 68 10000 7.2 300 14:19 04.11.2020
5927 Clouds 21 1016 73 10000 6.2 260 13:42 04.11.2020
5928 Clouds 21 1016 73 10000 6.2 260 13:20 04.11.2020
5929 Clouds 21 1017 77 10000 4.1 300 12:51 04.11.2020
5930 Clouds 21 1017 77 10000 4.1 300 12:27 04.11.2020
5931 Clouds 21 1018 73 10000 3.1 260 11:56 04.11.2020
5932 Clouds 19 1018 73 10000 3.1 260 11:38 04.11.2020
5933 Clouds 19 1018 73 10000 3.1 260 11:19 04.11.2020
5934 Clouds 19 1018 82 8000 2.1 240 10:46 04.11.2020
5935 Clouds 18 1018 82 8000 2.1 240 10:22 04.11.2020
5936 Clouds 18 1018 93 6000 2.1 240 09:51 04.11.2020
5937 Clouds 17 1018 93 6000 2.1 240 09:23 04.11.2020
5938 Clouds 17 1018 93 6000 2.1 220 08:46 04.11.2020
5939 Clouds 17 1018 93 6000 2.1 220 08:19 04.11.2020
5940 Fog 16 1018 100 500 2.1 250 07:50 04.11.2020
5941 Fog 17 1018 100 500 1 0 07:27 04.11.2020
5942 Fog 16 1019 100 600 1.5 220 06:45 04.11.2020
5943 Clouds 16 1019 100 1600 0.5 0 06:26 04.11.2020
5944 Clouds 18 1021 100 10000 1.5 330 02:33 04.11.2020
5945 Clouds 18 1021 100 10000 1.5 360 01:49 04.11.2020
5946 Clouds 19 1021 100 10000 2.1 10 00:43 04.11.2020
5947 Clouds 19 1022 100 10000 2.6 20 23:40 03.11.2020
5948 Clouds 19 1022 100 10000 2.6 20 23:20 03.11.2020
5949 Clouds 19 1023 100 10000 3.6 360 22:41 03.11.2020
5950 Clouds 19 1023 100 10000 3.6 360 22:20 03.11.2020
5951 Clouds 19 1022 100 10000 3.1 10 21:56 03.11.2020
5952 Clouds 20 1022 88 10000 4.1 360 21:37 03.11.2020
5953 Clouds 20 1022 88 10000 4.1 360 21:19 03.11.2020
5954 Clouds 20 1022 88 10000 4.1 360 20:42 03.11.2020
5955 Clouds 20 1022 88 10000 4.1 360 20:22 03.11.2020
5956 Clouds 20 1022 88 10000 4.1 360 20:22 03.11.2020
5957 Clouds 20 1022 82 10000 4.1 360 19:43 03.11.2020
5958 Clouds 20 1022 82 10000 4.1 360 19:20 03.11.2020
5959 Clouds 21 1022 77 10000 6.2 20 18:44 03.11.2020
5960 Clouds 21 1022 77 10000 6.2 20 18:20 03.11.2020
5961 Clouds 21 1021 77 10000 4.1 360 17:56 03.11.2020
5962 Clouds 21 1021 77 10000 4.1 360 17:37 03.11.2020
5963 Clouds 21 1021 77 10000 4.1 360 17:18 03.11.2020
5964 Clouds 22 1021 73 10000 6.2 320 16:43 03.11.2020
5965 Clouds 22 1021 73 10000 6.2 320 16:21 03.11.2020
5966 Clouds 23 1022 69 10000 4.1 360 15:41 03.11.2020
5967 Clouds 23 1022 69 10000 4.1 360 15:23 03.11.2020
5968 Clouds 23 1022 69 10000 2.1 360 14:49 03.11.2020
5969 Clouds 23 1022 69 10000 2.1 360 14:30 03.11.2020
5970 Clouds 22 1023 73 10000 4.1 320 13:46 03.11.2020
5971 Clouds 22 1023 73 10000 4.1 320 13:23 03.11.2020
5972 Clouds 22 1023 73 10000 4.1 340 12:56 03.11.2020
5973 Clouds 22 1023 73 10000 4.1 340 12:36 03.11.2020
5974 Clouds 22 1023 73 10000 4.1 340 12:18 03.11.2020
5975 Clouds 21 1023 73 10000 2.1 100 11:41 03.11.2020
5976 Clouds 21 1023 73 10000 2.1 100 11:20 03.11.2020
5977 Clouds 18 1023 82 8000 2.1 140 10:39 03.11.2020
5978 Clouds 18 1023 82 8000 2.1 140 10:20 03.11.2020
5979 Clouds 16 1022 87 8000 2.1 180 09:51 03.11.2020
5980 Clouds 16 1022 87 8000 2.1 180 09:32 03.11.2020
5981 Clouds 15 1022 93 8000 1 160 08:55 03.11.2020
5982 Clouds 15 1022 93 8000 1 160 08:34 03.11.2020
5983 Clouds 15 1022 87 10000 1 140 07:49 03.11.2020
5984 Clouds 14 1022 93 4000 1.5 130 07:22 03.11.2020
5985 Mist 14 1022 93 4000 1 0 06:45 03.11.2020
5986 Clouds 16 1022 93 8000 1 140 05:19 03.11.2020
5987 Clouds 17 1022 93 10000 2.1 10 01:51 03.11.2020
5988 Clouds 19 1023 93 10000 1.5 10 00:40 03.11.2020
5989 Clouds 19 1023 93 10000 2.1 10 23:48 02.11.2020
5990 Clouds 19 1022 93 10000 2.6 360 23:29 02.11.2020
5991 Clouds 19 1022 93 10000 2.6 360 22:49 02.11.2020
5992 Clouds 19 1022 93 10000 2.6 360 22:30 02.11.2020
5993 Clouds 19 1022 93 10000 2.1 10 21:58 02.11.2020
5994 Clouds 19 1021 82 10000 3.1 20 21:37 02.11.2020
5995 Clouds 19 1021 82 10000 3.1 20 21:19 02.11.2020
5996 Clouds 19 1021 82 10000 3.1 20 20:39 02.11.2020
5997 Clouds 19 1021 82 10000 3.1 20 20:20 02.11.2020
5998 Clouds 19 1020 82 10000 4.1 360 19:45 02.11.2020
5999 Clouds 19 1020 82 10000 4.1 360 19:27 02.11.2020
6000 Clouds 21 1020 83 10000 4.1 340 18:55 02.11.2020
6001 Clouds 21 1020 83 10000 4.1 340 18:37 02.11.2020
6002 Clouds 21 1020 83 10000 4.1 340 18:19 02.11.2020
6003 Clouds 22 1020 83 10000 3.1 340 17:41 02.11.2020
6004 Clouds 22 1020 83 10000 3.1 340 17:23 02.11.2020
6005 Clouds 23 1020 78 10000 3.1 320 16:49 02.11.2020
6006 Clouds 23 1020 78 10000 3.1 320 16:28 02.11.2020
6007 Clouds 23 1020 73 10000 5.1 300 15:55 02.11.2020
6008 Clouds 23 1020 73 10000 5.1 300 15:37 02.11.2020
6009 Clouds 23 1020 73 10000 5.1 300 15:19 02.11.2020
6010 Clear 24 1020 73 10000 6.2 320 14:42 02.11.2020
6011 Clear 24 1020 73 10000 6.2 320 14:19 02.11.2020
6012 Clear 24 1021 64 10000 6.2 20 13:47 02.11.2020
6013 Clear 24 1021 64 10000 6.2 20 13:22 02.11.2020
6014 Clear 22 1021 68 10000 1 320 12:50 02.11.2020
6015 Clear 21 1021 68 10000 1 320 12:27 02.11.2020
6016 Clouds 20 1021 77 8000 3.1 20 11:46 02.11.2020
6017 Clouds 19 1021 77 8000 3.1 20 11:20 02.11.2020
6018 Clouds 18 1021 88 5000 3.1 100 10:48 02.11.2020
6019 Clouds 17 1021 88 5000 3.1 100 10:25 02.11.2020
6020 Mist 16 1021 93 2000 2.1 160 09:55 02.11.2020
6021 Mist 16 1021 93 2000 2.1 160 09:29 02.11.2020
6022 Mist 16 1020 93 2000 1 40 08:57 02.11.2020
6023 Mist 16 1020 93 2000 1 40 08:36 02.11.2020
6024 Mist 16 1020 93 2000 1 40 08:18 02.11.2020
6025 Fog 15 1021 100 400 2.1 90 07:39 02.11.2020
6026 Mist 15 1020 100 1000 2.6 50 06:45 02.11.2020
6027 Fog 15 1020 100 300 2.1 20 05:19 02.11.2020
6028 Fog 16 1021 100 3000 2.1 20 01:27 02.11.2020
6029 Fog 16 1021 100 3000 2.1 20 01:27 02.11.2020
6030 Fog 16 1021 100 3000 2.1 20 01:27 02.11.2020
6031 Mist 16 1022 100 4000 1.5 50 00:38 02.11.2020
6032 Mist 16 1022 100 4000 1.5 50 00:19 02.11.2020
6033 Clouds 17 1022 88 6000 2.1 60 23:38 01.11.2020
6034 Clouds 17 1022 88 6000 2.1 60 23:20 01.11.2020
6035 Clouds 17 1022 88 8000 3.1 60 22:42 01.11.2020
6036 Clouds 17 1022 88 8000 3.1 60 22:22 01.11.2020
6037 Clouds 17 1022 88 8000 2.1 60 21:43 01.11.2020
6038 Mist 18 1021 93 4000 3.1 40 21:24 01.11.2020
6039 Mist 19 1021 93 4000 3.1 40 20:48 01.11.2020
6040 Mist 19 1021 93 4000 3.1 40 20:26 01.11.2020
6041 Mist 19 1021 93 4000 3.1 20 19:55 01.11.2020
6042 Mist 19 1021 93 4000 3.1 20 19:37 01.11.2020
6043 Mist 19 1021 93 4000 3.1 20 19:19 01.11.2020
6044 Clouds 20 1021 93 8000 4.1 360 18:40 01.11.2020
6045 Clouds 20 1021 93 8000 4.1 360 18:19 01.11.2020
6046 Clouds 20 1021 93 8000 4.1 360 18:19 01.11.2020
6047 Clouds 21 1021 82 10000 6.2 20 17:45 01.11.2020
6048 Clouds 22 1021 82 10000 6.2 20 17:27 01.11.2020
6049 Clear 22 1021 77 10000 6.2 20 16:57 01.11.2020
6050 Clear 22 1021 77 10000 6.2 20 16:38 01.11.2020
6051 Clear 22 1021 77 10000 6.2 20 16:18 01.11.2020
6052 Clear 22 1022 73 10000 5.1 20 15:39 01.11.2020
6053 Clear 22 1022 73 10000 5.1 20 15:20 01.11.2020
6054 Clear 23 1023 73 10000 4.1 40 14:48 01.11.2020
6055 Clear 23 1023 73 10000 4.1 40 14:23 01.11.2020
6056 Clear 23 1023 77 8000 7.2 20 13:58 01.11.2020
6057 Clear 22 1023 77 8000 7.2 20 13:39 01.11.2020
6058 Clear 22 1023 77 8000 7.2 20 13:21 01.11.2020
6059 Clear 22 1024 72 8000 5.1 20 12:43 01.11.2020
6060 Clear 22 1024 72 8000 5.1 20 12:20 01.11.2020
6061 Clear 20 1024 72 6000 2.1 40 11:49 01.11.2020
6062 Clear 20 1024 72 6000 2.1 40 11:18 01.11.2020
6063 Clear 19 1024 77 6000 2.1 40 10:42 01.11.2020
6064 Clear 18 1024 77 6000 2.1 40 10:24 01.11.2020
6065 Mist 15 1024 93 4000 1 120 09:50 01.11.2020
6066 Mist 15 1024 93 4000 1 120 09:27 01.11.2020
6067 Mist 14 1023 93 4000 2.1 160 08:44 01.11.2020
6068 Clear 14 1023 93 6000 2.1 160 08:18 01.11.2020
6069 Clouds 14 1023 100 8000 3.1 90 07:21 01.11.2020
6070 Mist 15 1024 100 4000 1.5 130 02:32 01.11.2020
6071 Clouds 16 1024 100 5000 2.1 110 01:42 01.11.2020
6072 Clouds 18 1025 100 10000 1.5 30 00:22 01.11.2020
6073 Clouds 18 1025 100 10000 2.1 20 23:24 31.10.2020
6074 Clouds 18 1025 100 8000 2.1 20 22:45 31.10.2020
6075 Clouds 18 1025 100 8000 2.1 10 22:25 31.10.2020
6076 Clouds 18 1025 100 8000 2.1 10 22:25 31.10.2020
6077 Clouds 18 1025 100 10000 1.5 30 21:47 31.10.2020
6078 Clouds 18 1025 100 10000 1.5 30 21:47 31.10.2020
6079 Clouds 19 1023 82 6000 3.1 340 21:23 31.10.2020
6080 Clouds 19 1023 82 6000 3.1 340 20:59 31.10.2020
6081 Clouds 19 1023 82 6000 3.1 340 20:38 31.10.2020
6082 Clouds 19 1023 82 6000 3.1 340 20:18 31.10.2020
6083 Clouds 19 1023 82 6000 32.9 340 19:38 31.10.2020
6084 Clouds 19 1023 82 6000 32.9 340 19:19 31.10.2020
6085 Clear 21 1023 82 10000 6.2 340 18:45 31.10.2020
6086 Clear 23 1023 73 10000 6.2 340 17:56 31.10.2020
6087 Clear 23 1023 73 10000 6.2 340 17:37 31.10.2020
6088 Clear 23 1023 73 10000 6.2 340 17:18 31.10.2020
6089 Clear 24 1023 68 10000 4.1 340 16:41 31.10.2020
6090 Clear 24 1023 68 10000 4.1 340 16:20 31.10.2020
6091 Clear 23 1023 73 10000 3.1 360 15:42 31.10.2020
6092 Clear 23 1023 73 10000 3.1 360 15:22 31.10.2020
6093 Clear 23 1024 77 10000 5.1 340 14:46 31.10.2020
6094 Clear 23 1024 77 10000 5.1 340 14:27 31.10.2020
6095 Clear 22 1025 68 10000 2.1 340 13:50 31.10.2020
6096 Clear 22 1025 68 10000 2.1 340 13:24 31.10.2020
6097 Mist 23 1025 77 4000 2.1 360 12:42 31.10.2020
6098 Mist 20 1025 82 2000 3.1 180 11:48 31.10.2020
6099 Mist 19 1025 82 2000 3.1 180 11:29 31.10.2020
6100 Mist 18 1025 93 2000 2.1 180 10:57 31.10.2020
6101 Mist 17 1025 93 2000 2.1 180 10:35 31.10.2020
6102 Fog 15 1024 100 600 2.1 180 09:43 31.10.2020
6103 Fog 15 1024 100 600 2.1 180 09:25 31.10.2020
6104 Fog 13 1023 100 400 1 180 08:33 31.10.2020
6105 Fog 13 1023 100 400 2.1 180 07:58 31.10.2020
6106 Fog 13 1023 100 400 2.1 180 07:27 31.10.2020
6107 Clear 11 1023 87 9000 1.5 170 06:40 31.10.2020
6108 Clear 12 1024 87 10000 2.1 170 05:20 31.10.2020
6109 Clear 17 1023 76 10000 2.1 220 03:46 31.10.2020
6110 Clear 17 1023 76 10000 1.5 190 01:30 31.10.2020
6111 Clear 18 1023 67 10000 1.5 170 00:47 31.10.2020
6112 Clear 19 1023 63 10000 1 0 23:52 30.10.2020
6113 Clear 19 1023 63 10000 1 0 23:25 30.10.2020
6114 Clear 19 1023 63 10000 1.5 100 22:48 30.10.2020
6115 Clear 19 1023 63 10000 1.5 170 22:26 30.10.2020
6116 Clear 19 1023 63 10000 2.1 140 21:58 30.10.2020
6117 Mist 20 1022 88 4000 1.5 120 21:38 30.10.2020
6118 Mist 20 1022 88 4000 1.5 120 21:19 30.10.2020
6119 Mist 20 1022 88 4000 1.5 120 20:42 30.10.2020
6120 Mist 20 1022 88 4000 1.5 120 20:23 30.10.2020
6121 Clear 20 1021 88 10000 2.6 360 19:47 30.10.2020
6122 Clear 20 1021 88 10000 2.6 360 19:19 30.10.2020
6123 Clear 21 1021 77 10000 0.5 80 18:50 30.10.2020
6124 Clear 21 1021 77 10000 0.5 80 18:28 30.10.2020
6125 Clear 22 1021 73 10000 4.1 360 17:50 30.10.2020
6126 Clear 23 1021 73 10000 4.1 360 17:24 30.10.2020
6127 Clear 24 1021 64 10000 4.1 360 16:58 30.10.2020
6128 Clear 24 1021 64 10000 4.1 360 16:38 30.10.2020
6129 Clear 24 1021 64 10000 4.1 360 16:19 30.10.2020
6130 Clear 25 1021 57 10000 4.6 20 15:40 30.10.2020
6131 Clear 24 1021 57 10000 4.6 20 15:20 30.10.2020
6132 Clear 24 1021 53 10000 4.6 360 14:44 30.10.2020
6133 Clear 26 1021 53 10000 4.6 360 14:25 30.10.2020
6134 Clouds 25 1021 47 8000 2.1 300 13:47 30.10.2020
6135 Clouds 25 1021 47 8000 2.1 300 13:22 30.10.2020
6136 Clouds 24 1021 47 5000 4.1 340 12:55 30.10.2020
6137 Clouds 24 1021 47 5000 4.1 340 12:23 30.10.2020
6138 Clouds 22 1021 49 8000 1 240 11:56 30.10.2020
6139 Clouds 22 1021 49 8000 1 240 11:23 30.10.2020
6140 Clouds 20 1022 63 6000 2.1 180 10:58 30.10.2020
6141 Clouds 18 1022 63 6000 2.1 180 10:39 30.10.2020
6142 Clouds 17 1022 63 6000 2.1 180 10:21 30.10.2020
6143 Clouds 16 1021 77 8000 1.5 160 09:43 30.10.2020
6144 Clouds 15 1021 77 8000 1.5 160 09:20 30.10.2020
6145 Clouds 12 1021 82 10000 1.5 160 08:39 30.10.2020
6146 Clouds 12 1021 82 10000 1.5 160 08:20 30.10.2020
6147 Clear 13 1020 82 10000 1.5 140 07:46 30.10.2020
6148 Clear 13 1020 82 10000 1.5 140 07:27 30.10.2020
6149 Clouds 12 1021 100 8000 0.5 170 06:21 30.10.2020
6150 Clouds 15 1021 100 7000 1 190 04:26 30.10.2020
6151 Clear 16 1021 100 10000 1.5 230 01:39 30.10.2020
6152 Clear 16 1021 100 10000 1.5 190 00:31 30.10.2020
6153 Clear 17 1021 100 10000 1 0 23:47 29.10.2020
6154 Clear 17 1021 93 10000 0.5 110 23:29 29.10.2020
6155 Clear 16 1021 87 10000 1 0 22:48 29.10.2020
6156 Clear 17 1021 82 10000 1.5 30 22:27 29.10.2020
6157 Clear 17 1021 82 10000 1.5 60 21:51 29.10.2020
6158 Clear 18 1020 72 10000 4.1 60 21:26 29.10.2020
6159 Clear 18 1020 72 10000 4.1 60 20:59 29.10.2020
6160 Clear 18 1020 72 10000 4.1 60 20:39 29.10.2020
6161 Clear 18 1020 72 10000 4.1 60 20:18 29.10.2020
6162 Clear 20 1020 72 10000 4.1 40 19:39 29.10.2020
6163 Clear 20 1020 72 10000 4.1 40 19:20 29.10.2020
6164 Clear 21 1020 56 10000 3.1 10 18:46 29.10.2020
6165 Clear 22 1019 46 10000 4.1 20 18:26 29.10.2020
6166 Clear 22 1019 60 10000 4.1 40 17:43 29.10.2020
6167 Clear 23 1019 60 10000 4.1 40 17:24 29.10.2020
6168 Clear 24 1019 56 10000 6.2 20 16:58 29.10.2020
6169 Clear 24 1019 56 10000 6.2 20 16:37 29.10.2020
6170 Clear 24 1019 56 10000 6.2 20 16:18 29.10.2020
6171 Clear 24 1019 53 10000 5.1 40 15:41 29.10.2020
6172 Clear 24 1019 53 10000 5.1 40 15:22 29.10.2020
6173 Clear 24 1020 46 10000 5.1 40 14:59 29.10.2020
6174 Clear 24 1020 46 10000 5.1 40 14:40 29.10.2020
6175 Clear 24 1020 46 10000 5.1 40 14:19 29.10.2020
6176 Clear 25 1021 43 10000 5.1 20 13:45 29.10.2020
6177 Clear 24 1021 43 10000 5.1 20 13:24 29.10.2020
6178 Clear 23 1021 52 10000 3.1 40 12:43 29.10.2020
6179 Clear 23 1021 52 10000 3.1 40 12:19 29.10.2020
6180 Clear 22 1022 56 10000 2.15 29 11:48 29.10.2020
6181 Clear 21 1022 56 10000 1.85 42 11:26 29.10.2020
6182 Clear 19 1022 68 10000 2.1 20 10:57 29.10.2020
6183 Clear 19 1022 68 10000 2.1 20 10:36 29.10.2020
6184 Clear 19 1022 68 10000 2.1 20 10:18 29.10.2020
6185 Clear 14 1021 82 10000 4.1 360 09:42 29.10.2020
6186 Clear 14 1021 82 10000 4.1 360 09:19 29.10.2020
6187 Clear 11 1020 93 10000 1 140 08:40 29.10.2020
6188 Clear 11 1020 93 10000 1 140 08:19 29.10.2020
6189 Clear 12 1020 82 10000 1 160 07:48 29.10.2020
6190 Clouds 11 1021 100 10000 2.1 80 06:58 29.10.2020
6191 Clear 11 1021 100 10000 2.1 80 06:24 29.10.2020
6192 Clear 16 1021 100 10000 3.1 70 04:47 29.10.2020
6193 Clear 18 1021 77 10000 4.92 40 02:18 29.10.2020
6194 Clear 18 1021 77 10000 4.92 40 00:31 29.10.2020
6195 Clear 18 1021 77 10000 4.92 40 23:59 28.10.2020
6196 Clear 18 1021 77 10000 4.92 40 23:22 28.10.2020
6197 Clear 17 1022 93 10000 4.6 50 22:56 28.10.2020
6198 Clear 17 1022 93 10000 4.6 50 22:37 28.10.2020
6199 Clear 17 1022 93 10000 4.6 50 22:19 28.10.2020
6200 Clear 17 1022 93 10000 4.6 50 21:43 28.10.2020
6201 Clear 17 1021 77 10000 5.1 40 21:25 28.10.2020
6202 Clear 18 1021 77 10000 5.1 40 20:43 28.10.2020
6203 Clear 18 1021 77 10000 5.1 40 20:23 28.10.2020
6204 Clear 18 1021 72 10000 5.1 40 19:53 28.10.2020
6205 Clear 18 1021 72 10000 5.1 40 19:30 28.10.2020
6206 Clear 19 1020 68 10000 5.1 40 18:51 28.10.2020
6207 Clear 19 1020 68 10000 5.1 40 18:22 28.10.2020
6208 Clear 20 1020 64 10000 8.2 20 17:57 28.10.2020
6209 Clear 20 1020 64 10000 8.2 20 17:39 28.10.2020
6210 Clear 20 1020 64 10000 8.2 20 17:18 28.10.2020
6211 Clear 20 1021 64 10000 6.2 20 16:44 28.10.2020
6212 Clear 21 1021 64 10000 6.2 20 16:23 28.10.2020
6213 Clear 21 1021 64 10000 6.2 20 16:23 28.10.2020
6214 Clear 21 1021 60 10000 6.2 40 15:40 28.10.2020
6215 Clear 21 1021 60 10000 6.2 40 15:19 28.10.2020
6216 Clear 21 1021 60 10000 6.2 40 15:19 28.10.2020
6217 Clear 21 1021 40 10000 6.2 50 14:44 28.10.2020
6218 Clear 21 1022 56 10000 7.2 60 14:26 28.10.2020
6219 Clear 19 1022 100 10000 4.47 29 12:50 28.10.2020
6220 Clear 18 1022 100 10000 4.02 22 12:31 28.10.2020
6221 Clear 18 1022 100 10000 4.02 30 11:59 28.10.2020
6222 Clear 18 1022 100 10000 3.58 20 11:41 28.10.2020
6223 Clear 16 1022 72 10000 3.1 140 11:20 28.10.2020
6224 Clear 18 1023 100 10000 2.24 32 10:50 28.10.2020
6225 Clear 13 1022 93 10000 1.5 140 10:32 28.10.2020
6226 Clear 13 1022 93 10000 1.5 140 09:45 28.10.2020
6227 Clear 13 1021 81 10000 3.1 180 09:24 28.10.2020
6228 Clear 11 1021 81 10000 3.1 180 08:51 28.10.2020
6229 Clear 11 1021 81 10000 3.1 180 08:32 28.10.2020
6230 Clear 12 1020 71 10000 3.1 140 07:54 28.10.2020
6231 Clear 12 1020 71 10000 3.1 140 07:31 28.10.2020
6232 Clear 11 1020 93 10000 3.1 70 06:57 28.10.2020
6233 Clear 10 1020 93 10000 2.1 90 06:38 28.10.2020
6234 Clear 10 1020 93 10000 2.1 90 05:44 28.10.2020
6235 Clear 13 1020 93 10000 2.1 100 04:51 28.10.2020
6236 Clear 13 1020 93 10000 3.1 90 04:20 28.10.2020
6237 Clear 14 1021 93 10000 2.6 90 01:56 28.10.2020
6238 Clear 15 1022 87 10000 3.1 60 00:33 28.10.2020
6239 Clear 15 1022 87 10000 3.1 50 23:50 27.10.2020
6240 Clear 15 1022 87 10000 3.1 50 23:22 27.10.2020
6241 Clear 15 1022 87 10000 3.1 50 22:45 27.10.2020
6242 Clear 15 1022 87 10000 4.1 40 22:22 27.10.2020
6243 Clear 15 1021 87 10000 3.6 40 21:57 27.10.2020
6244 Clear 16 1021 67 10000 3.1 40 21:38 27.10.2020
6245 Clear 16 1021 67 10000 3.1 40 21:20 27.10.2020
6246 Clear 17 1021 67 10000 3.1 40 20:50 27.10.2020
6247 Clear 17 1021 67 10000 3.1 40 20:25 27.10.2020
6248 Clear 17 1020 63 10000 5.1 40 19:58 27.10.2020
6249 Clear 18 1020 63 10000 5.1 40 19:38 27.10.2020
6250 Clear 18 1020 63 10000 5.1 40 19:19 27.10.2020
6251 Clear 18 1020 63 10000 6.2 20 18:45 27.10.2020
6252 Clear 18 1020 63 10000 6.2 20 18:24 27.10.2020
6253 Clear 19 1020 55 10000 5.7 20 17:59 27.10.2020
6254 Clear 19 1020 55 10000 5.7 20 17:40 27.10.2020
6255 Clear 19 1020 55 10000 5.7 20 17:19 27.10.2020
6256 Clear 20 1020 49 10000 7.7 20 16:42 27.10.2020
6257 Clear 20 1020 49 10000 7.7 20 16:23 27.10.2020
6258 Clear 20 1020 45 10000 8.2 80 15:42 27.10.2020
6259 Clear 20 1020 45 10000 8.2 80 15:24 27.10.2020
6260 Clear 20 1021 45 10000 7.2 40 14:50 27.10.2020
6261 Clear 20 1021 45 10000 7.2 40 14:30 27.10.2020
6262 Clear 20 1022 45 10000 7.7 40 13:59 27.10.2020
6263 Clear 20 1022 45 10000 7.7 40 13:31 27.10.2020
6264 Clouds 20 1023 49 10000 4.1 80 12:49 27.10.2020
6265 Clouds 20 1023 49 10000 4.1 80 12:30 27.10.2020
6266 Clear 19 1023 55 10000 3.1 60 11:59 27.10.2020
6267 Clear 18 1023 55 10000 3.1 60 11:41 27.10.2020
6268 Clear 18 1023 55 10000 3.1 60 11:21 27.10.2020
6269 Clear 16 1023 63 10000 3.6 100 10:44 27.10.2020
6270 Clear 15 1023 63 10000 3.6 100 10:21 27.10.2020
6271 Clear 14 1022 72 10000 1.5 140 09:38 27.10.2020
6272 Clear 14 1022 72 10000 1.5 140 09:20 27.10.2020
6273 Clear 12 1022 76 10000 2.6 14 08:33 27.10.2020
6274 Clear 12 1021 82 10000 2.1 140 07:57 27.10.2020
6275 Clear 13 1021 82 10000 2.1 140 07:38 27.10.2020
6276 Clear 13 1021 82 10000 2.1 140 07:19 27.10.2020
6277 Clear 12 1022 87 10000 3.1 90 06:20 27.10.2020
6278 Clear 12 1022 87 10000 2.6 80 05:46 27.10.2020
6279 Clear 12 1022 87 10000 2.6 80 05:27 27.10.2020
6280 Clear 15 1021 87 10000 3.6 50 03:20 27.10.2020
6281 Clear 14 1022 87 10000 2.6 30 01:22 27.10.2020
6282 Clear 15 1023 87 10000 2.1 50 00:42 27.10.2020
6283 Clear 14 1023 87 10000 3.1 60 23:38 26.10.2020
6284 Clouds 15 1023 87 10000 3.6 70 22:59 26.10.2020
6285 Clouds 15 1023 87 10000 3.1 80 22:39 26.10.2020
6286 Clouds 15 1023 87 10000 3.1 80 22:18 26.10.2020
6287 Clouds 16 1023 87 10000 3.1 60 21:40 26.10.2020
6288 Clouds 16 1022 77 10000 4.1 80 21:19 26.10.2020
6289 Clouds 16 1022 77 10000 4.1 80 20:49 26.10.2020
6290 Clouds 17 1022 77 10000 4.1 80 20:27 26.10.2020
6291 Clouds 17 1022 82 10000 5.1 100 19:56 26.10.2020
6292 Clouds 16 1022 82 10000 5.1 100 19:38 26.10.2020
6293 Clouds 16 1022 82 10000 5.1 100 19:19 26.10.2020
6294 Clouds 16 1022 88 10000 3.1 100 18:42 26.10.2020
6295 Clouds 16 1022 88 10000 3.1 100 18:42 26.10.2020
6296 Clouds 16 1022 88 10000 3.1 100 18:22 26.10.2020
6297 Clouds 16 1022 88 10000 4.1 40 17:44 26.10.2020
6298 Clouds 16 1022 88 10000 4.1 40 17:24 26.10.2020
6299 Clouds 17 1022 93 10000 4.1 40 16:56 26.10.2020
6300 Clouds 17 1022 93 10000 4.1 40 16:37 26.10.2020
6301 Clouds 17 1022 93 10000 4.1 40 16:18 26.10.2020
6302 Clouds 19 1022 82 10000 6.2 20 15:39 26.10.2020
6303 Clouds 19 1022 82 10000 6.2 20 15:19 26.10.2020
6304 Clouds 20 1022 72 10000 5.1 360 14:45 26.10.2020
6305 Clouds 20 1022 72 10000 5.1 360 14:19 26.10.2020
6306 Clouds 20 1023 77 10000 2.1 80 13:42 26.10.2020
6307 Clouds 19 1023 77 10000 2.1 80 13:22 26.10.2020
6308 Rain 17 1023 93 6000 2.1 300 12:47 26.10.2020
6309 Rain 17 1023 93 6000 2.1 300 12:27 26.10.2020
6310 Rain 16 1024 93 6000 5.1 260 11:55 26.10.2020
6311 Rain 16 1024 93 6000 5.1 260 11:37 26.10.2020
6312 Rain 16 1024 93 6000 5.1 260 11:37 26.10.2020
6313 Rain 16 1024 93 6000 5.1 260 11:18 26.10.2020
6314 Rain 17 1023 87 8000 5.1 240 10:42 26.10.2020
6315 Rain 16 1023 87 8000 5.1 240 10:22 26.10.2020
6316 Clouds 16 1023 82 10000 5.1 200 09:43 26.10.2020
6317 Clouds 15 1023 82 10000 5.1 200 09:23 26.10.2020
6318 Clear 13 1022 82 10000 4.1 180 08:29 26.10.2020
6319 Clear 13 1022 76 10000 4.1 200 07:53 26.10.2020
6320 Clear 13 1022 76 10000 4.1 200 07:35 26.10.2020
6321 Clear 10 1022 100 10000 2.6 180 06:38 26.10.2020
6322 Clear 14 1022 100 10000 2.1 190 04:44 26.10.2020
6323 Clear 14 1022 100 10000 2.1 180 04:18 26.10.2020
6324 Clear 14 1023 100 10000 1.5 180 01:52 26.10.2020
6325 Clear 15 1024 100 10000 1.5 180 01:23 26.10.2020
6326 Clear 15 1024 100 10000 2.1 170 00:32 26.10.2020
6327 Clear 15 1024 100 10000 2.6 160 23:41 25.10.2020
6328 Clear 15 1024 100 10000 2.6 160 23:21 25.10.2020
6329 Clear 15 1024 100 10000 0.5 0 22:41 25.10.2020
6330 Clear 15 1024 100 10000 0.5 0 22:21 25.10.2020
6331 Clear 16 1024 93 10000 1 0 21:45 25.10.2020
6332 Clouds 17 1023 68 10000 2.1 20 21:26 25.10.2020
6333 Clouds 17 1023 68 10000 2.1 20 20:56 25.10.2020
6334 Clouds 17 1023 68 10000 2.1 20 20:38 25.10.2020
6335 Clouds 17 1023 68 10000 2.1 20 20:19 25.10.2020
6336 Clouds 17 1023 68 10000 2.1 20 19:48 25.10.2020
6337 Clouds 18 1023 68 10000 2.1 20 19:24 25.10.2020
6338 Clouds 19 1023 63 10000 3.1 360 18:55 25.10.2020
6339 Clouds 19 1023 63 10000 3.1 360 18:37 25.10.2020
6340 Clouds 19 1023 63 10000 3.1 360 18:19 25.10.2020
6341 Clouds 20 1023 64 10000 4.1 320 17:39 25.10.2020
6342 Clouds 20 1023 64 10000 4.1 320 17:21 25.10.2020
6343 Clear 20 1022 64 10000 6.2 320 16:58 25.10.2020
6344 Clear 20 1022 64 10000 6.2 320 16:38 25.10.2020
6345 Clear 20 1022 64 10000 6.2 320 16:18 25.10.2020
6346 Clear 21 1023 60 10000 6.2 320 15:46 25.10.2020
6347 Clear 21 1023 60 10000 6.2 320 15:25 25.10.2020
6348 Clear 21 1023 60 10000 6.2 320 14:46 25.10.2020
6349 Clear 21 1023 60 10000 6.2 320 14:28 25.10.2020
6350 Clouds 21 1024 60 10000 5.1 320 13:43 25.10.2020
6351 Clouds 21 1024 60 10000 5.1 320 13:21 25.10.2020
6352 Clouds 20 1024 68 10000 4.1 360 12:49 25.10.2020
6353 Clouds 20 1024 68 10000 4.1 360 12:27 25.10.2020
6354 Clouds 20 1024 68 10000 4.1 360 12:27 25.10.2020
6355 Clear 20 1025 64 10000 3.1 40 11:55 25.10.2020
6356 Clear 20 1025 64 10000 3.1 40 11:37 25.10.2020
6357 Clear 20 1025 64 10000 3.1 40 11:18 25.10.2020
6358 Clear 19 1024 68 10000 3.1 80 10:44 25.10.2020
6359 Clear 18 1024 68 10000 3.1 80 10:25 25.10.2020
6360 Clear 16 1024 82 10000 3.1 180 09:48 25.10.2020
6361 Clear 16 1024 82 10000 3.1 180 09:20 25.10.2020
6362 Clear 13 1023 87 10000 3.1 180 08:51 25.10.2020
6363 Clear 13 1023 87 10000 3.1 180 08:32 25.10.2020
6364 Clear 13 1023 87 10000 1 180 07:53 25.10.2020
6365 Clear 13 1023 87 10000 1 180 07:34 25.10.2020
6366 Clear 11 1024 100 10000 1.5 90 06:51 25.10.2020
6367 Clouds 12 1024 100 9000 1.5 70 05:59 25.10.2020
6368 Clear 16 1024 100 10000 3.1 80 04:52 25.10.2020
6369 Clouds 16 1024 100 10000 2.1 50 03:53 25.10.2020
6370 Clear 17 1026 100 10000 2.6 90 02:18 25.10.2020
6371 Clear 17 1026 100 10000 2.6 60 00:49 25.10.2020
6372 Clear 17 1026 100 10000 2.6 60 00:20 25.10.2020
6373 Clouds 17 1026 100 10000 2.6 60 23:54 24.10.2020
6374 Clouds 18 1026 100 10000 2.6 50 23:26 24.10.2020
6375 Clouds 18 1026 100 10000 3.6 40 22:57 24.10.2020
6376 Clouds 18 1025 77 10000 5.1 40 22:38 24.10.2020
6377 Clouds 18 1025 77 10000 5.1 40 22:20 24.10.2020
6378 Clouds 19 1025 77 10000 5.1 40 21:42 24.10.2020
6379 Clouds 19 1025 77 10000 5.1 40 21:21 24.10.2020
6380 Clouds 19 1025 82 10000 6.7 20 20:47 24.10.2020
6381 Clouds 19 1025 82 10000 6.7 20 20:23 24.10.2020
6382 Clouds 20 1024 72 10000 7.2 20 19:55 24.10.2020
6383 Clouds 20 1024 72 10000 7.2 20 19:37 24.10.2020
6384 Clouds 20 1024 72 10000 7.2 20 19:19 24.10.2020
6385 Clear 21 1024 68 10000 8.7 20 18:43 24.10.2020
6386 Clear 21 1024 68 10000 8.7 20 18:24 24.10.2020
6387 Clear 21 1024 68 10000 9.8 20 17:39 24.10.2020
6388 Clear 21 1024 68 10000 9.8 20 17:21 24.10.2020
6389 Clear 22 1024 56 10000 7.2 40 16:45 24.10.2020
6390 Clear 22 1024 56 10000 7.2 40 16:23 24.10.2020
6391 Clouds 22 1025 56 10000 8.7 20 15:41 24.10.2020
6392 Clouds 22 1025 56 10000 8.7 20 15:20 24.10.2020
6393 Clouds 23 1026 53 10000 4.6 40 14:54 24.10.2020
6394 Clouds 23 1026 53 10000 4.6 40 14:29 24.10.2020
6395 Clouds 22 1027 53 10000 3.1 60 13:47 24.10.2020
6396 Clouds 21 1027 53 10000 3.1 60 13:29 24.10.2020
6397 Clouds 21 1027 60 10000 4.6 100 12:55 24.10.2020
6398 Clouds 21 1027 60 10000 4.6 100 12:37 24.10.2020
6399 Clouds 21 1027 60 10000 4.6 100 12:19 24.10.2020
6400 Clear 18 1027 72 8000 4.6 180 11:42 24.10.2020
6401 Clear 15 1027 87 6000 2.1 180 10:54 24.10.2020
6402 Clear 14 1027 87 6000 2.1 180 10:34 24.10.2020
6403 Clear 13 1026 93 8000 2.6 180 09:58 24.10.2020
6404 Clear 13 1026 93 8000 2.6 180 09:39 24.10.2020
6405 Clear 13 1026 93 8000 2.6 180 09:21 24.10.2020
6406 Clear 12 1026 93 10000 1 180 08:40 24.10.2020
6407 Clear 12 1026 93 10000 1 180 08:18 24.10.2020
6408 Clear 11 1027 100 10000 1.5 130 07:45 24.10.2020
6409 Clear 11 1027 100 10000 2.1 100 07:19 24.10.2020
6410 Clear 11 1026 100 10000 1.5 130 06:36 24.10.2020
6411 Clear 15 1026 100 10000 2.1 140 03:51 24.10.2020
6412 Clear 16 1027 100 10000 1.5 120 02:20 24.10.2020
6413 Clear 16 1027 100 10000 1.5 120 00:43 24.10.2020
6414 Clear 16 1027 100 10000 1 120 00:22 24.10.2020
6415 Clear 17 1027 100 10000 1 70 23:56 23.10.2020
6416 Clear 17 1027 100 10000 1.5 40 23:36 23.10.2020
6417 Clear 17 1027 100 10000 1.5 40 23:18 23.10.2020
6418 Clear 18 1027 93 10000 1.5 40 22:42 23.10.2020
6419 Clear 18 1025 77 10000 3.1 360 22:20 23.10.2020
6420 Clear 18 1025 77 10000 3.1 360 21:51 23.10.2020
6421 Clear 19 1025 77 10000 3.1 360 21:25 23.10.2020
6422 Clear 19 1025 77 10000 4.1 360 20:43 23.10.2020
6423 Clear 19 1025 77 10000 4.1 360 20:25 23.10.2020
6424 Clear 20 1024 68 10000 4.1 320 19:59 23.10.2020
6425 Clear 20 1024 68 10000 4.1 320 19:34 23.10.2020
6426 Clouds 21 1024 60 10000 5.1 320 18:58 23.10.2020
6427 Clouds 21 1024 60 10000 5.1 320 18:39 23.10.2020
6428 Clouds 21 1024 60 10000 5.1 320 18:19 23.10.2020
6429 Clouds 22 1024 56 10000 5.1 320 17:43 23.10.2020
6430 Clouds 22 1024 56 10000 5.1 320 17:21 23.10.2020
6431 Clouds 22 1024 56 10000 7.2 340 16:46 23.10.2020
6432 Clouds 22 1024 56 10000 7.2 340 16:26 23.10.2020
6433 Clouds 22 1024 56 10000 6.2 320 15:47 23.10.2020
6434 Clouds 22 1024 56 10000 6.2 320 15:25 23.10.2020
6435 Clouds 23 1024 49 10000 1 20 14:57 23.10.2020
6436 Clouds 22 1024 49 10000 1 20 14:39 23.10.2020
6437 Clouds 22 1024 49 10000 1 20 14:20 23.10.2020
6438 Clouds 21 1025 56 10000 2.1 120 13:38 23.10.2020
6439 Clouds 21 1025 56 10000 2.1 120 13:20 23.10.2020
6440 Clouds 20 1025 68 10000 3.1 220 12:47 23.10.2020
6441 Clouds 20 1025 68 10000 3.1 220 12:27 23.10.2020
6442 Clear 18 1025 77 10000 3.1 200 11:47 23.10.2020
6443 Clear 18 1025 77 10000 3.1 200 11:22 23.10.2020
6444 Clear 15 1024 87 8000 5.1 200 10:46 23.10.2020
6445 Clear 14 1024 87 8000 5.1 200 10:25 23.10.2020
6446 Clear 13 1023 93 8000 4.1 200 09:46 23.10.2020
6447 Clear 13 1023 93 8000 4.1 200 09:27 23.10.2020
6448 Clear 14 1023 87 8000 2.1 200 08:53 23.10.2020
6449 Mist 13 1023 100 3000 2.1 160 08:33 23.10.2020
6450 Clouds 12 1023 100 10000 1.5 150 07:46 23.10.2020
6451 Clear 12 1023 100 10000 1.5 170 07:22 23.10.2020
6452 Clear 15 1022 100 10000 2.1 190 06:20 23.10.2020
6453 Clear 15 1022 100 10000 2.1 200 05:44 23.10.2020
6454 Clouds 15 1022 100 10000 3.1 210 02:33 23.10.2020
6455 Clouds 16 1022 100 8000 3.1 190 01:52 23.10.2020
6456 Clear 16 1022 100 10000 2.6 200 00:48 23.10.2020
6457 Clouds 16 1021 100 10000 3.1 210 23:48 22.10.2020
6458 Clouds 17 1021 100 10000 2.1 240 23:30 22.10.2020
6459 Clouds 17 1020 100 10000 1.5 230 22:50 22.10.2020
6460 Clear 17 1019 88 10000 4.1 280 22:28 22.10.2020
6461 Clear 17 1019 88 10000 4.1 280 21:59 22.10.2020
6462 Clear 18 1019 88 10000 4.1 280 21:41 22.10.2020
6463 Clear 18 1019 88 10000 4.1 280 21:23 22.10.2020
6464 Clouds 18 1018 77 10000 5.1 280 20:45 22.10.2020
6465 Clouds 19 1018 77 10000 5.1 280 20:26 22.10.2020
6466 Clouds 20 1017 68 10000 4.1 300 19:59 22.10.2020
6467 Clouds 20 1017 68 10000 4.1 300 19:40 22.10.2020
6468 Clouds 20 1017 68 10000 4.1 300 19:18 22.10.2020
6469 Clouds 20 1016 77 10000 3.1 220 18:42 22.10.2020
6470 Clouds 20 1016 77 10000 3.1 220 18:20 22.10.2020
6471 Clouds 19 1016 77 10000 4.6 200 17:45 22.10.2020
6472 Clouds 18 1016 77 10000 4.6 200 17:22 22.10.2020
6473 Rain 19 1016 77 10000 2.1 220 16:47 22.10.2020
6474 Rain 20 1016 77 10000 2.1 220 16:26 22.10.2020
6475 Clouds 22 1015 64 10000 3.6 280 15:57 22.10.2020
6476 Clouds 22 1015 64 10000 3.6 280 15:38 22.10.2020
6477 Clouds 22 1015 64 10000 3.6 280 15:19 22.10.2020
6478 Clouds 22 1015 64 10000 6.2 240 14:45 22.10.2020
6479 Clouds 22 1015 64 10000 6.2 240 14:24 22.10.2020
6480 Clouds 20 1016 72 10000 5.1 200 13:45 22.10.2020
6481 Clouds 20 1016 72 10000 5.1 200 13:23 22.10.2020
6482 Clouds 19 1016 77 10000 4.6 200 12:47 22.10.2020
6483 Clouds 19 1016 77 10000 4.6 200 12:23 22.10.2020
6484 Clouds 18 1015 82 10000 4.1 200 11:48 22.10.2020
6485 Clouds 18 1015 82 10000 4.1 200 11:20 22.10.2020
6486 Clouds 17 1014 88 10000 3.6 200 10:49 22.10.2020
6487 Clouds 17 1014 88 10000 3.6 200 10:27 22.10.2020
6488 Rain 17 1014 88 6000 4.1 200 09:46 22.10.2020
6489 Rain 17 1014 88 6000 4.1 200 09:28 22.10.2020
6490 Clouds 17 1013 88 10000 4.1 180 08:49 22.10.2020
6491 Clouds 17 1013 88 10000 4.1 180 08:28 22.10.2020
6492 Clouds 17 1013 100 8000 3.6 260 07:57 22.10.2020
6493 Clouds 17 1013 100 8000 3.6 260 07:57 22.10.2020
6494 Rain 18 1014 100 4000 5.1 250 07:34 22.10.2020
6495 Clouds 17 1013 100 8000 3.1 230 06:58 22.10.2020
6496 Rain 18 1013 100 8000 3.6 210 06:26 22.10.2020
6497 Clouds 18 1013 93 10000 3.6 220 05:40 22.10.2020
6498 Clouds 18 1014 93 10000 3.6 200 03:46 22.10.2020
6499 Clouds 18 1014 93 10000 3.1 210 01:43 22.10.2020
6500 Clouds 19 1014 88 10000 3.1 200 00:25 22.10.2020
6501 Clouds 19 1014 88 10000 2.6 220 23:47 21.10.2020
6502 Clouds 19 1014 82 10000 1.5 260 23:28 21.10.2020
6503 Clouds 20 1014 77 10000 3.1 250 22:40 21.10.2020
6504 Rain 20 1012 82 8000 5.1 300 22:19 21.10.2020
6505 Rain 20 1012 82 8000 5.1 300 21:56 21.10.2020
6506 Rain 20 1012 82 8000 5.1 300 21:37 21.10.2020
6507 Rain 20 1012 82 8000 5.1 300 21:18 21.10.2020
6508 Rain 21 1012 73 8000 4.1 280 20:45 21.10.2020
6509 Rain 21 1012 73 8000 4.1 280 20:18 21.10.2020
6510 Clouds 22 1012 73 10000 4.1 280 19:43 21.10.2020
6511 Clouds 22 1012 73 10000 4.1 280 19:25 21.10.2020
6512 Clouds 23 1012 68 10000 3.1 280 18:54 21.10.2020
6513 Clouds 23 1012 68 10000 3.1 280 18:32 21.10.2020
6514 Clouds 23 1012 64 10000 4.1 320 17:54 21.10.2020
6515 Clouds 23 1012 64 10000 4.1 320 17:36 21.10.2020
6516 Clouds 23 1012 64 10000 4.1 320 17:18 21.10.2020
6517 Clouds 23 1012 60 10000 5.1 220 16:40 21.10.2020
6518 Clouds 23 1012 60 10000 5.1 220 16:20 21.10.2020
6519 Clouds 23 1012 60 10000 4.1 220 15:48 21.10.2020
6520 Clouds 23 1012 60 10000 4.1 220 15:28 21.10.2020
6521 Clouds 23 1013 60 10000 4.1 200 14:57 21.10.2020
6522 Clouds 23 1013 60 10000 4.1 200 14:38 21.10.2020
6523 Clouds 23 1013 60 10000 4.1 200 14:19 21.10.2020
6524 Clouds 22 1013 64 10000 5.1 200 13:42 21.10.2020
6525 Clouds 22 1013 64 10000 5.1 200 13:21 21.10.2020
6526 Clouds 22 1019 64 10000 4.1 200 12:41 21.10.2020
6527 Clouds 22 1019 64 10000 4.1 200 12:21 21.10.2020
6528 Clouds 21 1013 73 8000 4.1 200 11:47 21.10.2020
6529 Clouds 21 1013 73 8000 4.1 200 11:21 21.10.2020
6530 Clouds 21 1013 77 10000 6.2 200 10:58 21.10.2020
6531 Clouds 20 1013 77 10000 6.2 200 10:40 21.10.2020
6532 Clouds 20 1013 77 10000 6.2 200 10:20 21.10.2020
6533 Clouds 20 1013 82 10000 4.1 200 09:42 21.10.2020
6534 Clouds 19 1012 82 10000 5.1 200 09:18 21.10.2020
6535 Clouds 20 1012 82 10000 5.1 200 08:40 21.10.2020
6536 Clouds 20 1012 82 10000 5.1 200 08:22 21.10.2020
6537 Clouds 19 1013 100 10000 4.1 210 07:49 21.10.2020
6538 Clouds 19 1013 100 10000 5.1 210 06:59 21.10.2020
6539 Clouds 19 1013 100 10000 5.1 200 06:34 21.10.2020
6540 Clouds 19 1013 100 10000 5.1 220 05:59 21.10.2020
6541 Clouds 19 1013 100 10000 8.2 260 03:35 21.10.2020
6542 Clouds 20 1013 100 10000 9.3 240 00:26 21.10.2020
6543 Rain 23 1013 100 4000 11.3 250 23:31 20.10.2020
6544 Dust 24 1011 69 3500 15.9 250 22:41 20.10.2020
6545 Dust 25 1009 47 800 13.9 240 22:23 20.10.2020
6546 Dust 26 1009 47 800 13.9 240 21:47 20.10.2020
6547 Dust 26 1009 47 800 13.9 240 21:19 20.10.2020
6548 Dust 26 1008 44 800 11.8 260 20:43 20.10.2020
6549 Dust 26 1008 44 800 11.8 260 20:24 20.10.2020
6550 Dust 25 1008 53 800 10.8 260 19:46 20.10.2020
6551 Dust 25 1008 53 800 10.8 260 19:22 20.10.2020
6552 Dust 26 1008 50 800 11.8 260 18:59 20.10.2020
6553 Dust 26 1008 50 800 11.8 260 18:59 20.10.2020
6554 Dust 26 1008 50 800 11.8 260 18:38 20.10.2020
6555 Clouds 28 1008 42 800 17 280 17:57 20.10.2020
6556 Dust 29 1008 30 2000 10.8 260 17:37 20.10.2020
6557 Clouds 31 1009 17 10000 7.2 260 17:18 20.10.2020
6558 Clouds 32 1009 17 10000 7.2 260 16:41 20.10.2020
6559 Clouds 32 1009 17 10000 7.2 260 16:23 20.10.2020
6560 Clouds 33 1009 18 10000 8.2 260 15:47 20.10.2020
6561 Clouds 33 1009 18 10000 8.2 260 15:28 20.10.2020
6562 Clouds 32 1009 18 10000 6.2 240 14:46 20.10.2020
6563 Clouds 32 1009 18 10000 6.2 240 14:25 20.10.2020
6564 Clouds 31 1010 22 10000 3.1 200 13:59 20.10.2020
6565 Clouds 30 1010 22 10000 3.1 200 13:40 20.10.2020
6566 Clouds 30 1010 22 10000 3.1 200 13:20 20.10.2020
6567 Clouds 28 1011 28 10000 3.1 200 12:50 20.10.2020
6568 Clouds 28 1011 28 10000 3.1 200 12:30 20.10.2020
6569 Clouds 23 1012 49 10000 3.1 180 11:47 20.10.2020
6570 Clouds 23 1012 49 10000 3.1 180 11:28 20.10.2020
6571 Clouds 20 1012 49 10000 4.1 180 10:46 20.10.2020
6572 Clouds 20 1012 49 10000 4.1 180 10:25 20.10.2020
6573 Clouds 16 1013 58 10000 2.1 180 09:46 20.10.2020
6574 Clouds 16 1013 58 10000 2.1 180 09:20 20.10.2020
6575 Clouds 17 1013 67 10000 1.5 160 08:40 20.10.2020
6576 Clouds 17 1013 67 10000 1.5 160 08:22 20.10.2020
6577 Clouds 17 1013 59 10000 1.5 170 07:44 20.10.2020
6578 Clouds 17 1013 59 10000 1.5 170 07:22 20.10.2020
6579 Clouds 17 1013 55 10000 2.1 160 06:20 20.10.2020
6580 Clouds 19 1015 51 10000 2.6 160 04:55 20.10.2020
6581 Clouds 19 1016 59 10000 3.1 210 02:31 20.10.2020
6582 Clouds 19 1016 63 10000 1.5 80 01:30 20.10.2020
6583 Clouds 20 1016 60 10000 2.1 350 00:52 20.10.2020
6584 Clouds 20 1016 40 10000 2.1 230 00:29 20.10.2020
6585 Clouds 21 1016 37 10000 2.6 220 23:54 19.10.2020
6586 Clouds 20 1016 56 10000 1.5 160 23:27 19.10.2020
6587 Clouds 20 1016 60 10000 2.6 100 22:56 19.10.2020
6588 Clouds 21 1015 56 10000 2.1 320 22:28 19.10.2020
6589 Clouds 21 1015 56 10000 2.1 320 21:58 19.10.2020
6590 Clouds 21 1015 56 10000 2.1 320 21:39 19.10.2020
6591 Clouds 21 1015 56 10000 2.1 320 21:19 19.10.2020
6592 Clouds 22 1015 56 10000 5.1 260 20:43 19.10.2020
6593 Clouds 22 1015 56 10000 5.1 260 20:25 19.10.2020
6594 Clouds 23 1015 56 10000 7.2 280 19:46 19.10.2020
6595 Clouds 23 1015 56 10000 7.2 280 19:20 19.10.2020
6596 Clouds 23 1015 60 10000 5.1 280 18:50 19.10.2020
6597 Clouds 24 1015 60 10000 5.1 280 18:31 19.10.2020
6598 Clouds 24 1015 56 10000 5.1 280 17:49 19.10.2020
6599 Clouds 24 1015 56 10000 5.1 280 17:28 19.10.2020
6600 Clouds 23 1015 68 10000 5.1 280 16:54 19.10.2020
6601 Clouds 23 1015 68 10000 5.1 280 16:30 19.10.2020
6602 Clouds 27 1016 64 10000 5.1 300 15:57 19.10.2020
6603 Clouds 24 1015 49 10000 4.26 295 15:36 19.10.2020
6604 Clouds 25 1015 43 10000 3.68 293 15:18 19.10.2020
6605 Clouds 25 1015 43 10000 3.68 293 14:43 19.10.2020
6606 Clouds 25 1016 39 10000 3.27 282 14:23 19.10.2020
6607 Clouds 25 1016 41 10000 3.44 280 13:46 19.10.2020
6608 Clouds 24 1016 40 10000 2.77 262 13:28 19.10.2020
6609 Clouds 24 1016 40 10000 2.77 262 12:46 19.10.2020
6610 Clouds 21 1016 100 10000 2.68 288 12:26 19.10.2020
6611 Clouds 23 1016 42 10000 2.9 240 11:51 19.10.2020
6612 Clear 19 1016 55 10000 3.1 180 11:24 19.10.2020
6613 Clear 19 1016 55 10000 3.1 180 10:46 19.10.2020
6614 Clear 19 1016 55 10000 3.1 180 10:28 19.10.2020
6615 Clear 16 1016 59 10000 3.1 200 09:58 19.10.2020
6616 Clear 16 1016 59 10000 3.1 200 09:39 19.10.2020
6617 Clear 16 1016 59 10000 3.1 200 09:18 19.10.2020
6618 Clear 16 1016 59 10000 3.1 200 09:18 19.10.2020
6619 Clear 16 1015 63 10000 2.1 180 08:44 19.10.2020
6620 Clouds 16 1015 67 10000 2.1 200 08:21 19.10.2020
6621 Clouds 16 1015 72 10000 2.1 190 07:21 19.10.2020
6622 Clouds 16 1015 67 10000 2.1 170 06:45 19.10.2020
6623 Clouds 17 1015 67 10000 2.6 230 05:36 19.10.2020
6624 Clouds 18 1016 67 10000 2.1 230 03:46 19.10.2020
6625 Clouds 18 1016 77 10000 2.6 140 01:43 19.10.2020
6626 Clouds 18 1016 77 10000 1.5 190 00:43 19.10.2020
6627 Clouds 19 1016 68 10000 1 150 23:59 18.10.2020
6628 Clouds 19 1017 72 10000 2.1 240 23:40 18.10.2020
6629 Clouds 19 1017 72 10000 2.1 240 23:20 18.10.2020
6630 Clouds 19 1017 72 10000 1.5 290 22:44 18.10.2020
6631 Clouds 20 1015 72 10000 1 360 22:19 18.10.2020
6632 Clouds 20 1015 72 10000 1 360 21:43 18.10.2020
6633 Clouds 20 1015 72 10000 1 360 21:23 18.10.2020
6634 Clouds 20 1015 72 10000 2.6 21 20:46 18.10.2020
6635 Clouds 20 1015 72 10000 2.6 21 20:24 18.10.2020
6636 Clouds 21 1014 68 10000 4.6 40 19:50 18.10.2020
6637 Clouds 21 1014 68 10000 4.6 40 19:27 18.10.2020
6638 Clouds 22 1001 64 10000 6.2 360 18:55 18.10.2020
6639 Clouds 22 1001 64 10000 6.2 360 18:36 18.10.2020
6640 Clouds 22 1001 64 10000 6.2 360 18:18 18.10.2020
6641 Clouds 23 1014 56 10000 4.1 40 17:41 18.10.2020
6642 Clouds 23 1014 56 10000 4.1 40 17:22 18.10.2020
6643 Clouds 25 1014 53 10000 5.1 40 16:43 18.10.2020
6644 Clouds 25 1014 53 10000 5.1 40 16:24 18.10.2020
6645 Clouds 24 1014 53 10000 5.1 20 15:43 18.10.2020
6646 Clouds 24 1014 53 10000 5.1 20 15:22 18.10.2020
6647 Clouds 26 1015 50 10000 4.1 20 14:58 18.10.2020
6648 Clouds 25 1015 50 10000 4.1 20 14:37 18.10.2020
6649 Clouds 25 1015 50 10000 4.1 20 14:18 18.10.2020
6650 Clouds 23 1015 49 10000 3.1 80 13:41 18.10.2020
6651 Clouds 23 1015 49 10000 3.1 80 13:23 18.10.2020
6652 Clouds 22 1016 53 10000 3.6 80 12:43 18.10.2020
6653 Clear 22 1016 53 10000 3.6 80 12:24 18.10.2020
6654 Clear 18 1016 59 10000 3.1 100 11:47 18.10.2020
6655 Clear 18 1016 59 10000 3.1 100 11:29 18.10.2020
6656 Clear 17 1016 67 10000 2.6 100 10:59 18.10.2020
6657 Clear 16 1016 67 10000 2.6 100 10:39 18.10.2020
6658 Clear 16 1016 67 10000 2.6 100 10:18 18.10.2020
6659 Clear 14 1015 77 10000 4.1 100 09:44 18.10.2020
6660 Clear 14 1015 77 10000 4.1 100 09:20 18.10.2020
6661 Clear 15 1015 77 10000 6.2 120 08:52 18.10.2020
6662 Clear 15 1015 77 10000 6.2 120 08:26 18.10.2020
6663 Clear 13 1016 100 10000 3.1 80 07:51 18.10.2020
6664 Clear 15 1016 93 10000 4.6 60 05:57 18.10.2020
6665 Clear 15 1017 93 10000 3.6 60 03:46 18.10.